<?xml version='1.0' encoding='UTF-8'?><gpx version="1.1" creator="JPX - https://github.com/jenetics/jpx" xmlns="http://www.topografix.com/GPX/1/1"><trk><trkseg><trkpt lat="44.629565" lon="10.4153583"><ele>145.0</ele><time>2026-05-02T06:59:18.559Z</time></trkpt><trkpt lat="44.6295183" lon="10.4154417"><ele>145.0</ele><time>2026-05-02T06:59:21.567Z</time></trkpt><trkpt lat="44.629455" lon="10.4155017"><ele>145.0</ele><time>2026-05-02T06:59:24.571Z</time></trkpt><trkpt lat="44.6293833" lon="10.415575"><ele>145.0</ele><time>2026-05-02T06:59:27.565Z</time></trkpt><trkpt lat="44.629317" lon="10.4156562"><ele>145.0</ele><time>2026-05-02T06:59:30.568Z</time></trkpt><trkpt lat="44.6292673" lon="10.4157496"><ele>145.0</ele><time>2026-05-02T06:59:34.537Z</time></trkpt><trkpt lat="44.6292616" lon="10.4158557"><ele>145.5</ele><time>2026-05-02T06:59:38.482Z</time></trkpt><trkpt lat="44.6292571" lon="10.415954"><ele>146.0</ele><time>2026-05-02T06:59:44.617Z</time></trkpt><trkpt lat="44.6292937" lon="10.4160587"><ele>146.5</ele><time>2026-05-02T06:59:49.57Z</time></trkpt><trkpt lat="44.6293376" lon="10.4161524"><ele>147.0</ele><time>2026-05-02T06:59:53.614Z</time></trkpt><trkpt lat="44.6293559" lon="10.4162618"><ele>147.5</ele><time>2026-05-02T06:59:57.519Z</time></trkpt><trkpt lat="44.6293379" lon="10.4163654"><ele>148.0</ele><time>2026-05-02T07:00:00.516Z</time></trkpt><trkpt lat="44.6293139" lon="10.4164842"><ele>148.66666666666669</ele><time>2026-05-02T07:00:03.564Z</time></trkpt><trkpt lat="44.6292888" lon="10.4166036"><ele>149.33333333333334</ele><time>2026-05-02T07:00:06.565Z</time></trkpt><trkpt lat="44.6292558" lon="10.4167206"><ele>150.0</ele><time>2026-05-02T07:00:09.571Z</time></trkpt><trkpt lat="44.6292285" lon="10.4168062"><ele>150.66666666666666</ele><time>2026-05-02T07:00:11.583Z</time></trkpt><trkpt lat="44.6291951" lon="10.4169051"><ele>151.33333333333331</ele><time>2026-05-02T07:00:14.602Z</time></trkpt><trkpt lat="44.6291593" lon="10.4170115"><ele>152.0</ele><time>2026-05-02T07:00:17.621Z</time></trkpt><trkpt lat="44.629118" lon="10.417126"><ele>152.16666666666666</ele><time>2026-05-02T07:00:20.564Z</time></trkpt><trkpt lat="44.6290815" lon="10.4172355"><ele>152.33333333333331</ele><time>2026-05-02T07:00:23.565Z</time></trkpt><trkpt lat="44.6290426" lon="10.4173369"><ele>152.5</ele><time>2026-05-02T07:00:26.576Z</time></trkpt><trkpt lat="44.6290123" lon="10.417436"><ele>152.66666666666666</ele><time>2026-05-02T07:00:29.594Z</time></trkpt><trkpt lat="44.6289865" lon="10.4175307"><ele>152.83333333333334</ele><time>2026-05-02T07:00:32.613Z</time></trkpt><trkpt lat="44.6289558" lon="10.4176432"><ele>153.0</ele><time>2026-05-02T07:00:35.564Z</time></trkpt><trkpt lat="44.6289269" lon="10.4177553"><ele>153.0</ele><time>2026-05-02T07:00:38.564Z</time></trkpt><trkpt lat="44.6288978" lon="10.4178657"><ele>153.0</ele><time>2026-05-02T07:00:41.56Z</time></trkpt><trkpt lat="44.6288648" lon="10.4179732"><ele>153.0</ele><time>2026-05-02T07:00:44.587Z</time></trkpt><trkpt lat="44.6288364" lon="10.4180698"><ele>153.0</ele><time>2026-05-02T07:00:47.606Z</time></trkpt><trkpt lat="44.6288097" lon="10.4181674"><ele>153.0</ele><time>2026-05-02T07:00:50.595Z</time></trkpt><trkpt lat="44.6287796" lon="10.4182677"><ele>153.0</ele><time>2026-05-02T07:00:53.561Z</time></trkpt><trkpt lat="44.6287532" lon="10.41836"><ele>153.16666666666666</ele><time>2026-05-02T07:00:56.521Z</time></trkpt><trkpt lat="44.6287188" lon="10.4184554"><ele>153.33333333333334</ele><time>2026-05-02T07:00:59.58Z</time></trkpt><trkpt lat="44.6286762" lon="10.4185526"><ele>153.5</ele><time>2026-05-02T07:01:02.597Z</time></trkpt><trkpt lat="44.628635" lon="10.4186518"><ele>153.66666666666669</ele><time>2026-05-02T07:01:05.616Z</time></trkpt><trkpt lat="44.6285966" lon="10.4187545"><ele>153.83333333333334</ele><time>2026-05-02T07:01:08.557Z</time></trkpt><trkpt lat="44.6285547" lon="10.4188582"><ele>154.0</ele><time>2026-05-02T07:01:11.635Z</time></trkpt><trkpt lat="44.6285221" lon="10.41898"><ele>154.0</ele><time>2026-05-02T07:01:14.571Z</time></trkpt><trkpt lat="44.6284907" lon="10.4190887"><ele>154.0</ele><time>2026-05-02T07:01:17.589Z</time></trkpt><trkpt lat="44.6284514" lon="10.4191977"><ele>154.0</ele><time>2026-05-02T07:01:20.602Z</time></trkpt><trkpt lat="44.6284148" lon="10.4193118"><ele>154.0</ele><time>2026-05-02T07:01:23.626Z</time></trkpt><trkpt lat="44.628379" lon="10.4194128"><ele>154.0</ele><time>2026-05-02T07:01:26.565Z</time></trkpt><trkpt lat="44.6283214" lon="10.4195222"><ele>154.0</ele><time>2026-05-02T07:01:29.554Z</time></trkpt><trkpt lat="44.6282712" lon="10.4196225"><ele>154.0</ele><time>2026-05-02T07:01:32.634Z</time></trkpt><trkpt lat="44.6282289" lon="10.4197248"><ele>154.0</ele><time>2026-05-02T07:01:35.6Z</time></trkpt><trkpt lat="44.6281925" lon="10.419831"><ele>154.0</ele><time>2026-05-02T07:01:38.62Z</time></trkpt><trkpt lat="44.6281511" lon="10.4199441"><ele>154.0</ele><time>2026-05-02T07:01:41.565Z</time></trkpt><trkpt lat="44.6281073" lon="10.4200272"><ele>154.0</ele><time>2026-05-02T07:01:43.565Z</time></trkpt><trkpt lat="44.6280741" lon="10.4201174"><ele>154.0</ele><time>2026-05-02T07:01:45.582Z</time></trkpt><trkpt lat="44.6280348" lon="10.4202049"><ele>154.0</ele><time>2026-05-02T07:01:47.637Z</time></trkpt><trkpt lat="44.6279894" lon="10.4202764"><ele>154.0</ele><time>2026-05-02T07:01:49.587Z</time></trkpt><trkpt lat="44.6279397" lon="10.420376"><ele>154.0</ele><time>2026-05-02T07:01:52.604Z</time></trkpt><trkpt lat="44.627848" lon="10.4204297"><ele>154.0</ele><time>2026-05-02T07:01:54.617Z</time></trkpt><trkpt lat="44.6277633" lon="10.4205253"><ele>154.0</ele><time>2026-05-02T07:01:56.564Z</time></trkpt><trkpt lat="44.6277135" lon="10.4205974"><ele>154.0</ele><time>2026-05-02T07:01:58.583Z</time></trkpt><trkpt lat="44.6276598" lon="10.4206819"><ele>154.66666666666669</ele><time>2026-05-02T07:02:00.637Z</time></trkpt><trkpt lat="44.6276307" lon="10.4207805"><ele>155.33333333333334</ele><time>2026-05-02T07:02:02.566Z</time></trkpt><trkpt lat="44.62759" lon="10.4208873"><ele>156.0</ele><time>2026-05-02T07:02:04.578Z</time></trkpt><trkpt lat="44.6275235" lon="10.4209816"><ele>156.66666666666666</ele><time>2026-05-02T07:02:06.59Z</time></trkpt><trkpt lat="44.6274634" lon="10.421093"><ele>157.33333333333331</ele><time>2026-05-02T07:02:08.603Z</time></trkpt><trkpt lat="44.6274195" lon="10.421202"><ele>158.0</ele><time>2026-05-02T07:02:10.576Z</time></trkpt><trkpt lat="44.6273906" lon="10.4213053"><ele>159.16666666666666</ele><time>2026-05-02T07:02:12.628Z</time></trkpt><trkpt lat="44.6273558" lon="10.4214141"><ele>160.33333333333331</ele><time>2026-05-02T07:02:15.565Z</time></trkpt><trkpt lat="44.627322" lon="10.4214984"><ele>161.5</ele><time>2026-05-02T07:02:18.556Z</time></trkpt><trkpt lat="44.6272851" lon="10.421596"><ele>162.66666666666666</ele><time>2026-05-02T07:02:21.583Z</time></trkpt><trkpt lat="44.627226" lon="10.4216827"><ele>163.83333333333334</ele><time>2026-05-02T07:02:24.601Z</time></trkpt><trkpt lat="44.6271561" lon="10.4217611"><ele>165.0</ele><time>2026-05-02T07:02:27.562Z</time></trkpt><trkpt lat="44.6271053" lon="10.4218134"><ele>165.0</ele><time>2026-05-02T07:02:29.632Z</time></trkpt><trkpt lat="44.6270386" lon="10.4218896"><ele>165.0</ele><time>2026-05-02T07:02:32.565Z</time></trkpt><trkpt lat="44.6269837" lon="10.4219746"><ele>165.0</ele><time>2026-05-02T07:02:35.561Z</time></trkpt><trkpt lat="44.6269428" lon="10.4220742"><ele>165.0</ele><time>2026-05-02T07:02:38.641Z</time></trkpt><trkpt lat="44.6268664" lon="10.4220731"><ele>165.0</ele><time>2026-05-02T07:02:39.593Z</time></trkpt><trkpt lat="44.6267955" lon="10.42205"><ele>165.0</ele><time>2026-05-02T07:02:41.606Z</time></trkpt><trkpt lat="44.626863" lon="10.4220915"><ele>165.5</ele><time>2026-05-02T07:02:45.565Z</time></trkpt><trkpt lat="44.6269121" lon="10.4221505"><ele>166.0</ele><time>2026-05-02T07:02:47.554Z</time></trkpt><trkpt lat="44.626985" lon="10.4222312"><ele>166.5</ele><time>2026-05-02T07:02:50.565Z</time></trkpt><trkpt lat="44.6270492" lon="10.4222974"><ele>167.0</ele><time>2026-05-02T07:02:53.58Z</time></trkpt><trkpt lat="44.6271189" lon="10.4223352"><ele>167.5</ele><time>2026-05-02T07:02:56.598Z</time></trkpt><trkpt lat="44.6271999" lon="10.4223495"><ele>168.0</ele><time>2026-05-02T07:02:59.561Z</time></trkpt><trkpt lat="44.627284" lon="10.4223764"><ele>168.0</ele><time>2026-05-02T07:03:02.577Z</time></trkpt><trkpt lat="44.6273761" lon="10.4224013"><ele>168.0</ele><time>2026-05-02T07:03:05.564Z</time></trkpt><trkpt lat="44.6274418" lon="10.4223965"><ele>168.0</ele><time>2026-05-02T07:03:07.617Z</time></trkpt><trkpt lat="44.6275276" lon="10.4224033"><ele>168.0</ele><time>2026-05-02T07:03:10.584Z</time></trkpt><trkpt lat="44.627589" lon="10.4224359"><ele>168.0</ele><time>2026-05-02T07:03:12.597Z</time></trkpt><trkpt lat="44.6276483" lon="10.4224679"><ele>168.0</ele><time>2026-05-02T07:03:14.61Z</time></trkpt><trkpt lat="44.6277166" lon="10.4224913"><ele>168.0</ele><time>2026-05-02T07:03:16.564Z</time></trkpt><trkpt lat="44.6277843" lon="10.4225139"><ele>167.83333333333334</ele><time>2026-05-02T07:03:18.535Z</time></trkpt><trkpt lat="44.6278471" lon="10.4225328"><ele>167.66666666666666</ele><time>2026-05-02T07:03:20.566Z</time></trkpt><trkpt lat="44.6279091" lon="10.4225489"><ele>167.5</ele><time>2026-05-02T07:03:22.563Z</time></trkpt><trkpt lat="44.6280009" lon="10.4225746"><ele>167.33333333333331</ele><time>2026-05-02T07:03:25.576Z</time></trkpt><trkpt lat="44.6280865" lon="10.4225972"><ele>167.16666666666666</ele><time>2026-05-02T07:03:28.595Z</time></trkpt><trkpt lat="44.6281623" lon="10.4226131"><ele>167.0</ele><time>2026-05-02T07:03:31.613Z</time></trkpt><trkpt lat="44.6282296" lon="10.422631"><ele>167.0</ele><time>2026-05-02T07:03:34.484Z</time></trkpt><trkpt lat="44.6283047" lon="10.4226699"><ele>167.0</ele><time>2026-05-02T07:03:37.566Z</time></trkpt><trkpt lat="44.6283903" lon="10.422699"><ele>167.0</ele><time>2026-05-02T07:03:40.568Z</time></trkpt><trkpt lat="44.6284695" lon="10.4227294"><ele>167.0</ele><time>2026-05-02T07:03:43.599Z</time></trkpt><trkpt lat="44.6285497" lon="10.4227689"><ele>167.0</ele><time>2026-05-02T07:03:46.605Z</time></trkpt><trkpt lat="44.628621" lon="10.4228111"><ele>167.0</ele><time>2026-05-02T07:03:49.564Z</time></trkpt><trkpt lat="44.628694" lon="10.4228536"><ele>166.66666666666666</ele><time>2026-05-02T07:03:52.563Z</time></trkpt><trkpt lat="44.6287701" lon="10.4228953"><ele>166.33333333333331</ele><time>2026-05-02T07:03:55.565Z</time></trkpt><trkpt lat="44.6288417" lon="10.4229489"><ele>166.0</ele><time>2026-05-02T07:03:58.52Z</time></trkpt><trkpt lat="44.6289143" lon="10.4229947"><ele>165.66666666666666</ele><time>2026-05-02T07:04:01.237Z</time></trkpt><trkpt lat="44.6289757" lon="10.4230505"><ele>165.33333333333334</ele><time>2026-05-02T07:04:03.61Z</time></trkpt><trkpt lat="44.6290217" lon="10.4231212"><ele>165.0</ele><time>2026-05-02T07:04:06.566Z</time></trkpt><trkpt lat="44.6289944" lon="10.4232132"><ele>165.0</ele><time>2026-05-02T07:04:09.564Z</time></trkpt><trkpt lat="44.628978" lon="10.4233035"><ele>165.0</ele><time>2026-05-02T07:04:12.568Z</time></trkpt><trkpt lat="44.6289367" lon="10.4233706"><ele>165.0</ele><time>2026-05-02T07:04:15.495Z</time></trkpt><trkpt lat="44.6290919" lon="10.4233405"><ele>165.0</ele><time>2026-05-02T07:04:17.596Z</time></trkpt><trkpt lat="44.6291282" lon="10.4234348"><ele>165.0</ele><time>2026-05-02T07:04:23.564Z</time></trkpt><trkpt lat="44.6291579" lon="10.4235343"><ele>165.0</ele><time>2026-05-02T07:04:26.565Z</time></trkpt><trkpt lat="44.6292061" lon="10.4236428"><ele>165.0</ele><time>2026-05-02T07:04:29.582Z</time></trkpt><trkpt lat="44.629015" lon="10.4237774"><ele>165.0</ele><time>2026-05-02T07:04:30.598Z</time></trkpt><trkpt lat="44.6289586" lon="10.4238693"><ele>165.0</ele><time>2026-05-02T07:04:31.582Z</time></trkpt><trkpt lat="44.6289581" lon="10.4240213"><ele>165.0</ele><time>2026-05-02T07:04:33.595Z</time></trkpt><trkpt lat="44.6289858" lon="10.4241243"><ele>165.33333333333334</ele><time>2026-05-02T07:04:35.607Z</time></trkpt><trkpt lat="44.6289972" lon="10.4242233"><ele>165.66666666666666</ele><time>2026-05-02T07:04:37.564Z</time></trkpt><trkpt lat="44.6290028" lon="10.4243198"><ele>166.0</ele><time>2026-05-02T07:04:39.482Z</time></trkpt><trkpt lat="44.6290107" lon="10.4244219"><ele>166.33333333333331</ele><time>2026-05-02T07:04:41.515Z</time></trkpt><trkpt lat="44.6290321" lon="10.4245384"><ele>166.66666666666666</ele><time>2026-05-02T07:04:43.565Z</time></trkpt><trkpt lat="44.6290578" lon="10.4246523"><ele>167.0</ele><time>2026-05-02T07:04:46.575Z</time></trkpt><trkpt lat="44.6291149" lon="10.4247372"><ele>167.16666666666666</ele><time>2026-05-02T07:04:50.599Z</time></trkpt><trkpt lat="44.6291497" lon="10.4248428"><ele>167.33333333333331</ele><time>2026-05-02T07:04:53.617Z</time></trkpt><trkpt lat="44.6291782" lon="10.4249455"><ele>167.5</ele><time>2026-05-02T07:04:56.497Z</time></trkpt><trkpt lat="44.6292051" lon="10.4250537"><ele>167.66666666666666</ele><time>2026-05-02T07:04:59.535Z</time></trkpt><trkpt lat="44.6292335" lon="10.4251364"><ele>167.83333333333334</ele><time>2026-05-02T07:05:02.574Z</time></trkpt><trkpt lat="44.6293198" lon="10.4251666"><ele>168.0</ele><time>2026-05-02T07:05:05.592Z</time></trkpt><trkpt lat="44.6293837" lon="10.4252482"><ele>168.0</ele><time>2026-05-02T07:05:08.601Z</time></trkpt><trkpt lat="44.6294215" lon="10.4253655"><ele>168.0</ele><time>2026-05-02T07:05:11.565Z</time></trkpt><trkpt lat="44.629635" lon="10.4252473"><ele>168.0</ele><time>2026-05-02T07:05:14.565Z</time></trkpt><trkpt lat="44.6297036" lon="10.4252198"><ele>168.0</ele><time>2026-05-02T07:05:15.563Z</time></trkpt><trkpt lat="44.6297591" lon="10.4252764"><ele>167.83333333333334</ele><time>2026-05-02T07:05:17.565Z</time></trkpt><trkpt lat="44.6297959" lon="10.4253652"><ele>167.66666666666666</ele><time>2026-05-02T07:05:19.577Z</time></trkpt><trkpt lat="44.6298292" lon="10.4254744"><ele>167.5</ele><time>2026-05-02T07:05:21.59Z</time></trkpt><trkpt lat="44.6298593" lon="10.4255911"><ele>167.33333333333331</ele><time>2026-05-02T07:05:23.602Z</time></trkpt><trkpt lat="44.6298866" lon="10.4256825"><ele>167.16666666666666</ele><time>2026-05-02T07:05:25.614Z</time></trkpt><trkpt lat="44.62992" lon="10.4258015"><ele>167.0</ele><time>2026-05-02T07:05:27.565Z</time></trkpt><trkpt lat="44.6299511" lon="10.4259096"><ele>166.83333333333331</ele><time>2026-05-02T07:05:29.521Z</time></trkpt><trkpt lat="44.6299867" lon="10.4260254"><ele>166.66666666666666</ele><time>2026-05-02T07:05:31.543Z</time></trkpt><trkpt lat="44.630027" lon="10.4261384"><ele>166.5</ele><time>2026-05-02T07:05:33.555Z</time></trkpt><trkpt lat="44.6300593" lon="10.426253"><ele>166.33333333333334</ele><time>2026-05-02T07:05:35.557Z</time></trkpt><trkpt lat="44.6301124" lon="10.4263856"><ele>166.16666666666669</ele><time>2026-05-02T07:05:37.6Z</time></trkpt><trkpt lat="44.6301463" lon="10.426469"><ele>166.0</ele><time>2026-05-02T07:05:39.56Z</time></trkpt><trkpt lat="44.6301732" lon="10.4265575"><ele>166.0</ele><time>2026-05-02T07:05:41.563Z</time></trkpt><trkpt lat="44.6301924" lon="10.4266548"><ele>166.0</ele><time>2026-05-02T07:05:43.558Z</time></trkpt><trkpt lat="44.6302128" lon="10.4267535"><ele>166.0</ele><time>2026-05-02T07:05:45.599Z</time></trkpt><trkpt lat="44.6302352" lon="10.4268592"><ele>166.0</ele><time>2026-05-02T07:05:47.561Z</time></trkpt><trkpt lat="44.6302533" lon="10.4269692"><ele>166.0</ele><time>2026-05-02T07:05:49.562Z</time></trkpt><trkpt lat="44.6302732" lon="10.4270841"><ele>166.0</ele><time>2026-05-02T07:05:51.574Z</time></trkpt><trkpt lat="44.6302917" lon="10.427177"><ele>165.85714285714286</ele><time>2026-05-02T07:05:53.397Z</time></trkpt><trkpt lat="44.6303157" lon="10.4272809"><ele>165.71428571428572</ele><time>2026-05-02T07:05:55.599Z</time></trkpt><trkpt lat="44.6303377" lon="10.4273768"><ele>165.57142857142858</ele><time>2026-05-02T07:05:57.611Z</time></trkpt><trkpt lat="44.6303573" lon="10.4274759"><ele>165.42857142857144</ele><time>2026-05-02T07:05:59.564Z</time></trkpt><trkpt lat="44.6303749" lon="10.4275699"><ele>165.28571428571428</ele><time>2026-05-02T07:06:01.497Z</time></trkpt><trkpt lat="44.630397" lon="10.4276702"><ele>165.14285714285717</ele><time>2026-05-02T07:06:03.564Z</time></trkpt><trkpt lat="44.6304019" lon="10.42777"><ele>165.0</ele><time>2026-05-02T07:06:06.566Z</time></trkpt><trkpt lat="44.6304067" lon="10.4278625"><ele>165.0</ele><time>2026-05-02T07:06:09.556Z</time></trkpt><trkpt lat="44.6304017" lon="10.4279691"><ele>165.0</ele><time>2026-05-02T07:06:12.597Z</time></trkpt><trkpt lat="44.6303969" lon="10.4280832"><ele>165.0</ele><time>2026-05-02T07:06:15.594Z</time></trkpt><trkpt lat="44.6303857" lon="10.4281845"><ele>165.0</ele><time>2026-05-02T07:06:17.564Z</time></trkpt><trkpt lat="44.6303973" lon="10.428298"><ele>165.0</ele><time>2026-05-02T07:06:20.615Z</time></trkpt><trkpt lat="44.6304095" lon="10.4284214"><ele>165.0</ele><time>2026-05-02T07:06:21.564Z</time></trkpt><trkpt lat="44.6304259" lon="10.4285699"><ele>164.85714285714286</ele><time>2026-05-02T07:06:23.603Z</time></trkpt><trkpt lat="44.6304825" lon="10.4286375"><ele>164.71428571428572</ele><time>2026-05-02T07:06:25.574Z</time></trkpt><trkpt lat="44.630542" lon="10.4286826"><ele>164.57142857142856</ele><time>2026-05-02T07:06:27.597Z</time></trkpt><trkpt lat="44.630597" lon="10.4287295"><ele>164.42857142857144</ele><time>2026-05-02T07:06:29.6Z</time></trkpt><trkpt lat="44.6306483" lon="10.4287851"><ele>164.28571428571428</ele><time>2026-05-02T07:06:31.602Z</time></trkpt><trkpt lat="44.6307203" lon="10.4288713"><ele>164.14285714285714</ele><time>2026-05-02T07:06:34.565Z</time></trkpt><trkpt lat="44.6307678" lon="10.4289316"><ele>164.0</ele><time>2026-05-02T07:06:36.564Z</time></trkpt><trkpt lat="44.6308443" lon="10.429002"><ele>164.0</ele><time>2026-05-02T07:06:39.57Z</time></trkpt><trkpt lat="44.6309167" lon="10.4290643"><ele>164.0</ele><time>2026-05-02T07:06:42.5Z</time></trkpt><trkpt lat="44.6309809" lon="10.4291134"><ele>164.0</ele><time>2026-05-02T07:06:44.502Z</time></trkpt><trkpt lat="44.6310559" lon="10.4291732"><ele>164.0</ele><time>2026-05-02T07:06:47.601Z</time></trkpt><trkpt lat="44.6311042" lon="10.4292326"><ele>164.0</ele><time>2026-05-02T07:06:49.565Z</time></trkpt><trkpt lat="44.6311799" lon="10.4293054"><ele>164.0</ele><time>2026-05-02T07:06:52.563Z</time></trkpt><trkpt lat="44.6312569" lon="10.4293535"><ele>164.0</ele><time>2026-05-02T07:06:55.568Z</time></trkpt><trkpt lat="44.6313298" lon="10.4293899"><ele>164.0</ele><time>2026-05-02T07:06:58.499Z</time></trkpt><trkpt lat="44.6314083" lon="10.4294304"><ele>164.0</ele><time>2026-05-02T07:07:01.537Z</time></trkpt><trkpt lat="44.631479" lon="10.4294877"><ele>164.0</ele><time>2026-05-02T07:07:04.615Z</time></trkpt><trkpt lat="44.6314888" lon="10.429576"><ele>164.0</ele><time>2026-05-02T07:07:07.565Z</time></trkpt><trkpt lat="44.631484" lon="10.4296789"><ele>164.0</ele><time>2026-05-02T07:07:10.564Z</time></trkpt><trkpt lat="44.6314615" lon="10.4297976"><ele>164.0</ele><time>2026-05-02T07:07:13.579Z</time></trkpt><trkpt lat="44.6314266" lon="10.4299136"><ele>164.0</ele><time>2026-05-02T07:07:16.598Z</time></trkpt><trkpt lat="44.6314" lon="10.4300015"><ele>164.0</ele><time>2026-05-02T07:07:18.611Z</time></trkpt><trkpt lat="44.6313771" lon="10.4301026"><ele>164.0</ele><time>2026-05-02T07:07:20.566Z</time></trkpt><trkpt lat="44.6313651" lon="10.4302276"><ele>164.0</ele><time>2026-05-02T07:07:21.565Z</time></trkpt><trkpt lat="44.6313559" lon="10.4303217"><ele>164.0</ele><time>2026-05-02T07:07:22.563Z</time></trkpt><trkpt lat="44.631335" lon="10.4304523"><ele>164.14285714285714</ele><time>2026-05-02T07:07:24.567Z</time></trkpt><trkpt lat="44.6313258" lon="10.4305636"><ele>164.28571428571428</ele><time>2026-05-02T07:07:26.566Z</time></trkpt><trkpt lat="44.6313112" lon="10.4306535"><ele>164.42857142857144</ele><time>2026-05-02T07:07:28.572Z</time></trkpt><trkpt lat="44.6312756" lon="10.4307288"><ele>164.57142857142856</ele><time>2026-05-02T07:07:30.374Z</time></trkpt><trkpt lat="44.6312417" lon="10.4308268"><ele>164.71428571428572</ele><time>2026-05-02T07:07:32.596Z</time></trkpt><trkpt lat="44.6312191" lon="10.4309104"><ele>164.85714285714286</ele><time>2026-05-02T07:07:34.61Z</time></trkpt><trkpt lat="44.6311878" lon="10.4310248"><ele>165.0</ele><time>2026-05-02T07:07:37.563Z</time></trkpt><trkpt lat="44.6311889" lon="10.4311269"><ele>165.0</ele><time>2026-05-02T07:07:40.568Z</time></trkpt><trkpt lat="44.6312" lon="10.4312274"><ele>165.0</ele><time>2026-05-02T07:07:42.565Z</time></trkpt><trkpt lat="44.6312204" lon="10.4313291"><ele>165.0</ele><time>2026-05-02T07:07:44.482Z</time></trkpt><trkpt lat="44.6312205" lon="10.431439"><ele>165.0</ele><time>2026-05-02T07:07:46.582Z</time></trkpt><trkpt lat="44.6311922" lon="10.4315618"><ele>165.0</ele><time>2026-05-02T07:07:49.602Z</time></trkpt><trkpt lat="44.6311716" lon="10.4316747"><ele>165.0</ele><time>2026-05-02T07:07:52.564Z</time></trkpt><trkpt lat="44.631156" lon="10.4317903"><ele>165.33333333333334</ele><time>2026-05-02T07:07:55.561Z</time></trkpt><trkpt lat="44.6311516" lon="10.4319051"><ele>165.66666666666666</ele><time>2026-05-02T07:07:58.518Z</time></trkpt><trkpt lat="44.6311191" lon="10.4320172"><ele>166.0</ele><time>2026-05-02T07:08:01.557Z</time></trkpt><trkpt lat="44.63108" lon="10.4321274"><ele>166.33333333333331</ele><time>2026-05-02T07:08:04.593Z</time></trkpt><trkpt lat="44.6310552" lon="10.4322385"><ele>166.66666666666666</ele><time>2026-05-02T07:08:07.613Z</time></trkpt><trkpt lat="44.6310225" lon="10.4323221"><ele>167.0</ele><time>2026-05-02T07:08:09.576Z</time></trkpt><trkpt lat="44.631" lon="10.4324254"><ele>167.16666666666666</ele><time>2026-05-02T07:08:11.599Z</time></trkpt><trkpt lat="44.6309925" lon="10.4325306"><ele>167.33333333333331</ele><time>2026-05-02T07:08:13.567Z</time></trkpt><trkpt lat="44.6309924" lon="10.4326544"><ele>167.5</ele><time>2026-05-02T07:08:16.567Z</time></trkpt><trkpt lat="44.6309772" lon="10.4327499"><ele>167.66666666666666</ele><time>2026-05-02T07:08:19.586Z</time></trkpt><trkpt lat="44.6309431" lon="10.4328596"><ele>167.83333333333334</ele><time>2026-05-02T07:08:22.605Z</time></trkpt><trkpt lat="44.6309061" lon="10.4329374"><ele>168.0</ele><time>2026-05-02T07:08:25.623Z</time></trkpt><trkpt lat="44.6308634" lon="10.4330106"><ele>168.42857142857142</ele><time>2026-05-02T07:08:28.566Z</time></trkpt><trkpt lat="44.630838" lon="10.4331063"><ele>168.85714285714286</ele><time>2026-05-02T07:08:31.567Z</time></trkpt><trkpt lat="44.6308281" lon="10.4332027"><ele>169.28571428571428</ele><time>2026-05-02T07:08:34.578Z</time></trkpt><trkpt lat="44.6308352" lon="10.4332956"><ele>169.71428571428572</ele><time>2026-05-02T07:08:37.578Z</time></trkpt><trkpt lat="44.630871" lon="10.4333889"><ele>170.14285714285714</ele><time>2026-05-02T07:08:40.615Z</time></trkpt><trkpt lat="44.6309401" lon="10.4334494"><ele>170.57142857142856</ele><time>2026-05-02T07:08:44.567Z</time></trkpt><trkpt lat="44.6309794" lon="10.4335348"><ele>171.0</ele><time>2026-05-02T07:08:48.564Z</time></trkpt><trkpt lat="44.6309842" lon="10.4336415"><ele>171.0</ele><time>2026-05-02T07:08:51.583Z</time></trkpt><trkpt lat="44.6309862" lon="10.4337335"><ele>171.0</ele><time>2026-05-02T07:08:53.596Z</time></trkpt><trkpt lat="44.6309646" lon="10.4338438"><ele>171.0</ele><time>2026-05-02T07:08:56.614Z</time></trkpt><trkpt lat="44.6310135" lon="10.4339344"><ele>171.0</ele><time>2026-05-02T07:08:59.554Z</time></trkpt><trkpt lat="44.6310743" lon="10.4340189"><ele>171.0</ele><time>2026-05-02T07:09:02.625Z</time></trkpt><trkpt lat="44.6311381" lon="10.4340974"><ele>171.0</ele><time>2026-05-02T07:09:05.569Z</time></trkpt><trkpt lat="44.6311965" lon="10.4341516"><ele>171.33333333333334</ele><time>2026-05-02T07:09:07.582Z</time></trkpt><trkpt lat="44.6312546" lon="10.4342363"><ele>171.66666666666666</ele><time>2026-05-02T07:09:10.6Z</time></trkpt><trkpt lat="44.6312919" lon="10.4343374"><ele>172.0</ele><time>2026-05-02T07:09:13.52Z</time></trkpt><trkpt lat="44.6313402" lon="10.4344277"><ele>172.33333333333331</ele><time>2026-05-02T07:09:16.578Z</time></trkpt><trkpt lat="44.6314172" lon="10.434483"><ele>172.66666666666666</ele><time>2026-05-02T07:09:19.565Z</time></trkpt><trkpt lat="44.6314389" lon="10.4345917"><ele>173.0</ele><time>2026-05-02T07:09:22.576Z</time></trkpt><trkpt lat="44.6314338" lon="10.4347142"><ele>173.16666666666666</ele><time>2026-05-02T07:09:25.593Z</time></trkpt><trkpt lat="44.6314167" lon="10.4348243"><ele>173.33333333333331</ele><time>2026-05-02T07:09:28.612Z</time></trkpt><trkpt lat="44.6314226" lon="10.434946"><ele>173.5</ele><time>2026-05-02T07:09:30.535Z</time></trkpt><trkpt lat="44.6314096" lon="10.4350648"><ele>173.66666666666666</ele><time>2026-05-02T07:09:32.565Z</time></trkpt><trkpt lat="44.6313887" lon="10.4351832"><ele>173.83333333333334</ele><time>2026-05-02T07:09:34.565Z</time></trkpt><trkpt lat="44.6313604" lon="10.4352678"><ele>174.0</ele><time>2026-05-02T07:09:36.482Z</time></trkpt><trkpt lat="44.6313127" lon="10.4353674"><ele>174.0</ele><time>2026-05-02T07:09:39.579Z</time></trkpt><trkpt lat="44.6312611" lon="10.4354481"><ele>174.0</ele><time>2026-05-02T07:09:42.598Z</time></trkpt><trkpt lat="44.6312283" lon="10.4355593"><ele>174.0</ele><time>2026-05-02T07:09:45.616Z</time></trkpt><trkpt lat="44.6312006" lon="10.4356577"><ele>174.0</ele><time>2026-05-02T07:09:48.561Z</time></trkpt><trkpt lat="44.6311962" lon="10.4357748"><ele>174.0</ele><time>2026-05-02T07:09:51.562Z</time></trkpt><trkpt lat="44.6311707" lon="10.4358729"><ele>174.0</ele><time>2026-05-02T07:09:54.572Z</time></trkpt><trkpt lat="44.6311302" lon="10.4359714"><ele>174.0</ele><time>2026-05-02T07:09:57.522Z</time></trkpt><trkpt lat="44.6310716" lon="10.4360495"><ele>174.0</ele><time>2026-05-02T07:10:00.561Z</time></trkpt><trkpt lat="44.631045" lon="10.4362256"><ele>174.0</ele><time>2026-05-02T07:10:03.579Z</time></trkpt><trkpt lat="44.631016" lon="10.4363394"><ele>174.0</ele><time>2026-05-02T07:10:05.564Z</time></trkpt><trkpt lat="44.630986" lon="10.4364383"><ele>174.0</ele><time>2026-05-02T07:10:08.565Z</time></trkpt><trkpt lat="44.6309566" lon="10.4365279"><ele>174.0</ele><time>2026-05-02T07:10:11.478Z</time></trkpt><trkpt lat="44.6309192" lon="10.4366129"><ele>174.42857142857142</ele><time>2026-05-02T07:10:14.559Z</time></trkpt><trkpt lat="44.6308897" lon="10.4367009"><ele>174.85714285714286</ele><time>2026-05-02T07:10:17.616Z</time></trkpt><trkpt lat="44.6308601" lon="10.4367818"><ele>175.28571428571428</ele><time>2026-05-02T07:10:20.567Z</time></trkpt><trkpt lat="44.6308264" lon="10.4368619"><ele>175.71428571428572</ele><time>2026-05-02T07:10:23.565Z</time></trkpt><trkpt lat="44.6307906" lon="10.4369368"><ele>176.14285714285714</ele><time>2026-05-02T07:10:26.569Z</time></trkpt><trkpt lat="44.6307517" lon="10.4370126"><ele>176.57142857142858</ele><time>2026-05-02T07:10:29.589Z</time></trkpt><trkpt lat="44.6307104" lon="10.4370923"><ele>177.0</ele><time>2026-05-02T07:10:32.617Z</time></trkpt><trkpt lat="44.6306689" lon="10.4371938"><ele>177.33333333333334</ele><time>2026-05-02T07:10:36.482Z</time></trkpt><trkpt lat="44.6306392" lon="10.4372928"><ele>177.66666666666666</ele><time>2026-05-02T07:10:39.562Z</time></trkpt><trkpt lat="44.6306127" lon="10.4373877"><ele>178.0</ele><time>2026-05-02T07:10:42.568Z</time></trkpt><trkpt lat="44.6305821" lon="10.437489"><ele>178.33333333333331</ele><time>2026-05-02T07:10:45.587Z</time></trkpt><trkpt lat="44.630554" lon="10.4375861"><ele>178.66666666666666</ele><time>2026-05-02T07:10:48.606Z</time></trkpt><trkpt lat="44.6305332" lon="10.4376824"><ele>179.0</ele><time>2026-05-02T07:10:51.57Z</time></trkpt><trkpt lat="44.6305082" lon="10.4377845"><ele>179.0</ele><time>2026-05-02T07:10:54.594Z</time></trkpt><trkpt lat="44.6304807" lon="10.4379032"><ele>179.0</ele><time>2026-05-02T07:10:57.569Z</time></trkpt><trkpt lat="44.6304643" lon="10.43799"><ele>179.0</ele><time>2026-05-02T07:10:59.475Z</time></trkpt><trkpt lat="44.6304423" lon="10.4380916"><ele>179.0</ele><time>2026-05-02T07:11:01.558Z</time></trkpt><trkpt lat="44.6304299" lon="10.4381926"><ele>179.0</ele><time>2026-05-02T07:11:03.598Z</time></trkpt><trkpt lat="44.6304261" lon="10.4382986"><ele>179.0</ele><time>2026-05-02T07:11:05.612Z</time></trkpt><trkpt lat="44.6304209" lon="10.4384077"><ele>179.33333333333331</ele><time>2026-05-02T07:11:07.623Z</time></trkpt><trkpt lat="44.630424" lon="10.4385061"><ele>179.66666666666666</ele><time>2026-05-02T07:11:09.565Z</time></trkpt><trkpt lat="44.6304305" lon="10.4386021"><ele>180.0</ele><time>2026-05-02T07:11:12.566Z</time></trkpt><trkpt lat="44.6304542" lon="10.4387251"><ele>180.33333333333334</ele><time>2026-05-02T07:11:15.554Z</time></trkpt><trkpt lat="44.6304829" lon="10.4388165"><ele>180.66666666666669</ele><time>2026-05-02T07:11:17.586Z</time></trkpt><trkpt lat="44.6305174" lon="10.4389321"><ele>181.0</ele><time>2026-05-02T07:11:20.474Z</time></trkpt><trkpt lat="44.6305561" lon="10.4390486"><ele>181.0</ele><time>2026-05-02T07:11:23.613Z</time></trkpt><trkpt lat="44.630575" lon="10.4391722"><ele>181.0</ele><time>2026-05-02T07:11:25.566Z</time></trkpt><trkpt lat="44.6305948" lon="10.4392946"><ele>181.0</ele><time>2026-05-02T07:11:27.568Z</time></trkpt><trkpt lat="44.6306255" lon="10.439383"><ele>181.0</ele><time>2026-05-02T07:11:29.581Z</time></trkpt><trkpt lat="44.6306703" lon="10.4394702"><ele>181.0</ele><time>2026-05-02T07:11:31.635Z</time></trkpt><trkpt lat="44.6307179" lon="10.4395485"><ele>181.0</ele><time>2026-05-02T07:11:33.585Z</time></trkpt><trkpt lat="44.6307688" lon="10.4396194"><ele>181.16666666666669</ele><time>2026-05-02T07:11:35.596Z</time></trkpt><trkpt lat="44.6308281" lon="10.4396907"><ele>181.33333333333334</ele><time>2026-05-02T07:11:37.56Z</time></trkpt><trkpt lat="44.6308839" lon="10.4397831"><ele>181.5</ele><time>2026-05-02T07:11:40.566Z</time></trkpt><trkpt lat="44.6309276" lon="10.4398639"><ele>181.66666666666666</ele><time>2026-05-02T07:11:42.567Z</time></trkpt><trkpt lat="44.6309724" lon="10.439957"><ele>181.83333333333331</ele><time>2026-05-02T07:11:44.568Z</time></trkpt><trkpt lat="44.6310132" lon="10.4400569"><ele>182.0</ele><time>2026-05-02T07:11:46.598Z</time></trkpt><trkpt lat="44.6310613" lon="10.4401353"><ele>182.0</ele><time>2026-05-02T07:11:48.576Z</time></trkpt><trkpt lat="44.6311127" lon="10.4402026"><ele>182.0</ele><time>2026-05-02T07:11:50.589Z</time></trkpt><trkpt lat="44.6311632" lon="10.4402637"><ele>182.0</ele><time>2026-05-02T07:11:52.602Z</time></trkpt><trkpt lat="44.6312081" lon="10.4403263"><ele>182.0</ele><time>2026-05-02T07:11:54.614Z</time></trkpt><trkpt lat="44.6312487" lon="10.4403999"><ele>182.0</ele><time>2026-05-02T07:11:56.627Z</time></trkpt><trkpt lat="44.631296" lon="10.4404848"><ele>182.0</ele><time>2026-05-02T07:11:59.235Z</time></trkpt><trkpt lat="44.6313536" lon="10.4405765"><ele>182.0</ele><time>2026-05-02T07:12:02.567Z</time></trkpt><trkpt lat="44.6314019" lon="10.4406431"><ele>183.0</ele><time>2026-05-02T07:12:05.483Z</time></trkpt><trkpt lat="44.6314549" lon="10.4407178"><ele>184.0</ele><time>2026-05-02T07:12:08.622Z</time></trkpt><trkpt lat="44.6315164" lon="10.4407793"><ele>185.0</ele><time>2026-05-02T07:12:11.62Z</time></trkpt><trkpt lat="44.631575" lon="10.44085"><ele>186.0</ele><time>2026-05-02T07:12:14.519Z</time></trkpt><trkpt lat="44.6316113" lon="10.4409248"><ele>187.0</ele><time>2026-05-02T07:12:16.622Z</time></trkpt><trkpt lat="44.6316447" lon="10.4410378"><ele>188.0</ele><time>2026-05-02T07:12:19.568Z</time></trkpt><trkpt lat="44.6316568" lon="10.4411469"><ele>188.0</ele><time>2026-05-02T07:12:22.587Z</time></trkpt><trkpt lat="44.6316471" lon="10.441261"><ele>188.0</ele><time>2026-05-02T07:12:25.617Z</time></trkpt><trkpt lat="44.6316298" lon="10.4413528"><ele>188.0</ele><time>2026-05-02T07:12:27.618Z</time></trkpt><trkpt lat="44.6316096" lon="10.4414749"><ele>188.0</ele><time>2026-05-02T07:12:30.565Z</time></trkpt><trkpt lat="44.6315956" lon="10.4415652"><ele>188.0</ele><time>2026-05-02T07:12:32.562Z</time></trkpt><trkpt lat="44.6315815" lon="10.4416542"><ele>188.0</ele><time>2026-05-02T07:12:34.623Z</time></trkpt><trkpt lat="44.6315662" lon="10.4417646"><ele>188.0</ele><time>2026-05-02T07:12:37.479Z</time></trkpt><trkpt lat="44.6315631" lon="10.4418904"><ele>187.83333333333331</ele><time>2026-05-02T07:12:40.52Z</time></trkpt><trkpt lat="44.6315546" lon="10.442004"><ele>187.66666666666666</ele><time>2026-05-02T07:12:43.618Z</time></trkpt><trkpt lat="44.6315385" lon="10.4421264"><ele>187.5</ele><time>2026-05-02T07:12:46.566Z</time></trkpt><trkpt lat="44.631522" lon="10.4422555"><ele>187.33333333333334</ele><time>2026-05-02T07:12:49.565Z</time></trkpt><trkpt lat="44.6315118" lon="10.4423876"><ele>187.16666666666669</ele><time>2026-05-02T07:12:52.595Z</time></trkpt><trkpt lat="44.6315005" lon="10.4425045"><ele>187.0</ele><time>2026-05-02T07:12:55.591Z</time></trkpt><trkpt lat="44.6314923" lon="10.4426254"><ele>187.0</ele><time>2026-05-02T07:12:58.61Z</time></trkpt><trkpt lat="44.6314933" lon="10.4427317"><ele>187.0</ele><time>2026-05-02T07:13:01.567Z</time></trkpt><trkpt lat="44.6314853" lon="10.442837"><ele>187.0</ele><time>2026-05-02T07:13:04.565Z</time></trkpt><trkpt lat="44.6314744" lon="10.4429715"><ele>187.0</ele><time>2026-05-02T07:13:07.566Z</time></trkpt><trkpt lat="44.6314725" lon="10.4430724"><ele>187.0</ele><time>2026-05-02T07:13:09.578Z</time></trkpt><trkpt lat="44.631469" lon="10.4431971"><ele>187.0</ele><time>2026-05-02T07:13:12.558Z</time></trkpt><trkpt lat="44.6314596" lon="10.4433052"><ele>187.0</ele><time>2026-05-02T07:13:15.615Z</time></trkpt><trkpt lat="44.6314532" lon="10.4434035"><ele>187.0</ele><time>2026-05-02T07:13:18.566Z</time></trkpt><trkpt lat="44.6314471" lon="10.4434997"><ele>187.0</ele><time>2026-05-02T07:13:21.554Z</time></trkpt><trkpt lat="44.6314464" lon="10.4435929"><ele>187.0</ele><time>2026-05-02T07:13:24.571Z</time></trkpt><trkpt lat="44.6314422" lon="10.4436859"><ele>187.0</ele><time>2026-05-02T07:13:27.59Z</time></trkpt><trkpt lat="44.6314397" lon="10.4437843"><ele>187.0</ele><time>2026-05-02T07:13:30.608Z</time></trkpt><trkpt lat="44.6314392" lon="10.4438892"><ele>187.0</ele><time>2026-05-02T07:13:33.563Z</time></trkpt><trkpt lat="44.6314378" lon="10.4440183"><ele>187.33333333333334</ele><time>2026-05-02T07:13:36.617Z</time></trkpt><trkpt lat="44.6314373" lon="10.4441449"><ele>187.66666666666669</ele><time>2026-05-02T07:13:39.566Z</time></trkpt><trkpt lat="44.6314347" lon="10.4442522"><ele>188.0</ele><time>2026-05-02T07:13:42.534Z</time></trkpt><trkpt lat="44.6314343" lon="10.4443743"><ele>188.33333333333334</ele><time>2026-05-02T07:13:45.601Z</time></trkpt><trkpt lat="44.6314286" lon="10.4444842"><ele>188.66666666666666</ele><time>2026-05-02T07:13:47.614Z</time></trkpt><trkpt lat="44.6314233" lon="10.4445954"><ele>189.0</ele><time>2026-05-02T07:13:49.564Z</time></trkpt><trkpt lat="44.631424" lon="10.4446959"><ele>189.5</ele><time>2026-05-02T07:13:51.601Z</time></trkpt><trkpt lat="44.6314203" lon="10.4447844"><ele>190.0</ele><time>2026-05-02T07:13:53.563Z</time></trkpt><trkpt lat="44.6314034" lon="10.4449111"><ele>190.5</ele><time>2026-05-02T07:13:56.57Z</time></trkpt><trkpt lat="44.6313892" lon="10.4450006"><ele>191.0</ele><time>2026-05-02T07:13:58.544Z</time></trkpt><trkpt lat="44.6313822" lon="10.4451193"><ele>191.5</ele><time>2026-05-02T07:14:01.601Z</time></trkpt><trkpt lat="44.6313828" lon="10.4452431"><ele>192.0</ele><time>2026-05-02T07:14:04.563Z</time></trkpt><trkpt lat="44.6313951" lon="10.4453394"><ele>192.0</ele><time>2026-05-02T07:14:06.565Z</time></trkpt><trkpt lat="44.6314335" lon="10.4454453"><ele>192.0</ele><time>2026-05-02T07:14:09.521Z</time></trkpt><trkpt lat="44.6314552" lon="10.4455336"><ele>192.0</ele><time>2026-05-02T07:14:11.514Z</time></trkpt><trkpt lat="44.6315026" lon="10.4456194"><ele>192.0</ele><time>2026-05-02T07:14:14.522Z</time></trkpt><trkpt lat="44.6315777" lon="10.4456755"><ele>192.0</ele><time>2026-05-02T07:14:17.601Z</time></trkpt><trkpt lat="44.6316539" lon="10.4457562"><ele>192.0</ele><time>2026-05-02T07:14:20.621Z</time></trkpt><trkpt lat="44.631714" lon="10.4458257"><ele>192.0</ele><time>2026-05-02T07:14:22.563Z</time></trkpt><trkpt lat="44.6317761" lon="10.4458748"><ele>192.0</ele><time>2026-05-02T07:14:24.565Z</time></trkpt><trkpt lat="44.6318516" lon="10.4459391"><ele>192.0</ele><time>2026-05-02T07:14:27.564Z</time></trkpt><trkpt lat="44.6319212" lon="10.4460104"><ele>192.0</ele><time>2026-05-02T07:14:30.481Z</time></trkpt><trkpt lat="44.6319805" lon="10.446057"><ele>192.0</ele><time>2026-05-02T07:14:32.474Z</time></trkpt><trkpt lat="44.6320427" lon="10.4461078"><ele>192.0</ele><time>2026-05-02T07:14:34.516Z</time></trkpt><trkpt lat="44.6321111" lon="10.4461421"><ele>191.14285714285714</ele><time>2026-05-02T07:14:36.618Z</time></trkpt><trkpt lat="44.6321778" lon="10.4461718"><ele>190.28571428571428</ele><time>2026-05-02T07:14:38.581Z</time></trkpt><trkpt lat="44.6322447" lon="10.4462191"><ele>189.42857142857144</ele><time>2026-05-02T07:14:40.614Z</time></trkpt><trkpt lat="44.6323193" lon="10.4462697"><ele>188.57142857142856</ele><time>2026-05-02T07:14:42.566Z</time></trkpt><trkpt lat="44.6323808" lon="10.4463169"><ele>187.71428571428572</ele><time>2026-05-02T07:14:44.568Z</time></trkpt><trkpt lat="44.6324362" lon="10.4463766"><ele>186.85714285714286</ele><time>2026-05-02T07:14:46.58Z</time></trkpt><trkpt lat="44.6324781" lon="10.4464438"><ele>186.0</ele><time>2026-05-02T07:14:48.592Z</time></trkpt><trkpt lat="44.6325133" lon="10.4465278"><ele>185.85714285714286</ele><time>2026-05-02T07:14:51.261Z</time></trkpt><trkpt lat="44.6325325" lon="10.4466377"><ele>185.71428571428572</ele><time>2026-05-02T07:14:54.566Z</time></trkpt><trkpt lat="44.6325375" lon="10.4467311"><ele>185.57142857142856</ele><time>2026-05-02T07:14:57.566Z</time></trkpt><trkpt lat="44.6325398" lon="10.4468235"><ele>185.42857142857144</ele><time>2026-05-02T07:15:00.567Z</time></trkpt><trkpt lat="44.6325821" lon="10.4469174"><ele>185.28571428571428</ele><time>2026-05-02T07:15:03.585Z</time></trkpt><trkpt lat="44.6326132" lon="10.4470042"><ele>185.14285714285714</ele><time>2026-05-02T07:15:05.598Z</time></trkpt><trkpt lat="44.632639" lon="10.4471024"><ele>185.0</ele><time>2026-05-02T07:15:07.61Z</time></trkpt><trkpt lat="44.6326454" lon="10.4472225"><ele>185.7142857142857</ele><time>2026-05-02T07:15:10.54Z</time></trkpt><trkpt lat="44.6326366" lon="10.4473269"><ele>186.42857142857142</ele><time>2026-05-02T07:15:13.569Z</time></trkpt><trkpt lat="44.6326159" lon="10.4474177"><ele>187.14285714285714</ele><time>2026-05-02T07:15:16.566Z</time></trkpt><trkpt lat="44.6325873" lon="10.4475142"><ele>187.85714285714283</ele><time>2026-05-02T07:15:19.617Z</time></trkpt><trkpt lat="44.6325669" lon="10.4476111"><ele>188.57142857142858</ele><time>2026-05-02T07:15:22.604Z</time></trkpt><trkpt lat="44.6325435" lon="10.4477188"><ele>189.28571428571428</ele><time>2026-05-02T07:15:25.623Z</time></trkpt><trkpt lat="44.6325126" lon="10.4478056"><ele>190.0</ele><time>2026-05-02T07:15:28.641Z</time></trkpt><trkpt lat="44.6324763" lon="10.4478835"><ele>190.42857142857144</ele><time>2026-05-02T07:15:31.565Z</time></trkpt><trkpt lat="44.6324338" lon="10.4479633"><ele>190.85714285714286</ele><time>2026-05-02T07:15:34.578Z</time></trkpt><trkpt lat="44.6323915" lon="10.448047"><ele>191.28571428571428</ele><time>2026-05-02T07:15:37.497Z</time></trkpt><trkpt lat="44.6323587" lon="10.4481614"><ele>191.71428571428572</ele><time>2026-05-02T07:15:40.597Z</time></trkpt><trkpt lat="44.6323159" lon="10.4482442"><ele>192.14285714285714</ele><time>2026-05-02T07:15:43.565Z</time></trkpt><trkpt lat="44.6322701" lon="10.4483113"><ele>192.57142857142858</ele><time>2026-05-02T07:15:46.566Z</time></trkpt><trkpt lat="44.6322315" lon="10.4483817"><ele>193.0</ele><time>2026-05-02T07:15:49.361Z</time></trkpt><trkpt lat="44.6321967" lon="10.4484561"><ele>193.00000000000003</ele><time>2026-05-02T07:15:52.59Z</time></trkpt><trkpt lat="44.6321584" lon="10.4485457"><ele>193.0</ele><time>2026-05-02T07:15:55.608Z</time></trkpt><trkpt lat="44.6321317" lon="10.448627"><ele>193.0</ele><time>2026-05-02T07:15:57.621Z</time></trkpt><trkpt lat="44.6320998" lon="10.4487075"><ele>193.0</ele><time>2026-05-02T07:15:59.566Z</time></trkpt><trkpt lat="44.6320544" lon="10.44878"><ele>193.0</ele><time>2026-05-02T07:16:02.483Z</time></trkpt><trkpt lat="44.6320162" lon="10.4488614"><ele>193.00000000000003</ele><time>2026-05-02T07:16:05.562Z</time></trkpt><trkpt lat="44.6319621" lon="10.4489898"><ele>193.0</ele><time>2026-05-02T07:16:08.601Z</time></trkpt><trkpt lat="44.6319975" lon="10.4490793"><ele>193.33333333333331</ele><time>2026-05-02T07:16:11.608Z</time></trkpt><trkpt lat="44.6319942" lon="10.4491796"><ele>193.66666666666666</ele><time>2026-05-02T07:16:13.582Z</time></trkpt><trkpt lat="44.6320211" lon="10.4492645"><ele>194.0</ele><time>2026-05-02T07:16:15.565Z</time></trkpt><trkpt lat="44.6320801" lon="10.4493453"><ele>194.33333333333331</ele><time>2026-05-02T07:16:18.566Z</time></trkpt><trkpt lat="44.632143" lon="10.4494089"><ele>194.66666666666666</ele><time>2026-05-02T07:16:21.57Z</time></trkpt><trkpt lat="44.6322025" lon="10.4494731"><ele>195.0</ele><time>2026-05-02T07:16:24.589Z</time></trkpt><trkpt lat="44.6322776" lon="10.4495369"><ele>195.0</ele><time>2026-05-02T07:16:27.561Z</time></trkpt><trkpt lat="44.6323237" lon="10.4495973"><ele>195.0</ele><time>2026-05-02T07:16:29.481Z</time></trkpt><trkpt lat="44.6323677" lon="10.4496803"><ele>195.0</ele><time>2026-05-02T07:16:31.484Z</time></trkpt><trkpt lat="44.6324016" lon="10.4497625"><ele>195.0</ele><time>2026-05-02T07:16:33.516Z</time></trkpt><trkpt lat="44.6324317" lon="10.4498745"><ele>195.0</ele><time>2026-05-02T07:16:36.563Z</time></trkpt><trkpt lat="44.6324618" lon="10.4499857"><ele>195.0</ele><time>2026-05-02T07:16:39.573Z</time></trkpt><trkpt lat="44.6324782" lon="10.4500968"><ele>194.66666666666666</ele><time>2026-05-02T07:16:42.604Z</time></trkpt><trkpt lat="44.6324891" lon="10.4502092"><ele>194.33333333333331</ele><time>2026-05-02T07:16:45.62Z</time></trkpt><trkpt lat="44.6324933" lon="10.4503168"><ele>194.0</ele><time>2026-05-02T07:16:48.561Z</time></trkpt><trkpt lat="44.6325041" lon="10.450415"><ele>193.66666666666666</ele><time>2026-05-02T07:16:51.561Z</time></trkpt><trkpt lat="44.6325092" lon="10.4505266"><ele>193.33333333333331</ele><time>2026-05-02T07:16:54.598Z</time></trkpt><trkpt lat="44.6325164" lon="10.450619"><ele>193.0</ele><time>2026-05-02T07:16:56.588Z</time></trkpt><trkpt lat="44.632521" lon="10.4507289"><ele>191.99999999999997</ele><time>2026-05-02T07:16:58.603Z</time></trkpt><trkpt lat="44.6325163" lon="10.4508597"><ele>191.0</ele><time>2026-05-02T07:17:00.613Z</time></trkpt><trkpt lat="44.6325092" lon="10.4509878"><ele>190.0</ele><time>2026-05-02T07:17:03.563Z</time></trkpt><trkpt lat="44.6325059" lon="10.4511043"><ele>189.0</ele><time>2026-05-02T07:17:06.566Z</time></trkpt><trkpt lat="44.6324928" lon="10.4512149"><ele>188.0</ele><time>2026-05-02T07:17:09.569Z</time></trkpt><trkpt lat="44.6324852" lon="10.4513281"><ele>187.0</ele><time>2026-05-02T07:17:11.582Z</time></trkpt><trkpt lat="44.6324876" lon="10.4514407"><ele>186.16666666666669</ele><time>2026-05-02T07:17:14.6Z</time></trkpt><trkpt lat="44.6324941" lon="10.4516148"><ele>185.33333333333334</ele><time>2026-05-02T07:17:16.575Z</time></trkpt><trkpt lat="44.6324981" lon="10.4517085"><ele>184.5</ele><time>2026-05-02T07:17:17.619Z</time></trkpt><trkpt lat="44.6324701" lon="10.4518205"><ele>183.66666666666666</ele><time>2026-05-02T07:17:19.563Z</time></trkpt><trkpt lat="44.632452" lon="10.4519361"><ele>182.83333333333331</ele><time>2026-05-02T07:17:22.565Z</time></trkpt><trkpt lat="44.6324259" lon="10.4520336"><ele>182.0</ele><time>2026-05-02T07:17:25.562Z</time></trkpt><trkpt lat="44.632407" lon="10.4521356"><ele>181.28571428571428</ele><time>2026-05-02T07:17:28.519Z</time></trkpt><trkpt lat="44.6323729" lon="10.4522286"><ele>180.57142857142856</ele><time>2026-05-02T07:17:31.558Z</time></trkpt><trkpt lat="44.6323466" lon="10.4523113"><ele>179.85714285714286</ele><time>2026-05-02T07:17:34.625Z</time></trkpt><trkpt lat="44.6323289" lon="10.4524007"><ele>179.14285714285714</ele><time>2026-05-02T07:17:37.535Z</time></trkpt><trkpt lat="44.632321" lon="10.4525182"><ele>178.42857142857142</ele><time>2026-05-02T07:17:40.614Z</time></trkpt><trkpt lat="44.6323103" lon="10.452627"><ele>177.71428571428572</ele><time>2026-05-02T07:17:43.581Z</time></trkpt><trkpt lat="44.6323061" lon="10.4527333"><ele>177.0</ele><time>2026-05-02T07:17:46.6Z</time></trkpt><trkpt lat="44.6323018" lon="10.4528318"><ele>177.0</ele><time>2026-05-02T07:17:49.318Z</time></trkpt><trkpt lat="44.6322827" lon="10.4529428"><ele>177.0</ele><time>2026-05-02T07:17:52.498Z</time></trkpt><trkpt lat="44.6322937" lon="10.4530405"><ele>177.0</ele><time>2026-05-02T07:17:55.565Z</time></trkpt><trkpt lat="44.6323438" lon="10.4531073"><ele>177.0</ele><time>2026-05-02T07:17:58.574Z</time></trkpt><trkpt lat="44.6323972" lon="10.4531791"><ele>177.0</ele><time>2026-05-02T07:18:01.594Z</time></trkpt><trkpt lat="44.6324104" lon="10.4533253"><ele>177.0</ele><time>2026-05-02T07:18:02.52Z</time></trkpt><trkpt lat="44.6324638" lon="10.453396"><ele>176.85714285714286</ele><time>2026-05-02T07:18:04.564Z</time></trkpt><trkpt lat="44.632534" lon="10.453431"><ele>176.7142857142857</ele><time>2026-05-02T07:18:07.565Z</time></trkpt><trkpt lat="44.6325824" lon="10.4534922"><ele>176.57142857142856</ele><time>2026-05-02T07:18:10.521Z</time></trkpt><trkpt lat="44.6326057" lon="10.4535755"><ele>176.42857142857144</ele><time>2026-05-02T07:18:13.539Z</time></trkpt><trkpt lat="44.6326362" lon="10.4536654"><ele>176.28571428571428</ele><time>2026-05-02T07:18:16.598Z</time></trkpt><trkpt lat="44.6326762" lon="10.4537714"><ele>176.14285714285714</ele><time>2026-05-02T07:18:20.611Z</time></trkpt><trkpt lat="44.6327156" lon="10.4538575"><ele>176.0</ele><time>2026-05-02T07:18:23.63Z</time></trkpt><trkpt lat="44.632748" lon="10.4539503"><ele>176.0</ele><time>2026-05-02T07:18:26.566Z</time></trkpt><trkpt lat="44.6327753" lon="10.4540444"><ele>176.0</ele><time>2026-05-02T07:18:29.568Z</time></trkpt><trkpt lat="44.6327967" lon="10.4541413"><ele>176.0</ele><time>2026-05-02T07:18:32.617Z</time></trkpt><trkpt lat="44.6328033" lon="10.4542418"><ele>176.0</ele><time>2026-05-02T07:18:35.605Z</time></trkpt><trkpt lat="44.6328014" lon="10.454336"><ele>176.0</ele><time>2026-05-02T07:18:38.565Z</time></trkpt><trkpt lat="44.6327964" lon="10.4544349"><ele>176.0</ele><time>2026-05-02T07:18:41.565Z</time></trkpt><trkpt lat="44.6327826" lon="10.4545545"><ele>176.0</ele><time>2026-05-02T07:18:45.578Z</time></trkpt><trkpt lat="44.6327673" lon="10.4546492"><ele>176.33333333333331</ele><time>2026-05-02T07:18:48.585Z</time></trkpt><trkpt lat="44.6327591" lon="10.4547508"><ele>176.66666666666666</ele><time>2026-05-02T07:18:51.604Z</time></trkpt><trkpt lat="44.6327489" lon="10.4548505"><ele>177.0</ele><time>2026-05-02T07:18:53.563Z</time></trkpt><trkpt lat="44.63275" lon="10.454973"><ele>177.33333333333334</ele><time>2026-05-02T07:18:56.457Z</time></trkpt><trkpt lat="44.632768" lon="10.4550825"><ele>177.66666666666669</ele><time>2026-05-02T07:18:58.539Z</time></trkpt><trkpt lat="44.6327934" lon="10.4551848"><ele>178.0</ele><time>2026-05-02T07:19:00.583Z</time></trkpt><trkpt lat="44.6328195" lon="10.4553058"><ele>177.83333333333334</ele><time>2026-05-02T07:19:03.579Z</time></trkpt><trkpt lat="44.6328286" lon="10.4554105"><ele>177.66666666666669</ele><time>2026-05-02T07:19:05.591Z</time></trkpt><trkpt lat="44.6328451" lon="10.4554973"><ele>177.5</ele><time>2026-05-02T07:19:07.604Z</time></trkpt><trkpt lat="44.632864" lon="10.4556167"><ele>177.33333333333334</ele><time>2026-05-02T07:19:10.566Z</time></trkpt><trkpt lat="44.6328843" lon="10.4557534"><ele>177.16666666666666</ele><time>2026-05-02T07:19:13.542Z</time></trkpt><trkpt lat="44.6329062" lon="10.4558575"><ele>177.0</ele><time>2026-05-02T07:19:15.575Z</time></trkpt><trkpt lat="44.6329206" lon="10.4559438"><ele>177.0</ele><time>2026-05-02T07:19:17.567Z</time></trkpt><trkpt lat="44.6329392" lon="10.4560493"><ele>177.0</ele><time>2026-05-02T07:19:20.585Z</time></trkpt><trkpt lat="44.6329449" lon="10.4561492"><ele>177.0</ele><time>2026-05-02T07:19:23.516Z</time></trkpt><trkpt lat="44.632946" lon="10.4562633"><ele>177.0</ele><time>2026-05-02T07:19:26.623Z</time></trkpt><trkpt lat="44.6329474" lon="10.4563695"><ele>177.0</ele><time>2026-05-02T07:19:29.563Z</time></trkpt><trkpt lat="44.6329495" lon="10.45647"><ele>177.0</ele><time>2026-05-02T07:19:32.565Z</time></trkpt><trkpt lat="44.6329539" lon="10.4565776"><ele>177.2857142857143</ele><time>2026-05-02T07:19:35.579Z</time></trkpt><trkpt lat="44.6329586" lon="10.4566761"><ele>177.57142857142856</ele><time>2026-05-02T07:19:38.597Z</time></trkpt><trkpt lat="44.632964" lon="10.4567719"><ele>177.85714285714286</ele><time>2026-05-02T07:19:41.616Z</time></trkpt><trkpt lat="44.6329684" lon="10.4568647"><ele>178.14285714285717</ele><time>2026-05-02T07:19:44.566Z</time></trkpt><trkpt lat="44.6329807" lon="10.4569608"><ele>178.42857142857144</ele><time>2026-05-02T07:19:47.574Z</time></trkpt><trkpt lat="44.6329851" lon="10.4570696"><ele>178.71428571428572</ele><time>2026-05-02T07:19:50.572Z</time></trkpt><trkpt lat="44.63299" lon="10.4571793"><ele>179.0</ele><time>2026-05-02T07:19:53.502Z</time></trkpt><trkpt lat="44.6329902" lon="10.4573063"><ele>179.5</ele><time>2026-05-02T07:19:56.61Z</time></trkpt><trkpt lat="44.6329923" lon="10.4574015"><ele>180.0</ele><time>2026-05-02T07:19:58.563Z</time></trkpt><trkpt lat="44.6329907" lon="10.4575194"><ele>180.5</ele><time>2026-05-02T07:20:01.503Z</time></trkpt><trkpt lat="44.6330025" lon="10.4576396"><ele>181.0</ele><time>2026-05-02T07:20:04.6Z</time></trkpt><trkpt lat="44.633008" lon="10.4577371"><ele>181.5</ele><time>2026-05-02T07:20:07.577Z</time></trkpt><trkpt lat="44.6330101" lon="10.4578463"><ele>182.0</ele><time>2026-05-02T07:20:10.497Z</time></trkpt><trkpt lat="44.6330147" lon="10.4579625"><ele>182.16666666666666</ele><time>2026-05-02T07:20:13.596Z</time></trkpt><trkpt lat="44.6330229" lon="10.4580633"><ele>182.33333333333331</ele><time>2026-05-02T07:20:16.562Z</time></trkpt><trkpt lat="44.6330318" lon="10.4581959"><ele>182.5</ele><time>2026-05-02T07:20:19.563Z</time></trkpt><trkpt lat="44.6330431" lon="10.4582879"><ele>182.66666666666666</ele><time>2026-05-02T07:20:21.516Z</time></trkpt><trkpt lat="44.633058" lon="10.458397"><ele>182.83333333333334</ele><time>2026-05-02T07:20:23.257Z</time></trkpt><trkpt lat="44.6330659" lon="10.4585034"><ele>183.0</ele><time>2026-05-02T07:20:25.59Z</time></trkpt><trkpt lat="44.6330774" lon="10.4586089"><ele>183.0</ele><time>2026-05-02T07:20:27.602Z</time></trkpt><trkpt lat="44.6330971" lon="10.4587223"><ele>183.0</ele><time>2026-05-02T07:20:29.616Z</time></trkpt><trkpt lat="44.633115" lon="10.4588261"><ele>183.0</ele><time>2026-05-02T07:20:31.498Z</time></trkpt><trkpt lat="44.6331244" lon="10.4589249"><ele>183.0</ele><time>2026-05-02T07:20:33.541Z</time></trkpt><trkpt lat="44.6331488" lon="10.459025"><ele>183.0</ele><time>2026-05-02T07:20:35.544Z</time></trkpt><trkpt lat="44.6331928" lon="10.4591238"><ele>183.0</ele><time>2026-05-02T07:20:37.576Z</time></trkpt><trkpt lat="44.6332382" lon="10.4592245"><ele>183.16666666666666</ele><time>2026-05-02T07:20:39.578Z</time></trkpt><trkpt lat="44.6332705" lon="10.4593163"><ele>183.33333333333334</ele><time>2026-05-02T07:20:41.339Z</time></trkpt><trkpt lat="44.6333081" lon="10.4594101"><ele>183.5</ele><time>2026-05-02T07:20:43.501Z</time></trkpt><trkpt lat="44.6333548" lon="10.4595306"><ele>183.66666666666669</ele><time>2026-05-02T07:20:45.614Z</time></trkpt><trkpt lat="44.6333712" lon="10.4596267"><ele>183.83333333333334</ele><time>2026-05-02T07:20:47.578Z</time></trkpt><trkpt lat="44.6333803" lon="10.4597433"><ele>184.0</ele><time>2026-05-02T07:20:50.566Z</time></trkpt><trkpt lat="44.6333778" lon="10.4598526"><ele>184.0</ele><time>2026-05-02T07:20:53.566Z</time></trkpt><trkpt lat="44.6333734" lon="10.4599567"><ele>184.0</ele><time>2026-05-02T07:20:56.455Z</time></trkpt><trkpt lat="44.633371" lon="10.4600818"><ele>184.0</ele><time>2026-05-02T07:20:59.602Z</time></trkpt><trkpt lat="44.6333689" lon="10.4601932"><ele>184.0</ele><time>2026-05-02T07:21:02.522Z</time></trkpt><trkpt lat="44.6333553" lon="10.4603027"><ele>184.0</ele><time>2026-05-02T07:21:05.563Z</time></trkpt><trkpt lat="44.6333391" lon="10.4604113"><ele>184.0</ele><time>2026-05-02T07:21:08.62Z</time></trkpt><trkpt lat="44.633318" lon="10.4605299"><ele>184.0</ele><time>2026-05-02T07:21:11.576Z</time></trkpt><trkpt lat="44.633308" lon="10.4606388"><ele>184.0</ele><time>2026-05-02T07:21:13.589Z</time></trkpt><trkpt lat="44.6332976" lon="10.4607337"><ele>184.0</ele><time>2026-05-02T07:21:15.602Z</time></trkpt><trkpt lat="44.6332827" lon="10.4608203"><ele>184.0</ele><time>2026-05-02T07:21:17.614Z</time></trkpt><trkpt lat="44.6332631" lon="10.4609464"><ele>184.0</ele><time>2026-05-02T07:21:20.564Z</time></trkpt><trkpt lat="44.6332469" lon="10.4610363"><ele>184.0</ele><time>2026-05-02T07:21:22.537Z</time></trkpt><trkpt lat="44.6332213" lon="10.4611361"><ele>184.0</ele><time>2026-05-02T07:21:24.563Z</time></trkpt><trkpt lat="44.6331847" lon="10.4612518"><ele>183.83333333333334</ele><time>2026-05-02T07:21:27.576Z</time></trkpt><trkpt lat="44.6331484" lon="10.4613433"><ele>183.66666666666669</ele><time>2026-05-02T07:21:30.576Z</time></trkpt><trkpt lat="44.6331115" lon="10.4614292"><ele>183.5</ele><time>2026-05-02T07:21:33.56Z</time></trkpt><trkpt lat="44.6330779" lon="10.4615133"><ele>183.33333333333334</ele><time>2026-05-02T07:21:35.563Z</time></trkpt><trkpt lat="44.6330418" lon="10.4616384"><ele>183.16666666666666</ele><time>2026-05-02T07:21:38.566Z</time></trkpt><trkpt lat="44.6330239" lon="10.4617301"><ele>183.0</ele><time>2026-05-02T07:21:40.564Z</time></trkpt><trkpt lat="44.632992" lon="10.4618454"><ele>183.0</ele><time>2026-05-02T07:21:43.576Z</time></trkpt><trkpt lat="44.6329489" lon="10.4619554"><ele>183.0</ele><time>2026-05-02T07:21:46.599Z</time></trkpt><trkpt lat="44.6329086" lon="10.4620299"><ele>183.0</ele><time>2026-05-02T07:21:48.608Z</time></trkpt><trkpt lat="44.6328652" lon="10.4621066"><ele>183.0</ele><time>2026-05-02T07:21:50.565Z</time></trkpt><trkpt lat="44.6328143" lon="10.4622139"><ele>183.0</ele><time>2026-05-02T07:21:53.561Z</time></trkpt><trkpt lat="44.6327714" lon="10.4623161"><ele>183.0</ele><time>2026-05-02T07:21:56.498Z</time></trkpt><trkpt lat="44.6327232" lon="10.4624097"><ele>184.0</ele><time>2026-05-02T07:21:59.437Z</time></trkpt><trkpt lat="44.6326821" lon="10.4625015"><ele>185.0</ele><time>2026-05-02T07:22:01.589Z</time></trkpt><trkpt lat="44.6326438" lon="10.4625918"><ele>186.0</ele><time>2026-05-02T07:22:03.503Z</time></trkpt><trkpt lat="44.6326037" lon="10.4626772"><ele>187.0</ele><time>2026-05-02T07:22:05.495Z</time></trkpt><trkpt lat="44.6325564" lon="10.4627567"><ele>188.0</ele><time>2026-05-02T07:22:07.538Z</time></trkpt><trkpt lat="44.6324972" lon="10.4628225"><ele>189.0</ele><time>2026-05-02T07:22:09.58Z</time></trkpt><trkpt lat="44.6324339" lon="10.4628854"><ele>188.83333333333334</ele><time>2026-05-02T07:22:11.563Z</time></trkpt><trkpt lat="44.632364" lon="10.4629715"><ele>188.66666666666666</ele><time>2026-05-02T07:22:13.564Z</time></trkpt><trkpt lat="44.6323133" lon="10.4630353"><ele>188.5</ele><time>2026-05-02T07:22:15.576Z</time></trkpt><trkpt lat="44.6322582" lon="10.4631263"><ele>188.33333333333331</ele><time>2026-05-02T07:22:18.536Z</time></trkpt><trkpt lat="44.6321929" lon="10.4632065"><ele>188.16666666666666</ele><time>2026-05-02T07:22:21.614Z</time></trkpt><trkpt lat="44.6321736" lon="10.463306"><ele>188.0</ele><time>2026-05-02T07:22:24.615Z</time></trkpt><trkpt lat="44.63219" lon="10.4634089"><ele>188.0</ele><time>2026-05-02T07:22:27.564Z</time></trkpt><trkpt lat="44.6321613" lon="10.4635088"><ele>188.0</ele><time>2026-05-02T07:22:29.564Z</time></trkpt><trkpt lat="44.6322186" lon="10.4635974"><ele>188.0</ele><time>2026-05-02T07:22:31.576Z</time></trkpt><trkpt lat="44.6322643" lon="10.4636821"><ele>188.0</ele><time>2026-05-02T07:22:33.589Z</time></trkpt><trkpt lat="44.6323181" lon="10.4637465"><ele>188.0</ele><time>2026-05-02T07:22:35.601Z</time></trkpt><trkpt lat="44.6323911" lon="10.4638284"><ele>188.0</ele><time>2026-05-02T07:22:38.565Z</time></trkpt><trkpt lat="44.6324603" lon="10.4639896"><ele>188.33333333333331</ele><time>2026-05-02T07:22:40.561Z</time></trkpt><trkpt lat="44.6324918" lon="10.4640745"><ele>188.66666666666666</ele><time>2026-05-02T07:22:41.563Z</time></trkpt><trkpt lat="44.6325549" lon="10.4641412"><ele>189.0</ele><time>2026-05-02T07:22:43.563Z</time></trkpt><trkpt lat="44.6326109" lon="10.464207"><ele>189.33333333333334</ele><time>2026-05-02T07:22:45.565Z</time></trkpt><trkpt lat="44.6326704" lon="10.4642601"><ele>189.66666666666669</ele><time>2026-05-02T07:22:47.576Z</time></trkpt><trkpt lat="44.6327428" lon="10.4643378"><ele>190.0</ele><time>2026-05-02T07:22:49.588Z</time></trkpt><trkpt lat="44.632815" lon="10.464423"><ele>188.83333333333334</ele><time>2026-05-02T07:22:51.601Z</time></trkpt><trkpt lat="44.6328837" lon="10.4644972"><ele>187.66666666666669</ele><time>2026-05-02T07:22:53.613Z</time></trkpt><trkpt lat="44.6329504" lon="10.4645757"><ele>186.5</ele><time>2026-05-02T07:22:55.565Z</time></trkpt><trkpt lat="44.6330081" lon="10.4646324"><ele>185.33333333333334</ele><time>2026-05-02T07:22:57.52Z</time></trkpt><trkpt lat="44.6330812" lon="10.4646949"><ele>184.16666666666666</ele><time>2026-05-02T07:22:59.562Z</time></trkpt><trkpt lat="44.6331557" lon="10.4647384"><ele>183.0</ele><time>2026-05-02T07:23:01.576Z</time></trkpt><trkpt lat="44.6332302" lon="10.4647645"><ele>183.0</ele><time>2026-05-02T07:23:03.617Z</time></trkpt><trkpt lat="44.6332959" lon="10.4647868"><ele>183.0</ele><time>2026-05-02T07:23:05.588Z</time></trkpt><trkpt lat="44.6333746" lon="10.4648062"><ele>183.0</ele><time>2026-05-02T07:23:07.601Z</time></trkpt><trkpt lat="44.6334481" lon="10.4648305"><ele>183.0</ele><time>2026-05-02T07:23:09.614Z</time></trkpt><trkpt lat="44.6335188" lon="10.4648606"><ele>183.0</ele><time>2026-05-02T07:23:11.564Z</time></trkpt><trkpt lat="44.6335871" lon="10.4648947"><ele>183.0</ele><time>2026-05-02T07:23:13.564Z</time></trkpt><trkpt lat="44.6336532" lon="10.4649351"><ele>183.0</ele><time>2026-05-02T07:23:15.564Z</time></trkpt><trkpt lat="44.6337132" lon="10.464966"><ele>182.71428571428572</ele><time>2026-05-02T07:23:17.474Z</time></trkpt><trkpt lat="44.6337746" lon="10.4649956"><ele>182.42857142857144</ele><time>2026-05-02T07:23:19.517Z</time></trkpt><trkpt lat="44.6338421" lon="10.4650396"><ele>182.14285714285714</ele><time>2026-05-02T07:23:21.6Z</time></trkpt><trkpt lat="44.6339066" lon="10.4650768"><ele>181.85714285714286</ele><time>2026-05-02T07:23:23.6Z</time></trkpt><trkpt lat="44.633969" lon="10.4651112"><ele>181.57142857142856</ele><time>2026-05-02T07:23:25.513Z</time></trkpt><trkpt lat="44.6340388" lon="10.4651468"><ele>181.28571428571428</ele><time>2026-05-02T07:23:27.564Z</time></trkpt><trkpt lat="44.6341015" lon="10.4651884"><ele>181.0</ele><time>2026-05-02T07:23:29.563Z</time></trkpt><trkpt lat="44.6341572" lon="10.465243"><ele>181.0</ele><time>2026-05-02T07:23:31.481Z</time></trkpt><trkpt lat="44.6342178" lon="10.4653159"><ele>181.0</ele><time>2026-05-02T07:23:33.564Z</time></trkpt><trkpt lat="44.634266" lon="10.4653975"><ele>181.0</ele><time>2026-05-02T07:23:35.576Z</time></trkpt><trkpt lat="44.6343211" lon="10.4655018"><ele>181.0</ele><time>2026-05-02T07:23:37.589Z</time></trkpt><trkpt lat="44.6343527" lon="10.4655857"><ele>181.0</ele><time>2026-05-02T07:23:39.6Z</time></trkpt><trkpt lat="44.6343768" lon="10.4656861"><ele>181.0</ele><time>2026-05-02T07:23:42.54Z</time></trkpt><trkpt lat="44.634366" lon="10.4658055"><ele>180.8</ele><time>2026-05-02T07:23:45.565Z</time></trkpt><trkpt lat="44.6343368" lon="10.465923"><ele>180.60000000000002</ele><time>2026-05-02T07:23:48.565Z</time></trkpt><trkpt lat="44.6343122" lon="10.4660565"><ele>180.4</ele><time>2026-05-02T07:23:51.577Z</time></trkpt><trkpt lat="44.6342872" lon="10.4661833"><ele>180.2</ele><time>2026-05-02T07:23:53.588Z</time></trkpt><trkpt lat="44.6342621" lon="10.4662984"><ele>180.0</ele><time>2026-05-02T07:23:56.606Z</time></trkpt><trkpt lat="44.6342381" lon="10.4664244"><ele>179.33333333333334</ele><time>2026-05-02T07:23:59.564Z</time></trkpt><trkpt lat="44.6342226" lon="10.4665132"><ele>178.66666666666666</ele><time>2026-05-02T07:24:01.559Z</time></trkpt><trkpt lat="44.6341972" lon="10.4666143"><ele>178.0</ele><time>2026-05-02T07:24:03.564Z</time></trkpt><trkpt lat="44.6341557" lon="10.466725"><ele>177.33333333333331</ele><time>2026-05-02T07:24:06.569Z</time></trkpt><trkpt lat="44.6341115" lon="10.4668407"><ele>176.66666666666666</ele><time>2026-05-02T07:24:09.587Z</time></trkpt><trkpt lat="44.6340885" lon="10.466948"><ele>176.0</ele><time>2026-05-02T07:24:11.6Z</time></trkpt><trkpt lat="44.6340653" lon="10.4670576"><ele>175.83333333333331</ele><time>2026-05-02T07:24:13.574Z</time></trkpt><trkpt lat="44.6340385" lon="10.4671737"><ele>175.66666666666666</ele><time>2026-05-02T07:24:16.563Z</time></trkpt><trkpt lat="44.6340002" lon="10.4673073"><ele>175.5</ele><time>2026-05-02T07:24:18.567Z</time></trkpt><trkpt lat="44.633972" lon="10.4674009"><ele>175.33333333333334</ele><time>2026-05-02T07:24:20.564Z</time></trkpt><trkpt lat="44.6339362" lon="10.4675175"><ele>175.16666666666669</ele><time>2026-05-02T07:24:23.575Z</time></trkpt><trkpt lat="44.633889" lon="10.4676186"><ele>175.0</ele><time>2026-05-02T07:24:26.594Z</time></trkpt><trkpt lat="44.6338462" lon="10.4677119"><ele>175.0</ele><time>2026-05-02T07:24:29.595Z</time></trkpt><trkpt lat="44.6338046" lon="10.4678076"><ele>175.0</ele><time>2026-05-02T07:24:32.566Z</time></trkpt><trkpt lat="44.6337679" lon="10.4678976"><ele>175.0</ele><time>2026-05-02T07:24:35.521Z</time></trkpt><trkpt lat="44.6337322" lon="10.467989"><ele>175.0</ele><time>2026-05-02T07:24:38.569Z</time></trkpt><trkpt lat="44.6336935" lon="10.4680859"><ele>175.0</ele><time>2026-05-02T07:24:41.587Z</time></trkpt><trkpt lat="44.6336609" lon="10.4681782"><ele>175.0</ele><time>2026-05-02T07:24:44.606Z</time></trkpt><trkpt lat="44.6336259" lon="10.4682665"><ele>175.14285714285714</ele><time>2026-05-02T07:24:47.563Z</time></trkpt><trkpt lat="44.633587" lon="10.4683516"><ele>175.28571428571428</ele><time>2026-05-02T07:24:50.566Z</time></trkpt><trkpt lat="44.6335474" lon="10.4684376"><ele>175.42857142857144</ele><time>2026-05-02T07:24:53.564Z</time></trkpt><trkpt lat="44.6335039" lon="10.4685241"><ele>175.57142857142856</ele><time>2026-05-02T07:24:56.582Z</time></trkpt><trkpt lat="44.6334585" lon="10.4686048"><ele>175.71428571428572</ele><time>2026-05-02T07:24:59.599Z</time></trkpt><trkpt lat="44.6334085" lon="10.4686903"><ele>175.85714285714286</ele><time>2026-05-02T07:25:02.62Z</time></trkpt><trkpt lat="44.6333792" lon="10.4687839"><ele>176.0</ele><time>2026-05-02T07:25:05.566Z</time></trkpt><trkpt lat="44.6333808" lon="10.4688809"><ele>176.0</ele><time>2026-05-02T07:25:08.477Z</time></trkpt><trkpt lat="44.6333999" lon="10.4689829"><ele>176.0</ele><time>2026-05-02T07:25:11.596Z</time></trkpt><trkpt lat="44.6334101" lon="10.4690955"><ele>176.0</ele><time>2026-05-02T07:25:14.593Z</time></trkpt><trkpt lat="44.6334591" lon="10.4691734"><ele>176.0</ele><time>2026-05-02T07:25:17.565Z</time></trkpt><trkpt lat="44.6334959" lon="10.4692623"><ele>176.0</ele><time>2026-05-02T07:25:20.566Z</time></trkpt><trkpt lat="44.6335177" lon="10.4693599"><ele>176.0</ele><time>2026-05-02T07:25:23.52Z</time></trkpt><trkpt lat="44.6335092" lon="10.4694799"><ele>176.0</ele><time>2026-05-02T07:25:26.579Z</time></trkpt><trkpt lat="44.6335637" lon="10.4695867"><ele>176.0</ele><time>2026-05-02T07:25:29.586Z</time></trkpt><trkpt lat="44.6336216" lon="10.4696512"><ele>176.0</ele><time>2026-05-02T07:25:31.599Z</time></trkpt><trkpt lat="44.6336762" lon="10.4697128"><ele>176.0</ele><time>2026-05-02T07:25:33.611Z</time></trkpt><trkpt lat="44.6337274" lon="10.4697803"><ele>176.0</ele><time>2026-05-02T07:25:35.624Z</time></trkpt><trkpt lat="44.6337732" lon="10.4698566"><ele>176.0</ele><time>2026-05-02T07:25:37.497Z</time></trkpt><trkpt lat="44.633871" lon="10.4699441"><ele>175.20000000000002</ele><time>2026-05-02T07:25:40.564Z</time></trkpt><trkpt lat="44.6339492" lon="10.4699798"><ele>174.4</ele><time>2026-05-02T07:25:43.575Z</time></trkpt><trkpt lat="44.6340689" lon="10.4698929"><ele>173.6</ele><time>2026-05-02T07:25:45.586Z</time></trkpt><trkpt lat="44.6341418" lon="10.4698553"><ele>172.8</ele><time>2026-05-02T07:25:47.599Z</time></trkpt><trkpt lat="44.6342164" lon="10.4698391"><ele>172.0</ele><time>2026-05-02T07:25:49.611Z</time></trkpt><trkpt lat="44.6343" lon="10.4698368"><ele>172.0</ele><time>2026-05-02T07:25:51.565Z</time></trkpt><trkpt lat="44.6343707" lon="10.469834"><ele>172.0</ele><time>2026-05-02T07:25:53.497Z</time></trkpt><trkpt lat="44.634448" lon="10.4698687"><ele>172.0</ele><time>2026-05-02T07:25:56.555Z</time></trkpt><trkpt lat="44.6345701" lon="10.4697889"><ele>172.0</ele><time>2026-05-02T07:25:57.564Z</time></trkpt><trkpt lat="44.6346571" lon="10.4697307"><ele>172.0</ele><time>2026-05-02T07:25:59.595Z</time></trkpt><trkpt lat="44.6347206" lon="10.4697101"><ele>172.0</ele><time>2026-05-02T07:26:01.586Z</time></trkpt><trkpt lat="44.634809" lon="10.4697076"><ele>171.66666666666669</ele><time>2026-05-02T07:26:04.606Z</time></trkpt><trkpt lat="44.6348873" lon="10.4697148"><ele>171.33333333333334</ele><time>2026-05-02T07:26:06.617Z</time></trkpt><trkpt lat="44.6349686" lon="10.4697135"><ele>171.0</ele><time>2026-05-02T07:26:08.501Z</time></trkpt><trkpt lat="44.6350365" lon="10.4697612"><ele>170.66666666666666</ele><time>2026-05-02T07:26:11.56Z</time></trkpt><trkpt lat="44.6351054" lon="10.4697987"><ele>170.33333333333331</ele><time>2026-05-02T07:26:14.567Z</time></trkpt><trkpt lat="44.6351549" lon="10.4698566"><ele>170.0</ele><time>2026-05-02T07:26:16.579Z</time></trkpt><trkpt lat="44.6352229" lon="10.4699247"><ele>170.0</ele><time>2026-05-02T07:26:19.598Z</time></trkpt><trkpt lat="44.6352878" lon="10.4700162"><ele>170.0</ele><time>2026-05-02T07:26:22.618Z</time></trkpt><trkpt lat="44.6353663" lon="10.4701044"><ele>170.0</ele><time>2026-05-02T07:26:24.565Z</time></trkpt><trkpt lat="44.6354319" lon="10.4701727"><ele>170.0</ele><time>2026-05-02T07:26:26.523Z</time></trkpt><trkpt lat="44.635491" lon="10.4702491"><ele>170.0</ele><time>2026-05-02T07:26:28.556Z</time></trkpt><trkpt lat="44.6355449" lon="10.4703274"><ele>170.0</ele><time>2026-05-02T07:26:30.567Z</time></trkpt><trkpt lat="44.6355941" lon="10.4704078"><ele>169.33333333333331</ele><time>2026-05-02T07:26:32.58Z</time></trkpt><trkpt lat="44.6356401" lon="10.4704796"><ele>168.66666666666666</ele><time>2026-05-02T07:26:34.402Z</time></trkpt><trkpt lat="44.63572" lon="10.4705493"><ele>168.0</ele><time>2026-05-02T07:26:36.604Z</time></trkpt><trkpt lat="44.6357735" lon="10.4706181"><ele>167.33333333333334</ele><time>2026-05-02T07:26:38.558Z</time></trkpt><trkpt lat="44.6358417" lon="10.4706936"><ele>166.66666666666669</ele><time>2026-05-02T07:26:41.564Z</time></trkpt><trkpt lat="44.6358989" lon="10.4707803"><ele>166.0</ele><time>2026-05-02T07:26:44.563Z</time></trkpt><trkpt lat="44.6359618" lon="10.4708496"><ele>166.0</ele><time>2026-05-02T07:26:47.573Z</time></trkpt><trkpt lat="44.6360183" lon="10.4709043"><ele>166.0</ele><time>2026-05-02T07:26:50.583Z</time></trkpt><trkpt lat="44.6360887" lon="10.4709671"><ele>166.0</ele><time>2026-05-02T07:26:53.61Z</time></trkpt><trkpt lat="44.6361437" lon="10.4710413"><ele>166.0</ele><time>2026-05-02T07:26:57.564Z</time></trkpt><trkpt lat="44.6362192" lon="10.471096"><ele>166.0</ele><time>2026-05-02T07:27:00.564Z</time></trkpt><trkpt lat="44.6362761" lon="10.4711399"><ele>166.0</ele><time>2026-05-02T07:27:03.573Z</time></trkpt><trkpt lat="44.6363338" lon="10.4711888"><ele>166.0</ele><time>2026-05-02T07:27:11.563Z</time></trkpt><trkpt lat="44.6363288" lon="10.4712924"><ele>165.20000000000002</ele><time>2026-05-02T07:27:16.555Z</time></trkpt><trkpt lat="44.6362808" lon="10.471404"><ele>164.4</ele><time>2026-05-02T07:27:17.563Z</time></trkpt><trkpt lat="44.6362403" lon="10.4715268"><ele>163.6</ele><time>2026-05-02T07:27:24.615Z</time></trkpt><trkpt lat="44.6362682" lon="10.4717443"><ele>162.8</ele><time>2026-05-02T07:27:25.61Z</time></trkpt><trkpt lat="44.6362723" lon="10.471873"><ele>162.0</ele><time>2026-05-02T07:27:27.562Z</time></trkpt><trkpt lat="44.6362663" lon="10.4719914"><ele>162.0</ele><time>2026-05-02T07:27:30.564Z</time></trkpt><trkpt lat="44.636264" lon="10.4721004"><ele>162.0</ele><time>2026-05-02T07:27:33.564Z</time></trkpt><trkpt lat="44.6362496" lon="10.4721992"><ele>162.0</ele><time>2026-05-02T07:27:35.573Z</time></trkpt><trkpt lat="44.6362457" lon="10.4722891"><ele>162.0</ele><time>2026-05-02T07:27:37.584Z</time></trkpt><trkpt lat="44.6362359" lon="10.4723839"><ele>162.0</ele><time>2026-05-02T07:27:39.597Z</time></trkpt><trkpt lat="44.6362286" lon="10.4724938"><ele>162.0</ele><time>2026-05-02T07:27:41.601Z</time></trkpt><trkpt lat="44.6362199" lon="10.4726683"><ele>162.2</ele><time>2026-05-02T07:27:42.566Z</time></trkpt><trkpt lat="44.6362107" lon="10.4728085"><ele>162.39999999999998</ele><time>2026-05-02T07:27:44.564Z</time></trkpt><trkpt lat="44.6362049" lon="10.4728969"><ele>162.60000000000002</ele><time>2026-05-02T07:27:46.502Z</time></trkpt><trkpt lat="44.6362142" lon="10.4731227"><ele>162.8</ele><time>2026-05-02T07:27:48.242Z</time></trkpt><trkpt lat="44.6362091" lon="10.4732214"><ele>163.0</ele><time>2026-05-02T07:27:49.621Z</time></trkpt><trkpt lat="44.6362039" lon="10.4733575"><ele>163.14285714285714</ele><time>2026-05-02T07:27:51.571Z</time></trkpt><trkpt lat="44.6361923" lon="10.4734605"><ele>163.28571428571428</ele><time>2026-05-02T07:27:53.584Z</time></trkpt><trkpt lat="44.6361753" lon="10.4735576"><ele>163.42857142857142</ele><time>2026-05-02T07:27:55.539Z</time></trkpt><trkpt lat="44.6361554" lon="10.4736498"><ele>163.57142857142856</ele><time>2026-05-02T07:27:57.609Z</time></trkpt><trkpt lat="44.6361216" lon="10.4737314"><ele>163.71428571428572</ele><time>2026-05-02T07:27:59.563Z</time></trkpt><trkpt lat="44.6360953" lon="10.4738144"><ele>163.85714285714283</ele><time>2026-05-02T07:28:01.54Z</time></trkpt><trkpt lat="44.6360866" lon="10.4739117"><ele>164.0</ele><time>2026-05-02T07:28:03.563Z</time></trkpt><trkpt lat="44.6360763" lon="10.4740049"><ele>163.57142857142856</ele><time>2026-05-02T07:28:05.563Z</time></trkpt><trkpt lat="44.6360606" lon="10.4741001"><ele>163.14285714285714</ele><time>2026-05-02T07:28:07.571Z</time></trkpt><trkpt lat="44.636043" lon="10.4741914"><ele>162.71428571428572</ele><time>2026-05-02T07:28:09.584Z</time></trkpt><trkpt lat="44.6360222" lon="10.4742795"><ele>162.28571428571428</ele><time>2026-05-02T07:28:11.537Z</time></trkpt><trkpt lat="44.6360039" lon="10.4743749"><ele>161.85714285714286</ele><time>2026-05-02T07:28:13.609Z</time></trkpt><trkpt lat="44.6359656" lon="10.4744806"><ele>161.42857142857142</ele><time>2026-05-02T07:28:16.563Z</time></trkpt><trkpt lat="44.6359581" lon="10.4745977"><ele>161.0</ele><time>2026-05-02T07:28:19.497Z</time></trkpt><trkpt lat="44.6359698" lon="10.4747073"><ele>161.0</ele><time>2026-05-02T07:28:21.52Z</time></trkpt><trkpt lat="44.635954" lon="10.474808"><ele>161.0</ele><time>2026-05-02T07:28:23.583Z</time></trkpt><trkpt lat="44.6359191" lon="10.4748971"><ele>161.0</ele><time>2026-05-02T07:28:25.583Z</time></trkpt><trkpt lat="44.6358882" lon="10.4749887"><ele>161.0</ele><time>2026-05-02T07:28:27.596Z</time></trkpt><trkpt lat="44.6358687" lon="10.4750756"><ele>161.0</ele><time>2026-05-02T07:28:29.608Z</time></trkpt><trkpt lat="44.6358504" lon="10.4751812"><ele>161.0</ele><time>2026-05-02T07:28:31.622Z</time></trkpt><trkpt lat="44.6358233" lon="10.4752946"><ele>161.0</ele><time>2026-05-02T07:28:33.494Z</time></trkpt><trkpt lat="44.6357952" lon="10.4754256"><ele>161.16666666666666</ele><time>2026-05-02T07:28:35.537Z</time></trkpt><trkpt lat="44.635774" lon="10.4755573"><ele>161.33333333333331</ele><time>2026-05-02T07:28:37.6Z</time></trkpt><trkpt lat="44.6357626" lon="10.475654"><ele>161.5</ele><time>2026-05-02T07:28:39.57Z</time></trkpt><trkpt lat="44.635748" lon="10.4757445"><ele>161.66666666666666</ele><time>2026-05-02T07:28:41.584Z</time></trkpt><trkpt lat="44.635715" lon="10.4758396"><ele>161.83333333333334</ele><time>2026-05-02T07:28:43.595Z</time></trkpt><trkpt lat="44.6356919" lon="10.4759417"><ele>162.0</ele><time>2026-05-02T07:28:45.608Z</time></trkpt><trkpt lat="44.6356684" lon="10.4760439"><ele>162.0</ele><time>2026-05-02T07:28:47.621Z</time></trkpt><trkpt lat="44.6356433" lon="10.4761376"><ele>162.0</ele><time>2026-05-02T07:28:49.514Z</time></trkpt><trkpt lat="44.6356133" lon="10.476242"><ele>162.0</ele><time>2026-05-02T07:28:51.563Z</time></trkpt><trkpt lat="44.6355916" lon="10.4763418"><ele>162.0</ele><time>2026-05-02T07:28:53.562Z</time></trkpt><trkpt lat="44.6355745" lon="10.4764321"><ele>162.0</ele><time>2026-05-02T07:28:55.501Z</time></trkpt><trkpt lat="44.635557" lon="10.4765282"><ele>162.0</ele><time>2026-05-02T07:28:57.574Z</time></trkpt><trkpt lat="44.6355368" lon="10.4766287"><ele>162.0</ele><time>2026-05-02T07:28:59.595Z</time></trkpt><trkpt lat="44.635522" lon="10.4767307"><ele>161.85714285714286</ele><time>2026-05-02T07:29:01.608Z</time></trkpt><trkpt lat="44.6355106" lon="10.4768255"><ele>161.71428571428572</ele><time>2026-05-02T07:29:03.562Z</time></trkpt><trkpt lat="44.6354888" lon="10.4769099"><ele>161.57142857142856</ele><time>2026-05-02T07:29:05.563Z</time></trkpt><trkpt lat="44.6354554" lon="10.4770123"><ele>161.42857142857144</ele><time>2026-05-02T07:29:08.563Z</time></trkpt><trkpt lat="44.635424" lon="10.4771081"><ele>161.28571428571428</ele><time>2026-05-02T07:29:11.601Z</time></trkpt><trkpt lat="44.6353944" lon="10.477198"><ele>161.14285714285714</ele><time>2026-05-02T07:29:14.589Z</time></trkpt><trkpt lat="44.635363" lon="10.4772854"><ele>161.0</ele><time>2026-05-02T07:29:17.578Z</time></trkpt><trkpt lat="44.6353263" lon="10.4773636"><ele>161.0</ele><time>2026-05-02T07:29:20.563Z</time></trkpt><trkpt lat="44.6352962" lon="10.4774547"><ele>161.0</ele><time>2026-05-02T07:29:23.597Z</time></trkpt><trkpt lat="44.6352607" lon="10.4775429"><ele>161.0</ele><time>2026-05-02T07:29:26.564Z</time></trkpt><trkpt lat="44.6352276" lon="10.4776561"><ele>161.0</ele><time>2026-05-02T07:29:29.582Z</time></trkpt><trkpt lat="44.6351927" lon="10.4777636"><ele>161.0</ele><time>2026-05-02T07:29:32.601Z</time></trkpt><trkpt lat="44.6351643" lon="10.4778487"><ele>161.0</ele><time>2026-05-02T07:29:34.613Z</time></trkpt><trkpt lat="44.6351287" lon="10.4779552"><ele>161.0</ele><time>2026-05-02T07:29:37.483Z</time></trkpt><trkpt lat="44.6350916" lon="10.4780604"><ele>161.0</ele><time>2026-05-02T07:29:40.563Z</time></trkpt><trkpt lat="44.6350583" lon="10.4781563"><ele>161.0</ele><time>2026-05-02T07:29:43.569Z</time></trkpt><trkpt lat="44.6350284" lon="10.4782567"><ele>161.0</ele><time>2026-05-02T07:29:46.588Z</time></trkpt><trkpt lat="44.634999" lon="10.4783474"><ele>161.0</ele><time>2026-05-02T07:29:49.607Z</time></trkpt><trkpt lat="44.6349678" lon="10.478441"><ele>161.0</ele><time>2026-05-02T07:29:52.562Z</time></trkpt><trkpt lat="44.6349358" lon="10.4785378"><ele>161.0</ele><time>2026-05-02T07:29:55.563Z</time></trkpt><trkpt lat="44.6349122" lon="10.478635"><ele>161.0</ele><time>2026-05-02T07:29:58.564Z</time></trkpt><trkpt lat="44.6349006" lon="10.4787257"><ele>161.0</ele><time>2026-05-02T07:30:00.576Z</time></trkpt><trkpt lat="44.6348841" lon="10.4788222"><ele>161.0</ele><time>2026-05-02T07:30:02.5Z</time></trkpt><trkpt lat="44.634867" lon="10.47891"><ele>161.0</ele><time>2026-05-02T07:30:04.6Z</time></trkpt><trkpt lat="44.6348482" lon="10.4789984"><ele>161.0</ele><time>2026-05-02T07:30:06.613Z</time></trkpt><trkpt lat="44.6348304" lon="10.4790935"><ele>161.0</ele><time>2026-05-02T07:30:08.564Z</time></trkpt><trkpt lat="44.6348069" lon="10.4792248"><ele>160.83333333333331</ele><time>2026-05-02T07:30:11.564Z</time></trkpt><trkpt lat="44.6347952" lon="10.4793252"><ele>160.66666666666666</ele><time>2026-05-02T07:30:13.561Z</time></trkpt><trkpt lat="44.6347817" lon="10.4794557"><ele>160.5</ele><time>2026-05-02T07:30:16.575Z</time></trkpt><trkpt lat="44.6347679" lon="10.4795498"><ele>160.33333333333334</ele><time>2026-05-02T07:30:18.587Z</time></trkpt><trkpt lat="44.6347561" lon="10.4796565"><ele>160.16666666666669</ele><time>2026-05-02T07:30:20.521Z</time></trkpt><trkpt lat="44.6347297" lon="10.4797691"><ele>160.0</ele><time>2026-05-02T07:30:22.614Z</time></trkpt><trkpt lat="44.6347206" lon="10.4798742"><ele>160.0</ele><time>2026-05-02T07:30:24.564Z</time></trkpt><trkpt lat="44.6347053" lon="10.4799986"><ele>160.0</ele><time>2026-05-02T07:30:27.563Z</time></trkpt><trkpt lat="44.6346907" lon="10.4801123"><ele>160.0</ele><time>2026-05-02T07:30:30.564Z</time></trkpt><trkpt lat="44.6346768" lon="10.480215"><ele>160.0</ele><time>2026-05-02T07:30:33.581Z</time></trkpt><trkpt lat="44.6346576" lon="10.480313"><ele>160.0</ele><time>2026-05-02T07:30:36.541Z</time></trkpt><trkpt lat="44.6346446" lon="10.4804022"><ele>160.0</ele><time>2026-05-02T07:30:38.613Z</time></trkpt><trkpt lat="44.6346292" lon="10.480504"><ele>160.16666666666669</ele><time>2026-05-02T07:30:41.563Z</time></trkpt><trkpt lat="44.6346201" lon="10.4806379"><ele>160.33333333333334</ele><time>2026-05-02T07:30:44.564Z</time></trkpt><trkpt lat="44.6346129" lon="10.4807393"><ele>160.5</ele><time>2026-05-02T07:30:46.563Z</time></trkpt><trkpt lat="44.6346049" lon="10.4808743"><ele>160.66666666666666</ele><time>2026-05-02T07:30:49.581Z</time></trkpt><trkpt lat="44.6346018" lon="10.4809657"><ele>160.83333333333331</ele><time>2026-05-02T07:30:51.594Z</time></trkpt><trkpt lat="44.6345991" lon="10.4810855"><ele>161.0</ele><time>2026-05-02T07:30:54.553Z</time></trkpt><trkpt lat="44.6346049" lon="10.4812156"><ele>161.0</ele><time>2026-05-02T07:30:56.616Z</time></trkpt><trkpt lat="44.6345859" lon="10.481305"><ele>161.0</ele><time>2026-05-02T07:30:58.564Z</time></trkpt><trkpt lat="44.6345661" lon="10.481394"><ele>161.0</ele><time>2026-05-02T07:31:00.563Z</time></trkpt><trkpt lat="44.6345492" lon="10.4814821"><ele>161.0</ele><time>2026-05-02T07:31:02.563Z</time></trkpt><trkpt lat="44.6345377" lon="10.4815727"><ele>161.0</ele><time>2026-05-02T07:31:04.576Z</time></trkpt><trkpt lat="44.6345254" lon="10.4816681"><ele>161.0</ele><time>2026-05-02T07:31:07.593Z</time></trkpt><trkpt lat="44.6345143" lon="10.4817763"><ele>161.0</ele><time>2026-05-02T07:31:10.523Z</time></trkpt><trkpt lat="44.6345017" lon="10.4819113"><ele>161.0</ele><time>2026-05-02T07:31:13.624Z</time></trkpt><trkpt lat="44.6344966" lon="10.4820087"><ele>161.0</ele><time>2026-05-02T07:31:15.564Z</time></trkpt><trkpt lat="44.6344773" lon="10.4821292"><ele>161.0</ele><time>2026-05-02T07:31:18.564Z</time></trkpt><trkpt lat="44.6344615" lon="10.4822394"><ele>161.0</ele><time>2026-05-02T07:31:21.58Z</time></trkpt><trkpt lat="44.6344457" lon="10.4823448"><ele>161.0</ele><time>2026-05-02T07:31:24.599Z</time></trkpt><trkpt lat="44.6344209" lon="10.4824748"><ele>161.0</ele><time>2026-05-02T07:31:27.619Z</time></trkpt><trkpt lat="44.6344001" lon="10.482564"><ele>161.16666666666666</ele><time>2026-05-02T07:31:29.501Z</time></trkpt><trkpt lat="44.634393" lon="10.4826884"><ele>161.33333333333331</ele><time>2026-05-02T07:31:32.6Z</time></trkpt><trkpt lat="44.6343694" lon="10.4828073"><ele>161.5</ele><time>2026-05-02T07:31:35.567Z</time></trkpt><trkpt lat="44.63435" lon="10.4829152"><ele>161.66666666666666</ele><time>2026-05-02T07:31:38.517Z</time></trkpt><trkpt lat="44.6343345" lon="10.4830273"><ele>161.83333333333334</ele><time>2026-05-02T07:31:41.605Z</time></trkpt><trkpt lat="44.6343179" lon="10.4831426"><ele>162.0</ele><time>2026-05-02T07:31:44.523Z</time></trkpt><trkpt lat="44.6343067" lon="10.4832527"><ele>162.0</ele><time>2026-05-02T07:31:47.565Z</time></trkpt><trkpt lat="44.6342866" lon="10.4833603"><ele>162.0</ele><time>2026-05-02T07:31:50.623Z</time></trkpt><trkpt lat="44.6342614" lon="10.4834622"><ele>162.0</ele><time>2026-05-02T07:31:53.581Z</time></trkpt><trkpt lat="44.6342349" lon="10.4835738"><ele>162.0</ele><time>2026-05-02T07:31:56.598Z</time></trkpt><trkpt lat="44.6342157" lon="10.4836959"><ele>162.0</ele><time>2026-05-02T07:31:58.562Z</time></trkpt><trkpt lat="44.6342026" lon="10.4838031"><ele>162.0</ele><time>2026-05-02T07:32:00.557Z</time></trkpt><trkpt lat="44.6341786" lon="10.4839247"><ele>161.5</ele><time>2026-05-02T07:32:03.557Z</time></trkpt><trkpt lat="44.6341502" lon="10.4840472"><ele>161.0</ele><time>2026-05-02T07:32:06.603Z</time></trkpt><trkpt lat="44.6341283" lon="10.4841442"><ele>160.5</ele><time>2026-05-02T07:32:08.573Z</time></trkpt><trkpt lat="44.6341062" lon="10.484271"><ele>160.0</ele><time>2026-05-02T07:32:10.586Z</time></trkpt><trkpt lat="44.6340911" lon="10.484391"><ele>159.5</ele><time>2026-05-02T07:32:12.519Z</time></trkpt><trkpt lat="44.6340762" lon="10.4845053"><ele>159.0</ele><time>2026-05-02T07:32:14.583Z</time></trkpt><trkpt lat="44.6340631" lon="10.4846268"><ele>159.0</ele><time>2026-05-02T07:32:16.564Z</time></trkpt><trkpt lat="44.6340559" lon="10.4847322"><ele>159.0</ele><time>2026-05-02T07:32:18.558Z</time></trkpt><trkpt lat="44.6340484" lon="10.4848274"><ele>159.0</ele><time>2026-05-02T07:32:20.563Z</time></trkpt><trkpt lat="44.634013" lon="10.4850339"><ele>159.0</ele><time>2026-05-02T07:32:23.176Z</time></trkpt><trkpt lat="44.6340012" lon="10.4851461"><ele>159.0</ele><time>2026-05-02T07:32:24.575Z</time></trkpt><trkpt lat="44.6339986" lon="10.4852468"><ele>159.0</ele><time>2026-05-02T07:32:26.617Z</time></trkpt><trkpt lat="44.6340128" lon="10.4853393"><ele>158.7142857142857</ele><time>2026-05-02T07:32:28.598Z</time></trkpt><trkpt lat="44.6340287" lon="10.4854318"><ele>158.42857142857144</ele><time>2026-05-02T07:32:30.611Z</time></trkpt><trkpt lat="44.6340145" lon="10.4855378"><ele>158.14285714285714</ele><time>2026-05-02T07:32:32.623Z</time></trkpt><trkpt lat="44.634003" lon="10.485637"><ele>157.85714285714283</ele><time>2026-05-02T07:32:34.562Z</time></trkpt><trkpt lat="44.634003" lon="10.485741"><ele>157.57142857142856</ele><time>2026-05-02T07:32:36.563Z</time></trkpt><trkpt lat="44.6340038" lon="10.4858299"><ele>157.28571428571428</ele><time>2026-05-02T07:32:38.564Z</time></trkpt><trkpt lat="44.6340073" lon="10.4859583"><ele>157.0</ele><time>2026-05-02T07:32:41.579Z</time></trkpt><trkpt lat="44.634003" lon="10.4860537"><ele>156.99999999999997</ele><time>2026-05-02T07:32:43.592Z</time></trkpt><trkpt lat="44.6340011" lon="10.4861434"><ele>157.0</ele><time>2026-05-02T07:32:45.605Z</time></trkpt><trkpt lat="44.6340023" lon="10.4862438"><ele>157.0</ele><time>2026-05-02T07:32:47.64Z</time></trkpt><trkpt lat="44.6340067" lon="10.4863337"><ele>157.0</ele><time>2026-05-02T07:32:49.564Z</time></trkpt><trkpt lat="44.6340134" lon="10.4864494"><ele>157.0</ele><time>2026-05-02T07:32:52.565Z</time></trkpt><trkpt lat="44.6340194" lon="10.4865591"><ele>156.99999999999997</ele><time>2026-05-02T07:32:55.477Z</time></trkpt><trkpt lat="44.6340221" lon="10.4866624"><ele>157.0</ele><time>2026-05-02T07:32:57.579Z</time></trkpt><trkpt lat="44.6340166" lon="10.4867626"><ele>156.66666666666669</ele><time>2026-05-02T07:32:59.613Z</time></trkpt><trkpt lat="44.6340272" lon="10.4868874"><ele>156.33333333333334</ele><time>2026-05-02T07:33:02.611Z</time></trkpt><trkpt lat="44.634036" lon="10.4869913"><ele>156.0</ele><time>2026-05-02T07:33:05.563Z</time></trkpt><trkpt lat="44.6340384" lon="10.4870984"><ele>155.66666666666666</ele><time>2026-05-02T07:33:08.565Z</time></trkpt><trkpt lat="44.634048" lon="10.4872089"><ele>155.33333333333331</ele><time>2026-05-02T07:33:11.567Z</time></trkpt><trkpt lat="44.6340604" lon="10.4873213"><ele>155.0</ele><time>2026-05-02T07:33:14.586Z</time></trkpt><trkpt lat="44.6340634" lon="10.4874391"><ele>154.66666666666666</ele><time>2026-05-02T07:33:17.605Z</time></trkpt><trkpt lat="44.6340717" lon="10.4875461"><ele>154.33333333333331</ele><time>2026-05-02T07:33:20.516Z</time></trkpt><trkpt lat="44.6340861" lon="10.487656"><ele>154.0</ele><time>2026-05-02T07:33:23.563Z</time></trkpt><trkpt lat="44.6341012" lon="10.4877655"><ele>153.66666666666666</ele><time>2026-05-02T07:33:26.563Z</time></trkpt><trkpt lat="44.6340825" lon="10.4878746"><ele>153.33333333333334</ele><time>2026-05-02T07:33:29.579Z</time></trkpt><trkpt lat="44.63411" lon="10.4879554"><ele>153.0</ele><time>2026-05-02T07:33:31.592Z</time></trkpt><trkpt lat="44.6341236" lon="10.4880732"><ele>153.0</ele><time>2026-05-02T07:33:34.611Z</time></trkpt><trkpt lat="44.6341259" lon="10.4881851"><ele>153.0</ele><time>2026-05-02T07:33:37.601Z</time></trkpt><trkpt lat="44.6341267" lon="10.4882901"><ele>153.0</ele><time>2026-05-02T07:33:40.563Z</time></trkpt><trkpt lat="44.6341233" lon="10.4884091"><ele>153.0</ele><time>2026-05-02T07:33:43.567Z</time></trkpt><trkpt lat="44.6341153" lon="10.4885482"><ele>153.0</ele><time>2026-05-02T07:33:46.586Z</time></trkpt><trkpt lat="44.6341203" lon="10.4886515"><ele>153.0</ele><time>2026-05-02T07:33:49.577Z</time></trkpt><trkpt lat="44.6341322" lon="10.4887683"><ele>152.83333333333334</ele><time>2026-05-02T07:33:52.595Z</time></trkpt><trkpt lat="44.6341398" lon="10.4888611"><ele>152.66666666666666</ele><time>2026-05-02T07:33:54.558Z</time></trkpt><trkpt lat="44.6341303" lon="10.4889764"><ele>152.5</ele><time>2026-05-02T07:33:56.563Z</time></trkpt><trkpt lat="44.6341275" lon="10.4890717"><ele>152.33333333333331</ele><time>2026-05-02T07:33:58.562Z</time></trkpt><trkpt lat="44.6341384" lon="10.4891992"><ele>152.16666666666666</ele><time>2026-05-02T07:34:01.58Z</time></trkpt><trkpt lat="44.634149" lon="10.4893265"><ele>152.0</ele><time>2026-05-02T07:34:04.598Z</time></trkpt><trkpt lat="44.6341538" lon="10.4894544"><ele>152.0</ele><time>2026-05-02T07:34:07.618Z</time></trkpt><trkpt lat="44.6341623" lon="10.489582"><ele>152.0</ele><time>2026-05-02T07:34:10.497Z</time></trkpt><trkpt lat="44.6341709" lon="10.4897103"><ele>152.0</ele><time>2026-05-02T07:34:13.556Z</time></trkpt><trkpt lat="44.6341806" lon="10.4898167"><ele>152.0</ele><time>2026-05-02T07:34:16.554Z</time></trkpt><trkpt lat="44.6341972" lon="10.4899312"><ele>152.0</ele><time>2026-05-02T07:34:19.595Z</time></trkpt><trkpt lat="44.6342193" lon="10.4900539"><ele>152.0</ele><time>2026-05-02T07:34:22.622Z</time></trkpt><trkpt lat="44.6342437" lon="10.4901967"><ele>151.83333333333331</ele><time>2026-05-02T07:34:25.564Z</time></trkpt><trkpt lat="44.6342605" lon="10.4903139"><ele>151.66666666666666</ele><time>2026-05-02T07:34:28.565Z</time></trkpt><trkpt lat="44.6342787" lon="10.4903993"><ele>151.5</ele><time>2026-05-02T07:34:30.564Z</time></trkpt><trkpt lat="44.6343116" lon="10.4905196"><ele>151.33333333333334</ele><time>2026-05-02T07:34:33.579Z</time></trkpt><trkpt lat="44.6343349" lon="10.4906126"><ele>151.16666666666669</ele><time>2026-05-02T07:34:35.593Z</time></trkpt><trkpt lat="44.6343606" lon="10.4907053"><ele>151.0</ele><time>2026-05-02T07:34:37.604Z</time></trkpt><trkpt lat="44.6343823" lon="10.4907997"><ele>151.0</ele><time>2026-05-02T07:34:39.617Z</time></trkpt><trkpt lat="44.6344003" lon="10.4908976"><ele>151.0</ele><time>2026-05-02T07:34:41.564Z</time></trkpt><trkpt lat="44.6344229" lon="10.4909965"><ele>151.0</ele><time>2026-05-02T07:34:43.563Z</time></trkpt><trkpt lat="44.6344599" lon="10.491104"><ele>151.0</ele><time>2026-05-02T07:34:45.564Z</time></trkpt><trkpt lat="44.6344988" lon="10.491203"><ele>151.0</ele><time>2026-05-02T07:34:47.567Z</time></trkpt><trkpt lat="44.6345297" lon="10.4913965"><ele>150.4</ele><time>2026-05-02T07:34:49.52Z</time></trkpt><trkpt lat="44.6345369" lon="10.4915094"><ele>149.8</ele><time>2026-05-02T07:34:50.586Z</time></trkpt><trkpt lat="44.634563" lon="10.491642"><ele>149.20000000000002</ele><time>2026-05-02T07:34:52.598Z</time></trkpt><trkpt lat="44.6345748" lon="10.4917628"><ele>148.6</ele><time>2026-05-02T07:34:54.622Z</time></trkpt><trkpt lat="44.6345893" lon="10.4920086"><ele>148.0</ele><time>2026-05-02T07:34:57.563Z</time></trkpt><trkpt lat="44.6346084" lon="10.4921568"><ele>147.6</ele><time>2026-05-02T07:34:59.565Z</time></trkpt><trkpt lat="44.634621" lon="10.4922732"><ele>147.20000000000002</ele><time>2026-05-02T07:35:01.563Z</time></trkpt><trkpt lat="44.6346218" lon="10.4923929"><ele>146.8</ele><time>2026-05-02T07:35:03.566Z</time></trkpt><trkpt lat="44.6346203" lon="10.4925071"><ele>146.4</ele><time>2026-05-02T07:35:05.579Z</time></trkpt><trkpt lat="44.634656" lon="10.4927689"><ele>146.0</ele><time>2026-05-02T07:35:07.592Z</time></trkpt><trkpt lat="44.6346659" lon="10.4928898"><ele>146.0</ele><time>2026-05-02T07:35:08.599Z</time></trkpt><trkpt lat="44.6346709" lon="10.4929784"><ele>146.0</ele><time>2026-05-02T07:35:09.575Z</time></trkpt><trkpt lat="44.6346829" lon="10.4931193"><ele>146.0</ele><time>2026-05-02T07:35:11.618Z</time></trkpt><trkpt lat="44.6347031" lon="10.4932358"><ele>146.0</ele><time>2026-05-02T07:35:13.563Z</time></trkpt><trkpt lat="44.6347236" lon="10.4933466"><ele>146.0</ele><time>2026-05-02T07:35:15.563Z</time></trkpt><trkpt lat="44.6347353" lon="10.4934535"><ele>146.0</ele><time>2026-05-02T07:35:17.564Z</time></trkpt><trkpt lat="44.6347477" lon="10.493549"><ele>146.0</ele><time>2026-05-02T07:35:19.566Z</time></trkpt><trkpt lat="44.6347628" lon="10.4936481"><ele>146.0</ele><time>2026-05-02T07:35:21.579Z</time></trkpt><trkpt lat="44.6347648" lon="10.4937381"><ele>146.0</ele><time>2026-05-02T07:35:23.592Z</time></trkpt><trkpt lat="44.634768" lon="10.4938689"><ele>146.0</ele><time>2026-05-02T07:35:26.541Z</time></trkpt><trkpt lat="44.6347698" lon="10.4939923"><ele>146.0</ele><time>2026-05-02T07:35:29.6Z</time></trkpt><trkpt lat="44.6347534" lon="10.4941391"><ele>146.0</ele><time>2026-05-02T07:35:30.564Z</time></trkpt><trkpt lat="44.6347404" lon="10.4942513"><ele>145.66666666666666</ele><time>2026-05-02T07:35:32.621Z</time></trkpt><trkpt lat="44.6347462" lon="10.4943598"><ele>145.33333333333331</ele><time>2026-05-02T07:35:34.564Z</time></trkpt><trkpt lat="44.6347483" lon="10.4944794"><ele>145.0</ele><time>2026-05-02T07:35:37.579Z</time></trkpt><trkpt lat="44.6347493" lon="10.4945905"><ele>144.66666666666666</ele><time>2026-05-02T07:35:40.598Z</time></trkpt><trkpt lat="44.6347468" lon="10.4946995"><ele>144.33333333333334</ele><time>2026-05-02T07:35:43.537Z</time></trkpt><trkpt lat="44.634748" lon="10.4948188"><ele>144.0</ele><time>2026-05-02T07:35:46.565Z</time></trkpt><trkpt lat="44.634749" lon="10.494923"><ele>144.0</ele><time>2026-05-02T07:35:49.564Z</time></trkpt><trkpt lat="44.6347564" lon="10.4950349"><ele>144.0</ele><time>2026-05-02T07:35:52.634Z</time></trkpt><trkpt lat="44.6347543" lon="10.4951552"><ele>144.0</ele><time>2026-05-02T07:35:55.591Z</time></trkpt><trkpt lat="44.6347493" lon="10.4952709"><ele>144.0</ele><time>2026-05-02T07:35:58.61Z</time></trkpt><trkpt lat="44.6347413" lon="10.4953859"><ele>144.0</ele><time>2026-05-02T07:36:01.564Z</time></trkpt><trkpt lat="44.634719" lon="10.4954884"><ele>144.0</ele><time>2026-05-02T07:36:04.499Z</time></trkpt><trkpt lat="44.6347097" lon="10.4956125"><ele>143.85714285714286</ele><time>2026-05-02T07:36:07.577Z</time></trkpt><trkpt lat="44.6347035" lon="10.4957088"><ele>143.71428571428572</ele><time>2026-05-02T07:36:09.579Z</time></trkpt><trkpt lat="44.6346954" lon="10.4957967"><ele>143.57142857142856</ele><time>2026-05-02T07:36:11.592Z</time></trkpt><trkpt lat="44.6346901" lon="10.495887"><ele>143.42857142857144</ele><time>2026-05-02T07:36:13.604Z</time></trkpt><trkpt lat="44.6346825" lon="10.4959919"><ele>143.28571428571428</ele><time>2026-05-02T07:36:15.617Z</time></trkpt><trkpt lat="44.6346808" lon="10.4961155"><ele>143.14285714285714</ele><time>2026-05-02T07:36:18.557Z</time></trkpt><trkpt lat="44.6346816" lon="10.4962165"><ele>143.0</ele><time>2026-05-02T07:36:20.564Z</time></trkpt><trkpt lat="44.6346784" lon="10.4963108"><ele>143.0</ele><time>2026-05-02T07:36:22.565Z</time></trkpt><trkpt lat="44.6346724" lon="10.4964034"><ele>143.0</ele><time>2026-05-02T07:36:24.572Z</time></trkpt><trkpt lat="44.634671" lon="10.4965019"><ele>143.0</ele><time>2026-05-02T07:36:26.586Z</time></trkpt><trkpt lat="44.6346676" lon="10.4965921"><ele>143.0</ele><time>2026-05-02T07:36:28.597Z</time></trkpt><trkpt lat="44.6346605" lon="10.4967183"><ele>143.0</ele><time>2026-05-02T07:36:31.537Z</time></trkpt><trkpt lat="44.6346575" lon="10.4968483"><ele>143.0</ele><time>2026-05-02T07:36:34.616Z</time></trkpt><trkpt lat="44.6346548" lon="10.4969463"><ele>142.99999999999997</ele><time>2026-05-02T07:36:36.564Z</time></trkpt><trkpt lat="44.6346504" lon="10.4970434"><ele>143.0</ele><time>2026-05-02T07:36:38.564Z</time></trkpt><trkpt lat="44.6346472" lon="10.4971323"><ele>143.0</ele><time>2026-05-02T07:36:40.572Z</time></trkpt><trkpt lat="44.6346483" lon="10.4972243"><ele>143.0</ele><time>2026-05-02T07:36:42.516Z</time></trkpt><trkpt lat="44.6346496" lon="10.4973219"><ele>143.0</ele><time>2026-05-02T07:36:44.598Z</time></trkpt><trkpt lat="44.6346473" lon="10.4974129"><ele>142.99999999999997</ele><time>2026-05-02T07:36:46.61Z</time></trkpt><trkpt lat="44.6346486" lon="10.4975136"><ele>143.0</ele><time>2026-05-02T07:36:48.564Z</time></trkpt><trkpt lat="44.6346548" lon="10.4976129"><ele>142.83333333333331</ele><time>2026-05-02T07:36:50.496Z</time></trkpt><trkpt lat="44.6346582" lon="10.4977203"><ele>142.66666666666666</ele><time>2026-05-02T07:36:52.579Z</time></trkpt><trkpt lat="44.6346641" lon="10.4978145"><ele>142.5</ele><time>2026-05-02T07:36:54.565Z</time></trkpt><trkpt lat="44.6346729" lon="10.4979372"><ele>142.33333333333334</ele><time>2026-05-02T07:36:57.578Z</time></trkpt><trkpt lat="44.6346758" lon="10.4980496"><ele>142.16666666666669</ele><time>2026-05-02T07:37:00.578Z</time></trkpt><trkpt lat="44.6346709" lon="10.4981532"><ele>142.0</ele><time>2026-05-02T07:37:03.564Z</time></trkpt><trkpt lat="44.6346671" lon="10.4982557"><ele>141.85714285714286</ele><time>2026-05-02T07:37:06.567Z</time></trkpt><trkpt lat="44.6346651" lon="10.4983585"><ele>141.7142857142857</ele><time>2026-05-02T07:37:09.575Z</time></trkpt><trkpt lat="44.6346708" lon="10.4984711"><ele>141.57142857142856</ele><time>2026-05-02T07:37:12.572Z</time></trkpt><trkpt lat="44.6346748" lon="10.498595"><ele>141.42857142857142</ele><time>2026-05-02T07:37:15.563Z</time></trkpt><trkpt lat="44.634667" lon="10.4986879"><ele>141.28571428571428</ele><time>2026-05-02T07:37:17.603Z</time></trkpt><trkpt lat="44.6346549" lon="10.4987817"><ele>141.14285714285714</ele><time>2026-05-02T07:37:19.564Z</time></trkpt><trkpt lat="44.6346475" lon="10.498873"><ele>141.0</ele><time>2026-05-02T07:37:21.52Z</time></trkpt><trkpt lat="44.6346499" lon="10.4989732"><ele>141.0</ele><time>2026-05-02T07:37:23.583Z</time></trkpt><trkpt lat="44.6346559" lon="10.4990768"><ele>141.0</ele><time>2026-05-02T07:37:25.565Z</time></trkpt><trkpt lat="44.6346595" lon="10.4991769"><ele>141.0</ele><time>2026-05-02T07:37:27.566Z</time></trkpt><trkpt lat="44.6346566" lon="10.4992722"><ele>141.0</ele><time>2026-05-02T07:37:29.578Z</time></trkpt><trkpt lat="44.6346551" lon="10.4993754"><ele>141.0</ele><time>2026-05-02T07:37:31.522Z</time></trkpt><trkpt lat="44.6346668" lon="10.4994832"><ele>141.0</ele><time>2026-05-02T07:37:33.603Z</time></trkpt><trkpt lat="44.6346628" lon="10.4995893"><ele>141.0</ele><time>2026-05-02T07:37:35.617Z</time></trkpt><trkpt lat="44.6346538" lon="10.4997016"><ele>140.83333333333334</ele><time>2026-05-02T07:37:37.565Z</time></trkpt><trkpt lat="44.6346491" lon="10.4998247"><ele>140.66666666666666</ele><time>2026-05-02T07:37:40.539Z</time></trkpt><trkpt lat="44.6346483" lon="10.4999202"><ele>140.5</ele><time>2026-05-02T07:37:42.601Z</time></trkpt><trkpt lat="44.6346517" lon="10.5000139"><ele>140.33333333333331</ele><time>2026-05-02T07:37:44.572Z</time></trkpt><trkpt lat="44.6346645" lon="10.5001391"><ele>140.16666666666666</ele><time>2026-05-02T07:37:47.591Z</time></trkpt><trkpt lat="44.634673" lon="10.5002304"><ele>140.0</ele><time>2026-05-02T07:37:49.603Z</time></trkpt><trkpt lat="44.6346863" lon="10.5003624"><ele>139.83333333333331</ele><time>2026-05-02T07:37:52.553Z</time></trkpt><trkpt lat="44.6346952" lon="10.5004517"><ele>139.66666666666666</ele><time>2026-05-02T07:37:54.596Z</time></trkpt><trkpt lat="44.6347042" lon="10.5005679"><ele>139.5</ele><time>2026-05-02T07:37:57.563Z</time></trkpt><trkpt lat="44.6347137" lon="10.500675"><ele>139.33333333333334</ele><time>2026-05-02T07:38:00.572Z</time></trkpt><trkpt lat="44.6347228" lon="10.5007675"><ele>139.16666666666669</ele><time>2026-05-02T07:38:02.585Z</time></trkpt><trkpt lat="44.6347144" lon="10.5008864"><ele>139.0</ele><time>2026-05-02T07:38:04.538Z</time></trkpt><trkpt lat="44.6347024" lon="10.5009993"><ele>139.0</ele><time>2026-05-02T07:38:06.611Z</time></trkpt><trkpt lat="44.634712" lon="10.5011846"><ele>139.0</ele><time>2026-05-02T07:38:09.565Z</time></trkpt><trkpt lat="44.634731" lon="10.5013172"><ele>139.0</ele><time>2026-05-02T07:38:11.563Z</time></trkpt><trkpt lat="44.6347335" lon="10.50141"><ele>139.0</ele><time>2026-05-02T07:38:13.563Z</time></trkpt><trkpt lat="44.6347374" lon="10.5015226"><ele>139.0</ele><time>2026-05-02T07:38:16.533Z</time></trkpt><trkpt lat="44.6347489" lon="10.5016328"><ele>139.0</ele><time>2026-05-02T07:38:19.592Z</time></trkpt><trkpt lat="44.6347601" lon="10.5017392"><ele>139.0</ele><time>2026-05-02T07:38:22.567Z</time></trkpt><trkpt lat="44.6347856" lon="10.501842"><ele>139.0</ele><time>2026-05-02T07:38:25.563Z</time></trkpt><trkpt lat="44.6348126" lon="10.5019568"><ele>139.0</ele><time>2026-05-02T07:38:28.562Z</time></trkpt><trkpt lat="44.6348392" lon="10.5020751"><ele>139.0</ele><time>2026-05-02T07:38:31.566Z</time></trkpt><trkpt lat="44.6348721" lon="10.5022079"><ele>139.0</ele><time>2026-05-02T07:38:34.585Z</time></trkpt><trkpt lat="44.6348949" lon="10.5023181"><ele>138.8</ele><time>2026-05-02T07:38:36.597Z</time></trkpt><trkpt lat="44.6349082" lon="10.5024111"><ele>138.60000000000002</ele><time>2026-05-02T07:38:38.521Z</time></trkpt><trkpt lat="44.634913" lon="10.5026562"><ele>138.4</ele><time>2026-05-02T07:38:41.601Z</time></trkpt><trkpt lat="44.634907" lon="10.5027643"><ele>138.20000000000002</ele><time>2026-05-02T07:38:42.596Z</time></trkpt><trkpt lat="44.6349014" lon="10.5029166"><ele>138.0</ele><time>2026-05-02T07:38:44.564Z</time></trkpt><trkpt lat="44.634916" lon="10.5031115"><ele>137.20000000000002</ele><time>2026-05-02T07:38:46.565Z</time></trkpt><trkpt lat="44.6349392" lon="10.5032704"><ele>136.4</ele><time>2026-05-02T07:38:48.483Z</time></trkpt><trkpt lat="44.634958" lon="10.503411"><ele>135.60000000000002</ele><time>2026-05-02T07:38:50.584Z</time></trkpt><trkpt lat="44.6349838" lon="10.5035303"><ele>134.8</ele><time>2026-05-02T07:38:52.598Z</time></trkpt><trkpt lat="44.6349991" lon="10.5036208"><ele>134.0</ele><time>2026-05-02T07:38:54.61Z</time></trkpt><trkpt lat="44.635006" lon="10.5037322"><ele>134.14285714285714</ele><time>2026-05-02T07:38:56.622Z</time></trkpt><trkpt lat="44.6350178" lon="10.5038487"><ele>134.28571428571428</ele><time>2026-05-02T07:38:58.536Z</time></trkpt><trkpt lat="44.6350328" lon="10.5039466"><ele>134.42857142857142</ele><time>2026-05-02T07:39:00.564Z</time></trkpt><trkpt lat="44.635043" lon="10.5040447"><ele>134.57142857142856</ele><time>2026-05-02T07:39:02.564Z</time></trkpt><trkpt lat="44.6350529" lon="10.5041336"><ele>134.7142857142857</ele><time>2026-05-02T07:39:04.572Z</time></trkpt><trkpt lat="44.635057" lon="10.5042239"><ele>134.85714285714286</ele><time>2026-05-02T07:39:06.584Z</time></trkpt><trkpt lat="44.6350591" lon="10.5043348"><ele>135.0</ele><time>2026-05-02T07:39:09.534Z</time></trkpt><trkpt lat="44.6350644" lon="10.5044585"><ele>135.0</ele><time>2026-05-02T07:39:12.564Z</time></trkpt><trkpt lat="44.6350651" lon="10.5045496"><ele>135.0</ele><time>2026-05-02T07:39:14.565Z</time></trkpt><trkpt lat="44.6350754" lon="10.5046482"><ele>135.0</ele><time>2026-05-02T07:39:16.564Z</time></trkpt><trkpt lat="44.6350808" lon="10.5047384"><ele>135.0</ele><time>2026-05-02T07:39:18.563Z</time></trkpt><trkpt lat="44.6350782" lon="10.504853"><ele>135.0</ele><time>2026-05-02T07:39:21.521Z</time></trkpt><trkpt lat="44.6350713" lon="10.5049512"><ele>135.0</ele><time>2026-05-02T07:39:22.585Z</time></trkpt><trkpt lat="44.6350638" lon="10.505061"><ele>135.0</ele><time>2026-05-02T07:39:24.64Z</time></trkpt><trkpt lat="44.635053" lon="10.5051787"><ele>135.16666666666666</ele><time>2026-05-02T07:39:27.565Z</time></trkpt><trkpt lat="44.6350393" lon="10.505293"><ele>135.33333333333334</ele><time>2026-05-02T07:39:30.495Z</time></trkpt><trkpt lat="44.6350125" lon="10.5054155"><ele>135.5</ele><time>2026-05-02T07:39:33.614Z</time></trkpt><trkpt lat="44.6349899" lon="10.5055074"><ele>135.66666666666669</ele><time>2026-05-02T07:39:35.565Z</time></trkpt><trkpt lat="44.6349501" lon="10.5056085"><ele>135.83333333333334</ele><time>2026-05-02T07:39:37.578Z</time></trkpt><trkpt lat="44.6349169" lon="10.5057042"><ele>136.0</ele><time>2026-05-02T07:39:39.59Z</time></trkpt><trkpt lat="44.6348918" lon="10.5057942"><ele>136.0</ele><time>2026-05-02T07:39:41.556Z</time></trkpt><trkpt lat="44.6348625" lon="10.5058836"><ele>136.0</ele><time>2026-05-02T07:39:43.616Z</time></trkpt><trkpt lat="44.6348564" lon="10.5059939"><ele>136.0</ele><time>2026-05-02T07:39:45.565Z</time></trkpt><trkpt lat="44.63486" lon="10.5060892"><ele>136.0</ele><time>2026-05-02T07:39:47.564Z</time></trkpt><trkpt lat="44.6348577" lon="10.5062123"><ele>136.0</ele><time>2026-05-02T07:39:50.5Z</time></trkpt><trkpt lat="44.634834" lon="10.5063249"><ele>136.0</ele><time>2026-05-02T07:39:52.543Z</time></trkpt><trkpt lat="44.6348124" lon="10.5064123"><ele>136.0</ele><time>2026-05-02T07:39:54.616Z</time></trkpt><trkpt lat="44.634824" lon="10.5065833"><ele>136.0</ele><time>2026-05-02T07:39:56.597Z</time></trkpt><trkpt lat="44.6348387" lon="10.506728"><ele>136.0</ele><time>2026-05-02T07:39:58.61Z</time></trkpt><trkpt lat="44.6348608" lon="10.5068174"><ele>136.0</ele><time>2026-05-02T07:40:00.622Z</time></trkpt><trkpt lat="44.6348328" lon="10.5069374"><ele>136.0</ele><time>2026-05-02T07:40:02.566Z</time></trkpt><trkpt lat="44.6347835" lon="10.5070155"><ele>135.4</ele><time>2026-05-02T07:40:04.566Z</time></trkpt><trkpt lat="44.634716" lon="10.5070942"><ele>134.8</ele><time>2026-05-02T07:40:07.567Z</time></trkpt><trkpt lat="44.6347347" lon="10.5072947"><ele>134.20000000000002</ele><time>2026-05-02T07:40:09.578Z</time></trkpt><trkpt lat="44.6347067" lon="10.5074441"><ele>133.6</ele><time>2026-05-02T07:40:11.59Z</time></trkpt><trkpt lat="44.6346904" lon="10.5075552"><ele>133.0</ele><time>2026-05-02T07:40:13.603Z</time></trkpt><trkpt lat="44.6346117" lon="10.50765"><ele>133.0</ele><time>2026-05-02T07:40:15.618Z</time></trkpt><trkpt lat="44.6345523" lon="10.5077562"><ele>133.0</ele><time>2026-05-02T07:40:18.564Z</time></trkpt><trkpt lat="44.6345143" lon="10.5078294"><ele>133.0</ele><time>2026-05-02T07:40:20.498Z</time></trkpt><trkpt lat="44.6344694" lon="10.5079024"><ele>133.0</ele><time>2026-05-02T07:40:22.603Z</time></trkpt><trkpt lat="44.6344237" lon="10.507964"><ele>133.0</ele><time>2026-05-02T07:40:24.571Z</time></trkpt><trkpt lat="44.6343843" lon="10.5080357"><ele>133.0</ele><time>2026-05-02T07:40:26.584Z</time></trkpt><trkpt lat="44.6343348" lon="10.5081248"><ele>133.0</ele><time>2026-05-02T07:40:29.603Z</time></trkpt><trkpt lat="44.6342784" lon="10.5082131"><ele>133.33333333333334</ele><time>2026-05-02T07:40:32.565Z</time></trkpt><trkpt lat="44.6342413" lon="10.5082871"><ele>133.66666666666669</ele><time>2026-05-02T07:40:34.564Z</time></trkpt><trkpt lat="44.6342099" lon="10.5083913"><ele>134.0</ele><time>2026-05-02T07:40:36.578Z</time></trkpt><trkpt lat="44.6341759" lon="10.508495"><ele>134.33333333333334</ele><time>2026-05-02T07:40:38.564Z</time></trkpt><trkpt lat="44.634148" lon="10.5085763"><ele>134.66666666666666</ele><time>2026-05-02T07:40:40.572Z</time></trkpt><trkpt lat="44.6341108" lon="10.5086848"><ele>135.0</ele><time>2026-05-02T07:40:43.59Z</time></trkpt><trkpt lat="44.6340788" lon="10.5087794"><ele>135.0</ele><time>2026-05-02T07:40:46.609Z</time></trkpt><trkpt lat="44.6340312" lon="10.5088734"><ele>135.0</ele><time>2026-05-02T07:40:50.567Z</time></trkpt><trkpt lat="44.6339898" lon="10.5089506"><ele>135.0</ele><time>2026-05-02T07:40:53.574Z</time></trkpt><trkpt lat="44.6339481" lon="10.5090421"><ele>135.0</ele><time>2026-05-02T07:40:56.571Z</time></trkpt><trkpt lat="44.6339066" lon="10.5091244"><ele>135.0</ele><time>2026-05-02T07:40:59.59Z</time></trkpt><trkpt lat="44.6338614" lon="10.5092095"><ele>135.0</ele><time>2026-05-02T07:41:02.561Z</time></trkpt><trkpt lat="44.6338102" lon="10.5093158"><ele>135.0</ele><time>2026-05-02T07:41:05.62Z</time></trkpt><trkpt lat="44.6337623" lon="10.5094186"><ele>135.0</ele><time>2026-05-02T07:41:08.564Z</time></trkpt><trkpt lat="44.6337042" lon="10.5095287"><ele>135.0</ele><time>2026-05-02T07:41:11.566Z</time></trkpt><trkpt lat="44.6336658" lon="10.5096183"><ele>135.0</ele><time>2026-05-02T07:41:13.577Z</time></trkpt><trkpt lat="44.6336049" lon="10.5097362"><ele>135.0</ele><time>2026-05-02T07:41:16.578Z</time></trkpt><trkpt lat="44.6335779" lon="10.509886"><ele>135.71428571428572</ele><time>2026-05-02T07:41:18.609Z</time></trkpt><trkpt lat="44.6335507" lon="10.5099811"><ele>136.42857142857142</ele><time>2026-05-02T07:41:20.567Z</time></trkpt><trkpt lat="44.6335194" lon="10.5100645"><ele>137.14285714285714</ele><time>2026-05-02T07:41:22.561Z</time></trkpt><trkpt lat="44.6334825" lon="10.5101505"><ele>137.85714285714286</ele><time>2026-05-02T07:41:24.566Z</time></trkpt><trkpt lat="44.6334448" lon="10.5102367"><ele>138.57142857142856</ele><time>2026-05-02T07:41:26.56Z</time></trkpt><trkpt lat="44.6334087" lon="10.5103176"><ele>139.28571428571428</ele><time>2026-05-02T07:41:28.624Z</time></trkpt><trkpt lat="44.6333673" lon="10.5103944"><ele>140.0</ele><time>2026-05-02T07:41:30.584Z</time></trkpt><trkpt lat="44.6333307" lon="10.5104746"><ele>140.0</ele><time>2026-05-02T07:41:32.596Z</time></trkpt><trkpt lat="44.6332865" lon="10.5105416"><ele>140.0</ele><time>2026-05-02T07:41:34.561Z</time></trkpt><trkpt lat="44.6332429" lon="10.5106158"><ele>140.0</ele><time>2026-05-02T07:41:36.564Z</time></trkpt><trkpt lat="44.6332166" lon="10.5107349"><ele>140.0</ele><time>2026-05-02T07:41:38.556Z</time></trkpt><trkpt lat="44.6331735" lon="10.5108183"><ele>140.0</ele><time>2026-05-02T07:41:40.562Z</time></trkpt><trkpt lat="44.6331201" lon="10.5109017"><ele>140.0</ele><time>2026-05-02T07:41:43.565Z</time></trkpt><trkpt lat="44.6330773" lon="10.5109794"><ele>140.0</ele><time>2026-05-02T07:41:46.585Z</time></trkpt><trkpt lat="44.6330603" lon="10.5111151"><ele>140.0</ele><time>2026-05-02T07:41:48.596Z</time></trkpt><trkpt lat="44.6330319" lon="10.5111951"><ele>140.0</ele><time>2026-05-02T07:41:50.609Z</time></trkpt><trkpt lat="44.6329916" lon="10.5112865"><ele>140.0</ele><time>2026-05-02T07:41:53.564Z</time></trkpt><trkpt lat="44.6329499" lon="10.511388"><ele>140.0</ele><time>2026-05-02T07:41:56.566Z</time></trkpt><trkpt lat="44.632913" lon="10.5114841"><ele>140.0</ele><time>2026-05-02T07:41:59.476Z</time></trkpt><trkpt lat="44.6328795" lon="10.5115607"><ele>140.0</ele><time>2026-05-02T07:42:01.539Z</time></trkpt><trkpt lat="44.6328454" lon="10.5116618"><ele>140.0</ele><time>2026-05-02T07:42:03.604Z</time></trkpt><trkpt lat="44.6328178" lon="10.5117902"><ele>140.14285714285714</ele><time>2026-05-02T07:42:05.602Z</time></trkpt><trkpt lat="44.6327752" lon="10.5118974"><ele>140.28571428571428</ele><time>2026-05-02T07:42:07.565Z</time></trkpt><trkpt lat="44.6327356" lon="10.511977"><ele>140.42857142857144</ele><time>2026-05-02T07:42:09.499Z</time></trkpt><trkpt lat="44.632696" lon="10.5120605"><ele>140.57142857142856</ele><time>2026-05-02T07:42:11.542Z</time></trkpt><trkpt lat="44.6326663" lon="10.5121416"><ele>140.71428571428572</ele><time>2026-05-02T07:42:13.594Z</time></trkpt><trkpt lat="44.6326413" lon="10.5122252"><ele>140.85714285714286</ele><time>2026-05-02T07:42:15.566Z</time></trkpt><trkpt lat="44.6326149" lon="10.5123066"><ele>141.0</ele><time>2026-05-02T07:42:17.477Z</time></trkpt><trkpt lat="44.6325912" lon="10.5123942"><ele>141.0</ele><time>2026-05-02T07:42:19.441Z</time></trkpt><trkpt lat="44.6325688" lon="10.5124831"><ele>141.0</ele><time>2026-05-02T07:42:21.602Z</time></trkpt><trkpt lat="44.6325489" lon="10.5125708"><ele>141.0</ele><time>2026-05-02T07:42:23.576Z</time></trkpt><trkpt lat="44.6325316" lon="10.5126593"><ele>141.0</ele><time>2026-05-02T07:42:25.563Z</time></trkpt><trkpt lat="44.6325112" lon="10.5127963"><ele>141.0</ele><time>2026-05-02T07:42:28.563Z</time></trkpt><trkpt lat="44.632498" lon="10.5129239"><ele>141.0</ele><time>2026-05-02T07:42:31.536Z</time></trkpt><trkpt lat="44.6324781" lon="10.5130151"><ele>140.85714285714286</ele><time>2026-05-02T07:42:33.577Z</time></trkpt><trkpt lat="44.6324575" lon="10.5131046"><ele>140.71428571428572</ele><time>2026-05-02T07:42:35.59Z</time></trkpt><trkpt lat="44.632443" lon="10.5132024"><ele>140.57142857142856</ele><time>2026-05-02T07:42:37.603Z</time></trkpt><trkpt lat="44.6324276" lon="10.5132941"><ele>140.42857142857144</ele><time>2026-05-02T07:42:39.615Z</time></trkpt><trkpt lat="44.6324072" lon="10.5134097"><ele>140.28571428571428</ele><time>2026-05-02T07:42:42.535Z</time></trkpt><trkpt lat="44.6323903" lon="10.5135202"><ele>140.14285714285714</ele><time>2026-05-02T07:42:45.561Z</time></trkpt><trkpt lat="44.6323752" lon="10.5136204"><ele>140.0</ele><time>2026-05-02T07:42:48.571Z</time></trkpt><trkpt lat="44.6323572" lon="10.5137209"><ele>140.42857142857142</ele><time>2026-05-02T07:42:51.562Z</time></trkpt><trkpt lat="44.6323345" lon="10.5138256"><ele>140.85714285714286</ele><time>2026-05-02T07:42:54.609Z</time></trkpt><trkpt lat="44.632304" lon="10.5139247"><ele>141.28571428571428</ele><time>2026-05-02T07:42:57.562Z</time></trkpt><trkpt lat="44.6322749" lon="10.5140195"><ele>141.71428571428572</ele><time>2026-05-02T07:43:00.558Z</time></trkpt><trkpt lat="44.6322628" lon="10.5141253"><ele>142.14285714285714</ele><time>2026-05-02T07:43:03.567Z</time></trkpt><trkpt lat="44.6322524" lon="10.5142278"><ele>142.57142857142856</ele><time>2026-05-02T07:43:06.584Z</time></trkpt><trkpt lat="44.6322335" lon="10.514321"><ele>143.0</ele><time>2026-05-02T07:43:09.603Z</time></trkpt><trkpt lat="44.6322232" lon="10.5144204"><ele>143.0</ele><time>2026-05-02T07:43:12.621Z</time></trkpt><trkpt lat="44.6322152" lon="10.5145431"><ele>143.0</ele><time>2026-05-02T07:43:15.565Z</time></trkpt><trkpt lat="44.6322119" lon="10.5146604"><ele>143.0</ele><time>2026-05-02T07:43:18.565Z</time></trkpt><trkpt lat="44.6322139" lon="10.514776"><ele>143.0</ele><time>2026-05-02T07:43:21.539Z</time></trkpt><trkpt lat="44.632213" lon="10.5148916"><ele>143.0</ele><time>2026-05-02T07:43:24.596Z</time></trkpt><trkpt lat="44.6322194" lon="10.5149923"><ele>143.0</ele><time>2026-05-02T07:43:27.563Z</time></trkpt><trkpt lat="44.6322359" lon="10.5151033"><ele>143.0</ele><time>2026-05-02T07:43:30.562Z</time></trkpt><trkpt lat="44.6322531" lon="10.515224"><ele>143.0</ele><time>2026-05-02T07:43:33.534Z</time></trkpt><trkpt lat="44.6322706" lon="10.5153493"><ele>143.0</ele><time>2026-05-02T07:43:36.603Z</time></trkpt><trkpt lat="44.6322858" lon="10.5154455"><ele>143.0</ele><time>2026-05-02T07:43:38.583Z</time></trkpt><trkpt lat="44.6323029" lon="10.5155465"><ele>143.0</ele><time>2026-05-02T07:43:41.602Z</time></trkpt><trkpt lat="44.6323139" lon="10.5156728"><ele>143.0</ele><time>2026-05-02T07:43:44.564Z</time></trkpt><trkpt lat="44.6323301" lon="10.5158121"><ele>143.0</ele><time>2026-05-02T07:43:47.564Z</time></trkpt><trkpt lat="44.6323408" lon="10.5158997"><ele>143.0</ele><time>2026-05-02T07:43:49.483Z</time></trkpt><trkpt lat="44.632343" lon="10.5160321"><ele>143.0</ele><time>2026-05-02T07:43:51.567Z</time></trkpt><trkpt lat="44.6323603" lon="10.5161539"><ele>143.0</ele><time>2026-05-02T07:43:54.584Z</time></trkpt><trkpt lat="44.6323713" lon="10.5162536"><ele>143.0</ele><time>2026-05-02T07:43:56.596Z</time></trkpt><trkpt lat="44.6323813" lon="10.516343"><ele>143.0</ele><time>2026-05-02T07:43:58.58Z</time></trkpt><trkpt lat="44.6323985" lon="10.5164518"><ele>142.83333333333331</ele><time>2026-05-02T07:44:01.57Z</time></trkpt><trkpt lat="44.6324173" lon="10.5165623"><ele>142.66666666666666</ele><time>2026-05-02T07:44:04.599Z</time></trkpt><trkpt lat="44.6324317" lon="10.5166595"><ele>142.5</ele><time>2026-05-02T07:44:07.564Z</time></trkpt><trkpt lat="44.6324494" lon="10.516762"><ele>142.33333333333334</ele><time>2026-05-02T07:44:10.583Z</time></trkpt><trkpt lat="44.6324718" lon="10.5168688"><ele>142.16666666666669</ele><time>2026-05-02T07:44:13.594Z</time></trkpt><trkpt lat="44.6324912" lon="10.5169783"><ele>142.0</ele><time>2026-05-02T07:44:16.564Z</time></trkpt><trkpt lat="44.6325081" lon="10.517088"><ele>142.33333333333334</ele><time>2026-05-02T07:44:19.565Z</time></trkpt><trkpt lat="44.6325238" lon="10.5171919"><ele>142.66666666666669</ele><time>2026-05-02T07:44:22.567Z</time></trkpt><trkpt lat="44.6325369" lon="10.5173244"><ele>143.0</ele><time>2026-05-02T07:44:25.518Z</time></trkpt><trkpt lat="44.6325471" lon="10.517423"><ele>143.33333333333334</ele><time>2026-05-02T07:44:27.621Z</time></trkpt><trkpt lat="44.6325617" lon="10.5175485"><ele>143.66666666666666</ele><time>2026-05-02T07:44:30.608Z</time></trkpt><trkpt lat="44.6325716" lon="10.5176412"><ele>144.0</ele><time>2026-05-02T07:44:32.621Z</time></trkpt><trkpt lat="44.632582" lon="10.5177425"><ele>144.0</ele><time>2026-05-02T07:44:34.595Z</time></trkpt><trkpt lat="44.6325987" lon="10.5178481"><ele>144.0</ele><time>2026-05-02T07:44:36.564Z</time></trkpt><trkpt lat="44.632611" lon="10.5179713"><ele>144.0</ele><time>2026-05-02T07:44:39.495Z</time></trkpt><trkpt lat="44.6326288" lon="10.5180861"><ele>144.0</ele><time>2026-05-02T07:44:42.583Z</time></trkpt><trkpt lat="44.6326514" lon="10.5182127"><ele>144.0</ele><time>2026-05-02T07:44:45.602Z</time></trkpt><trkpt lat="44.6326633" lon="10.518311"><ele>144.0</ele><time>2026-05-02T07:44:47.616Z</time></trkpt><trkpt lat="44.6326703" lon="10.5184363"><ele>144.0</ele><time>2026-05-02T07:44:49.564Z</time></trkpt><trkpt lat="44.6326803" lon="10.518547"><ele>144.0</ele><time>2026-05-02T07:44:51.564Z</time></trkpt><trkpt lat="44.6326917" lon="10.5186544"><ele>144.0</ele><time>2026-05-02T07:44:53.533Z</time></trkpt><trkpt lat="44.6326946" lon="10.5187674"><ele>144.0</ele><time>2026-05-02T07:44:55.64Z</time></trkpt><trkpt lat="44.6327028" lon="10.5188956"><ele>144.0</ele><time>2026-05-02T07:44:58.583Z</time></trkpt><trkpt lat="44.6327323" lon="10.5190227"><ele>144.0</ele><time>2026-05-02T07:45:01.553Z</time></trkpt><trkpt lat="44.6327499" lon="10.519117"><ele>144.0</ele><time>2026-05-02T07:45:03.616Z</time></trkpt><trkpt lat="44.6327651" lon="10.5192127"><ele>144.0</ele><time>2026-05-02T07:45:05.563Z</time></trkpt><trkpt lat="44.632786" lon="10.5193278"><ele>144.0</ele><time>2026-05-02T07:45:08.564Z</time></trkpt><trkpt lat="44.6328064" lon="10.5194361"><ele>144.0</ele><time>2026-05-02T07:45:11.556Z</time></trkpt><trkpt lat="44.6328267" lon="10.5195641"><ele>144.0</ele><time>2026-05-02T07:45:14.583Z</time></trkpt><trkpt lat="44.6328478" lon="10.5196896"><ele>144.0</ele><time>2026-05-02T07:45:17.603Z</time></trkpt><trkpt lat="44.6328567" lon="10.5197978"><ele>144.0</ele><time>2026-05-02T07:45:19.536Z</time></trkpt><trkpt lat="44.6328645" lon="10.5199115"><ele>144.0</ele><time>2026-05-02T07:45:21.563Z</time></trkpt><trkpt lat="44.6328834" lon="10.5200242"><ele>144.0</ele><time>2026-05-02T07:45:24.563Z</time></trkpt><trkpt lat="44.632903" lon="10.520123"><ele>144.0</ele><time>2026-05-02T07:45:27.557Z</time></trkpt><trkpt lat="44.6329241" lon="10.5202179"><ele>144.0</ele><time>2026-05-02T07:45:30.583Z</time></trkpt><trkpt lat="44.6329388" lon="10.5203409"><ele>144.0</ele><time>2026-05-02T07:45:33.602Z</time></trkpt><trkpt lat="44.6329541" lon="10.5204681"><ele>144.16666666666666</ele><time>2026-05-02T07:45:36.563Z</time></trkpt><trkpt lat="44.632969" lon="10.5206021"><ele>144.33333333333334</ele><time>2026-05-02T07:45:39.563Z</time></trkpt><trkpt lat="44.6329822" lon="10.5206984"><ele>144.5</ele><time>2026-05-02T07:45:41.562Z</time></trkpt><trkpt lat="44.6330047" lon="10.5208177"><ele>144.66666666666669</ele><time>2026-05-02T07:45:44.582Z</time></trkpt><trkpt lat="44.633031" lon="10.52092"><ele>144.83333333333334</ele><time>2026-05-02T07:45:47.589Z</time></trkpt><trkpt lat="44.6330649" lon="10.5210118"><ele>145.0</ele><time>2026-05-02T07:45:50.519Z</time></trkpt><trkpt lat="44.6330897" lon="10.5211333"><ele>144.83333333333334</ele><time>2026-05-02T07:45:53.563Z</time></trkpt><trkpt lat="44.6331162" lon="10.5212372"><ele>144.66666666666669</ele><time>2026-05-02T07:45:56.565Z</time></trkpt><trkpt lat="44.6331479" lon="10.5213438"><ele>144.5</ele><time>2026-05-02T07:45:59.536Z</time></trkpt><trkpt lat="44.6331727" lon="10.521435"><ele>144.33333333333334</ele><time>2026-05-02T07:46:02.583Z</time></trkpt><trkpt lat="44.633201" lon="10.5215403"><ele>144.16666666666666</ele><time>2026-05-02T07:46:05.603Z</time></trkpt><trkpt lat="44.6332287" lon="10.5216478"><ele>144.0</ele><time>2026-05-02T07:46:08.623Z</time></trkpt><trkpt lat="44.6332545" lon="10.5217477"><ele>144.0</ele><time>2026-05-02T07:46:11.563Z</time></trkpt><trkpt lat="44.6332795" lon="10.5218464"><ele>144.0</ele><time>2026-05-02T07:46:14.56Z</time></trkpt><trkpt lat="44.6333085" lon="10.5219502"><ele>144.0</ele><time>2026-05-02T07:46:17.577Z</time></trkpt><trkpt lat="44.6333386" lon="10.522052"><ele>144.0</ele><time>2026-05-02T07:46:20.596Z</time></trkpt><trkpt lat="44.633372" lon="10.5221621"><ele>144.0</ele><time>2026-05-02T07:46:23.615Z</time></trkpt><trkpt lat="44.6333829" lon="10.522257"><ele>144.0</ele><time>2026-05-02T07:46:25.566Z</time></trkpt><trkpt lat="44.6334025" lon="10.522378"><ele>144.00000000000003</ele><time>2026-05-02T07:46:28.563Z</time></trkpt><trkpt lat="44.6334138" lon="10.5225027"><ele>144.0</ele><time>2026-05-02T07:46:30.564Z</time></trkpt><trkpt lat="44.6334076" lon="10.522594"><ele>144.0</ele><time>2026-05-02T07:46:32.571Z</time></trkpt><trkpt lat="44.6334175" lon="10.5226847"><ele>144.0</ele><time>2026-05-02T07:46:34.583Z</time></trkpt><trkpt lat="44.6334316" lon="10.5227775"><ele>144.0</ele><time>2026-05-02T07:46:36.596Z</time></trkpt><trkpt lat="44.6334527" lon="10.5228701"><ele>144.00000000000003</ele><time>2026-05-02T07:46:38.608Z</time></trkpt><trkpt lat="44.6334773" lon="10.5229581"><ele>144.0</ele><time>2026-05-02T07:46:40.561Z</time></trkpt><trkpt lat="44.6335006" lon="10.5230415"><ele>144.33333333333334</ele><time>2026-05-02T07:46:42.564Z</time></trkpt><trkpt lat="44.6335331" lon="10.5231613"><ele>144.66666666666666</ele><time>2026-05-02T07:46:45.554Z</time></trkpt><trkpt lat="44.6335669" lon="10.5232742"><ele>145.0</ele><time>2026-05-02T07:46:48.572Z</time></trkpt><trkpt lat="44.6335956" lon="10.5234015"><ele>145.33333333333331</ele><time>2026-05-02T07:46:51.59Z</time></trkpt><trkpt lat="44.6336176" lon="10.5234924"><ele>145.66666666666666</ele><time>2026-05-02T07:46:53.553Z</time></trkpt><trkpt lat="44.6336362" lon="10.5235801"><ele>146.0</ele><time>2026-05-02T07:46:55.596Z</time></trkpt><trkpt lat="44.6336471" lon="10.5236684"><ele>146.25</ele><time>2026-05-02T07:46:57.563Z</time></trkpt><trkpt lat="44.6336718" lon="10.5237873"><ele>146.5</ele><time>2026-05-02T07:47:00.563Z</time></trkpt><trkpt lat="44.6336969" lon="10.5240283"><ele>146.75</ele><time>2026-05-02T07:47:03.564Z</time></trkpt><trkpt lat="44.6337385" lon="10.5242827"><ele>147.0</ele><time>2026-05-02T07:47:05.577Z</time></trkpt><trkpt lat="44.6337474" lon="10.5244296"><ele>146.79999999999998</ele><time>2026-05-02T07:47:07.59Z</time></trkpt><trkpt lat="44.6338021" lon="10.5246273"><ele>146.6</ele><time>2026-05-02T07:47:09.602Z</time></trkpt><trkpt lat="44.6338284" lon="10.5247334"><ele>146.39999999999998</ele><time>2026-05-02T07:47:11.536Z</time></trkpt><trkpt lat="44.6338208" lon="10.5248322"><ele>146.2</ele><time>2026-05-02T07:47:13.563Z</time></trkpt><trkpt lat="44.6338153" lon="10.5249635"><ele>146.0</ele><time>2026-05-02T07:47:16.562Z</time></trkpt><trkpt lat="44.6338142" lon="10.5250902"><ele>146.0</ele><time>2026-05-02T07:47:19.564Z</time></trkpt><trkpt lat="44.6338087" lon="10.5251814"><ele>146.0</ele><time>2026-05-02T07:47:21.577Z</time></trkpt><trkpt lat="44.6338119" lon="10.5253018"><ele>146.0</ele><time>2026-05-02T07:47:23.59Z</time></trkpt><trkpt lat="44.6338011" lon="10.5254143"><ele>146.0</ele><time>2026-05-02T07:47:25.602Z</time></trkpt><trkpt lat="44.6337971" lon="10.5255152"><ele>146.0</ele><time>2026-05-02T07:47:27.516Z</time></trkpt><trkpt lat="44.6337979" lon="10.5256312"><ele>146.0</ele><time>2026-05-02T07:47:29.627Z</time></trkpt><trkpt lat="44.6337957" lon="10.5257405"><ele>145.66666666666666</ele><time>2026-05-02T07:47:31.56Z</time></trkpt><trkpt lat="44.633797" lon="10.5258334"><ele>145.33333333333331</ele><time>2026-05-02T07:47:33.562Z</time></trkpt><trkpt lat="44.6337972" lon="10.5259704"><ele>145.0</ele><time>2026-05-02T07:47:36.522Z</time></trkpt><trkpt lat="44.6337936" lon="10.526086"><ele>144.66666666666666</ele><time>2026-05-02T07:47:38.574Z</time></trkpt><trkpt lat="44.6337857" lon="10.5261975"><ele>144.33333333333334</ele><time>2026-05-02T07:47:40.617Z</time></trkpt><trkpt lat="44.6337764" lon="10.5263119"><ele>144.0</ele><time>2026-05-02T07:47:42.609Z</time></trkpt><trkpt lat="44.6337627" lon="10.5264399"><ele>144.0</ele><time>2026-05-02T07:47:44.558Z</time></trkpt><trkpt lat="44.6337492" lon="10.5265572"><ele>144.0</ele><time>2026-05-02T07:47:46.562Z</time></trkpt><trkpt lat="44.633734" lon="10.5266637"><ele>144.0</ele><time>2026-05-02T07:47:48.561Z</time></trkpt><trkpt lat="44.6337327" lon="10.5267676"><ele>144.0</ele><time>2026-05-02T07:47:50.623Z</time></trkpt><trkpt lat="44.6337398" lon="10.5268584"><ele>144.0</ele><time>2026-05-02T07:47:52.571Z</time></trkpt><trkpt lat="44.6337403" lon="10.5269777"><ele>144.0</ele><time>2026-05-02T07:47:54.583Z</time></trkpt><trkpt lat="44.6337483" lon="10.5270953"><ele>144.6</ele><time>2026-05-02T07:47:56.518Z</time></trkpt><trkpt lat="44.6337354" lon="10.5273148"><ele>145.2</ele><time>2026-05-02T07:47:58.63Z</time></trkpt><trkpt lat="44.633725" lon="10.5274386"><ele>145.79999999999998</ele><time>2026-05-02T07:48:00.563Z</time></trkpt><trkpt lat="44.6337165" lon="10.5275264"><ele>146.4</ele><time>2026-05-02T07:48:02.563Z</time></trkpt><trkpt lat="44.6337049" lon="10.5276497"><ele>147.0</ele><time>2026-05-02T07:48:05.574Z</time></trkpt><trkpt lat="44.6336958" lon="10.5277851"><ele>147.0</ele><time>2026-05-02T07:48:08.571Z</time></trkpt><trkpt lat="44.633686" lon="10.5279084"><ele>147.0</ele><time>2026-05-02T07:48:11.59Z</time></trkpt><trkpt lat="44.6336739" lon="10.5280171"><ele>147.0</ele><time>2026-05-02T07:48:14.609Z</time></trkpt><trkpt lat="44.6336591" lon="10.5281404"><ele>147.0</ele><time>2026-05-02T07:48:17.628Z</time></trkpt><trkpt lat="44.6336495" lon="10.5282723"><ele>147.0</ele><time>2026-05-02T07:48:20.562Z</time></trkpt><trkpt lat="44.6336403" lon="10.5283617"><ele>147.0</ele><time>2026-05-02T07:48:22.563Z</time></trkpt><trkpt lat="44.6336312" lon="10.5284765"><ele>147.14285714285714</ele><time>2026-05-02T07:48:25.478Z</time></trkpt><trkpt lat="44.6336177" lon="10.5286079"><ele>147.28571428571428</ele><time>2026-05-02T07:48:28.577Z</time></trkpt><trkpt lat="44.6336068" lon="10.5287051"><ele>147.42857142857144</ele><time>2026-05-02T07:48:30.609Z</time></trkpt><trkpt lat="44.6336004" lon="10.5288083"><ele>147.57142857142856</ele><time>2026-05-02T07:48:32.565Z</time></trkpt><trkpt lat="44.6335924" lon="10.5288977"><ele>147.71428571428572</ele><time>2026-05-02T07:48:34.495Z</time></trkpt><trkpt lat="44.6335873" lon="10.5289882"><ele>147.85714285714286</ele><time>2026-05-02T07:48:36.617Z</time></trkpt><trkpt lat="44.6335793" lon="10.5290785"><ele>148.0</ele><time>2026-05-02T07:48:38.564Z</time></trkpt><trkpt lat="44.6335637" lon="10.5292037"><ele>148.14285714285714</ele><time>2026-05-02T07:48:41.518Z</time></trkpt><trkpt lat="44.6335499" lon="10.5292933"><ele>148.28571428571428</ele><time>2026-05-02T07:48:43.601Z</time></trkpt><trkpt lat="44.6335361" lon="10.5293801"><ele>148.42857142857142</ele><time>2026-05-02T07:48:45.602Z</time></trkpt><trkpt lat="44.6335228" lon="10.5294786"><ele>148.57142857142856</ele><time>2026-05-02T07:48:47.615Z</time></trkpt><trkpt lat="44.6335081" lon="10.5295809"><ele>148.7142857142857</ele><time>2026-05-02T07:48:49.563Z</time></trkpt><trkpt lat="44.6334948" lon="10.5296751"><ele>148.85714285714286</ele><time>2026-05-02T07:48:51.541Z</time></trkpt><trkpt lat="44.6334822" lon="10.5297698"><ele>149.0</ele><time>2026-05-02T07:48:53.636Z</time></trkpt><trkpt lat="44.6334625" lon="10.5299042"><ele>149.28571428571428</ele><time>2026-05-02T07:48:56.571Z</time></trkpt><trkpt lat="44.6334486" lon="10.5300019"><ele>149.57142857142856</ele><time>2026-05-02T07:48:58.516Z</time></trkpt><trkpt lat="44.6334338" lon="10.5300982"><ele>149.85714285714286</ele><time>2026-05-02T07:49:00.598Z</time></trkpt><trkpt lat="44.6334204" lon="10.5301878"><ele>150.14285714285714</ele><time>2026-05-02T07:49:02.609Z</time></trkpt><trkpt lat="44.6334038" lon="10.5303193"><ele>150.42857142857144</ele><time>2026-05-02T07:49:05.519Z</time></trkpt><trkpt lat="44.6333901" lon="10.5304159"><ele>150.71428571428572</ele><time>2026-05-02T07:49:07.602Z</time></trkpt><trkpt lat="44.6333753" lon="10.5305076"><ele>151.0</ele><time>2026-05-02T07:49:09.563Z</time></trkpt><trkpt lat="44.6333553" lon="10.5306436"><ele>151.0</ele><time>2026-05-02T07:49:12.571Z</time></trkpt><trkpt lat="44.633337" lon="10.5307411"><ele>151.0</ele><time>2026-05-02T07:49:15.59Z</time></trkpt><trkpt lat="44.6333166" lon="10.530843"><ele>151.0</ele><time>2026-05-02T07:49:18.61Z</time></trkpt><trkpt lat="44.6332957" lon="10.53096"><ele>151.0</ele><time>2026-05-02T07:49:21.564Z</time></trkpt><trkpt lat="44.6332734" lon="10.5310876"><ele>151.0</ele><time>2026-05-02T07:49:24.599Z</time></trkpt><trkpt lat="44.6332522" lon="10.531178"><ele>151.0</ele><time>2026-05-02T07:49:26.564Z</time></trkpt><trkpt lat="44.6332317" lon="10.5313069"><ele>151.16666666666669</ele><time>2026-05-02T07:49:29.578Z</time></trkpt><trkpt lat="44.6332124" lon="10.5314335"><ele>151.33333333333334</ele><time>2026-05-02T07:49:32.597Z</time></trkpt><trkpt lat="44.6331856" lon="10.5315435"><ele>151.5</ele><time>2026-05-02T07:49:35.615Z</time></trkpt><trkpt lat="44.6331608" lon="10.5316364"><ele>151.66666666666666</ele><time>2026-05-02T07:49:37.628Z</time></trkpt><trkpt lat="44.6331429" lon="10.5317531"><ele>151.83333333333331</ele><time>2026-05-02T07:49:39.562Z</time></trkpt><trkpt lat="44.6331294" lon="10.5318642"><ele>152.0</ele><time>2026-05-02T07:49:41.514Z</time></trkpt><trkpt lat="44.6331072" lon="10.5319731"><ele>151.85714285714286</ele><time>2026-05-02T07:49:43.618Z</time></trkpt><trkpt lat="44.6330846" lon="10.5320646"><ele>151.71428571428572</ele><time>2026-05-02T07:49:45.578Z</time></trkpt><trkpt lat="44.6330685" lon="10.532154"><ele>151.57142857142858</ele><time>2026-05-02T07:49:47.59Z</time></trkpt><trkpt lat="44.6330515" lon="10.5322519"><ele>151.42857142857144</ele><time>2026-05-02T07:49:49.535Z</time></trkpt><trkpt lat="44.6330294" lon="10.5323491"><ele>151.28571428571428</ele><time>2026-05-02T07:49:51.617Z</time></trkpt><trkpt lat="44.6330097" lon="10.5324465"><ele>151.14285714285717</ele><time>2026-05-02T07:49:53.566Z</time></trkpt><trkpt lat="44.6329939" lon="10.5325524"><ele>151.0</ele><time>2026-05-02T07:49:55.565Z</time></trkpt><trkpt lat="44.6329777" lon="10.5326506"><ele>151.00000000000003</ele><time>2026-05-02T07:49:57.495Z</time></trkpt><trkpt lat="44.6329558" lon="10.5327522"><ele>151.0</ele><time>2026-05-02T07:49:59.597Z</time></trkpt><trkpt lat="44.6329339" lon="10.5328397"><ele>151.0</ele><time>2026-05-02T07:50:01.578Z</time></trkpt><trkpt lat="44.632925" lon="10.5329298"><ele>151.0</ele><time>2026-05-02T07:50:03.591Z</time></trkpt><trkpt lat="44.6329035" lon="10.5330447"><ele>151.0</ele><time>2026-05-02T07:50:06.602Z</time></trkpt><trkpt lat="44.63287" lon="10.5331581"><ele>151.00000000000003</ele><time>2026-05-02T07:50:09.563Z</time></trkpt><trkpt lat="44.6328381" lon="10.5332471"><ele>151.0</ele><time>2026-05-02T07:50:11.564Z</time></trkpt><trkpt lat="44.6328214" lon="10.5333364"><ele>151.0</ele><time>2026-05-02T07:50:13.534Z</time></trkpt><trkpt lat="44.6328239" lon="10.5334377"><ele>151.0</ele><time>2026-05-02T07:50:15.566Z</time></trkpt><trkpt lat="44.6328231" lon="10.5335446"><ele>151.0</ele><time>2026-05-02T07:50:17.579Z</time></trkpt><trkpt lat="44.6328018" lon="10.5336515"><ele>151.0</ele><time>2026-05-02T07:50:19.591Z</time></trkpt><trkpt lat="44.6327667" lon="10.5337473"><ele>151.0</ele><time>2026-05-02T07:50:21.574Z</time></trkpt><trkpt lat="44.6327434" lon="10.5338429"><ele>151.0</ele><time>2026-05-02T07:50:23.616Z</time></trkpt><trkpt lat="44.63272" lon="10.5339698"><ele>151.0</ele><time>2026-05-02T07:50:25.564Z</time></trkpt><trkpt lat="44.6327097" lon="10.5340789"><ele>151.0</ele><time>2026-05-02T07:50:27.482Z</time></trkpt><trkpt lat="44.6326936" lon="10.5342074"><ele>151.0</ele><time>2026-05-02T07:50:29.563Z</time></trkpt><trkpt lat="44.6326789" lon="10.5342997"><ele>151.0</ele><time>2026-05-02T07:50:31.566Z</time></trkpt><trkpt lat="44.6326656" lon="10.5343865"><ele>151.0</ele><time>2026-05-02T07:50:33.579Z</time></trkpt><trkpt lat="44.6326435" lon="10.5344773"><ele>151.0</ele><time>2026-05-02T07:50:35.591Z</time></trkpt><trkpt lat="44.6326107" lon="10.5345839"><ele>150.83333333333334</ele><time>2026-05-02T07:50:37.556Z</time></trkpt><trkpt lat="44.6325913" lon="10.5346902"><ele>150.66666666666669</ele><time>2026-05-02T07:50:39.618Z</time></trkpt><trkpt lat="44.6325792" lon="10.5347905"><ele>150.5</ele><time>2026-05-02T07:50:41.563Z</time></trkpt><trkpt lat="44.6325645" lon="10.5348913"><ele>150.33333333333334</ele><time>2026-05-02T07:50:43.563Z</time></trkpt><trkpt lat="44.6325488" lon="10.5349949"><ele>150.16666666666666</ele><time>2026-05-02T07:50:45.563Z</time></trkpt><trkpt lat="44.6325306" lon="10.5350921"><ele>150.0</ele><time>2026-05-02T07:50:47.477Z</time></trkpt><trkpt lat="44.63251" lon="10.535201"><ele>149.99999999999997</ele><time>2026-05-02T07:50:49.541Z</time></trkpt><trkpt lat="44.6324924" lon="10.5353149"><ele>150.0</ele><time>2026-05-02T07:50:51.591Z</time></trkpt><trkpt lat="44.6324852" lon="10.5354254"><ele>150.0</ele><time>2026-05-02T07:50:53.604Z</time></trkpt><trkpt lat="44.632472" lon="10.5355202"><ele>150.0</ele><time>2026-05-02T07:50:55.617Z</time></trkpt><trkpt lat="44.6324679" lon="10.5356132"><ele>150.0</ele><time>2026-05-02T07:50:57.563Z</time></trkpt><trkpt lat="44.6324574" lon="10.5357096"><ele>149.99999999999997</ele><time>2026-05-02T07:50:59.522Z</time></trkpt><trkpt lat="44.6324392" lon="10.5358214"><ele>150.0</ele><time>2026-05-02T07:51:01.595Z</time></trkpt><trkpt lat="44.6324222" lon="10.5359201"><ele>149.85714285714283</ele><time>2026-05-02T07:51:03.566Z</time></trkpt><trkpt lat="44.6323972" lon="10.5360399"><ele>149.71428571428572</ele><time>2026-05-02T07:51:05.578Z</time></trkpt><trkpt lat="44.632375" lon="10.5361352"><ele>149.57142857142856</ele><time>2026-05-02T07:51:07.523Z</time></trkpt><trkpt lat="44.6323522" lon="10.5362339"><ele>149.42857142857142</ele><time>2026-05-02T07:51:09.604Z</time></trkpt><trkpt lat="44.6323426" lon="10.536328"><ele>149.28571428571428</ele><time>2026-05-02T07:51:11.616Z</time></trkpt><trkpt lat="44.6323319" lon="10.5364178"><ele>149.14285714285714</ele><time>2026-05-02T07:51:13.565Z</time></trkpt><trkpt lat="44.6323191" lon="10.5365108"><ele>149.0</ele><time>2026-05-02T07:51:15.563Z</time></trkpt><trkpt lat="44.6323059" lon="10.5366028"><ele>149.0</ele><time>2026-05-02T07:51:17.616Z</time></trkpt><trkpt lat="44.6322892" lon="10.536691"><ele>149.0</ele><time>2026-05-02T07:51:19.566Z</time></trkpt><trkpt lat="44.6322742" lon="10.5368168"><ele>149.0</ele><time>2026-05-02T07:51:22.518Z</time></trkpt><trkpt lat="44.6322618" lon="10.5369093"><ele>149.0</ele><time>2026-05-02T07:51:24.599Z</time></trkpt><trkpt lat="44.6322369" lon="10.5370173"><ele>149.0</ele><time>2026-05-02T07:51:27.617Z</time></trkpt><trkpt lat="44.6322193" lon="10.5371465"><ele>149.0</ele><time>2026-05-02T07:51:30.564Z</time></trkpt><trkpt lat="44.6322034" lon="10.5372397"><ele>149.0</ele><time>2026-05-02T07:51:32.579Z</time></trkpt><trkpt lat="44.6321856" lon="10.5373265"><ele>149.0</ele><time>2026-05-02T07:51:34.564Z</time></trkpt><trkpt lat="44.6321653" lon="10.5374503"><ele>149.0</ele><time>2026-05-02T07:51:37.58Z</time></trkpt><trkpt lat="44.632147" lon="10.5375391"><ele>149.0</ele><time>2026-05-02T07:51:39.592Z</time></trkpt><trkpt lat="44.632127" lon="10.5376507"><ele>149.0</ele><time>2026-05-02T07:51:42.611Z</time></trkpt><trkpt lat="44.6321132" lon="10.5377783"><ele>149.0</ele><time>2026-05-02T07:51:45.563Z</time></trkpt><trkpt lat="44.6321012" lon="10.5378703"><ele>148.83333333333331</ele><time>2026-05-02T07:51:47.566Z</time></trkpt><trkpt lat="44.6320859" lon="10.5379638"><ele>148.66666666666666</ele><time>2026-05-02T07:51:49.564Z</time></trkpt><trkpt lat="44.6320702" lon="10.5380569"><ele>148.5</ele><time>2026-05-02T07:51:51.567Z</time></trkpt><trkpt lat="44.6320506" lon="10.5381558"><ele>148.33333333333334</ele><time>2026-05-02T07:51:53.561Z</time></trkpt><trkpt lat="44.6320297" lon="10.5382564"><ele>148.16666666666669</ele><time>2026-05-02T07:51:55.622Z</time></trkpt><trkpt lat="44.6320052" lon="10.5383628"><ele>148.0</ele><time>2026-05-02T07:51:58.61Z</time></trkpt><trkpt lat="44.6319953" lon="10.5384862"><ele>148.0</ele><time>2026-05-02T07:52:01.56Z</time></trkpt><trkpt lat="44.6319756" lon="10.5386041"><ele>148.0</ele><time>2026-05-02T07:52:04.565Z</time></trkpt><trkpt lat="44.631949" lon="10.5387096"><ele>148.0</ele><time>2026-05-02T07:52:07.566Z</time></trkpt><trkpt lat="44.6319142" lon="10.5388347"><ele>148.0</ele><time>2026-05-02T07:52:10.585Z</time></trkpt><trkpt lat="44.6318872" lon="10.5389229"><ele>148.0</ele><time>2026-05-02T07:52:12.598Z</time></trkpt><trkpt lat="44.6318617" lon="10.5390176"><ele>148.0</ele><time>2026-05-02T07:52:14.61Z</time></trkpt><trkpt lat="44.6318387" lon="10.5391017"><ele>147.83333333333334</ele><time>2026-05-02T07:52:16.565Z</time></trkpt><trkpt lat="44.6318076" lon="10.5392158"><ele>147.66666666666669</ele><time>2026-05-02T07:52:19.483Z</time></trkpt><trkpt lat="44.6317846" lon="10.5393037"><ele>147.5</ele><time>2026-05-02T07:52:21.555Z</time></trkpt><trkpt lat="44.6317397" lon="10.5394411"><ele>147.33333333333334</ele><time>2026-05-02T07:52:24.572Z</time></trkpt><trkpt lat="44.6316936" lon="10.5395316"><ele>147.16666666666666</ele><time>2026-05-02T07:52:27.591Z</time></trkpt><trkpt lat="44.631649" lon="10.5396091"><ele>147.0</ele><time>2026-05-02T07:52:30.623Z</time></trkpt><trkpt lat="44.631603" lon="10.5396975"><ele>147.0</ele><time>2026-05-02T07:52:33.564Z</time></trkpt><trkpt lat="44.6315481" lon="10.5398051"><ele>147.0</ele><time>2026-05-02T07:52:36.563Z</time></trkpt><trkpt lat="44.6315078" lon="10.5398757"><ele>147.0</ele><time>2026-05-02T07:52:38.602Z</time></trkpt><trkpt lat="44.6314657" lon="10.5399468"><ele>147.0</ele><time>2026-05-02T07:52:40.572Z</time></trkpt><trkpt lat="44.6314086" lon="10.5400417"><ele>147.0</ele><time>2026-05-02T07:52:43.591Z</time></trkpt><trkpt lat="44.6313585" lon="10.5400963"><ele>147.0</ele><time>2026-05-02T07:52:45.535Z</time></trkpt><trkpt lat="44.6312984" lon="10.5401841"><ele>147.0</ele><time>2026-05-02T07:52:48.623Z</time></trkpt><trkpt lat="44.631259" lon="10.540289"><ele>147.0</ele><time>2026-05-02T07:52:51.565Z</time></trkpt><trkpt lat="44.6311335" lon="10.5404117"><ele>147.0</ele><time>2026-05-02T07:52:55.135Z</time></trkpt><trkpt lat="44.6310499" lon="10.5405277"><ele>147.0</ele><time>2026-05-02T07:52:56.572Z</time></trkpt><trkpt lat="44.630986" lon="10.5406227"><ele>147.0</ele><time>2026-05-02T07:52:58.585Z</time></trkpt><trkpt lat="44.6309016" lon="10.5406874"><ele>147.0</ele><time>2026-05-02T07:53:00.559Z</time></trkpt><trkpt lat="44.6308303" lon="10.5407439"><ele>147.0</ele><time>2026-05-02T07:53:02.559Z</time></trkpt><trkpt lat="44.6307705" lon="10.5408313"><ele>147.0</ele><time>2026-05-02T07:53:04.615Z</time></trkpt><trkpt lat="44.6306844" lon="10.5408827"><ele>147.0</ele><time>2026-05-02T07:53:06.563Z</time></trkpt><trkpt lat="44.6306232" lon="10.5409556"><ele>147.0</ele><time>2026-05-02T07:53:08.563Z</time></trkpt><trkpt lat="44.630573" lon="10.5410177"><ele>147.0</ele><time>2026-05-02T07:53:10.565Z</time></trkpt><trkpt lat="44.6305059" lon="10.5410962"><ele>147.0</ele><time>2026-05-02T07:53:13.589Z</time></trkpt><trkpt lat="44.6304557" lon="10.5412056"><ele>147.0</ele><time>2026-05-02T07:53:16.608Z</time></trkpt><trkpt lat="44.6304055" lon="10.5412692"><ele>147.0</ele><time>2026-05-02T07:53:18.542Z</time></trkpt><trkpt lat="44.6303447" lon="10.5413356"><ele>147.0</ele><time>2026-05-02T07:53:20.573Z</time></trkpt><trkpt lat="44.6303044" lon="10.5414133"><ele>147.0</ele><time>2026-05-02T07:53:22.563Z</time></trkpt><trkpt lat="44.6302594" lon="10.5415289"><ele>147.0</ele><time>2026-05-02T07:53:25.569Z</time></trkpt><trkpt lat="44.6302301" lon="10.5416099"><ele>146.83333333333334</ele><time>2026-05-02T07:53:27.478Z</time></trkpt><trkpt lat="44.6302031" lon="10.5416979"><ele>146.66666666666666</ele><time>2026-05-02T07:53:29.603Z</time></trkpt><trkpt lat="44.6301919" lon="10.5417874"><ele>146.5</ele><time>2026-05-02T07:53:31.606Z</time></trkpt><trkpt lat="44.6301682" lon="10.541871"><ele>146.33333333333331</ele><time>2026-05-02T07:53:33.563Z</time></trkpt><trkpt lat="44.6301001" lon="10.5419368"><ele>146.16666666666666</ele><time>2026-05-02T07:53:36.565Z</time></trkpt><trkpt lat="44.6301374" lon="10.5420807"><ele>146.0</ele><time>2026-05-02T07:53:38.56Z</time></trkpt><trkpt lat="44.6301489" lon="10.5421909"><ele>145.66666666666666</ele><time>2026-05-02T07:53:40.573Z</time></trkpt><trkpt lat="44.63015" lon="10.5423128"><ele>145.33333333333331</ele><time>2026-05-02T07:53:43.592Z</time></trkpt><trkpt lat="44.6301568" lon="10.5424282"><ele>145.0</ele><time>2026-05-02T07:53:46.475Z</time></trkpt><trkpt lat="44.6301693" lon="10.5425597"><ele>144.66666666666666</ele><time>2026-05-02T07:53:49.595Z</time></trkpt><trkpt lat="44.6301764" lon="10.5426523"><ele>144.33333333333334</ele><time>2026-05-02T07:53:51.617Z</time></trkpt><trkpt lat="44.6301853" lon="10.542777"><ele>144.0</ele><time>2026-05-02T07:53:54.568Z</time></trkpt><trkpt lat="44.6301951" lon="10.542865"><ele>144.5</ele><time>2026-05-02T07:53:56.509Z</time></trkpt><trkpt lat="44.6302019" lon="10.5429553"><ele>145.0</ele><time>2026-05-02T07:53:58.571Z</time></trkpt><trkpt lat="44.6302139" lon="10.5430837"><ele>145.5</ele><time>2026-05-02T07:54:01.604Z</time></trkpt><trkpt lat="44.6302193" lon="10.5432158"><ele>146.0</ele><time>2026-05-02T07:54:04.56Z</time></trkpt><trkpt lat="44.6302286" lon="10.5433462"><ele>146.5</ele><time>2026-05-02T07:54:07.562Z</time></trkpt><trkpt lat="44.6302374" lon="10.5434765"><ele>147.0</ele><time>2026-05-02T07:54:10.535Z</time></trkpt><trkpt lat="44.6302431" lon="10.5435705"><ele>147.0</ele><time>2026-05-02T07:54:12.577Z</time></trkpt><trkpt lat="44.6302318" lon="10.5436784"><ele>147.0</ele><time>2026-05-02T07:54:15.596Z</time></trkpt><trkpt lat="44.6302479" lon="10.5437674"><ele>147.0</ele><time>2026-05-02T07:54:17.608Z</time></trkpt><trkpt lat="44.6302691" lon="10.5438546"><ele>147.0</ele><time>2026-05-02T07:54:19.565Z</time></trkpt><trkpt lat="44.6302545" lon="10.5439728"><ele>147.0</ele><time>2026-05-02T07:54:22.552Z</time></trkpt><trkpt lat="44.6302738" lon="10.5440998"><ele>147.0</ele><time>2026-05-02T07:54:25.563Z</time></trkpt><trkpt lat="44.6302882" lon="10.5441885"><ele>147.5</ele><time>2026-05-02T07:54:27.571Z</time></trkpt><trkpt lat="44.6303016" lon="10.5442816"><ele>148.0</ele><time>2026-05-02T07:54:29.583Z</time></trkpt><trkpt lat="44.6303083" lon="10.5444113"><ele>148.5</ele><time>2026-05-02T07:54:32.615Z</time></trkpt><trkpt lat="44.630301" lon="10.5445369"><ele>149.0</ele><time>2026-05-02T07:54:35.621Z</time></trkpt><trkpt lat="44.630283" lon="10.5446218"><ele>149.5</ele><time>2026-05-02T07:54:37.473Z</time></trkpt><trkpt lat="44.6302647" lon="10.5447571"><ele>150.0</ele><time>2026-05-02T07:54:40.594Z</time></trkpt><trkpt lat="44.6302097" lon="10.5448393"><ele>150.16666666666666</ele><time>2026-05-02T07:54:43.57Z</time></trkpt><trkpt lat="44.630173" lon="10.5449649"><ele>150.33333333333334</ele><time>2026-05-02T07:54:46.589Z</time></trkpt><trkpt lat="44.6301765" lon="10.5450693"><ele>150.5</ele><time>2026-05-02T07:54:49.611Z</time></trkpt><trkpt lat="44.6301659" lon="10.5451734"><ele>150.66666666666669</ele><time>2026-05-02T07:54:53.564Z</time></trkpt><trkpt lat="44.6301591" lon="10.5452659"><ele>150.83333333333334</ele><time>2026-05-02T07:54:56.564Z</time></trkpt><trkpt lat="44.6301553" lon="10.5453753"><ele>151.0</ele><time>2026-05-02T07:54:59.591Z</time></trkpt><trkpt lat="44.630135" lon="10.5454957"><ele>150.33333333333334</ele><time>2026-05-02T07:55:02.589Z</time></trkpt><trkpt lat="44.6301094" lon="10.5456078"><ele>149.66666666666669</ele><time>2026-05-02T07:55:05.607Z</time></trkpt><trkpt lat="44.6300636" lon="10.5457159"><ele>149.0</ele><time>2026-05-02T07:55:08.576Z</time></trkpt><trkpt lat="44.6300117" lon="10.545796"><ele>148.33333333333334</ele><time>2026-05-02T07:55:10.563Z</time></trkpt><trkpt lat="44.6299664" lon="10.5458804"><ele>147.66666666666666</ele><time>2026-05-02T07:55:12.567Z</time></trkpt><trkpt lat="44.6299274" lon="10.5459644"><ele>147.0</ele><time>2026-05-02T07:55:14.565Z</time></trkpt><trkpt lat="44.6298875" lon="10.5460473"><ele>147.0</ele><time>2026-05-02T07:55:16.575Z</time></trkpt><trkpt lat="44.6298459" lon="10.5461441"><ele>147.0</ele><time>2026-05-02T07:55:18.587Z</time></trkpt><trkpt lat="44.6298217" lon="10.5462544"><ele>147.0</ele><time>2026-05-02T07:55:20.6Z</time></trkpt><trkpt lat="44.6298039" lon="10.5463642"><ele>147.0</ele><time>2026-05-02T07:55:22.612Z</time></trkpt><trkpt lat="44.6297803" lon="10.5464623"><ele>147.0</ele><time>2026-05-02T07:55:24.56Z</time></trkpt><trkpt lat="44.6297552" lon="10.546553"><ele>147.0</ele><time>2026-05-02T07:55:26.566Z</time></trkpt><trkpt lat="44.629733" lon="10.5466381"><ele>146.71428571428572</ele><time>2026-05-02T07:55:28.563Z</time></trkpt><trkpt lat="44.6297091" lon="10.5467232"><ele>146.42857142857144</ele><time>2026-05-02T07:55:30.533Z</time></trkpt><trkpt lat="44.6296665" lon="10.546808"><ele>146.14285714285714</ele><time>2026-05-02T07:55:32.574Z</time></trkpt><trkpt lat="44.6296163" lon="10.5468815"><ele>145.85714285714286</ele><time>2026-05-02T07:55:34.586Z</time></trkpt><trkpt lat="44.6295677" lon="10.5469959"><ele>145.57142857142858</ele><time>2026-05-02T07:55:37.605Z</time></trkpt><trkpt lat="44.629542" lon="10.5470777"><ele>145.28571428571428</ele><time>2026-05-02T07:55:39.617Z</time></trkpt><trkpt lat="44.6295204" lon="10.547164"><ele>145.0</ele><time>2026-05-02T07:55:41.565Z</time></trkpt><trkpt lat="44.6294939" lon="10.547246"><ele>145.71428571428572</ele><time>2026-05-02T07:55:43.493Z</time></trkpt><trkpt lat="44.6294611" lon="10.5473461"><ele>146.42857142857144</ele><time>2026-05-02T07:55:45.564Z</time></trkpt><trkpt lat="44.6294334" lon="10.5474354"><ele>147.14285714285714</ele><time>2026-05-02T07:55:47.528Z</time></trkpt><trkpt lat="44.6294131" lon="10.5475332"><ele>147.85714285714286</ele><time>2026-05-02T07:55:49.612Z</time></trkpt><trkpt lat="44.6293865" lon="10.5476219"><ele>148.57142857142856</ele><time>2026-05-02T07:55:51.591Z</time></trkpt><trkpt lat="44.629357" lon="10.5477092"><ele>149.28571428571428</ele><time>2026-05-02T07:55:53.604Z</time></trkpt><trkpt lat="44.6293311" lon="10.5477909"><ele>150.0</ele><time>2026-05-02T07:55:55.565Z</time></trkpt><trkpt lat="44.6293076" lon="10.5478775"><ele>150.0</ele><time>2026-05-02T07:55:57.57Z</time></trkpt><trkpt lat="44.6292824" lon="10.5480008"><ele>150.0</ele><time>2026-05-02T07:56:00.566Z</time></trkpt><trkpt lat="44.6292659" lon="10.5481168"><ele>150.0</ele><time>2026-05-02T07:56:03.516Z</time></trkpt><trkpt lat="44.6292561" lon="10.5482278"><ele>150.0</ele><time>2026-05-02T07:56:06.294Z</time></trkpt><trkpt lat="44.6292504" lon="10.5483253"><ele>150.0</ele><time>2026-05-02T07:56:08.596Z</time></trkpt><trkpt lat="44.6292487" lon="10.5484148"><ele>150.0</ele><time>2026-05-02T07:56:10.609Z</time></trkpt><trkpt lat="44.6292409" lon="10.5485608"><ele>149.99999999999997</ele><time>2026-05-02T07:56:13.57Z</time></trkpt><trkpt lat="44.6292351" lon="10.5486649"><ele>150.0</ele><time>2026-05-02T07:56:15.566Z</time></trkpt><trkpt lat="44.6292332" lon="10.5487636"><ele>150.0</ele><time>2026-05-02T07:56:17.563Z</time></trkpt><trkpt lat="44.6292287" lon="10.5488653"><ele>150.0</ele><time>2026-05-02T07:56:19.566Z</time></trkpt><trkpt lat="44.6292199" lon="10.5489548"><ele>150.0</ele><time>2026-05-02T07:56:21.418Z</time></trkpt><trkpt lat="44.629209" lon="10.5490574"><ele>149.99999999999997</ele><time>2026-05-02T07:56:23.589Z</time></trkpt><trkpt lat="44.6292096" lon="10.549155"><ele>150.0</ele><time>2026-05-02T07:56:25.601Z</time></trkpt><trkpt lat="44.6292063" lon="10.5492457"><ele>149.99999999999997</ele><time>2026-05-02T07:56:27.535Z</time></trkpt><trkpt lat="44.6292011" lon="10.5493339"><ele>150.0</ele><time>2026-05-02T07:56:29.557Z</time></trkpt><trkpt lat="44.6291983" lon="10.5494235"><ele>150.0</ele><time>2026-05-02T07:56:31.59Z</time></trkpt><trkpt lat="44.6292003" lon="10.5495532"><ele>150.0</ele><time>2026-05-02T07:56:34.564Z</time></trkpt><trkpt lat="44.6291955" lon="10.5496421"><ele>150.0</ele><time>2026-05-02T07:56:36.569Z</time></trkpt><trkpt lat="44.6291887" lon="10.5497311"><ele>149.99999999999997</ele><time>2026-05-02T07:56:38.512Z</time></trkpt><trkpt lat="44.6291822" lon="10.5498319"><ele>150.0</ele><time>2026-05-02T07:56:40.595Z</time></trkpt><trkpt lat="44.6291833" lon="10.5499272"><ele>149.85714285714283</ele><time>2026-05-02T07:56:42.606Z</time></trkpt><trkpt lat="44.6291862" lon="10.5500245"><ele>149.71428571428572</ele><time>2026-05-02T07:56:44.618Z</time></trkpt><trkpt lat="44.6291719" lon="10.5501182"><ele>149.57142857142856</ele><time>2026-05-02T07:56:46.563Z</time></trkpt><trkpt lat="44.6291633" lon="10.5502061"><ele>149.42857142857142</ele><time>2026-05-02T07:56:48.494Z</time></trkpt><trkpt lat="44.6291538" lon="10.550296"><ele>149.28571428571428</ele><time>2026-05-02T07:56:50.566Z</time></trkpt><trkpt lat="44.6291362" lon="10.550426"><ele>149.14285714285714</ele><time>2026-05-02T07:56:53.573Z</time></trkpt><trkpt lat="44.6291296" lon="10.5505519"><ele>149.0</ele><time>2026-05-02T07:56:56.593Z</time></trkpt><trkpt lat="44.6291348" lon="10.5506408"><ele>149.0</ele><time>2026-05-02T07:56:58.535Z</time></trkpt><trkpt lat="44.6291349" lon="10.5507362"><ele>149.0</ele><time>2026-05-02T07:57:00.609Z</time></trkpt><trkpt lat="44.6291276" lon="10.5508244"><ele>149.0</ele><time>2026-05-02T07:57:02.565Z</time></trkpt><trkpt lat="44.6291177" lon="10.5509224"><ele>149.0</ele><time>2026-05-02T07:57:04.564Z</time></trkpt><trkpt lat="44.6291164" lon="10.551027"><ele>149.0</ele><time>2026-05-02T07:57:06.556Z</time></trkpt><trkpt lat="44.6291228" lon="10.5511328"><ele>149.0</ele><time>2026-05-02T07:57:08.64Z</time></trkpt><trkpt lat="44.6291306" lon="10.5512353"><ele>149.0</ele><time>2026-05-02T07:57:10.578Z</time></trkpt><trkpt lat="44.6291275" lon="10.5513414"><ele>149.14285714285714</ele><time>2026-05-02T07:57:12.591Z</time></trkpt><trkpt lat="44.6291139" lon="10.5514378"><ele>149.28571428571428</ele><time>2026-05-02T07:57:14.602Z</time></trkpt><trkpt lat="44.6291108" lon="10.5515679"><ele>149.42857142857142</ele><time>2026-05-02T07:57:17.533Z</time></trkpt><trkpt lat="44.6291149" lon="10.5516685"><ele>149.57142857142856</ele><time>2026-05-02T07:57:19.566Z</time></trkpt><trkpt lat="44.6291004" lon="10.5517711"><ele>149.71428571428572</ele><time>2026-05-02T07:57:21.565Z</time></trkpt><trkpt lat="44.6290921" lon="10.5518713"><ele>149.85714285714283</ele><time>2026-05-02T07:57:23.565Z</time></trkpt><trkpt lat="44.6290897" lon="10.5519635"><ele>150.0</ele><time>2026-05-02T07:57:25.471Z</time></trkpt><trkpt lat="44.6290893" lon="10.552067"><ele>150.0</ele><time>2026-05-02T07:57:27.573Z</time></trkpt><trkpt lat="44.6290875" lon="10.5521636"><ele>150.0</ele><time>2026-05-02T07:57:29.594Z</time></trkpt><trkpt lat="44.629078" lon="10.5522638"><ele>150.0</ele><time>2026-05-02T07:57:31.607Z</time></trkpt><trkpt lat="44.6290774" lon="10.5523523"><ele>150.0</ele><time>2026-05-02T07:57:33.531Z</time></trkpt><trkpt lat="44.6290789" lon="10.5524416"><ele>150.0</ele><time>2026-05-02T07:57:35.634Z</time></trkpt><trkpt lat="44.6290727" lon="10.5525701"><ele>150.0</ele><time>2026-05-02T07:57:38.566Z</time></trkpt><trkpt lat="44.6290777" lon="10.5526997"><ele>149.99999999999997</ele><time>2026-05-02T07:57:41.509Z</time></trkpt><trkpt lat="44.6290868" lon="10.5528259"><ele>150.0</ele><time>2026-05-02T07:57:44.588Z</time></trkpt><trkpt lat="44.6290823" lon="10.5529172"><ele>150.0</ele><time>2026-05-02T07:57:46.599Z</time></trkpt><trkpt lat="44.6290734" lon="10.5530134"><ele>150.0</ele><time>2026-05-02T07:57:48.611Z</time></trkpt><trkpt lat="44.6290644" lon="10.5531024"><ele>150.0</ele><time>2026-05-02T07:57:50.535Z</time></trkpt><trkpt lat="44.6290661" lon="10.5531966"><ele>149.99999999999997</ele><time>2026-05-02T07:57:52.535Z</time></trkpt><trkpt lat="44.6290642" lon="10.5532879"><ele>150.0</ele><time>2026-05-02T07:57:54.568Z</time></trkpt><trkpt lat="44.6290612" lon="10.5533777"><ele>150.0</ele><time>2026-05-02T07:57:56.568Z</time></trkpt><trkpt lat="44.6290628" lon="10.5535052"><ele>150.0</ele><time>2026-05-02T07:57:59.55Z</time></trkpt><trkpt lat="44.629061" lon="10.5536019"><ele>150.0</ele><time>2026-05-02T07:58:01.591Z</time></trkpt><trkpt lat="44.629061" lon="10.5537012"><ele>150.0</ele><time>2026-05-02T07:58:03.604Z</time></trkpt><trkpt lat="44.6290561" lon="10.5537954"><ele>150.0</ele><time>2026-05-02T07:58:05.616Z</time></trkpt><trkpt lat="44.629052" lon="10.5539113"><ele>150.0</ele><time>2026-05-02T07:58:08.253Z</time></trkpt><trkpt lat="44.6290465" lon="10.5540194"><ele>150.28571428571428</ele><time>2026-05-02T07:58:10.564Z</time></trkpt><trkpt lat="44.6290418" lon="10.55412"><ele>150.57142857142856</ele><time>2026-05-02T07:58:12.565Z</time></trkpt><trkpt lat="44.6290391" lon="10.5542178"><ele>150.85714285714283</ele><time>2026-05-02T07:58:14.571Z</time></trkpt><trkpt lat="44.6290373" lon="10.5543103"><ele>151.14285714285714</ele><time>2026-05-02T07:58:16.495Z</time></trkpt><trkpt lat="44.6290263" lon="10.5544142"><ele>151.42857142857144</ele><time>2026-05-02T07:58:18.557Z</time></trkpt><trkpt lat="44.6290246" lon="10.5545115"><ele>151.7142857142857</ele><time>2026-05-02T07:58:20.608Z</time></trkpt><trkpt lat="44.6290183" lon="10.5546062"><ele>152.0</ele><time>2026-05-02T07:58:22.62Z</time></trkpt><trkpt lat="44.6290095" lon="10.5546977"><ele>152.0</ele><time>2026-05-02T07:58:24.568Z</time></trkpt><trkpt lat="44.6290035" lon="10.5547912"><ele>152.0</ele><time>2026-05-02T07:58:26.565Z</time></trkpt><trkpt lat="44.6289924" lon="10.5549225"><ele>152.0</ele><time>2026-05-02T07:58:29.574Z</time></trkpt><trkpt lat="44.6289819" lon="10.5550212"><ele>152.0</ele><time>2026-05-02T07:58:31.575Z</time></trkpt><trkpt lat="44.6289693" lon="10.555126"><ele>152.0</ele><time>2026-05-02T07:58:33.587Z</time></trkpt><trkpt lat="44.6289602" lon="10.5552247"><ele>152.0</ele><time>2026-05-02T07:58:35.599Z</time></trkpt><trkpt lat="44.6289565" lon="10.5553567"><ele>152.14285714285714</ele><time>2026-05-02T07:58:38.563Z</time></trkpt><trkpt lat="44.6289296" lon="10.5554735"><ele>152.2857142857143</ele><time>2026-05-02T07:58:41.566Z</time></trkpt><trkpt lat="44.6289155" lon="10.555561"><ele>152.42857142857144</ele><time>2026-05-02T07:58:43.561Z</time></trkpt><trkpt lat="44.6289108" lon="10.5556538"><ele>152.57142857142856</ele><time>2026-05-02T07:58:45.565Z</time></trkpt><trkpt lat="44.6289134" lon="10.5557507"><ele>152.71428571428572</ele><time>2026-05-02T07:58:47.596Z</time></trkpt><trkpt lat="44.6289303" lon="10.5558477"><ele>152.85714285714286</ele><time>2026-05-02T07:58:49.585Z</time></trkpt><trkpt lat="44.6289365" lon="10.5559479"><ele>153.0</ele><time>2026-05-02T07:58:51.598Z</time></trkpt><trkpt lat="44.6289334" lon="10.5560515"><ele>153.0</ele><time>2026-05-02T07:58:53.61Z</time></trkpt><trkpt lat="44.6289267" lon="10.5561514"><ele>153.0</ele><time>2026-05-02T07:58:55.494Z</time></trkpt><trkpt lat="44.6289215" lon="10.5562492"><ele>153.0</ele><time>2026-05-02T07:58:57.536Z</time></trkpt><trkpt lat="44.6289225" lon="10.5563446"><ele>153.0</ele><time>2026-05-02T07:58:59.568Z</time></trkpt><trkpt lat="44.6289306" lon="10.5564404"><ele>153.0</ele><time>2026-05-02T07:59:01.61Z</time></trkpt><trkpt lat="44.62892" lon="10.5565313"><ele>153.0</ele><time>2026-05-02T07:59:03.571Z</time></trkpt><trkpt lat="44.6289189" lon="10.556625"><ele>153.0</ele><time>2026-05-02T07:59:05.583Z</time></trkpt><trkpt lat="44.6289183" lon="10.5567171"><ele>153.0</ele><time>2026-05-02T07:59:07.596Z</time></trkpt><trkpt lat="44.6289088" lon="10.5568092"><ele>153.0</ele><time>2026-05-02T07:59:09.609Z</time></trkpt><trkpt lat="44.6289063" lon="10.5569096"><ele>153.0</ele><time>2026-05-02T07:59:11.564Z</time></trkpt><trkpt lat="44.6289062" lon="10.5570074"><ele>153.0</ele><time>2026-05-02T07:59:13.564Z</time></trkpt><trkpt lat="44.6288961" lon="10.5570996"><ele>153.0</ele><time>2026-05-02T07:59:15.567Z</time></trkpt><trkpt lat="44.6288782" lon="10.5571874"><ele>153.0</ele><time>2026-05-02T07:59:17.482Z</time></trkpt><trkpt lat="44.6288538" lon="10.5572767"><ele>153.0</ele><time>2026-05-02T07:59:19.53Z</time></trkpt><trkpt lat="44.6288309" lon="10.5573657"><ele>153.0</ele><time>2026-05-02T07:59:21.613Z</time></trkpt><trkpt lat="44.6288097" lon="10.5574539"><ele>153.0</ele><time>2026-05-02T07:59:23.595Z</time></trkpt><trkpt lat="44.628786" lon="10.5575504"><ele>153.0</ele><time>2026-05-02T07:59:25.606Z</time></trkpt><trkpt lat="44.6287595" lon="10.5576411"><ele>153.0</ele><time>2026-05-02T07:59:27.618Z</time></trkpt><trkpt lat="44.6287317" lon="10.557725"><ele>153.0</ele><time>2026-05-02T07:59:29.565Z</time></trkpt><trkpt lat="44.6287073" lon="10.5578147"><ele>153.0</ele><time>2026-05-02T07:59:31.565Z</time></trkpt><trkpt lat="44.6286817" lon="10.5579057"><ele>153.0</ele><time>2026-05-02T07:59:33.566Z</time></trkpt><trkpt lat="44.6286496" lon="10.5579922"><ele>152.14285714285714</ele><time>2026-05-02T07:59:35.568Z</time></trkpt><trkpt lat="44.6286068" lon="10.5580784"><ele>151.28571428571428</ele><time>2026-05-02T07:59:37.579Z</time></trkpt><trkpt lat="44.6285645" lon="10.5581596"><ele>150.42857142857144</ele><time>2026-05-02T07:59:39.493Z</time></trkpt><trkpt lat="44.6285181" lon="10.5582396"><ele>149.57142857142856</ele><time>2026-05-02T07:59:41.535Z</time></trkpt><trkpt lat="44.6284642" lon="10.5583108"><ele>148.71428571428572</ele><time>2026-05-02T07:59:43.616Z</time></trkpt><trkpt lat="44.628406" lon="10.5583815"><ele>147.85714285714286</ele><time>2026-05-02T07:59:45.631Z</time></trkpt><trkpt lat="44.6283501" lon="10.5584473"><ele>147.0</ele><time>2026-05-02T07:59:47.565Z</time></trkpt><trkpt lat="44.6282987" lon="10.5585205"><ele>147.0</ele><time>2026-05-02T07:59:49.564Z</time></trkpt><trkpt lat="44.6282468" lon="10.5585957"><ele>147.0</ele><time>2026-05-02T07:59:51.569Z</time></trkpt><trkpt lat="44.6281943" lon="10.5586687"><ele>147.0</ele><time>2026-05-02T07:59:53.577Z</time></trkpt><trkpt lat="44.6281374" lon="10.558735"><ele>147.0</ele><time>2026-05-02T07:59:55.59Z</time></trkpt><trkpt lat="44.6280815" lon="10.5587944"><ele>147.0</ele><time>2026-05-02T07:59:57.603Z</time></trkpt><trkpt lat="44.6280169" lon="10.5588573"><ele>147.0</ele><time>2026-05-02T07:59:59.614Z</time></trkpt><trkpt lat="44.6279529" lon="10.5589202"><ele>147.0</ele><time>2026-05-02T08:00:01.567Z</time></trkpt><trkpt lat="44.6278929" lon="10.5589894"><ele>146.5</ele><time>2026-05-02T08:00:03.563Z</time></trkpt><trkpt lat="44.6278365" lon="10.5590487"><ele>146.0</ele><time>2026-05-02T08:00:05.563Z</time></trkpt><trkpt lat="44.6277819" lon="10.559103"><ele>145.5</ele><time>2026-05-02T08:00:07.567Z</time></trkpt><trkpt lat="44.6277294" lon="10.5591568"><ele>145.0</ele><time>2026-05-02T08:00:09.575Z</time></trkpt><trkpt lat="44.6276704" lon="10.5592487"><ele>144.5</ele><time>2026-05-02T08:00:12.575Z</time></trkpt><trkpt lat="44.6276174" lon="10.5593276"><ele>144.0</ele><time>2026-05-02T08:00:15.612Z</time></trkpt><trkpt lat="44.6275635" lon="10.559421"><ele>144.0</ele><time>2026-05-02T08:00:19.564Z</time></trkpt><trkpt lat="44.6275186" lon="10.559513"><ele>144.0</ele><time>2026-05-02T08:00:22.564Z</time></trkpt><trkpt lat="44.6274693" lon="10.5596"><ele>144.0</ele><time>2026-05-02T08:00:25.573Z</time></trkpt><trkpt lat="44.6274137" lon="10.5596918"><ele>144.0</ele><time>2026-05-02T08:00:28.553Z</time></trkpt><trkpt lat="44.6273619" lon="10.5597904"><ele>144.0</ele><time>2026-05-02T08:00:31.611Z</time></trkpt><trkpt lat="44.6272997" lon="10.5598671"><ele>144.0</ele><time>2026-05-02T08:00:34.571Z</time></trkpt><trkpt lat="44.6272711" lon="10.5599511"><ele>144.33333333333334</ele><time>2026-05-02T08:00:36.564Z</time></trkpt><trkpt lat="44.6272508" lon="10.5600711"><ele>144.66666666666666</ele><time>2026-05-02T08:00:39.471Z</time></trkpt><trkpt lat="44.6272288" lon="10.5601999"><ele>145.0</ele><time>2026-05-02T08:00:42.589Z</time></trkpt><trkpt lat="44.6272058" lon="10.5603246"><ele>145.33333333333331</ele><time>2026-05-02T08:00:45.596Z</time></trkpt><trkpt lat="44.6271797" lon="10.5604172"><ele>145.66666666666666</ele><time>2026-05-02T08:00:47.608Z</time></trkpt><trkpt lat="44.6271479" lon="10.5605121"><ele>146.0</ele><time>2026-05-02T08:00:49.565Z</time></trkpt><trkpt lat="44.6271231" lon="10.5605967"><ele>146.14285714285714</ele><time>2026-05-02T08:00:51.574Z</time></trkpt><trkpt lat="44.6271068" lon="10.5606914"><ele>146.28571428571428</ele><time>2026-05-02T08:00:54.29Z</time></trkpt><trkpt lat="44.6270988" lon="10.5607803"><ele>146.42857142857144</ele><time>2026-05-02T08:00:56.564Z</time></trkpt><trkpt lat="44.6270807" lon="10.5608833"><ele>146.57142857142856</ele><time>2026-05-02T08:00:59.581Z</time></trkpt><trkpt lat="44.6270417" lon="10.5609706"><ele>146.71428571428572</ele><time>2026-05-02T08:01:02.6Z</time></trkpt><trkpt lat="44.6270037" lon="10.5610653"><ele>146.85714285714286</ele><time>2026-05-02T08:01:05.561Z</time></trkpt><trkpt lat="44.6269695" lon="10.5611772"><ele>147.0</ele><time>2026-05-02T08:01:08.558Z</time></trkpt><trkpt lat="44.6269534" lon="10.5612682"><ele>147.0</ele><time>2026-05-02T08:01:10.562Z</time></trkpt><trkpt lat="44.6269372" lon="10.5613612"><ele>147.0</ele><time>2026-05-02T08:01:12.564Z</time></trkpt><trkpt lat="44.6269199" lon="10.5614531"><ele>147.0</ele><time>2026-05-02T08:01:14.573Z</time></trkpt><trkpt lat="44.626895" lon="10.5615409"><ele>147.0</ele><time>2026-05-02T08:01:16.585Z</time></trkpt><trkpt lat="44.6268709" lon="10.5616268"><ele>147.0</ele><time>2026-05-02T08:01:18.597Z</time></trkpt><trkpt lat="44.6268481" lon="10.5617303"><ele>147.0</ele><time>2026-05-02T08:01:20.61Z</time></trkpt><trkpt lat="44.6268272" lon="10.5618379"><ele>147.0</ele><time>2026-05-02T08:01:22.563Z</time></trkpt><trkpt lat="44.6268074" lon="10.5619236"><ele>147.0</ele><time>2026-05-02T08:01:24.566Z</time></trkpt><trkpt lat="44.6267837" lon="10.5620109"><ele>147.0</ele><time>2026-05-02T08:01:26.569Z</time></trkpt><trkpt lat="44.6267555" lon="10.5620994"><ele>147.0</ele><time>2026-05-02T08:01:28.562Z</time></trkpt><trkpt lat="44.6267315" lon="10.5621897"><ele>147.0</ele><time>2026-05-02T08:01:30.571Z</time></trkpt><trkpt lat="44.626701" lon="10.5622803"><ele>147.0</ele><time>2026-05-02T08:01:32.583Z</time></trkpt><trkpt lat="44.6266702" lon="10.5623949"><ele>147.0</ele><time>2026-05-02T08:01:34.595Z</time></trkpt><trkpt lat="44.6266255" lon="10.5625087"><ele>146.66666666666666</ele><time>2026-05-02T08:01:36.608Z</time></trkpt><trkpt lat="44.6265929" lon="10.562622"><ele>146.33333333333334</ele><time>2026-05-02T08:01:38.566Z</time></trkpt><trkpt lat="44.6265643" lon="10.5627225"><ele>146.0</ele><time>2026-05-02T08:01:40.564Z</time></trkpt><trkpt lat="44.6265286" lon="10.5628111"><ele>145.66666666666669</ele><time>2026-05-02T08:01:42.565Z</time></trkpt><trkpt lat="44.62649" lon="10.5628999"><ele>145.33333333333334</ele><time>2026-05-02T08:01:44.564Z</time></trkpt><trkpt lat="44.6264526" lon="10.5629848"><ele>145.0</ele><time>2026-05-02T08:01:46.569Z</time></trkpt><trkpt lat="44.6264154" lon="10.5630723"><ele>144.83333333333334</ele><time>2026-05-02T08:01:48.531Z</time></trkpt><trkpt lat="44.6263633" lon="10.5631692"><ele>144.66666666666669</ele><time>2026-05-02T08:01:50.575Z</time></trkpt><trkpt lat="44.6263097" lon="10.5632524"><ele>144.5</ele><time>2026-05-02T08:01:52.617Z</time></trkpt><trkpt lat="44.6262658" lon="10.5633237"><ele>144.33333333333334</ele><time>2026-05-02T08:01:54.566Z</time></trkpt><trkpt lat="44.6262281" lon="10.563403"><ele>144.16666666666666</ele><time>2026-05-02T08:01:56.565Z</time></trkpt><trkpt lat="44.6261858" lon="10.5634873"><ele>144.0</ele><time>2026-05-02T08:01:58.564Z</time></trkpt><trkpt lat="44.6261379" lon="10.5635805"><ele>143.66666666666666</ele><time>2026-05-02T08:02:00.564Z</time></trkpt><trkpt lat="44.6260802" lon="10.5636969"><ele>143.33333333333334</ele><time>2026-05-02T08:02:03.554Z</time></trkpt><trkpt lat="44.6260296" lon="10.5637863"><ele>143.0</ele><time>2026-05-02T08:02:05.585Z</time></trkpt><trkpt lat="44.6259782" lon="10.5638722"><ele>142.66666666666669</ele><time>2026-05-02T08:02:07.597Z</time></trkpt><trkpt lat="44.6259331" lon="10.5639668"><ele>142.33333333333334</ele><time>2026-05-02T08:02:09.61Z</time></trkpt><trkpt lat="44.6258828" lon="10.564066"><ele>142.0</ele><time>2026-05-02T08:02:11.565Z</time></trkpt><trkpt lat="44.6258396" lon="10.5641693"><ele>141.71428571428572</ele><time>2026-05-02T08:02:13.563Z</time></trkpt><trkpt lat="44.6257982" lon="10.5642638"><ele>141.42857142857142</ele><time>2026-05-02T08:02:15.565Z</time></trkpt><trkpt lat="44.6257654" lon="10.5643555"><ele>141.14285714285714</ele><time>2026-05-02T08:02:17.569Z</time></trkpt><trkpt lat="44.6257373" lon="10.5644448"><ele>140.85714285714286</ele><time>2026-05-02T08:02:19.57Z</time></trkpt><trkpt lat="44.6257039" lon="10.56453"><ele>140.57142857142856</ele><time>2026-05-02T08:02:21.583Z</time></trkpt><trkpt lat="44.625666" lon="10.5646149"><ele>140.28571428571428</ele><time>2026-05-02T08:02:23.595Z</time></trkpt><trkpt lat="44.6256224" lon="10.5646917"><ele>140.0</ele><time>2026-05-02T08:02:25.56Z</time></trkpt><trkpt lat="44.6255852" lon="10.5647694"><ele>140.0</ele><time>2026-05-02T08:02:27.491Z</time></trkpt><trkpt lat="44.6255435" lon="10.5648507"><ele>140.0</ele><time>2026-05-02T08:02:29.574Z</time></trkpt><trkpt lat="44.6254856" lon="10.5649592"><ele>140.0</ele><time>2026-05-02T08:02:32.565Z</time></trkpt><trkpt lat="44.625442" lon="10.5650434"><ele>140.0</ele><time>2026-05-02T08:02:34.562Z</time></trkpt><trkpt lat="44.6253997" lon="10.5651334"><ele>140.0</ele><time>2026-05-02T08:02:36.574Z</time></trkpt><trkpt lat="44.6253606" lon="10.5652225"><ele>140.0</ele><time>2026-05-02T08:02:38.498Z</time></trkpt><trkpt lat="44.6253245" lon="10.5653166"><ele>138.83333333333331</ele><time>2026-05-02T08:02:40.53Z</time></trkpt><trkpt lat="44.6252825" lon="10.565407"><ele>137.66666666666666</ele><time>2026-05-02T08:02:42.594Z</time></trkpt><trkpt lat="44.6252389" lon="10.5654797"><ele>136.5</ele><time>2026-05-02T08:02:44.595Z</time></trkpt><trkpt lat="44.6251896" lon="10.5655817"><ele>135.33333333333334</ele><time>2026-05-02T08:02:47.561Z</time></trkpt><trkpt lat="44.6251497" lon="10.5656657"><ele>134.16666666666669</ele><time>2026-05-02T08:02:49.561Z</time></trkpt><trkpt lat="44.6251076" lon="10.5657511"><ele>133.0</ele><time>2026-05-02T08:02:51.566Z</time></trkpt><trkpt lat="44.6250547" lon="10.5658443"><ele>133.0</ele><time>2026-05-02T08:02:53.578Z</time></trkpt><trkpt lat="44.6250027" lon="10.5659377"><ele>133.0</ele><time>2026-05-02T08:02:55.591Z</time></trkpt><trkpt lat="44.6249622" lon="10.5660243"><ele>133.0</ele><time>2026-05-02T08:02:57.603Z</time></trkpt><trkpt lat="44.6249279" lon="10.5661033"><ele>133.0</ele><time>2026-05-02T08:02:59.615Z</time></trkpt><trkpt lat="44.624857" lon="10.5661958"><ele>133.0</ele><time>2026-05-02T08:03:02.566Z</time></trkpt><trkpt lat="44.6247966" lon="10.5662389"><ele>133.0</ele><time>2026-05-02T08:03:04.567Z</time></trkpt><trkpt lat="44.624741" lon="10.5662867"><ele>132.57142857142858</ele><time>2026-05-02T08:03:06.564Z</time></trkpt><trkpt lat="44.6246945" lon="10.5663537"><ele>132.14285714285714</ele><time>2026-05-02T08:03:08.57Z</time></trkpt><trkpt lat="44.6246423" lon="10.566416"><ele>131.71428571428572</ele><time>2026-05-02T08:03:10.582Z</time></trkpt><trkpt lat="44.6246086" lon="10.5665012"><ele>131.28571428571428</ele><time>2026-05-02T08:03:12.496Z</time></trkpt><trkpt lat="44.6245894" lon="10.5665997"><ele>130.85714285714286</ele><time>2026-05-02T08:03:14.459Z</time></trkpt><trkpt lat="44.6245659" lon="10.5667056"><ele>130.42857142857144</ele><time>2026-05-02T08:03:16.569Z</time></trkpt><trkpt lat="44.6245448" lon="10.5667986"><ele>130.0</ele><time>2026-05-02T08:03:18.473Z</time></trkpt><trkpt lat="44.624518" lon="10.5669076"><ele>130.00000000000003</ele><time>2026-05-02T08:03:20.561Z</time></trkpt><trkpt lat="44.6244854" lon="10.5670021"><ele>130.0</ele><time>2026-05-02T08:03:22.599Z</time></trkpt><trkpt lat="44.624448" lon="10.5670807"><ele>130.0</ele><time>2026-05-02T08:03:24.57Z</time></trkpt><trkpt lat="44.6244151" lon="10.5671593"><ele>130.0</ele><time>2026-05-02T08:03:26.58Z</time></trkpt><trkpt lat="44.6243945" lon="10.5672751"><ele>130.0</ele><time>2026-05-02T08:03:29.599Z</time></trkpt><trkpt lat="44.6243479" lon="10.5673382"><ele>130.00000000000003</ele><time>2026-05-02T08:03:31.564Z</time></trkpt><trkpt lat="44.6243139" lon="10.5674178"><ele>130.0</ele><time>2026-05-02T08:03:33.565Z</time></trkpt><trkpt lat="44.6242752" lon="10.5674992"><ele>129.71428571428572</ele><time>2026-05-02T08:03:35.567Z</time></trkpt><trkpt lat="44.6242398" lon="10.5675817"><ele>129.42857142857144</ele><time>2026-05-02T08:03:37.569Z</time></trkpt><trkpt lat="44.6242088" lon="10.5676615"><ele>129.14285714285714</ele><time>2026-05-02T08:03:39.471Z</time></trkpt><trkpt lat="44.6241705" lon="10.5677414"><ele>128.85714285714286</ele><time>2026-05-02T08:03:41.513Z</time></trkpt><trkpt lat="44.6241368" lon="10.5678163"><ele>128.57142857142856</ele><time>2026-05-02T08:03:43.584Z</time></trkpt><trkpt lat="44.6240719" lon="10.567902"><ele>128.28571428571428</ele><time>2026-05-02T08:03:46.602Z</time></trkpt><trkpt lat="44.6240265" lon="10.5680112"><ele>128.0</ele><time>2026-05-02T08:03:49.564Z</time></trkpt><trkpt lat="44.6239923" lon="10.5680925"><ele>127.99999999999999</ele><time>2026-05-02T08:03:51.564Z</time></trkpt><trkpt lat="44.623959" lon="10.5681697"><ele>128.0</ele><time>2026-05-02T08:03:53.566Z</time></trkpt><trkpt lat="44.6239156" lon="10.5682769"><ele>128.0</ele><time>2026-05-02T08:03:56.596Z</time></trkpt><trkpt lat="44.6238636" lon="10.5683844"><ele>128.0</ele><time>2026-05-02T08:03:59.582Z</time></trkpt><trkpt lat="44.6238215" lon="10.5684574"><ele>127.99999999999999</ele><time>2026-05-02T08:04:01.594Z</time></trkpt><trkpt lat="44.6237771" lon="10.5685668"><ele>128.0</ele><time>2026-05-02T08:04:04.563Z</time></trkpt><trkpt lat="44.6237267" lon="10.56867"><ele>128.16666666666666</ele><time>2026-05-02T08:04:07.576Z</time></trkpt><trkpt lat="44.6236832" lon="10.5687737"><ele>128.33333333333331</ele><time>2026-05-02T08:04:10.572Z</time></trkpt><trkpt lat="44.6236417" lon="10.5688808"><ele>128.5</ele><time>2026-05-02T08:04:13.567Z</time></trkpt><trkpt lat="44.6236155" lon="10.5689731"><ele>128.66666666666666</ele><time>2026-05-02T08:04:15.581Z</time></trkpt><trkpt lat="44.6235798" lon="10.5690602"><ele>128.83333333333334</ele><time>2026-05-02T08:04:17.592Z</time></trkpt><trkpt lat="44.6235499" lon="10.5691387"><ele>129.0</ele><time>2026-05-02T08:04:19.516Z</time></trkpt><trkpt lat="44.6235128" lon="10.569253"><ele>129.5</ele><time>2026-05-02T08:04:22.563Z</time></trkpt><trkpt lat="44.6234778" lon="10.56935"><ele>130.0</ele><time>2026-05-02T08:04:25.512Z</time></trkpt><trkpt lat="44.6234423" lon="10.5694307"><ele>130.5</ele><time>2026-05-02T08:04:28.564Z</time></trkpt><trkpt lat="44.6234124" lon="10.5695283"><ele>131.0</ele><time>2026-05-02T08:04:31.529Z</time></trkpt><trkpt lat="44.6233743" lon="10.5696333"><ele>131.5</ele><time>2026-05-02T08:04:34.596Z</time></trkpt><trkpt lat="44.6233278" lon="10.5697281"><ele>132.0</ele><time>2026-05-02T08:04:37.556Z</time></trkpt><trkpt lat="44.6233" lon="10.5698303"><ele>132.0</ele><time>2026-05-02T08:04:40.563Z</time></trkpt><trkpt lat="44.6232612" lon="10.5699172"><ele>132.0</ele><time>2026-05-02T08:04:43.562Z</time></trkpt><trkpt lat="44.6232185" lon="10.5700005"><ele>132.0</ele><time>2026-05-02T08:04:46.47Z</time></trkpt><trkpt lat="44.6231708" lon="10.5701096"><ele>132.0</ele><time>2026-05-02T08:04:49.589Z</time></trkpt><trkpt lat="44.6231367" lon="10.5701861"><ele>132.0</ele><time>2026-05-02T08:04:51.601Z</time></trkpt><trkpt lat="44.6230806" lon="10.5702898"><ele>132.0</ele><time>2026-05-02T08:04:54.59Z</time></trkpt><trkpt lat="44.623039" lon="10.5703939"><ele>132.16666666666666</ele><time>2026-05-02T08:04:57.564Z</time></trkpt><trkpt lat="44.6230181" lon="10.5705082"><ele>132.33333333333334</ele><time>2026-05-02T08:05:00.477Z</time></trkpt><trkpt lat="44.6230005" lon="10.5706038"><ele>132.5</ele><time>2026-05-02T08:05:02.508Z</time></trkpt><trkpt lat="44.622968" lon="10.5706956"><ele>132.66666666666669</ele><time>2026-05-02T08:05:04.579Z</time></trkpt><trkpt lat="44.6229276" lon="10.5707883"><ele>132.83333333333334</ele><time>2026-05-02T08:05:06.592Z</time></trkpt><trkpt lat="44.6228939" lon="10.5708895"><ele>133.0</ele><time>2026-05-02T08:05:08.604Z</time></trkpt><trkpt lat="44.6228497" lon="10.570978"><ele>133.0</ele><time>2026-05-02T08:05:10.565Z</time></trkpt><trkpt lat="44.6228203" lon="10.5710693"><ele>133.0</ele><time>2026-05-02T08:05:12.569Z</time></trkpt><trkpt lat="44.622801" lon="10.5711678"><ele>133.0</ele><time>2026-05-02T08:05:14.567Z</time></trkpt><trkpt lat="44.6227812" lon="10.5712634"><ele>133.0</ele><time>2026-05-02T08:05:16.564Z</time></trkpt><trkpt lat="44.622754" lon="10.5713516"><ele>133.0</ele><time>2026-05-02T08:05:18.566Z</time></trkpt><trkpt lat="44.6227222" lon="10.5714519"><ele>133.0</ele><time>2026-05-02T08:05:20.577Z</time></trkpt><trkpt lat="44.6226957" lon="10.5715435"><ele>133.0</ele><time>2026-05-02T08:05:22.59Z</time></trkpt><trkpt lat="44.6226656" lon="10.5716268"><ele>133.5</ele><time>2026-05-02T08:05:24.602Z</time></trkpt><trkpt lat="44.6226316" lon="10.5717443"><ele>134.0</ele><time>2026-05-02T08:05:27.571Z</time></trkpt><trkpt lat="44.6226006" lon="10.5718613"><ele>134.5</ele><time>2026-05-02T08:05:30.564Z</time></trkpt><trkpt lat="44.62258" lon="10.5719704"><ele>135.0</ele><time>2026-05-02T08:05:33.556Z</time></trkpt><trkpt lat="44.6225564" lon="10.5720578"><ele>135.5</ele><time>2026-05-02T08:05:35.569Z</time></trkpt><trkpt lat="44.6225161" lon="10.5721633"><ele>136.0</ele><time>2026-05-02T08:05:38.587Z</time></trkpt><trkpt lat="44.6224818" lon="10.5722661"><ele>136.33333333333334</ele><time>2026-05-02T08:05:41.607Z</time></trkpt><trkpt lat="44.6224435" lon="10.5723764"><ele>136.66666666666669</ele><time>2026-05-02T08:05:44.535Z</time></trkpt><trkpt lat="44.6224206" lon="10.5724598"><ele>137.0</ele><time>2026-05-02T08:05:46.608Z</time></trkpt><trkpt lat="44.6223981" lon="10.5725578"><ele>137.33333333333334</ele><time>2026-05-02T08:05:48.565Z</time></trkpt><trkpt lat="44.6223727" lon="10.5726524"><ele>137.66666666666666</ele><time>2026-05-02T08:05:50.564Z</time></trkpt><trkpt lat="44.622324" lon="10.5727579"><ele>138.0</ele><time>2026-05-02T08:05:53.58Z</time></trkpt><trkpt lat="44.6222971" lon="10.5728419"><ele>137.85714285714286</ele><time>2026-05-02T08:05:55.591Z</time></trkpt><trkpt lat="44.6222854" lon="10.5729445"><ele>137.71428571428572</ele><time>2026-05-02T08:05:57.564Z</time></trkpt><trkpt lat="44.622273" lon="10.573041"><ele>137.57142857142858</ele><time>2026-05-02T08:05:59.564Z</time></trkpt><trkpt lat="44.6222553" lon="10.5731351"><ele>137.42857142857144</ele><time>2026-05-02T08:06:01.564Z</time></trkpt><trkpt lat="44.6222294" lon="10.5732323"><ele>137.28571428571428</ele><time>2026-05-02T08:06:03.564Z</time></trkpt><trkpt lat="44.6222064" lon="10.5733237"><ele>137.14285714285717</ele><time>2026-05-02T08:06:05.473Z</time></trkpt><trkpt lat="44.6221875" lon="10.5734325"><ele>137.0</ele><time>2026-05-02T08:06:07.556Z</time></trkpt><trkpt lat="44.6221747" lon="10.5735416"><ele>137.00000000000003</ele><time>2026-05-02T08:06:09.577Z</time></trkpt><trkpt lat="44.6221603" lon="10.5736508"><ele>137.0</ele><time>2026-05-02T08:06:11.589Z</time></trkpt><trkpt lat="44.6221631" lon="10.5737499"><ele>137.0</ele><time>2026-05-02T08:06:13.564Z</time></trkpt><trkpt lat="44.6221859" lon="10.5738384"><ele>137.0</ele><time>2026-05-02T08:06:15.556Z</time></trkpt><trkpt lat="44.6222379" lon="10.5739455"><ele>137.0</ele><time>2026-05-02T08:06:18.566Z</time></trkpt><trkpt lat="44.6222913" lon="10.5740004"><ele>137.00000000000003</ele><time>2026-05-02T08:06:20.567Z</time></trkpt><trkpt lat="44.622348" lon="10.5740518"><ele>137.0</ele><time>2026-05-02T08:06:22.589Z</time></trkpt><trkpt lat="44.6224118" lon="10.5741024"><ele>137.0</ele><time>2026-05-02T08:06:24.568Z</time></trkpt><trkpt lat="44.6224828" lon="10.5741539"><ele>137.0</ele><time>2026-05-02T08:06:26.581Z</time></trkpt><trkpt lat="44.6225487" lon="10.5742087"><ele>137.0</ele><time>2026-05-02T08:06:28.593Z</time></trkpt><trkpt lat="44.62261" lon="10.5742489"><ele>137.0</ele><time>2026-05-02T08:06:30.605Z</time></trkpt><trkpt lat="44.6226853" lon="10.574305"><ele>137.0</ele><time>2026-05-02T08:06:33.475Z</time></trkpt><trkpt lat="44.6227429" lon="10.5743463"><ele>137.0</ele><time>2026-05-02T08:06:35.598Z</time></trkpt><trkpt lat="44.6228178" lon="10.5744221"><ele>137.0</ele><time>2026-05-02T08:06:38.566Z</time></trkpt><trkpt lat="44.6228685" lon="10.5744756"><ele>137.0</ele><time>2026-05-02T08:06:40.567Z</time></trkpt><trkpt lat="44.6229299" lon="10.57456"><ele>137.0</ele><time>2026-05-02T08:06:43.516Z</time></trkpt><trkpt lat="44.6229945" lon="10.5746458"><ele>137.0</ele><time>2026-05-02T08:06:46.576Z</time></trkpt><trkpt lat="44.6230623" lon="10.5747235"><ele>137.0</ele><time>2026-05-02T08:06:49.564Z</time></trkpt><trkpt lat="44.6231426" lon="10.5747933"><ele>137.0</ele><time>2026-05-02T08:06:52.573Z</time></trkpt><trkpt lat="44.6232014" lon="10.5748342"><ele>137.00000000000003</ele><time>2026-05-02T08:06:54.553Z</time></trkpt><trkpt lat="44.6232516" lon="10.5748892"><ele>137.0</ele><time>2026-05-02T08:06:56.516Z</time></trkpt><trkpt lat="44.6233042" lon="10.5749503"><ele>137.0</ele><time>2026-05-02T08:06:58.568Z</time></trkpt><trkpt lat="44.6233607" lon="10.5750017"><ele>137.0</ele><time>2026-05-02T08:07:00.57Z</time></trkpt><trkpt lat="44.6234202" lon="10.5750468"><ele>137.0</ele><time>2026-05-02T08:07:02.552Z</time></trkpt><trkpt lat="44.6234806" lon="10.5750928"><ele>137.00000000000003</ele><time>2026-05-02T08:07:04.565Z</time></trkpt><trkpt lat="44.623541" lon="10.5751369"><ele>137.0</ele><time>2026-05-02T08:07:06.565Z</time></trkpt><trkpt lat="44.6236011" lon="10.5751902"><ele>136.71428571428572</ele><time>2026-05-02T08:07:08.564Z</time></trkpt><trkpt lat="44.623655" lon="10.5752541"><ele>136.42857142857144</ele><time>2026-05-02T08:07:10.563Z</time></trkpt><trkpt lat="44.6237115" lon="10.5753131"><ele>136.14285714285714</ele><time>2026-05-02T08:07:12.564Z</time></trkpt><trkpt lat="44.623768" lon="10.5753668"><ele>135.85714285714286</ele><time>2026-05-02T08:07:14.574Z</time></trkpt><trkpt lat="44.6238247" lon="10.5754178"><ele>135.57142857142856</ele><time>2026-05-02T08:07:16.587Z</time></trkpt><trkpt lat="44.6238835" lon="10.5754676"><ele>135.28571428571428</ele><time>2026-05-02T08:07:18.599Z</time></trkpt><trkpt lat="44.6239421" lon="10.5755178"><ele>135.0</ele><time>2026-05-02T08:07:20.566Z</time></trkpt><trkpt lat="44.6239973" lon="10.5755667"><ele>134.85714285714286</ele><time>2026-05-02T08:07:22.514Z</time></trkpt><trkpt lat="44.6240576" lon="10.5756104"><ele>134.7142857142857</ele><time>2026-05-02T08:07:24.597Z</time></trkpt><trkpt lat="44.6241184" lon="10.575651"><ele>134.57142857142856</ele><time>2026-05-02T08:07:26.609Z</time></trkpt><trkpt lat="44.6241779" lon="10.5756988"><ele>134.42857142857142</ele><time>2026-05-02T08:07:28.564Z</time></trkpt><trkpt lat="44.6242275" lon="10.5757648"><ele>134.28571428571428</ele><time>2026-05-02T08:07:30.572Z</time></trkpt><trkpt lat="44.6242818" lon="10.5758642"><ele>134.14285714285714</ele><time>2026-05-02T08:07:33.59Z</time></trkpt><trkpt lat="44.6243085" lon="10.5759819"><ele>134.0</ele><time>2026-05-02T08:07:36.609Z</time></trkpt><trkpt lat="44.6243127" lon="10.5760986"><ele>134.0</ele><time>2026-05-02T08:07:39.509Z</time></trkpt><trkpt lat="44.6242982" lon="10.576217"><ele>134.0</ele><time>2026-05-02T08:07:42.564Z</time></trkpt><trkpt lat="44.6242917" lon="10.5763068"><ele>134.0</ele><time>2026-05-02T08:07:44.562Z</time></trkpt><trkpt lat="44.6242905" lon="10.5764332"><ele>134.0</ele><time>2026-05-02T08:07:47.517Z</time></trkpt><trkpt lat="44.6242796" lon="10.5765682"><ele>134.0</ele><time>2026-05-02T08:07:50.618Z</time></trkpt><trkpt lat="44.6242539" lon="10.5766611"><ele>134.0</ele><time>2026-05-02T08:07:52.564Z</time></trkpt><trkpt lat="44.6242273" lon="10.5767507"><ele>134.0</ele><time>2026-05-02T08:07:54.564Z</time></trkpt><trkpt lat="44.6241969" lon="10.5768329"><ele>134.0</ele><time>2026-05-02T08:07:56.566Z</time></trkpt><trkpt lat="44.6241728" lon="10.5769147"><ele>134.0</ele><time>2026-05-02T08:07:58.534Z</time></trkpt><trkpt lat="44.6241503" lon="10.5770111"><ele>134.0</ele><time>2026-05-02T08:08:00.577Z</time></trkpt><trkpt lat="44.6241254" lon="10.5771315"><ele>134.0</ele><time>2026-05-02T08:08:03.574Z</time></trkpt><trkpt lat="44.6241143" lon="10.5772241"><ele>134.0</ele><time>2026-05-02T08:08:05.586Z</time></trkpt><trkpt lat="44.6241015" lon="10.577314"><ele>134.0</ele><time>2026-05-02T08:08:07.598Z</time></trkpt><trkpt lat="44.6240817" lon="10.5774007"><ele>134.0</ele><time>2026-05-02T08:08:09.571Z</time></trkpt><trkpt lat="44.624059" lon="10.5774925"><ele>134.0</ele><time>2026-05-02T08:08:11.565Z</time></trkpt><trkpt lat="44.6240369" lon="10.5775842"><ele>134.0</ele><time>2026-05-02T08:08:13.564Z</time></trkpt><trkpt lat="44.6240141" lon="10.5776686"><ele>134.0</ele><time>2026-05-02T08:08:15.566Z</time></trkpt><trkpt lat="44.6239963" lon="10.5777591"><ele>134.0</ele><time>2026-05-02T08:08:17.566Z</time></trkpt><trkpt lat="44.6239836" lon="10.5778486"><ele>134.0</ele><time>2026-05-02T08:08:19.571Z</time></trkpt><trkpt lat="44.6239675" lon="10.5779364"><ele>134.0</ele><time>2026-05-02T08:08:21.585Z</time></trkpt><trkpt lat="44.6239461" lon="10.5780272"><ele>134.0</ele><time>2026-05-02T08:08:23.596Z</time></trkpt><trkpt lat="44.623923" lon="10.5781513"><ele>134.0</ele><time>2026-05-02T08:08:26.565Z</time></trkpt><trkpt lat="44.6239162" lon="10.5782733"><ele>134.0</ele><time>2026-05-02T08:08:29.564Z</time></trkpt><trkpt lat="44.623919" lon="10.5783907"><ele>134.0</ele><time>2026-05-02T08:08:32.565Z</time></trkpt><trkpt lat="44.6239246" lon="10.5785047"><ele>134.0</ele><time>2026-05-02T08:08:35.569Z</time></trkpt><trkpt lat="44.6239276" lon="10.5786359"><ele>134.0</ele><time>2026-05-02T08:08:38.588Z</time></trkpt><trkpt lat="44.623943" lon="10.5787578"><ele>134.0</ele><time>2026-05-02T08:08:41.537Z</time></trkpt><trkpt lat="44.6239536" lon="10.5788866"><ele>134.0</ele><time>2026-05-02T08:08:44.566Z</time></trkpt><trkpt lat="44.6239546" lon="10.5790116"><ele>134.0</ele><time>2026-05-02T08:08:47.564Z</time></trkpt><trkpt lat="44.6239499" lon="10.5791033"><ele>134.0</ele><time>2026-05-02T08:08:49.563Z</time></trkpt><trkpt lat="44.6239406" lon="10.5791976"><ele>134.0</ele><time>2026-05-02T08:08:51.568Z</time></trkpt><trkpt lat="44.6239246" lon="10.5793275"><ele>134.0</ele><time>2026-05-02T08:08:54.585Z</time></trkpt><trkpt lat="44.6239209" lon="10.579472"><ele>133.66666666666666</ele><time>2026-05-02T08:08:57.563Z</time></trkpt><trkpt lat="44.6239219" lon="10.5795866"><ele>133.33333333333331</ele><time>2026-05-02T08:08:59.564Z</time></trkpt><trkpt lat="44.6239217" lon="10.5796813"><ele>133.0</ele><time>2026-05-02T08:09:01.509Z</time></trkpt><trkpt lat="44.6239199" lon="10.5797738"><ele>132.66666666666666</ele><time>2026-05-02T08:09:03.612Z</time></trkpt><trkpt lat="44.6239118" lon="10.5798625"><ele>132.33333333333334</ele><time>2026-05-02T08:09:05.564Z</time></trkpt><trkpt lat="44.6239086" lon="10.5799931"><ele>132.0</ele><time>2026-05-02T08:09:08.572Z</time></trkpt><trkpt lat="44.623911" lon="10.5801257"><ele>132.0</ele><time>2026-05-02T08:09:11.59Z</time></trkpt><trkpt lat="44.6239201" lon="10.5802475"><ele>132.0</ele><time>2026-05-02T08:09:14.509Z</time></trkpt><trkpt lat="44.6239296" lon="10.5803356"><ele>132.0</ele><time>2026-05-02T08:09:16.592Z</time></trkpt><trkpt lat="44.6239398" lon="10.5804308"><ele>132.0</ele><time>2026-05-02T08:09:18.565Z</time></trkpt><trkpt lat="44.623953" lon="10.5805261"><ele>132.0</ele><time>2026-05-02T08:09:20.565Z</time></trkpt><trkpt lat="44.6239677" lon="10.5806583"><ele>132.0</ele><time>2026-05-02T08:09:23.534Z</time></trkpt><trkpt lat="44.6239729" lon="10.5807558"><ele>131.83333333333334</ele><time>2026-05-02T08:09:25.597Z</time></trkpt><trkpt lat="44.6239815" lon="10.5808557"><ele>131.66666666666666</ele><time>2026-05-02T08:09:27.587Z</time></trkpt><trkpt lat="44.6239878" lon="10.5809508"><ele>131.5</ele><time>2026-05-02T08:09:29.6Z</time></trkpt><trkpt lat="44.6239945" lon="10.5810851"><ele>131.33333333333331</ele><time>2026-05-02T08:09:32.567Z</time></trkpt><trkpt lat="44.6240107" lon="10.5812161"><ele>131.16666666666666</ele><time>2026-05-02T08:09:35.565Z</time></trkpt><trkpt lat="44.6240176" lon="10.5813124"><ele>131.0</ele><time>2026-05-02T08:09:37.565Z</time></trkpt><trkpt lat="44.6240212" lon="10.5814135"><ele>131.0</ele><time>2026-05-02T08:09:39.564Z</time></trkpt><trkpt lat="44.6240225" lon="10.5815053"><ele>131.0</ele><time>2026-05-02T08:09:41.474Z</time></trkpt><trkpt lat="44.624022" lon="10.5816066"><ele>131.0</ele><time>2026-05-02T08:09:43.556Z</time></trkpt><trkpt lat="44.6240198" lon="10.5817004"><ele>131.0</ele><time>2026-05-02T08:09:45.609Z</time></trkpt><trkpt lat="44.6240091" lon="10.5817933"><ele>131.0</ele><time>2026-05-02T08:09:47.61Z</time></trkpt><trkpt lat="44.6239985" lon="10.5818931"><ele>131.0</ele><time>2026-05-02T08:09:49.564Z</time></trkpt><trkpt lat="44.623987" lon="10.5819891"><ele>131.0</ele><time>2026-05-02T08:09:51.564Z</time></trkpt><trkpt lat="44.6239809" lon="10.582083"><ele>131.33333333333331</ele><time>2026-05-02T08:09:53.565Z</time></trkpt><trkpt lat="44.6239859" lon="10.5821717"><ele>131.66666666666666</ele><time>2026-05-02T08:09:55.566Z</time></trkpt><trkpt lat="44.6240065" lon="10.5822895"><ele>132.0</ele><time>2026-05-02T08:09:58.518Z</time></trkpt><trkpt lat="44.6239605" lon="10.5823706"><ele>132.33333333333334</ele><time>2026-05-02T08:10:02.601Z</time></trkpt><trkpt lat="44.6239536" lon="10.5824751"><ele>132.66666666666669</ele><time>2026-05-02T08:10:05.619Z</time></trkpt><trkpt lat="44.6239641" lon="10.5825763"><ele>133.0</ele><time>2026-05-02T08:10:08.565Z</time></trkpt><trkpt lat="44.6239952" lon="10.5827019"><ele>133.0</ele><time>2026-05-02T08:10:11.564Z</time></trkpt><trkpt lat="44.6240232" lon="10.5827879"><ele>133.0</ele><time>2026-05-02T08:10:13.571Z</time></trkpt><trkpt lat="44.6240606" lon="10.5828777"><ele>133.0</ele><time>2026-05-02T08:10:15.58Z</time></trkpt><trkpt lat="44.6241013" lon="10.5829734"><ele>133.0</ele><time>2026-05-02T08:10:17.594Z</time></trkpt><trkpt lat="44.6241404" lon="10.5830582"><ele>133.0</ele><time>2026-05-02T08:10:19.605Z</time></trkpt><trkpt lat="44.6241866" lon="10.5831356"><ele>133.0</ele><time>2026-05-02T08:10:21.63Z</time></trkpt><trkpt lat="44.6242305" lon="10.5832082"><ele>133.0</ele><time>2026-05-02T08:10:23.564Z</time></trkpt><trkpt lat="44.6242734" lon="10.5832859"><ele>133.0</ele><time>2026-05-02T08:10:25.564Z</time></trkpt><trkpt lat="44.6243162" lon="10.5833931"><ele>133.0</ele><time>2026-05-02T08:10:28.531Z</time></trkpt><trkpt lat="44.6243459" lon="10.5834735"><ele>133.0</ele><time>2026-05-02T08:10:30.635Z</time></trkpt><trkpt lat="44.6243697" lon="10.583596"><ele>133.0</ele><time>2026-05-02T08:10:33.591Z</time></trkpt><trkpt lat="44.6243912" lon="10.5837243"><ele>133.0</ele><time>2026-05-02T08:10:36.61Z</time></trkpt><trkpt lat="44.6243962" lon="10.5838224"><ele>133.0</ele><time>2026-05-02T08:10:38.613Z</time></trkpt><trkpt lat="44.6244019" lon="10.5839164"><ele>132.85714285714286</ele><time>2026-05-02T08:10:40.561Z</time></trkpt><trkpt lat="44.624408" lon="10.5840133"><ele>132.71428571428572</ele><time>2026-05-02T08:10:42.565Z</time></trkpt><trkpt lat="44.6244147" lon="10.5841164"><ele>132.57142857142856</ele><time>2026-05-02T08:10:44.564Z</time></trkpt><trkpt lat="44.62442" lon="10.5842186"><ele>132.42857142857144</ele><time>2026-05-02T08:10:46.551Z</time></trkpt><trkpt lat="44.6244327" lon="10.5843134"><ele>132.28571428571428</ele><time>2026-05-02T08:10:48.614Z</time></trkpt><trkpt lat="44.6244417" lon="10.5844034"><ele>132.14285714285714</ele><time>2026-05-02T08:10:50.595Z</time></trkpt><trkpt lat="44.6244528" lon="10.5844982"><ele>132.0</ele><time>2026-05-02T08:10:52.608Z</time></trkpt><trkpt lat="44.6244665" lon="10.5845868"><ele>132.0</ele><time>2026-05-02T08:10:54.619Z</time></trkpt><trkpt lat="44.6244773" lon="10.5846757"><ele>132.0</ele><time>2026-05-02T08:10:56.593Z</time></trkpt><trkpt lat="44.6244823" lon="10.5847746"><ele>132.0</ele><time>2026-05-02T08:10:58.563Z</time></trkpt><trkpt lat="44.6244887" lon="10.5848687"><ele>132.0</ele><time>2026-05-02T08:11:00.564Z</time></trkpt><trkpt lat="44.6244989" lon="10.584962"><ele>132.0</ele><time>2026-05-02T08:11:02.509Z</time></trkpt><trkpt lat="44.6245199" lon="10.5850595"><ele>132.0</ele><time>2026-05-02T08:11:04.572Z</time></trkpt><trkpt lat="44.6245516" lon="10.585147"><ele>132.0</ele><time>2026-05-02T08:11:06.592Z</time></trkpt><trkpt lat="44.6245896" lon="10.5852371"><ele>131.85714285714286</ele><time>2026-05-02T08:11:08.605Z</time></trkpt><trkpt lat="44.6246292" lon="10.5853174"><ele>131.71428571428572</ele><time>2026-05-02T08:11:10.562Z</time></trkpt><trkpt lat="44.6246722" lon="10.585388"><ele>131.57142857142858</ele><time>2026-05-02T08:11:12.565Z</time></trkpt><trkpt lat="44.6247132" lon="10.5854555"><ele>131.42857142857144</ele><time>2026-05-02T08:11:14.566Z</time></trkpt><trkpt lat="44.6247626" lon="10.5855204"><ele>131.2857142857143</ele><time>2026-05-02T08:11:16.564Z</time></trkpt><trkpt lat="44.6248131" lon="10.5855917"><ele>131.14285714285714</ele><time>2026-05-02T08:11:18.566Z</time></trkpt><trkpt lat="44.6248623" lon="10.5856688"><ele>131.0</ele><time>2026-05-02T08:11:20.578Z</time></trkpt><trkpt lat="44.6249128" lon="10.5857437"><ele>131.0</ele><time>2026-05-02T08:11:22.613Z</time></trkpt><trkpt lat="44.6249597" lon="10.5858189"><ele>131.0</ele><time>2026-05-02T08:11:24.603Z</time></trkpt><trkpt lat="44.6250051" lon="10.5858954"><ele>131.0</ele><time>2026-05-02T08:11:26.616Z</time></trkpt><trkpt lat="44.6250383" lon="10.5859732"><ele>131.0</ele><time>2026-05-02T08:11:28.563Z</time></trkpt><trkpt lat="44.6250695" lon="10.586051"><ele>131.0</ele><time>2026-05-02T08:11:30.591Z</time></trkpt><trkpt lat="44.6250992" lon="10.5861346"><ele>131.0</ele><time>2026-05-02T08:11:32.566Z</time></trkpt><trkpt lat="44.6251215" lon="10.5862244"><ele>131.0</ele><time>2026-05-02T08:11:34.563Z</time></trkpt><trkpt lat="44.6251373" lon="10.5863117"><ele>130.83333333333331</ele><time>2026-05-02T08:11:36.576Z</time></trkpt><trkpt lat="44.6251539" lon="10.5864375"><ele>130.66666666666666</ele><time>2026-05-02T08:11:39.594Z</time></trkpt><trkpt lat="44.625158" lon="10.5865437"><ele>130.5</ele><time>2026-05-02T08:11:42.613Z</time></trkpt><trkpt lat="44.6251409" lon="10.5866606"><ele>130.33333333333334</ele><time>2026-05-02T08:11:45.563Z</time></trkpt><trkpt lat="44.6251131" lon="10.5867705"><ele>130.16666666666669</ele><time>2026-05-02T08:11:48.47Z</time></trkpt><trkpt lat="44.6250759" lon="10.5868879"><ele>130.0</ele><time>2026-05-02T08:11:51.609Z</time></trkpt><trkpt lat="44.6250611" lon="10.5870129"><ele>130.5</ele><time>2026-05-02T08:11:54.586Z</time></trkpt><trkpt lat="44.6250584" lon="10.5871285"><ele>131.0</ele><time>2026-05-02T08:11:57.604Z</time></trkpt><trkpt lat="44.6250513" lon="10.5872575"><ele>131.5</ele><time>2026-05-02T08:12:00.567Z</time></trkpt><trkpt lat="44.6250401" lon="10.5873505"><ele>132.0</ele><time>2026-05-02T08:12:02.562Z</time></trkpt><trkpt lat="44.6250309" lon="10.5874815"><ele>132.5</ele><time>2026-05-02T08:12:05.597Z</time></trkpt><trkpt lat="44.6250372" lon="10.5876093"><ele>133.0</ele><time>2026-05-02T08:12:08.572Z</time></trkpt><trkpt lat="44.6250455" lon="10.5877014"><ele>133.0</ele><time>2026-05-02T08:12:10.536Z</time></trkpt><trkpt lat="44.6250545" lon="10.5878034"><ele>133.0</ele><time>2026-05-02T08:12:12.596Z</time></trkpt><trkpt lat="44.6250644" lon="10.5879168"><ele>133.0</ele><time>2026-05-02T08:12:14.608Z</time></trkpt><trkpt lat="44.6250726" lon="10.5880147"><ele>133.0</ele><time>2026-05-02T08:12:16.571Z</time></trkpt><trkpt lat="44.6250712" lon="10.5881127"><ele>133.0</ele><time>2026-05-02T08:12:18.559Z</time></trkpt><trkpt lat="44.6250543" lon="10.5882131"><ele>133.0</ele><time>2026-05-02T08:12:20.559Z</time></trkpt><trkpt lat="44.6250326" lon="10.5883129"><ele>133.0</ele><time>2026-05-02T08:12:22.529Z</time></trkpt><trkpt lat="44.6250192" lon="10.5884185"><ele>133.28571428571428</ele><time>2026-05-02T08:12:24.57Z</time></trkpt><trkpt lat="44.6250065" lon="10.58851"><ele>133.57142857142856</ele><time>2026-05-02T08:12:26.493Z</time></trkpt><trkpt lat="44.62502" lon="10.5885978"><ele>133.85714285714286</ele><time>2026-05-02T08:12:28.594Z</time></trkpt><trkpt lat="44.6250498" lon="10.5886758"><ele>134.14285714285714</ele><time>2026-05-02T08:12:30.608Z</time></trkpt><trkpt lat="44.6250539" lon="10.5888008"><ele>134.42857142857142</ele><time>2026-05-02T08:12:33.577Z</time></trkpt><trkpt lat="44.6250384" lon="10.5889117"><ele>134.71428571428572</ele><time>2026-05-02T08:12:36.565Z</time></trkpt><trkpt lat="44.6250298" lon="10.5890238"><ele>135.0</ele><time>2026-05-02T08:12:39.572Z</time></trkpt><trkpt lat="44.625024" lon="10.5891293"><ele>135.14285714285714</ele><time>2026-05-02T08:12:42.58Z</time></trkpt><trkpt lat="44.6250178" lon="10.5892299"><ele>135.28571428571428</ele><time>2026-05-02T08:12:45.598Z</time></trkpt><trkpt lat="44.6250047" lon="10.5893399"><ele>135.42857142857142</ele><time>2026-05-02T08:12:48.565Z</time></trkpt><trkpt lat="44.6250013" lon="10.5894482"><ele>135.57142857142856</ele><time>2026-05-02T08:12:51.562Z</time></trkpt><trkpt lat="44.6250016" lon="10.5895525"><ele>135.71428571428572</ele><time>2026-05-02T08:12:54.535Z</time></trkpt><trkpt lat="44.6249985" lon="10.5896556"><ele>135.85714285714283</ele><time>2026-05-02T08:12:57.572Z</time></trkpt><trkpt lat="44.6249907" lon="10.5897511"><ele>136.0</ele><time>2026-05-02T08:13:00.633Z</time></trkpt><trkpt lat="44.6249873" lon="10.5898454"><ele>136.66666666666669</ele><time>2026-05-02T08:13:03.61Z</time></trkpt><trkpt lat="44.6249817" lon="10.5899836"><ele>137.33333333333334</ele><time>2026-05-02T08:13:06.564Z</time></trkpt><trkpt lat="44.6249682" lon="10.5900746"><ele>138.0</ele><time>2026-05-02T08:13:08.531Z</time></trkpt><trkpt lat="44.6249438" lon="10.5901942"><ele>138.66666666666666</ele><time>2026-05-02T08:13:11.563Z</time></trkpt><trkpt lat="44.624916" lon="10.5902931"><ele>139.33333333333331</ele><time>2026-05-02T08:13:14.619Z</time></trkpt><trkpt lat="44.6248975" lon="10.5903832"><ele>140.0</ele><time>2026-05-02T08:13:17.496Z</time></trkpt><trkpt lat="44.6248627" lon="10.5904887"><ele>140.66666666666666</ele><time>2026-05-02T08:13:20.613Z</time></trkpt><trkpt lat="44.6248273" lon="10.5905947"><ele>141.33333333333331</ele><time>2026-05-02T08:13:23.561Z</time></trkpt><trkpt lat="44.6247918" lon="10.5906909"><ele>142.0</ele><time>2026-05-02T08:13:26.531Z</time></trkpt><trkpt lat="44.6247795" lon="10.5908185"><ele>142.66666666666666</ele><time>2026-05-02T08:13:29.568Z</time></trkpt><trkpt lat="44.6247578" lon="10.5909384"><ele>143.33333333333334</ele><time>2026-05-02T08:13:32.586Z</time></trkpt><trkpt lat="44.6247245" lon="10.5910417"><ele>144.0</ele><time>2026-05-02T08:13:35.605Z</time></trkpt><trkpt lat="44.6247035" lon="10.5911651"><ele>144.2</ele><time>2026-05-02T08:13:38.566Z</time></trkpt><trkpt lat="44.6246894" lon="10.5912856"><ele>144.4</ele><time>2026-05-02T08:13:41.566Z</time></trkpt><trkpt lat="44.6246602" lon="10.5914037"><ele>144.6</ele><time>2026-05-02T08:13:44.565Z</time></trkpt><trkpt lat="44.6246294" lon="10.591531"><ele>144.8</ele><time>2026-05-02T08:13:47.573Z</time></trkpt><trkpt lat="44.6246053" lon="10.5916523"><ele>145.0</ele><time>2026-05-02T08:13:50.598Z</time></trkpt><trkpt lat="44.6246319" lon="10.5917767"><ele>145.0</ele><time>2026-05-02T08:13:53.566Z</time></trkpt><trkpt lat="44.6246025" lon="10.5918858"><ele>145.0</ele><time>2026-05-02T08:13:56.567Z</time></trkpt><trkpt lat="44.6246008" lon="10.5920142"><ele>145.0</ele><time>2026-05-02T08:13:59.566Z</time></trkpt><trkpt lat="44.6246239" lon="10.5921071"><ele>145.0</ele><time>2026-05-02T08:14:02.57Z</time></trkpt><trkpt lat="44.6246762" lon="10.5921739"><ele>145.0</ele><time>2026-05-02T08:14:05.511Z</time></trkpt><trkpt lat="44.6247063" lon="10.5922635"><ele>145.0</ele><time>2026-05-02T08:14:08.607Z</time></trkpt><trkpt lat="44.6246516" lon="10.5923198"><ele>144.85714285714286</ele><time>2026-05-02T08:14:12.593Z</time></trkpt><trkpt lat="44.6245826" lon="10.5923059"><ele>144.71428571428572</ele><time>2026-05-02T08:14:16.517Z</time></trkpt><trkpt lat="44.6245201" lon="10.5923315"><ele>144.57142857142858</ele><time>2026-05-02T08:14:20.581Z</time></trkpt><trkpt lat="44.6244497" lon="10.5923719"><ele>144.42857142857144</ele><time>2026-05-02T08:14:24.605Z</time></trkpt><trkpt lat="44.6244084" lon="10.592451"><ele>144.28571428571428</ele><time>2026-05-02T08:14:27.563Z</time></trkpt><trkpt lat="44.6243671" lon="10.5925193"><ele>144.14285714285717</ele><time>2026-05-02T08:14:29.497Z</time></trkpt><trkpt lat="44.6243143" lon="10.5925996"><ele>144.0</ele><time>2026-05-02T08:14:31.591Z</time></trkpt><trkpt lat="44.6242562" lon="10.5926708"><ele>144.33333333333334</ele><time>2026-05-02T08:14:33.565Z</time></trkpt><trkpt lat="44.624203" lon="10.592737"><ele>144.66666666666666</ele><time>2026-05-02T08:14:35.572Z</time></trkpt><trkpt lat="44.6241468" lon="10.5928089"><ele>145.0</ele><time>2026-05-02T08:14:37.516Z</time></trkpt><trkpt lat="44.6240896" lon="10.5928822"><ele>145.33333333333331</ele><time>2026-05-02T08:14:39.569Z</time></trkpt><trkpt lat="44.6240437" lon="10.5929487"><ele>145.66666666666666</ele><time>2026-05-02T08:14:41.609Z</time></trkpt><trkpt lat="44.6239841" lon="10.5930502"><ele>146.0</ele><time>2026-05-02T08:14:44.565Z</time></trkpt><trkpt lat="44.6239199" lon="10.5931477"><ele>146.16666666666666</ele><time>2026-05-02T08:14:47.565Z</time></trkpt><trkpt lat="44.6238532" lon="10.5932371"><ele>146.33333333333331</ele><time>2026-05-02T08:14:50.564Z</time></trkpt><trkpt lat="44.6238026" lon="10.593332"><ele>146.5</ele><time>2026-05-02T08:14:53.555Z</time></trkpt><trkpt lat="44.6237595" lon="10.5934375"><ele>146.66666666666666</ele><time>2026-05-02T08:14:56.601Z</time></trkpt><trkpt lat="44.623711" lon="10.5935391"><ele>146.83333333333334</ele><time>2026-05-02T08:14:59.62Z</time></trkpt><trkpt lat="44.6236687" lon="10.5936489"><ele>147.0</ele><time>2026-05-02T08:15:02.567Z</time></trkpt><trkpt lat="44.6236337" lon="10.59375"><ele>147.16666666666666</ele><time>2026-05-02T08:15:05.564Z</time></trkpt><trkpt lat="44.6235919" lon="10.5938544"><ele>147.33333333333334</ele><time>2026-05-02T08:15:08.556Z</time></trkpt><trkpt lat="44.6235497" lon="10.5939361"><ele>147.5</ele><time>2026-05-02T08:15:10.587Z</time></trkpt><trkpt lat="44.6235044" lon="10.5940218"><ele>147.66666666666669</ele><time>2026-05-02T08:15:12.6Z</time></trkpt><trkpt lat="44.6234695" lon="10.5941114"><ele>147.83333333333334</ele><time>2026-05-02T08:15:14.612Z</time></trkpt><trkpt lat="44.6234319" lon="10.5941959"><ele>148.0</ele><time>2026-05-02T08:15:16.556Z</time></trkpt><trkpt lat="44.623381" lon="10.5942775"><ele>148.0</ele><time>2026-05-02T08:15:18.566Z</time></trkpt><trkpt lat="44.6233331" lon="10.5943568"><ele>148.0</ele><time>2026-05-02T08:15:20.565Z</time></trkpt><trkpt lat="44.6232959" lon="10.5944289"><ele>148.0</ele><time>2026-05-02T08:15:22.492Z</time></trkpt><trkpt lat="44.6232585" lon="10.5945102"><ele>148.0</ele><time>2026-05-02T08:15:24.573Z</time></trkpt><trkpt lat="44.6232325" lon="10.5945916"><ele>148.0</ele><time>2026-05-02T08:15:26.585Z</time></trkpt><trkpt lat="44.6231847" lon="10.5947158"><ele>148.0</ele><time>2026-05-02T08:15:29.604Z</time></trkpt><trkpt lat="44.6231332" lon="10.5948215"><ele>147.83333333333334</ele><time>2026-05-02T08:15:32.564Z</time></trkpt><trkpt lat="44.6230785" lon="10.5949139"><ele>147.66666666666669</ele><time>2026-05-02T08:15:35.512Z</time></trkpt><trkpt lat="44.6229949" lon="10.5949778"><ele>147.5</ele><time>2026-05-02T08:15:38.568Z</time></trkpt><trkpt lat="44.6229136" lon="10.5950202"><ele>147.33333333333334</ele><time>2026-05-02T08:15:41.577Z</time></trkpt><trkpt lat="44.6228432" lon="10.5950798"><ele>147.16666666666666</ele><time>2026-05-02T08:15:44.537Z</time></trkpt><trkpt lat="44.6228108" lon="10.5951595"><ele>147.0</ele><time>2026-05-02T08:15:46.608Z</time></trkpt><trkpt lat="44.622813" lon="10.5952816"><ele>146.83333333333334</ele><time>2026-05-02T08:15:49.627Z</time></trkpt><trkpt lat="44.6228148" lon="10.5954208"><ele>146.66666666666666</ele><time>2026-05-02T08:15:52.563Z</time></trkpt><trkpt lat="44.6228193" lon="10.5955192"><ele>146.5</ele><time>2026-05-02T08:15:54.564Z</time></trkpt><trkpt lat="44.6228204" lon="10.5956168"><ele>146.33333333333331</ele><time>2026-05-02T08:15:56.57Z</time></trkpt><trkpt lat="44.6228239" lon="10.5957097"><ele>146.16666666666666</ele><time>2026-05-02T08:15:58.581Z</time></trkpt><trkpt lat="44.6228105" lon="10.5958356"><ele>146.0</ele><time>2026-05-02T08:16:01.551Z</time></trkpt><trkpt lat="44.6227795" lon="10.5959604"><ele>145.71428571428572</ele><time>2026-05-02T08:16:04.562Z</time></trkpt><trkpt lat="44.6227739" lon="10.5960567"><ele>145.42857142857144</ele><time>2026-05-02T08:16:06.566Z</time></trkpt><trkpt lat="44.6227709" lon="10.5961548"><ele>145.14285714285717</ele><time>2026-05-02T08:16:08.571Z</time></trkpt><trkpt lat="44.6227666" lon="10.5962546"><ele>144.85714285714286</ele><time>2026-05-02T08:16:10.563Z</time></trkpt><trkpt lat="44.6227609" lon="10.5963524"><ele>144.57142857142858</ele><time>2026-05-02T08:16:12.509Z</time></trkpt><trkpt lat="44.6227528" lon="10.5964546"><ele>144.2857142857143</ele><time>2026-05-02T08:16:14.551Z</time></trkpt><trkpt lat="44.6227434" lon="10.5965477"><ele>144.0</ele><time>2026-05-02T08:16:16.573Z</time></trkpt><trkpt lat="44.622742" lon="10.5966367"><ele>143.83333333333334</ele><time>2026-05-02T08:16:18.616Z</time></trkpt><trkpt lat="44.6227433" lon="10.596765"><ele>143.66666666666666</ele><time>2026-05-02T08:16:21.564Z</time></trkpt><trkpt lat="44.6227408" lon="10.5968543"><ele>143.5</ele><time>2026-05-02T08:16:23.564Z</time></trkpt><trkpt lat="44.6227071" lon="10.5969731"><ele>143.33333333333331</ele><time>2026-05-02T08:16:26.564Z</time></trkpt><trkpt lat="44.6226771" lon="10.5970794"><ele>143.16666666666666</ele><time>2026-05-02T08:16:29.613Z</time></trkpt><trkpt lat="44.6226817" lon="10.5971811"><ele>143.0</ele><time>2026-05-02T08:16:32.59Z</time></trkpt><trkpt lat="44.6226749" lon="10.5972817"><ele>142.83333333333331</ele><time>2026-05-02T08:16:35.609Z</time></trkpt><trkpt lat="44.6226802" lon="10.5973811"><ele>142.66666666666666</ele><time>2026-05-02T08:16:38.564Z</time></trkpt><trkpt lat="44.6226967" lon="10.5975058"><ele>142.5</ele><time>2026-05-02T08:16:41.563Z</time></trkpt><trkpt lat="44.6227265" lon="10.59762"><ele>142.33333333333334</ele><time>2026-05-02T08:16:44.567Z</time></trkpt><trkpt lat="44.6227602" lon="10.597733"><ele>142.16666666666669</ele><time>2026-05-02T08:16:47.556Z</time></trkpt><trkpt lat="44.6227466" lon="10.5978448"><ele>142.0</ele><time>2026-05-02T08:16:50.6Z</time></trkpt><trkpt lat="44.6227373" lon="10.5979658"><ele>141.83333333333334</ele><time>2026-05-02T08:16:53.564Z</time></trkpt><trkpt lat="44.6227326" lon="10.598102"><ele>141.66666666666669</ele><time>2026-05-02T08:16:56.568Z</time></trkpt><trkpt lat="44.6227204" lon="10.5981993"><ele>141.5</ele><time>2026-05-02T08:16:58.563Z</time></trkpt><trkpt lat="44.6227026" lon="10.598303"><ele>141.33333333333334</ele><time>2026-05-02T08:17:00.564Z</time></trkpt><trkpt lat="44.6226813" lon="10.5984119"><ele>141.16666666666666</ele><time>2026-05-02T08:17:02.556Z</time></trkpt><trkpt lat="44.6226576" lon="10.5985202"><ele>141.0</ele><time>2026-05-02T08:17:04.586Z</time></trkpt><trkpt lat="44.6226242" lon="10.5986147"><ele>141.0</ele><time>2026-05-02T08:17:06.6Z</time></trkpt><trkpt lat="44.6225935" lon="10.5987031"><ele>141.0</ele><time>2026-05-02T08:17:08.611Z</time></trkpt><trkpt lat="44.6225648" lon="10.5987919"><ele>141.0</ele><time>2026-05-02T08:17:10.614Z</time></trkpt><trkpt lat="44.6225289" lon="10.59887"><ele>141.0</ele><time>2026-05-02T08:17:12.564Z</time></trkpt><trkpt lat="44.6224663" lon="10.5989622"><ele>141.0</ele><time>2026-05-02T08:17:15.535Z</time></trkpt><trkpt lat="44.6224066" lon="10.5990554"><ele>141.0</ele><time>2026-05-02T08:17:18.572Z</time></trkpt><trkpt lat="44.6223709" lon="10.5991471"><ele>141.0</ele><time>2026-05-02T08:17:20.585Z</time></trkpt><trkpt lat="44.6223417" lon="10.5992524"><ele>141.0</ele><time>2026-05-02T08:17:22.597Z</time></trkpt><trkpt lat="44.6223151" lon="10.5993504"><ele>141.0</ele><time>2026-05-02T08:17:24.609Z</time></trkpt><trkpt lat="44.6222763" lon="10.5994663"><ele>141.0</ele><time>2026-05-02T08:17:27.529Z</time></trkpt><trkpt lat="44.622234" lon="10.5995442"><ele>141.0</ele><time>2026-05-02T08:17:29.565Z</time></trkpt><trkpt lat="44.6221729" lon="10.5996376"><ele>141.0</ele><time>2026-05-02T08:17:32.53Z</time></trkpt><trkpt lat="44.6221281" lon="10.5997025"><ele>141.83333333333334</ele><time>2026-05-02T08:17:34.571Z</time></trkpt><trkpt lat="44.6220561" lon="10.599793"><ele>142.66666666666666</ele><time>2026-05-02T08:17:37.55Z</time></trkpt><trkpt lat="44.6219851" lon="10.5998722"><ele>143.5</ele><time>2026-05-02T08:17:40.607Z</time></trkpt><trkpt lat="44.6219285" lon="10.5999367"><ele>144.33333333333331</ele><time>2026-05-02T08:17:43.565Z</time></trkpt><trkpt lat="44.6218584" lon="10.5999548"><ele>145.16666666666666</ele><time>2026-05-02T08:17:47.565Z</time></trkpt><trkpt lat="44.6217838" lon="10.5998941"><ele>146.0</ele><time>2026-05-02T08:17:51.574Z</time></trkpt><trkpt lat="44.6217279" lon="10.5998249"><ele>146.5</ele><time>2026-05-02T08:17:54.593Z</time></trkpt><trkpt lat="44.6216735" lon="10.5997472"><ele>147.0</ele><time>2026-05-02T08:17:57.611Z</time></trkpt><trkpt lat="44.6216135" lon="10.5996893"><ele>147.5</ele><time>2026-05-02T08:18:00.531Z</time></trkpt><trkpt lat="44.6215436" lon="10.5996735"><ele>148.0</ele><time>2026-05-02T08:18:04.496Z</time></trkpt><trkpt lat="44.6215697" lon="10.5997693"><ele>148.5</ele><time>2026-05-02T08:18:14.616Z</time></trkpt><trkpt lat="44.6216077" lon="10.5998601"><ele>149.0</ele><time>2026-05-02T08:18:17.577Z</time></trkpt><trkpt lat="44.6216689" lon="10.59994"><ele>149.0</ele><time>2026-05-02T08:18:20.473Z</time></trkpt><trkpt lat="44.6217185" lon="10.600003"><ele>149.0</ele><time>2026-05-02T08:18:22.564Z</time></trkpt><trkpt lat="44.6217662" lon="10.6000637"><ele>149.0</ele><time>2026-05-02T08:18:24.508Z</time></trkpt><trkpt lat="44.6218312" lon="10.6001522"><ele>149.0</ele><time>2026-05-02T08:18:27.595Z</time></trkpt><trkpt lat="44.6218649" lon="10.6002397"><ele>149.0</ele><time>2026-05-02T08:18:30.614Z</time></trkpt><trkpt lat="44.6218693" lon="10.6003532"><ele>149.0</ele><time>2026-05-02T08:18:35.564Z</time></trkpt><trkpt lat="44.621808" lon="10.600425"><ele>150.0</ele><time>2026-05-02T08:18:38.565Z</time></trkpt><trkpt lat="44.6217226" lon="10.6004607"><ele>151.0</ele><time>2026-05-02T08:18:41.532Z</time></trkpt><trkpt lat="44.6216538" lon="10.6004622"><ele>152.0</ele><time>2026-05-02T08:18:43.593Z</time></trkpt><trkpt lat="44.6215842" lon="10.600459"><ele>153.0</ele><time>2026-05-02T08:18:45.606Z</time></trkpt><trkpt lat="44.6215094" lon="10.6004704"><ele>154.0</ele><time>2026-05-02T08:18:47.564Z</time></trkpt><trkpt lat="44.6214192" lon="10.600499"><ele>155.0</ele><time>2026-05-02T08:18:50.588Z</time></trkpt><trkpt lat="44.6213541" lon="10.6005019"><ele>155.0</ele><time>2026-05-02T08:18:52.559Z</time></trkpt><trkpt lat="44.6212844" lon="10.6005436"><ele>155.0</ele><time>2026-05-02T08:18:55.567Z</time></trkpt><trkpt lat="44.621238" lon="10.6006343"><ele>155.0</ele><time>2026-05-02T08:18:59.593Z</time></trkpt><trkpt lat="44.6212466" lon="10.6007525"><ele>155.0</ele><time>2026-05-02T08:19:02.61Z</time></trkpt><trkpt lat="44.6212514" lon="10.6008647"><ele>155.0</ele><time>2026-05-02T08:19:05.59Z</time></trkpt><trkpt lat="44.6212589" lon="10.6009947"><ele>155.0</ele><time>2026-05-02T08:19:08.565Z</time></trkpt><trkpt lat="44.6212354" lon="10.6011198"><ele>155.66666666666666</ele><time>2026-05-02T08:19:11.557Z</time></trkpt><trkpt lat="44.6211914" lon="10.6012237"><ele>156.33333333333331</ele><time>2026-05-02T08:19:14.584Z</time></trkpt><trkpt lat="44.6211274" lon="10.6013155"><ele>157.0</ele><time>2026-05-02T08:19:17.594Z</time></trkpt><trkpt lat="44.6210733" lon="10.6013992"><ele>157.66666666666666</ele><time>2026-05-02T08:19:20.621Z</time></trkpt><trkpt lat="44.6210112" lon="10.6014931"><ele>158.33333333333334</ele><time>2026-05-02T08:19:23.566Z</time></trkpt><trkpt lat="44.6209523" lon="10.6015935"><ele>159.0</ele><time>2026-05-02T08:19:26.564Z</time></trkpt><trkpt lat="44.6208899" lon="10.6016869"><ele>159.66666666666666</ele><time>2026-05-02T08:19:29.576Z</time></trkpt><trkpt lat="44.6208396" lon="10.6017657"><ele>160.33333333333334</ele><time>2026-05-02T08:19:32.594Z</time></trkpt><trkpt lat="44.620789" lon="10.601835"><ele>161.0</ele><time>2026-05-02T08:19:35.514Z</time></trkpt><trkpt lat="44.6207342" lon="10.6019257"><ele>161.66666666666669</ele><time>2026-05-02T08:19:38.565Z</time></trkpt><trkpt lat="44.6206772" lon="10.6020128"><ele>162.33333333333334</ele><time>2026-05-02T08:19:41.531Z</time></trkpt><trkpt lat="44.620622" lon="10.6020972"><ele>163.0</ele><time>2026-05-02T08:19:44.568Z</time></trkpt><trkpt lat="44.6205631" lon="10.602189"><ele>163.0</ele><time>2026-05-02T08:19:47.558Z</time></trkpt><trkpt lat="44.6205023" lon="10.6022812"><ele>163.0</ele><time>2026-05-02T08:19:50.605Z</time></trkpt><trkpt lat="44.6204454" lon="10.6023623"><ele>163.0</ele><time>2026-05-02T08:19:53.563Z</time></trkpt><trkpt lat="44.6203974" lon="10.6024534"><ele>163.0</ele><time>2026-05-02T08:19:57.47Z</time></trkpt><trkpt lat="44.6203422" lon="10.6025336"><ele>163.0</ele><time>2026-05-02T08:20:00.567Z</time></trkpt><trkpt lat="44.6202863" lon="10.602621"><ele>163.0</ele><time>2026-05-02T08:20:03.585Z</time></trkpt><trkpt lat="44.6202267" lon="10.602712"><ele>163.16666666666669</ele><time>2026-05-02T08:20:06.603Z</time></trkpt><trkpt lat="44.6201687" lon="10.6027721"><ele>163.33333333333334</ele><time>2026-05-02T08:20:08.615Z</time></trkpt><trkpt lat="44.6201104" lon="10.6028118"><ele>163.5</ele><time>2026-05-02T08:20:10.59Z</time></trkpt><trkpt lat="44.620025" lon="10.6028379"><ele>163.66666666666666</ele><time>2026-05-02T08:20:13.518Z</time></trkpt><trkpt lat="44.6199377" lon="10.6028424"><ele>163.83333333333331</ele><time>2026-05-02T08:20:16.564Z</time></trkpt><trkpt lat="44.6198777" lon="10.6028769"><ele>164.0</ele><time>2026-05-02T08:20:18.577Z</time></trkpt><trkpt lat="44.6198016" lon="10.6029609"><ele>164.0</ele><time>2026-05-02T08:20:21.595Z</time></trkpt><trkpt lat="44.6197533" lon="10.60303"><ele>164.0</ele><time>2026-05-02T08:20:23.608Z</time></trkpt><trkpt lat="44.6196948" lon="10.6031312"><ele>164.0</ele><time>2026-05-02T08:20:26.597Z</time></trkpt><trkpt lat="44.6196584" lon="10.6032052"><ele>164.0</ele><time>2026-05-02T08:20:28.563Z</time></trkpt><trkpt lat="44.6196118" lon="10.6033231"><ele>164.0</ele><time>2026-05-02T08:20:31.548Z</time></trkpt><trkpt lat="44.6195795" lon="10.6034029"><ele>164.0</ele><time>2026-05-02T08:20:33.569Z</time></trkpt><trkpt lat="44.619548" lon="10.6034827"><ele>164.0</ele><time>2026-05-02T08:20:35.581Z</time></trkpt><trkpt lat="44.6195023" lon="10.603594"><ele>164.0</ele><time>2026-05-02T08:20:38.6Z</time></trkpt><trkpt lat="44.6194708" lon="10.6036708"><ele>164.0</ele><time>2026-05-02T08:20:40.612Z</time></trkpt><trkpt lat="44.6194272" lon="10.6037832"><ele>164.0</ele><time>2026-05-02T08:20:43.564Z</time></trkpt><trkpt lat="44.6193863" lon="10.6038907"><ele>164.0</ele><time>2026-05-02T08:20:46.471Z</time></trkpt><trkpt lat="44.619344" lon="10.603998"><ele>164.0</ele><time>2026-05-02T08:20:49.567Z</time></trkpt><trkpt lat="44.619303" lon="10.6041062"><ele>164.0</ele><time>2026-05-02T08:20:52.586Z</time></trkpt><trkpt lat="44.6192602" lon="10.6042221"><ele>164.0</ele><time>2026-05-02T08:20:55.604Z</time></trkpt><trkpt lat="44.6192306" lon="10.6043015"><ele>164.0</ele><time>2026-05-02T08:20:57.617Z</time></trkpt><trkpt lat="44.6191897" lon="10.6044092"><ele>164.0</ele><time>2026-05-02T08:21:00.497Z</time></trkpt><trkpt lat="44.6191408" lon="10.6045204"><ele>164.0</ele><time>2026-05-02T08:21:03.562Z</time></trkpt><trkpt lat="44.6191043" lon="10.6045984"><ele>164.0</ele><time>2026-05-02T08:21:05.565Z</time></trkpt><trkpt lat="44.6190701" lon="10.6046795"><ele>163.85714285714283</ele><time>2026-05-02T08:21:07.509Z</time></trkpt><trkpt lat="44.6190275" lon="10.6047735"><ele>163.71428571428572</ele><time>2026-05-02T08:21:09.633Z</time></trkpt><trkpt lat="44.6189912" lon="10.6048563"><ele>163.57142857142856</ele><time>2026-05-02T08:21:11.603Z</time></trkpt><trkpt lat="44.6189557" lon="10.60494"><ele>163.42857142857142</ele><time>2026-05-02T08:21:13.616Z</time></trkpt><trkpt lat="44.6189222" lon="10.605025"><ele>163.28571428571428</ele><time>2026-05-02T08:21:15.565Z</time></trkpt><trkpt lat="44.6188851" lon="10.6051103"><ele>163.14285714285714</ele><time>2026-05-02T08:21:17.563Z</time></trkpt><trkpt lat="44.6188501" lon="10.6051904"><ele>163.0</ele><time>2026-05-02T08:21:19.564Z</time></trkpt><trkpt lat="44.6188175" lon="10.6052733"><ele>162.57142857142858</ele><time>2026-05-02T08:21:21.564Z</time></trkpt><trkpt lat="44.6187836" lon="10.6053634"><ele>162.14285714285714</ele><time>2026-05-02T08:21:23.576Z</time></trkpt><trkpt lat="44.6187494" lon="10.6054538"><ele>161.71428571428572</ele><time>2026-05-02T08:21:25.591Z</time></trkpt><trkpt lat="44.618711" lon="10.6055411"><ele>161.28571428571428</ele><time>2026-05-02T08:21:27.634Z</time></trkpt><trkpt lat="44.6186772" lon="10.6056191"><ele>160.85714285714286</ele><time>2026-05-02T08:21:29.613Z</time></trkpt><trkpt lat="44.6186424" lon="10.6057027"><ele>160.42857142857142</ele><time>2026-05-02T08:21:31.566Z</time></trkpt><trkpt lat="44.618608" lon="10.6057847"><ele>160.0</ele><time>2026-05-02T08:21:33.47Z</time></trkpt><trkpt lat="44.6185707" lon="10.6058727"><ele>159.66666666666669</ele><time>2026-05-02T08:21:35.531Z</time></trkpt><trkpt lat="44.6185345" lon="10.6059624"><ele>159.33333333333334</ele><time>2026-05-02T08:21:37.595Z</time></trkpt><trkpt lat="44.6185045" lon="10.6060464"><ele>159.0</ele><time>2026-05-02T08:21:39.575Z</time></trkpt><trkpt lat="44.6184756" lon="10.6061259"><ele>158.66666666666666</ele><time>2026-05-02T08:21:41.587Z</time></trkpt><trkpt lat="44.6184338" lon="10.6062352"><ele>158.33333333333331</ele><time>2026-05-02T08:21:44.537Z</time></trkpt><trkpt lat="44.6183872" lon="10.6063465"><ele>158.0</ele><time>2026-05-02T08:21:47.565Z</time></trkpt><trkpt lat="44.618353" lon="10.6064304"><ele>157.57142857142858</ele><time>2026-05-02T08:21:49.565Z</time></trkpt><trkpt lat="44.618316" lon="10.6065079"><ele>157.14285714285714</ele><time>2026-05-02T08:21:51.55Z</time></trkpt><trkpt lat="44.61829" lon="10.6066005"><ele>156.71428571428572</ele><time>2026-05-02T08:21:53.564Z</time></trkpt><trkpt lat="44.6182595" lon="10.6066868"><ele>156.28571428571428</ele><time>2026-05-02T08:21:55.573Z</time></trkpt><trkpt lat="44.618225" lon="10.6067658"><ele>155.85714285714286</ele><time>2026-05-02T08:21:57.585Z</time></trkpt><trkpt lat="44.6181864" lon="10.6068716"><ele>155.42857142857144</ele><time>2026-05-02T08:22:00.604Z</time></trkpt><trkpt lat="44.6181518" lon="10.6069773"><ele>155.0</ele><time>2026-05-02T08:22:03.453Z</time></trkpt><trkpt lat="44.6181304" lon="10.6070894"><ele>154.71428571428572</ele><time>2026-05-02T08:22:06.594Z</time></trkpt><trkpt lat="44.6181157" lon="10.607181"><ele>154.42857142857142</ele><time>2026-05-02T08:22:09.564Z</time></trkpt><trkpt lat="44.6181123" lon="10.6072948"><ele>154.14285714285714</ele><time>2026-05-02T08:22:13.584Z</time></trkpt><trkpt lat="44.6181104" lon="10.6073856"><ele>153.85714285714286</ele><time>2026-05-02T08:22:16.573Z</time></trkpt><trkpt lat="44.6181169" lon="10.6074764"><ele>153.57142857142858</ele><time>2026-05-02T08:22:19.564Z</time></trkpt><trkpt lat="44.6181247" lon="10.6075669"><ele>153.28571428571428</ele><time>2026-05-02T08:22:22.564Z</time></trkpt><trkpt lat="44.6181339" lon="10.6076598"><ele>153.0</ele><time>2026-05-02T08:22:25.529Z</time></trkpt><trkpt lat="44.6181441" lon="10.6077715"><ele>153.16666666666666</ele><time>2026-05-02T08:22:28.576Z</time></trkpt><trkpt lat="44.6181582" lon="10.6078794"><ele>153.33333333333334</ele><time>2026-05-02T08:22:31.617Z</time></trkpt><trkpt lat="44.6181702" lon="10.6079729"><ele>153.5</ele><time>2026-05-02T08:22:34.514Z</time></trkpt><trkpt lat="44.6181835" lon="10.6080692"><ele>153.66666666666669</ele><time>2026-05-02T08:22:37.568Z</time></trkpt><trkpt lat="44.6181979" lon="10.6081678"><ele>153.83333333333334</ele><time>2026-05-02T08:22:40.592Z</time></trkpt><trkpt lat="44.6182043" lon="10.6082699"><ele>154.0</ele><time>2026-05-02T08:22:43.469Z</time></trkpt><trkpt lat="44.6182068" lon="10.6083982"><ele>154.0</ele><time>2026-05-02T08:22:46.587Z</time></trkpt><trkpt lat="44.6182067" lon="10.6085182"><ele>154.0</ele><time>2026-05-02T08:22:49.605Z</time></trkpt><trkpt lat="44.6182125" lon="10.6086344"><ele>154.0</ele><time>2026-05-02T08:22:52.474Z</time></trkpt><trkpt lat="44.6182213" lon="10.6087637"><ele>154.0</ele><time>2026-05-02T08:22:55.564Z</time></trkpt><trkpt lat="44.6182175" lon="10.6088872"><ele>154.0</ele><time>2026-05-02T08:22:58.552Z</time></trkpt><trkpt lat="44.6182122" lon="10.6090101"><ele>154.0</ele><time>2026-05-02T08:23:01.579Z</time></trkpt><trkpt lat="44.6182771" lon="10.6090837"><ele>154.5</ele><time>2026-05-02T08:23:04.549Z</time></trkpt><trkpt lat="44.6183102" lon="10.6091725"><ele>155.0</ele><time>2026-05-02T08:23:07.616Z</time></trkpt><trkpt lat="44.6183293" lon="10.6092695"><ele>155.5</ele><time>2026-05-02T08:23:10.575Z</time></trkpt><trkpt lat="44.6183046" lon="10.6093747"><ele>156.0</ele><time>2026-05-02T08:23:11.564Z</time></trkpt><trkpt lat="44.6182916" lon="10.6094819"><ele>156.5</ele><time>2026-05-02T08:23:13.564Z</time></trkpt><trkpt lat="44.6182764" lon="10.6096078"><ele>157.0</ele><time>2026-05-02T08:23:16.571Z</time></trkpt><trkpt lat="44.618247" lon="10.6096879"><ele>157.33333333333334</ele><time>2026-05-02T08:23:18.584Z</time></trkpt><trkpt lat="44.618219" lon="10.60977"><ele>157.66666666666669</ele><time>2026-05-02T08:23:20.558Z</time></trkpt><trkpt lat="44.6181948" lon="10.6098525"><ele>158.0</ele><time>2026-05-02T08:23:22.608Z</time></trkpt><trkpt lat="44.6181647" lon="10.6099638"><ele>158.33333333333334</ele><time>2026-05-02T08:23:25.565Z</time></trkpt><trkpt lat="44.6181497" lon="10.6100748"><ele>158.66666666666666</ele><time>2026-05-02T08:23:28.565Z</time></trkpt><trkpt lat="44.6181271" lon="10.6101766"><ele>159.0</ele><time>2026-05-02T08:23:31.495Z</time></trkpt><trkpt lat="44.6181072" lon="10.6102875"><ele>158.5</ele><time>2026-05-02T08:23:34.581Z</time></trkpt><trkpt lat="44.6180734" lon="10.6103941"><ele>158.0</ele><time>2026-05-02T08:23:37.6Z</time></trkpt><trkpt lat="44.6180257" lon="10.6105096"><ele>157.5</ele><time>2026-05-02T08:23:40.59Z</time></trkpt><trkpt lat="44.61799" lon="10.6105953"><ele>157.0</ele><time>2026-05-02T08:23:42.565Z</time></trkpt><trkpt lat="44.6179624" lon="10.6106825"><ele>156.5</ele><time>2026-05-02T08:23:44.565Z</time></trkpt><trkpt lat="44.6179355" lon="10.610768"><ele>156.0</ele><time>2026-05-02T08:23:46.564Z</time></trkpt><trkpt lat="44.617906" lon="10.6108559"><ele>156.0</ele><time>2026-05-02T08:23:48.567Z</time></trkpt><trkpt lat="44.6178746" lon="10.6109466"><ele>156.0</ele><time>2026-05-02T08:23:50.58Z</time></trkpt><trkpt lat="44.6178447" lon="10.6110302"><ele>156.0</ele><time>2026-05-02T08:23:52.593Z</time></trkpt><trkpt lat="44.6178181" lon="10.6111133"><ele>156.0</ele><time>2026-05-02T08:23:54.605Z</time></trkpt><trkpt lat="44.6177961" lon="10.6112028"><ele>156.0</ele><time>2026-05-02T08:23:56.588Z</time></trkpt><trkpt lat="44.6177731" lon="10.6112963"><ele>156.0</ele><time>2026-05-02T08:23:58.564Z</time></trkpt><trkpt lat="44.6177461" lon="10.6113828"><ele>156.0</ele><time>2026-05-02T08:24:00.565Z</time></trkpt><trkpt lat="44.6177229" lon="10.6114744"><ele>156.14285714285714</ele><time>2026-05-02T08:24:02.564Z</time></trkpt><trkpt lat="44.617701" lon="10.6115744"><ele>156.28571428571428</ele><time>2026-05-02T08:24:04.599Z</time></trkpt><trkpt lat="44.6176799" lon="10.6116764"><ele>156.42857142857142</ele><time>2026-05-02T08:24:06.578Z</time></trkpt><trkpt lat="44.6176629" lon="10.6117783"><ele>156.57142857142856</ele><time>2026-05-02T08:24:08.592Z</time></trkpt><trkpt lat="44.6176465" lon="10.6118722"><ele>156.71428571428572</ele><time>2026-05-02T08:24:10.514Z</time></trkpt><trkpt lat="44.617617" lon="10.6119699"><ele>156.85714285714283</ele><time>2026-05-02T08:24:12.577Z</time></trkpt><trkpt lat="44.6175893" lon="10.6120608"><ele>157.0</ele><time>2026-05-02T08:24:14.566Z</time></trkpt><trkpt lat="44.6175594" lon="10.6121569"><ele>156.57142857142856</ele><time>2026-05-02T08:24:16.566Z</time></trkpt><trkpt lat="44.6175283" lon="10.6122491"><ele>156.14285714285714</ele><time>2026-05-02T08:24:18.513Z</time></trkpt><trkpt lat="44.6174929" lon="10.6123421"><ele>155.71428571428572</ele><time>2026-05-02T08:24:20.557Z</time></trkpt><trkpt lat="44.6174672" lon="10.6124346"><ele>155.28571428571428</ele><time>2026-05-02T08:24:22.577Z</time></trkpt><trkpt lat="44.6174452" lon="10.6125276"><ele>154.85714285714286</ele><time>2026-05-02T08:24:24.59Z</time></trkpt><trkpt lat="44.6174259" lon="10.6126203"><ele>154.42857142857142</ele><time>2026-05-02T08:24:26.601Z</time></trkpt><trkpt lat="44.6174131" lon="10.6127207"><ele>154.0</ele><time>2026-05-02T08:24:28.596Z</time></trkpt><trkpt lat="44.6173954" lon="10.6128274"><ele>153.5</ele><time>2026-05-02T08:24:30.565Z</time></trkpt><trkpt lat="44.6173817" lon="10.6129363"><ele>153.0</ele><time>2026-05-02T08:24:32.566Z</time></trkpt><trkpt lat="44.6173769" lon="10.6130349"><ele>152.5</ele><time>2026-05-02T08:24:34.513Z</time></trkpt><trkpt lat="44.617369" lon="10.6131383"><ele>152.0</ele><time>2026-05-02T08:24:36.565Z</time></trkpt><trkpt lat="44.617364" lon="10.613241"><ele>151.5</ele><time>2026-05-02T08:24:38.575Z</time></trkpt><trkpt lat="44.617352" lon="10.6133524"><ele>151.0</ele><time>2026-05-02T08:24:40.587Z</time></trkpt><trkpt lat="44.6173423" lon="10.6134581"><ele>151.0</ele><time>2026-05-02T08:24:42.6Z</time></trkpt><trkpt lat="44.6173386" lon="10.6135528"><ele>151.0</ele><time>2026-05-02T08:24:44.612Z</time></trkpt><trkpt lat="44.6173278" lon="10.6136511"><ele>151.0</ele><time>2026-05-02T08:24:46.564Z</time></trkpt><trkpt lat="44.6173312" lon="10.6137422"><ele>151.0</ele><time>2026-05-02T08:24:48.567Z</time></trkpt><trkpt lat="44.6173234" lon="10.613864"><ele>151.0</ele><time>2026-05-02T08:24:51.517Z</time></trkpt><trkpt lat="44.6173182" lon="10.6139971"><ele>151.0</ele><time>2026-05-02T08:24:54.573Z</time></trkpt><trkpt lat="44.6173209" lon="10.6140895"><ele>150.42857142857144</ele><time>2026-05-02T08:24:56.586Z</time></trkpt><trkpt lat="44.6173212" lon="10.6141799"><ele>149.85714285714286</ele><time>2026-05-02T08:24:58.599Z</time></trkpt><trkpt lat="44.617317" lon="10.6142701"><ele>149.28571428571428</ele><time>2026-05-02T08:25:00.613Z</time></trkpt><trkpt lat="44.6173159" lon="10.6143727"><ele>148.71428571428572</ele><time>2026-05-02T08:25:02.564Z</time></trkpt><trkpt lat="44.6173133" lon="10.6144652"><ele>148.14285714285714</ele><time>2026-05-02T08:25:04.476Z</time></trkpt><trkpt lat="44.6173058" lon="10.6145744"><ele>147.57142857142858</ele><time>2026-05-02T08:25:06.568Z</time></trkpt><trkpt lat="44.617307" lon="10.6146695"><ele>147.0</ele><time>2026-05-02T08:25:08.565Z</time></trkpt><trkpt lat="44.6173097" lon="10.614766"><ele>146.85714285714286</ele><time>2026-05-02T08:25:10.572Z</time></trkpt><trkpt lat="44.6173123" lon="10.6148581"><ele>146.71428571428572</ele><time>2026-05-02T08:25:12.516Z</time></trkpt><trkpt lat="44.6173231" lon="10.6149515"><ele>146.57142857142856</ele><time>2026-05-02T08:25:14.608Z</time></trkpt><trkpt lat="44.6173334" lon="10.6150415"><ele>146.42857142857144</ele><time>2026-05-02T08:25:16.609Z</time></trkpt><trkpt lat="44.6173314" lon="10.6151789"><ele>146.28571428571428</ele><time>2026-05-02T08:25:19.566Z</time></trkpt><trkpt lat="44.617327" lon="10.6152796"><ele>146.14285714285714</ele><time>2026-05-02T08:25:21.511Z</time></trkpt><trkpt lat="44.6173213" lon="10.6153925"><ele>146.0</ele><time>2026-05-02T08:25:23.566Z</time></trkpt><trkpt lat="44.6173163" lon="10.6154882"><ele>145.71428571428572</ele><time>2026-05-02T08:25:25.564Z</time></trkpt><trkpt lat="44.6173146" lon="10.6155838"><ele>145.42857142857144</ele><time>2026-05-02T08:25:27.576Z</time></trkpt><trkpt lat="44.6173116" lon="10.615675"><ele>145.14285714285717</ele><time>2026-05-02T08:25:29.531Z</time></trkpt><trkpt lat="44.6173092" lon="10.615767"><ele>144.85714285714286</ele><time>2026-05-02T08:25:31.616Z</time></trkpt><trkpt lat="44.6173204" lon="10.6158902"><ele>144.57142857142858</ele><time>2026-05-02T08:25:34.619Z</time></trkpt><trkpt lat="44.6173501" lon="10.6159738"><ele>144.2857142857143</ele><time>2026-05-02T08:25:37.469Z</time></trkpt><trkpt lat="44.6174006" lon="10.6160376"><ele>144.0</ele><time>2026-05-02T08:25:40.565Z</time></trkpt><trkpt lat="44.6174542" lon="10.616098"><ele>143.14285714285717</ele><time>2026-05-02T08:25:43.616Z</time></trkpt><trkpt lat="44.6174874" lon="10.6161761"><ele>142.28571428571428</ele><time>2026-05-02T08:25:46.593Z</time></trkpt><trkpt lat="44.6174659" lon="10.6162776"><ele>141.42857142857144</ele><time>2026-05-02T08:25:49.611Z</time></trkpt><trkpt lat="44.6174323" lon="10.6163572"><ele>140.57142857142858</ele><time>2026-05-02T08:25:52.564Z</time></trkpt><trkpt lat="44.6173877" lon="10.6164263"><ele>139.71428571428572</ele><time>2026-05-02T08:25:55.565Z</time></trkpt><trkpt lat="44.6173467" lon="10.6164972"><ele>138.85714285714286</ele><time>2026-05-02T08:25:58.518Z</time></trkpt><trkpt lat="44.6172849" lon="10.6165621"><ele>138.0</ele><time>2026-05-02T08:26:02.592Z</time></trkpt><trkpt lat="44.6172188" lon="10.6165741"><ele>138.0</ele><time>2026-05-02T08:26:05.511Z</time></trkpt><trkpt lat="44.6171487" lon="10.6165769"><ele>138.0</ele><time>2026-05-02T08:26:08.562Z</time></trkpt><trkpt lat="44.6170773" lon="10.6166017"><ele>138.0</ele><time>2026-05-02T08:26:11.567Z</time></trkpt><trkpt lat="44.6169999" lon="10.6166462"><ele>138.0</ele><time>2026-05-02T08:26:14.577Z</time></trkpt><trkpt lat="44.6169195" lon="10.6166975"><ele>138.0</ele><time>2026-05-02T08:26:17.583Z</time></trkpt><trkpt lat="44.6168583" lon="10.6167215"><ele>138.0</ele><time>2026-05-02T08:26:19.596Z</time></trkpt><trkpt lat="44.6167651" lon="10.6167552"><ele>137.16666666666666</ele><time>2026-05-02T08:26:22.615Z</time></trkpt><trkpt lat="44.6166862" lon="10.6167968"><ele>136.33333333333334</ele><time>2026-05-02T08:26:25.595Z</time></trkpt><trkpt lat="44.6166148" lon="10.6168653"><ele>135.5</ele><time>2026-05-02T08:26:28.563Z</time></trkpt><trkpt lat="44.6165553" lon="10.6169079"><ele>134.66666666666669</ele><time>2026-05-02T08:26:30.568Z</time></trkpt><trkpt lat="44.6165053" lon="10.6169791"><ele>133.83333333333334</ele><time>2026-05-02T08:26:32.477Z</time></trkpt><trkpt lat="44.6164264" lon="10.6170053"><ele>133.0</ele><time>2026-05-02T08:26:34.599Z</time></trkpt><trkpt lat="44.6163503" lon="10.617066"><ele>131.83333333333334</ele><time>2026-05-02T08:26:36.561Z</time></trkpt><trkpt lat="44.6162797" lon="10.6171561"><ele>130.66666666666669</ele><time>2026-05-02T08:26:38.595Z</time></trkpt><trkpt lat="44.6162145" lon="10.6172444"><ele>129.5</ele><time>2026-05-02T08:26:40.564Z</time></trkpt><trkpt lat="44.616161" lon="10.617324"><ele>128.33333333333334</ele><time>2026-05-02T08:26:42.566Z</time></trkpt><trkpt lat="44.6161211" lon="10.6174154"><ele>127.16666666666667</ele><time>2026-05-02T08:26:44.501Z</time></trkpt><trkpt lat="44.6160831" lon="10.6175098"><ele>126.0</ele><time>2026-05-02T08:26:46.593Z</time></trkpt><trkpt lat="44.6160358" lon="10.617588"><ele>125.85714285714286</ele><time>2026-05-02T08:26:48.584Z</time></trkpt><trkpt lat="44.6159676" lon="10.6176432"><ele>125.71428571428572</ele><time>2026-05-02T08:26:50.557Z</time></trkpt><trkpt lat="44.6159038" lon="10.6177117"><ele>125.57142857142857</ele><time>2026-05-02T08:26:52.609Z</time></trkpt><trkpt lat="44.6158406" lon="10.6177804"><ele>125.42857142857143</ele><time>2026-05-02T08:26:54.621Z</time></trkpt><trkpt lat="44.6157897" lon="10.6178414"><ele>125.28571428571429</ele><time>2026-05-02T08:26:56.535Z</time></trkpt><trkpt lat="44.6157438" lon="10.6179021"><ele>125.14285714285714</ele><time>2026-05-02T08:26:58.563Z</time></trkpt><trkpt lat="44.6156893" lon="10.6179811"><ele>125.0</ele><time>2026-05-02T08:27:01.565Z</time></trkpt><trkpt lat="44.615648" lon="10.6180664"><ele>124.99999999999999</ele><time>2026-05-02T08:27:04.582Z</time></trkpt><trkpt lat="44.6156103" lon="10.618153"><ele>125.0</ele><time>2026-05-02T08:27:07.6Z</time></trkpt><trkpt lat="44.6155574" lon="10.6182325"><ele>125.0</ele><time>2026-05-02T08:27:10.619Z</time></trkpt><trkpt lat="44.6155024" lon="10.6183216"><ele>125.0</ele><time>2026-05-02T08:27:13.478Z</time></trkpt><trkpt lat="44.6154461" lon="10.6184103"><ele>124.99999999999999</ele><time>2026-05-02T08:27:16.565Z</time></trkpt><trkpt lat="44.6153876" lon="10.6184918"><ele>125.0</ele><time>2026-05-02T08:27:19.515Z</time></trkpt><trkpt lat="44.6153222" lon="10.6185597"><ele>125.16666666666666</ele><time>2026-05-02T08:27:22.592Z</time></trkpt><trkpt lat="44.6152548" lon="10.6186216"><ele>125.33333333333333</ele><time>2026-05-02T08:27:25.584Z</time></trkpt><trkpt lat="44.6151838" lon="10.6186638"><ele>125.5</ele><time>2026-05-02T08:27:28.563Z</time></trkpt><trkpt lat="44.6151061" lon="10.6186989"><ele>125.66666666666666</ele><time>2026-05-02T08:27:31.563Z</time></trkpt><trkpt lat="44.6150266" lon="10.6187432"><ele>125.83333333333333</ele><time>2026-05-02T08:27:34.498Z</time></trkpt><trkpt lat="44.6149622" lon="10.6187861"><ele>126.0</ele><time>2026-05-02T08:27:37.585Z</time></trkpt><trkpt lat="44.6149196" lon="10.6188528"><ele>126.83333333333333</ele><time>2026-05-02T08:27:40.534Z</time></trkpt><trkpt lat="44.614983" lon="10.6189193"><ele>127.66666666666666</ele><time>2026-05-02T08:27:46.562Z</time></trkpt><trkpt lat="44.6150595" lon="10.6189137"><ele>128.5</ele><time>2026-05-02T08:27:50.566Z</time></trkpt><trkpt lat="44.6151455" lon="10.6189147"><ele>129.33333333333331</ele><time>2026-05-02T08:27:54.589Z</time></trkpt><trkpt lat="44.6152163" lon="10.6189148"><ele>130.16666666666666</ele><time>2026-05-02T08:27:58.561Z</time></trkpt><trkpt lat="44.6152961" lon="10.6189306"><ele>131.0</ele><time>2026-05-02T08:28:02.564Z</time></trkpt><trkpt lat="44.6153754" lon="10.618932"><ele>131.14285714285714</ele><time>2026-05-02T08:28:06.573Z</time></trkpt><trkpt lat="44.6154399" lon="10.6189449"><ele>131.2857142857143</ele><time>2026-05-02T08:28:09.581Z</time></trkpt><trkpt lat="44.6155197" lon="10.6189736"><ele>131.42857142857144</ele><time>2026-05-02T08:28:13.605Z</time></trkpt><trkpt lat="44.6155982" lon="10.6190097"><ele>131.57142857142858</ele><time>2026-05-02T08:28:17.561Z</time></trkpt><trkpt lat="44.6156566" lon="10.6190642"><ele>131.71428571428572</ele><time>2026-05-02T08:28:20.565Z</time></trkpt><trkpt lat="44.6157023" lon="10.6191351"><ele>131.85714285714286</ele><time>2026-05-02T08:28:23.578Z</time></trkpt><trkpt lat="44.6157434" lon="10.6192146"><ele>132.0</ele><time>2026-05-02T08:28:26.585Z</time></trkpt><trkpt lat="44.6157832" lon="10.6192954"><ele>132.0</ele><time>2026-05-02T08:28:29.575Z</time></trkpt><trkpt lat="44.6158302" lon="10.6193832"><ele>132.0</ele><time>2026-05-02T08:28:32.565Z</time></trkpt><trkpt lat="44.6158746" lon="10.6194781"><ele>132.0</ele><time>2026-05-02T08:28:35.564Z</time></trkpt><trkpt lat="44.6159205" lon="10.6195719"><ele>132.0</ele><time>2026-05-02T08:28:38.52Z</time></trkpt><trkpt lat="44.6159612" lon="10.619676"><ele>132.0</ele><time>2026-05-02T08:28:41.577Z</time></trkpt><trkpt lat="44.6159952" lon="10.619768"><ele>132.0</ele><time>2026-05-02T08:28:44.537Z</time></trkpt><trkpt lat="44.6160258" lon="10.6198645"><ele>132.66666666666666</ele><time>2026-05-02T08:28:47.614Z</time></trkpt><trkpt lat="44.6160391" lon="10.6199625"><ele>133.33333333333334</ele><time>2026-05-02T08:28:50.514Z</time></trkpt><trkpt lat="44.6160406" lon="10.6200807"><ele>134.0</ele><time>2026-05-02T08:28:53.564Z</time></trkpt><trkpt lat="44.6160368" lon="10.6202045"><ele>134.66666666666669</ele><time>2026-05-02T08:28:56.561Z</time></trkpt><trkpt lat="44.6160298" lon="10.6202996"><ele>135.33333333333334</ele><time>2026-05-02T08:28:58.581Z</time></trkpt><trkpt lat="44.6160121" lon="10.6203914"><ele>136.0</ele><time>2026-05-02T08:29:00.594Z</time></trkpt><trkpt lat="44.6159822" lon="10.620498"><ele>136.16666666666669</ele><time>2026-05-02T08:29:03.612Z</time></trkpt><trkpt lat="44.6159559" lon="10.6206097"><ele>136.33333333333334</ele><time>2026-05-02T08:29:06.501Z</time></trkpt><trkpt lat="44.6159235" lon="10.6207198"><ele>136.5</ele><time>2026-05-02T08:29:09.548Z</time></trkpt><trkpt lat="44.6158912" lon="10.6208301"><ele>136.66666666666666</ele><time>2026-05-02T08:29:12.568Z</time></trkpt><trkpt lat="44.6158565" lon="10.6209332"><ele>136.83333333333331</ele><time>2026-05-02T08:29:15.497Z</time></trkpt><trkpt lat="44.6158148" lon="10.6210348"><ele>137.0</ele><time>2026-05-02T08:29:18.604Z</time></trkpt><trkpt lat="44.6157729" lon="10.6211351"><ele>137.16666666666666</ele><time>2026-05-02T08:29:21.574Z</time></trkpt><trkpt lat="44.6157341" lon="10.6212281"><ele>137.33333333333331</ele><time>2026-05-02T08:29:24.482Z</time></trkpt><trkpt lat="44.6156966" lon="10.6213242"><ele>137.5</ele><time>2026-05-02T08:29:27.564Z</time></trkpt><trkpt lat="44.6156657" lon="10.6214167"><ele>137.66666666666666</ele><time>2026-05-02T08:29:30.6Z</time></trkpt><trkpt lat="44.6156275" lon="10.6214911"><ele>137.83333333333334</ele><time>2026-05-02T08:29:33.498Z</time></trkpt><trkpt lat="44.6155887" lon="10.6215813"><ele>138.0</ele><time>2026-05-02T08:29:36.615Z</time></trkpt><trkpt lat="44.6155374" lon="10.6216774"><ele>138.0</ele><time>2026-05-02T08:29:39.563Z</time></trkpt><trkpt lat="44.6154831" lon="10.6217709"><ele>138.0</ele><time>2026-05-02T08:29:42.564Z</time></trkpt><trkpt lat="44.615432" lon="10.621861"><ele>138.0</ele><time>2026-05-02T08:29:45.561Z</time></trkpt><trkpt lat="44.6153935" lon="10.6219319"><ele>138.0</ele><time>2026-05-02T08:29:47.582Z</time></trkpt><trkpt lat="44.6153435" lon="10.6220241"><ele>138.0</ele><time>2026-05-02T08:29:50.5Z</time></trkpt><trkpt lat="44.6152943" lon="10.6221234"><ele>138.0</ele><time>2026-05-02T08:29:53.5Z</time></trkpt><trkpt lat="44.6152578" lon="10.6222133"><ele>138.71428571428572</ele><time>2026-05-02T08:29:56.565Z</time></trkpt><trkpt lat="44.6152319" lon="10.6223013"><ele>139.42857142857144</ele><time>2026-05-02T08:29:59.576Z</time></trkpt><trkpt lat="44.6152069" lon="10.6223876"><ele>140.14285714285714</ele><time>2026-05-02T08:30:02.574Z</time></trkpt><trkpt lat="44.6151778" lon="10.6224826"><ele>140.85714285714286</ele><time>2026-05-02T08:30:05.573Z</time></trkpt><trkpt lat="44.615143" lon="10.6225756"><ele>141.57142857142856</ele><time>2026-05-02T08:30:08.611Z</time></trkpt><trkpt lat="44.6151114" lon="10.6226874"><ele>142.28571428571428</ele><time>2026-05-02T08:30:11.565Z</time></trkpt><trkpt lat="44.6150833" lon="10.6227877"><ele>143.0</ele><time>2026-05-02T08:30:14.539Z</time></trkpt><trkpt lat="44.6150489" lon="10.622906"><ele>143.16666666666666</ele><time>2026-05-02T08:30:17.565Z</time></trkpt><trkpt lat="44.6150203" lon="10.6229863"><ele>143.33333333333331</ele><time>2026-05-02T08:30:19.48Z</time></trkpt><trkpt lat="44.6149964" lon="10.6230763"><ele>143.5</ele><time>2026-05-02T08:30:21.622Z</time></trkpt><trkpt lat="44.6149714" lon="10.623199"><ele>143.66666666666666</ele><time>2026-05-02T08:30:24.609Z</time></trkpt><trkpt lat="44.6149436" lon="10.6232848"><ele>143.83333333333334</ele><time>2026-05-02T08:30:26.281Z</time></trkpt><trkpt lat="44.6149053" lon="10.6234004"><ele>144.0</ele><time>2026-05-02T08:30:28.563Z</time></trkpt><trkpt lat="44.6148747" lon="10.6234871"><ele>144.00000000000003</ele><time>2026-05-02T08:30:30.477Z</time></trkpt><trkpt lat="44.6148413" lon="10.6235858"><ele>144.0</ele><time>2026-05-02T08:30:32.599Z</time></trkpt><trkpt lat="44.614812" lon="10.6236765"><ele>144.0</ele><time>2026-05-02T08:30:34.57Z</time></trkpt><trkpt lat="44.6147812" lon="10.6237698"><ele>144.0</ele><time>2026-05-02T08:30:36.514Z</time></trkpt><trkpt lat="44.6147442" lon="10.623871"><ele>144.0</ele><time>2026-05-02T08:30:38.617Z</time></trkpt><trkpt lat="44.6147112" lon="10.6239649"><ele>144.00000000000003</ele><time>2026-05-02T08:30:40.607Z</time></trkpt><trkpt lat="44.6146856" lon="10.6240522"><ele>144.0</ele><time>2026-05-02T08:30:42.619Z</time></trkpt><trkpt lat="44.614656" lon="10.6241346"><ele>144.16666666666666</ele><time>2026-05-02T08:30:44.566Z</time></trkpt><trkpt lat="44.6146199" lon="10.6242172"><ele>144.33333333333334</ele><time>2026-05-02T08:30:46.563Z</time></trkpt><trkpt lat="44.6145758" lon="10.6243262"><ele>144.5</ele><time>2026-05-02T08:30:49.534Z</time></trkpt><trkpt lat="44.6145431" lon="10.624405"><ele>144.66666666666669</ele><time>2026-05-02T08:30:51.574Z</time></trkpt><trkpt lat="44.6145114" lon="10.6245031"><ele>144.83333333333334</ele><time>2026-05-02T08:30:54.514Z</time></trkpt><trkpt lat="44.614477" lon="10.6246191"><ele>145.0</ele><time>2026-05-02T08:30:57.611Z</time></trkpt><trkpt lat="44.6144487" lon="10.624735"><ele>145.0</ele><time>2026-05-02T08:31:00.601Z</time></trkpt><trkpt lat="44.6144165" lon="10.6248456"><ele>145.0</ele><time>2026-05-02T08:31:03.564Z</time></trkpt><trkpt lat="44.6143888" lon="10.6249549"><ele>145.0</ele><time>2026-05-02T08:31:06.566Z</time></trkpt><trkpt lat="44.6143567" lon="10.6250616"><ele>145.0</ele><time>2026-05-02T08:31:09.495Z</time></trkpt><trkpt lat="44.6143235" lon="10.6251731"><ele>145.0</ele><time>2026-05-02T08:31:12.603Z</time></trkpt><trkpt lat="44.6142965" lon="10.6252836"><ele>145.0</ele><time>2026-05-02T08:31:15.566Z</time></trkpt><trkpt lat="44.6142744" lon="10.6253931"><ele>144.66666666666669</ele><time>2026-05-02T08:31:18.564Z</time></trkpt><trkpt lat="44.6142498" lon="10.6255112"><ele>144.33333333333334</ele><time>2026-05-02T08:31:21.565Z</time></trkpt><trkpt lat="44.6142264" lon="10.6256157"><ele>144.0</ele><time>2026-05-02T08:31:24.576Z</time></trkpt><trkpt lat="44.6142031" lon="10.6257182"><ele>143.66666666666666</ele><time>2026-05-02T08:31:27.595Z</time></trkpt><trkpt lat="44.6141806" lon="10.6258171"><ele>143.33333333333331</ele><time>2026-05-02T08:31:30.613Z</time></trkpt><trkpt lat="44.614163" lon="10.6259159"><ele>143.0</ele><time>2026-05-02T08:31:33.566Z</time></trkpt><trkpt lat="44.6141395" lon="10.6260184"><ele>143.0</ele><time>2026-05-02T08:31:36.561Z</time></trkpt><trkpt lat="44.614115" lon="10.6261239"><ele>143.0</ele><time>2026-05-02T08:31:39.568Z</time></trkpt><trkpt lat="44.6140904" lon="10.6262254"><ele>143.0</ele><time>2026-05-02T08:31:42.586Z</time></trkpt><trkpt lat="44.6140716" lon="10.6263301"><ele>143.0</ele><time>2026-05-02T08:31:45.605Z</time></trkpt><trkpt lat="44.6140509" lon="10.6264612"><ele>143.0</ele><time>2026-05-02T08:31:48.565Z</time></trkpt><trkpt lat="44.6140334" lon="10.6265478"><ele>143.0</ele><time>2026-05-02T08:31:50.537Z</time></trkpt><trkpt lat="44.6140137" lon="10.6266407"><ele>142.83333333333331</ele><time>2026-05-02T08:31:52.579Z</time></trkpt><trkpt lat="44.6139971" lon="10.6267362"><ele>142.66666666666666</ele><time>2026-05-02T08:31:54.602Z</time></trkpt><trkpt lat="44.6139752" lon="10.6268743"><ele>142.5</ele><time>2026-05-02T08:31:57.578Z</time></trkpt><trkpt lat="44.6139535" lon="10.6269652"><ele>142.33333333333334</ele><time>2026-05-02T08:31:59.591Z</time></trkpt><trkpt lat="44.613928" lon="10.6270601"><ele>142.16666666666669</ele><time>2026-05-02T08:32:01.603Z</time></trkpt><trkpt lat="44.6139052" lon="10.6271592"><ele>142.0</ele><time>2026-05-02T08:32:03.597Z</time></trkpt><trkpt lat="44.6138788" lon="10.6272842"><ele>142.0</ele><time>2026-05-02T08:32:05.565Z</time></trkpt><trkpt lat="44.6138467" lon="10.6273941"><ele>142.0</ele><time>2026-05-02T08:32:07.565Z</time></trkpt><trkpt lat="44.6138218" lon="10.6274964"><ele>142.0</ele><time>2026-05-02T08:32:09.564Z</time></trkpt><trkpt lat="44.6138069" lon="10.6275887"><ele>142.0</ele><time>2026-05-02T08:32:11.596Z</time></trkpt><trkpt lat="44.6137931" lon="10.6276831"><ele>142.0</ele><time>2026-05-02T08:32:13.576Z</time></trkpt><trkpt lat="44.6137675" lon="10.6277681"><ele>142.0</ele><time>2026-05-02T08:32:15.52Z</time></trkpt><trkpt lat="44.6137413" lon="10.6278511"><ele>142.0</ele><time>2026-05-02T08:32:17.633Z</time></trkpt><trkpt lat="44.6137085" lon="10.6279559"><ele>142.33333333333334</ele><time>2026-05-02T08:32:20.619Z</time></trkpt><trkpt lat="44.6136785" lon="10.6280584"><ele>142.66666666666669</ele><time>2026-05-02T08:32:23.6Z</time></trkpt><trkpt lat="44.6136466" lon="10.6281636"><ele>143.0</ele><time>2026-05-02T08:32:26.565Z</time></trkpt><trkpt lat="44.6136123" lon="10.6282671"><ele>143.33333333333334</ele><time>2026-05-02T08:32:29.557Z</time></trkpt><trkpt lat="44.6135583" lon="10.6283912"><ele>143.66666666666666</ele><time>2026-05-02T08:32:32.594Z</time></trkpt><trkpt lat="44.6135278" lon="10.6284688"><ele>144.0</ele><time>2026-05-02T08:32:34.605Z</time></trkpt><trkpt lat="44.6134931" lon="10.6285494"><ele>143.66666666666666</ele><time>2026-05-02T08:32:36.564Z</time></trkpt><trkpt lat="44.6134577" lon="10.6286736"><ele>143.33333333333334</ele><time>2026-05-02T08:32:39.563Z</time></trkpt><trkpt lat="44.6134726" lon="10.6288"><ele>143.0</ele><time>2026-05-02T08:32:42.564Z</time></trkpt><trkpt lat="44.6135262" lon="10.6288882"><ele>142.66666666666669</ele><time>2026-05-02T08:32:45.575Z</time></trkpt><trkpt lat="44.6135643" lon="10.6289838"><ele>142.33333333333334</ele><time>2026-05-02T08:32:48.591Z</time></trkpt><trkpt lat="44.6135961" lon="10.6291046"><ele>142.0</ele><time>2026-05-02T08:32:51.609Z</time></trkpt><trkpt lat="44.6136053" lon="10.6291991"><ele>142.0</ele><time>2026-05-02T08:32:53.584Z</time></trkpt><trkpt lat="44.6136225" lon="10.6293191"><ele>142.0</ele><time>2026-05-02T08:32:56.565Z</time></trkpt><trkpt lat="44.613643" lon="10.6294145"><ele>142.0</ele><time>2026-05-02T08:32:59.499Z</time></trkpt><trkpt lat="44.6135857" lon="10.6294719"><ele>142.0</ele><time>2026-05-02T08:33:03.594Z</time></trkpt><trkpt lat="44.6135687" lon="10.6296267"><ele>142.0</ele><time>2026-05-02T08:33:06.602Z</time></trkpt><trkpt lat="44.613514" lon="10.6296967"><ele>142.0</ele><time>2026-05-02T08:33:08.565Z</time></trkpt><trkpt lat="44.6134484" lon="10.6297932"><ele>140.33333333333334</ele><time>2026-05-02T08:33:11.562Z</time></trkpt><trkpt lat="44.613398" lon="10.6298866"><ele>138.66666666666669</ele><time>2026-05-02T08:33:14.501Z</time></trkpt><trkpt lat="44.613366" lon="10.6300023"><ele>137.0</ele><time>2026-05-02T08:33:17.579Z</time></trkpt><trkpt lat="44.6133568" lon="10.6300908"><ele>135.33333333333334</ele><time>2026-05-02T08:33:19.58Z</time></trkpt><trkpt lat="44.6133464" lon="10.6301845"><ele>133.66666666666666</ele><time>2026-05-02T08:33:21.592Z</time></trkpt><trkpt lat="44.6133332" lon="10.6302778"><ele>132.0</ele><time>2026-05-02T08:33:23.604Z</time></trkpt><trkpt lat="44.6133204" lon="10.6304029"><ele>130.66666666666666</ele><time>2026-05-02T08:33:26.555Z</time></trkpt><trkpt lat="44.6132833" lon="10.6305234"><ele>129.33333333333334</ele><time>2026-05-02T08:33:29.563Z</time></trkpt><trkpt lat="44.6132407" lon="10.6306271"><ele>128.0</ele><time>2026-05-02T08:33:32.5Z</time></trkpt><trkpt lat="44.6132107" lon="10.630709"><ele>126.66666666666667</ele><time>2026-05-02T08:33:34.633Z</time></trkpt><trkpt lat="44.6131782" lon="10.6308228"><ele>125.33333333333334</ele><time>2026-05-02T08:33:37.59Z</time></trkpt><trkpt lat="44.6131455" lon="10.6309372"><ele>124.0</ele><time>2026-05-02T08:33:40.6Z</time></trkpt><trkpt lat="44.6131114" lon="10.6310464"><ele>123.33333333333334</ele><time>2026-05-02T08:33:43.563Z</time></trkpt><trkpt lat="44.6130801" lon="10.6311538"><ele>122.66666666666667</ele><time>2026-05-02T08:33:46.618Z</time></trkpt><trkpt lat="44.6130523" lon="10.6312551"><ele>122.0</ele><time>2026-05-02T08:33:49.515Z</time></trkpt><trkpt lat="44.613031" lon="10.6313706"><ele>121.33333333333334</ele><time>2026-05-02T08:33:52.581Z</time></trkpt><trkpt lat="44.6130124" lon="10.6314699"><ele>120.66666666666667</ele><time>2026-05-02T08:33:55.621Z</time></trkpt><trkpt lat="44.6129946" lon="10.631564"><ele>120.0</ele><time>2026-05-02T08:33:58.519Z</time></trkpt><trkpt lat="44.6129693" lon="10.6316762"><ele>120.0</ele><time>2026-05-02T08:34:01.562Z</time></trkpt><trkpt lat="44.6129395" lon="10.6317781"><ele>120.0</ele><time>2026-05-02T08:34:04.536Z</time></trkpt><trkpt lat="44.612897" lon="10.6318753"><ele>120.0</ele><time>2026-05-02T08:34:07.573Z</time></trkpt><trkpt lat="44.6128492" lon="10.6319681"><ele>120.0</ele><time>2026-05-02T08:34:10.502Z</time></trkpt><trkpt lat="44.6128064" lon="10.6320419"><ele>120.0</ele><time>2026-05-02T08:34:12.595Z</time></trkpt><trkpt lat="44.61276" lon="10.6321134"><ele>120.0</ele><time>2026-05-02T08:34:14.616Z</time></trkpt><trkpt lat="44.6126978" lon="10.6322136"><ele>120.85714285714286</ele><time>2026-05-02T08:34:17.616Z</time></trkpt><trkpt lat="44.6126506" lon="10.6322755"><ele>121.71428571428571</ele><time>2026-05-02T08:34:19.564Z</time></trkpt><trkpt lat="44.6126007" lon="10.6323346"><ele>122.57142857142857</ele><time>2026-05-02T08:34:21.519Z</time></trkpt><trkpt lat="44.6125445" lon="10.6323946"><ele>123.42857142857143</ele><time>2026-05-02T08:34:23.57Z</time></trkpt><trkpt lat="44.6124934" lon="10.6324565"><ele>124.28571428571428</ele><time>2026-05-02T08:34:25.582Z</time></trkpt><trkpt lat="44.6124422" lon="10.6325162"><ele>125.14285714285714</ele><time>2026-05-02T08:34:27.596Z</time></trkpt><trkpt lat="44.6123887" lon="10.6325779"><ele>126.0</ele><time>2026-05-02T08:34:29.607Z</time></trkpt><trkpt lat="44.6123319" lon="10.6326313"><ele>126.0</ele><time>2026-05-02T08:34:31.601Z</time></trkpt><trkpt lat="44.6122741" lon="10.6326809"><ele>126.0</ele><time>2026-05-02T08:34:33.563Z</time></trkpt><trkpt lat="44.6121924" lon="10.6327597"><ele>126.0</ele><time>2026-05-02T08:34:36.562Z</time></trkpt><trkpt lat="44.6121219" lon="10.6328375"><ele>126.0</ele><time>2026-05-02T08:34:39.539Z</time></trkpt><trkpt lat="44.6120509" lon="10.6329088"><ele>126.0</ele><time>2026-05-02T08:34:42.586Z</time></trkpt><trkpt lat="44.6119805" lon="10.6329794"><ele>126.0</ele><time>2026-05-02T08:34:45.604Z</time></trkpt><trkpt lat="44.6119239" lon="10.6330366"><ele>127.5</ele><time>2026-05-02T08:34:47.563Z</time></trkpt><trkpt lat="44.6118698" lon="10.6330867"><ele>129.0</ele><time>2026-05-02T08:34:49.564Z</time></trkpt><trkpt lat="44.6118118" lon="10.6331438"><ele>130.5</ele><time>2026-05-02T08:34:51.482Z</time></trkpt><trkpt lat="44.6117541" lon="10.6332188"><ele>132.0</ele><time>2026-05-02T08:34:53.563Z</time></trkpt><trkpt lat="44.6116908" lon="10.6332921"><ele>133.5</ele><time>2026-05-02T08:34:56.543Z</time></trkpt><trkpt lat="44.6116227" lon="10.633341"><ele>135.0</ele><time>2026-05-02T08:34:59.59Z</time></trkpt><trkpt lat="44.6115489" lon="10.6333904"><ele>135.0</ele><time>2026-05-02T08:35:02.608Z</time></trkpt><trkpt lat="44.6114777" lon="10.6334456"><ele>135.0</ele><time>2026-05-02T08:35:05.564Z</time></trkpt><trkpt lat="44.6114034" lon="10.6335065"><ele>135.0</ele><time>2026-05-02T08:35:08.556Z</time></trkpt><trkpt lat="44.6113496" lon="10.6335558"><ele>135.0</ele><time>2026-05-02T08:35:10.563Z</time></trkpt><trkpt lat="44.6112797" lon="10.6336227"><ele>135.0</ele><time>2026-05-02T08:35:13.575Z</time></trkpt><trkpt lat="44.6112041" lon="10.6336927"><ele>135.0</ele><time>2026-05-02T08:35:16.595Z</time></trkpt><trkpt lat="44.6111403" lon="10.633749"><ele>135.42857142857142</ele><time>2026-05-02T08:35:19.553Z</time></trkpt><trkpt lat="44.6110873" lon="10.6338029"><ele>135.85714285714283</ele><time>2026-05-02T08:35:22.501Z</time></trkpt><trkpt lat="44.6110302" lon="10.6338618"><ele>136.28571428571428</ele><time>2026-05-02T08:35:25.565Z</time></trkpt><trkpt lat="44.610972" lon="10.6339152"><ele>136.71428571428572</ele><time>2026-05-02T08:35:28.566Z</time></trkpt><trkpt lat="44.6109072" lon="10.6339666"><ele>137.14285714285717</ele><time>2026-05-02T08:35:31.585Z</time></trkpt><trkpt lat="44.610842" lon="10.6340108"><ele>137.57142857142858</ele><time>2026-05-02T08:35:34.604Z</time></trkpt><trkpt lat="44.6107814" lon="10.6340723"><ele>138.0</ele><time>2026-05-02T08:35:37.615Z</time></trkpt><trkpt lat="44.6107235" lon="10.6341337"><ele>138.0</ele><time>2026-05-02T08:35:40.561Z</time></trkpt><trkpt lat="44.6106695" lon="10.6342092"><ele>138.0</ele><time>2026-05-02T08:35:43.6Z</time></trkpt><trkpt lat="44.6106226" lon="10.6342915"><ele>138.0</ele><time>2026-05-02T08:35:46.559Z</time></trkpt><trkpt lat="44.6105716" lon="10.634366"><ele>138.0</ele><time>2026-05-02T08:35:49.556Z</time></trkpt><trkpt lat="44.6105259" lon="10.6344391"><ele>138.0</ele><time>2026-05-02T08:35:52.555Z</time></trkpt><trkpt lat="44.6104821" lon="10.634519"><ele>138.0</ele><time>2026-05-02T08:35:55.544Z</time></trkpt><trkpt lat="44.6104604" lon="10.6346074"><ele>138.0</ele><time>2026-05-02T08:35:58.522Z</time></trkpt><trkpt lat="44.6104435" lon="10.6346994"><ele>138.28571428571428</ele><time>2026-05-02T08:36:01.568Z</time></trkpt><trkpt lat="44.610424" lon="10.6347859"><ele>138.57142857142858</ele><time>2026-05-02T08:36:04.586Z</time></trkpt><trkpt lat="44.6104109" lon="10.6348774"><ele>138.85714285714286</ele><time>2026-05-02T08:36:07.605Z</time></trkpt><trkpt lat="44.6104051" lon="10.6349843"><ele>139.14285714285714</ele><time>2026-05-02T08:36:10.556Z</time></trkpt><trkpt lat="44.6103999" lon="10.6350915"><ele>139.42857142857144</ele><time>2026-05-02T08:36:13.564Z</time></trkpt><trkpt lat="44.6103846" lon="10.6351946"><ele>139.71428571428572</ele><time>2026-05-02T08:36:16.566Z</time></trkpt><trkpt lat="44.6103656" lon="10.6352927"><ele>140.0</ele><time>2026-05-02T08:36:19.519Z</time></trkpt><trkpt lat="44.6103459" lon="10.6354003"><ele>140.0</ele><time>2026-05-02T08:36:22.596Z</time></trkpt><trkpt lat="44.6103359" lon="10.6355065"><ele>140.0</ele><time>2026-05-02T08:36:25.557Z</time></trkpt><trkpt lat="44.6103396" lon="10.6356071"><ele>140.0</ele><time>2026-05-02T08:36:28.566Z</time></trkpt><trkpt lat="44.6103417" lon="10.6357053"><ele>140.0</ele><time>2026-05-02T08:36:31.567Z</time></trkpt><trkpt lat="44.6103459" lon="10.6358006"><ele>140.0</ele><time>2026-05-02T08:36:34.48Z</time></trkpt><trkpt lat="44.6103492" lon="10.6359144"><ele>140.0</ele><time>2026-05-02T08:36:37.588Z</time></trkpt><trkpt lat="44.6103512" lon="10.6360087"><ele>140.0</ele><time>2026-05-02T08:36:40.606Z</time></trkpt><trkpt lat="44.6103504" lon="10.6361073"><ele>140.0</ele><time>2026-05-02T08:36:43.567Z</time></trkpt><trkpt lat="44.6103421" lon="10.6362015"><ele>140.0</ele><time>2026-05-02T08:36:46.515Z</time></trkpt><trkpt lat="44.6103379" lon="10.6363108"><ele>140.0</ele><time>2026-05-02T08:36:49.567Z</time></trkpt><trkpt lat="44.610337" lon="10.636426"><ele>140.0</ele><time>2026-05-02T08:36:52.581Z</time></trkpt><trkpt lat="44.6103114" lon="10.6365436"><ele>140.0</ele><time>2026-05-02T08:36:55.598Z</time></trkpt><trkpt lat="44.6102828" lon="10.6366301"><ele>140.0</ele><time>2026-05-02T08:36:57.542Z</time></trkpt><trkpt lat="44.6102672" lon="10.6367267"><ele>140.57142857142858</ele><time>2026-05-02T08:36:59.567Z</time></trkpt><trkpt lat="44.6102184" lon="10.6367867"><ele>141.14285714285714</ele><time>2026-05-02T08:37:01.495Z</time></trkpt><trkpt lat="44.6101642" lon="10.6368423"><ele>141.71428571428572</ele><time>2026-05-02T08:37:03.565Z</time></trkpt><trkpt lat="44.6100937" lon="10.6369112"><ele>142.28571428571428</ele><time>2026-05-02T08:37:06.537Z</time></trkpt><trkpt lat="44.6100152" lon="10.6369605"><ele>142.85714285714286</ele><time>2026-05-02T08:37:09.583Z</time></trkpt><trkpt lat="44.609944" lon="10.6369945"><ele>143.42857142857144</ele><time>2026-05-02T08:37:12.601Z</time></trkpt><trkpt lat="44.609876" lon="10.6370157"><ele>144.0</ele><time>2026-05-02T08:37:15.541Z</time></trkpt><trkpt lat="44.6097899" lon="10.6370156"><ele>144.16666666666666</ele><time>2026-05-02T08:37:18.565Z</time></trkpt><trkpt lat="44.6097116" lon="10.6370321"><ele>144.33333333333334</ele><time>2026-05-02T08:37:21.565Z</time></trkpt><trkpt lat="44.6096354" lon="10.6370519"><ele>144.5</ele><time>2026-05-02T08:37:24.516Z</time></trkpt><trkpt lat="44.6095563" lon="10.6370676"><ele>144.66666666666669</ele><time>2026-05-02T08:37:27.593Z</time></trkpt><trkpt lat="44.6094673" lon="10.6370766"><ele>144.83333333333334</ele><time>2026-05-02T08:37:30.582Z</time></trkpt><trkpt lat="44.6093778" lon="10.6370805"><ele>145.0</ele><time>2026-05-02T08:37:33.565Z</time></trkpt><trkpt lat="44.6092988" lon="10.6370852"><ele>145.33333333333334</ele><time>2026-05-02T08:37:36.649Z</time></trkpt><trkpt lat="44.6092273" lon="10.637086"><ele>145.66666666666669</ele><time>2026-05-02T08:37:39.497Z</time></trkpt><trkpt lat="44.6091527" lon="10.637093"><ele>146.0</ele><time>2026-05-02T08:37:42.616Z</time></trkpt><trkpt lat="44.6090787" lon="10.6371187"><ele>146.33333333333334</ele><time>2026-05-02T08:37:45.602Z</time></trkpt><trkpt lat="44.6089978" lon="10.637142"><ele>146.66666666666666</ele><time>2026-05-02T08:37:48.623Z</time></trkpt><trkpt lat="44.6089252" lon="10.6371759"><ele>147.0</ele><time>2026-05-02T08:37:51.5Z</time></trkpt><trkpt lat="44.6088535" lon="10.6372294"><ele>147.0</ele><time>2026-05-02T08:37:54.565Z</time></trkpt><trkpt lat="44.6087858" lon="10.6372858"><ele>147.0</ele><time>2026-05-02T08:37:57.517Z</time></trkpt><trkpt lat="44.6087156" lon="10.6373393"><ele>147.0</ele><time>2026-05-02T08:38:00.594Z</time></trkpt><trkpt lat="44.6086519" lon="10.6373904"><ele>147.0</ele><time>2026-05-02T08:38:03.533Z</time></trkpt><trkpt lat="44.6085939" lon="10.6374557"><ele>147.0</ele><time>2026-05-02T08:38:06.564Z</time></trkpt><trkpt lat="44.6085308" lon="10.6375362"><ele>147.0</ele><time>2026-05-02T08:38:09.54Z</time></trkpt><trkpt lat="44.6084931" lon="10.6376136"><ele>147.16666666666666</ele><time>2026-05-02T08:38:11.565Z</time></trkpt><trkpt lat="44.6084538" lon="10.637689"><ele>147.33333333333334</ele><time>2026-05-02T08:38:13.574Z</time></trkpt><trkpt lat="44.6084159" lon="10.637762"><ele>147.5</ele><time>2026-05-02T08:38:15.557Z</time></trkpt><trkpt lat="44.6083671" lon="10.6378708"><ele>147.66666666666669</ele><time>2026-05-02T08:38:18.603Z</time></trkpt><trkpt lat="44.6083179" lon="10.6379673"><ele>147.83333333333334</ele><time>2026-05-02T08:38:21.553Z</time></trkpt><trkpt lat="44.6082572" lon="10.6380568"><ele>148.0</ele><time>2026-05-02T08:38:24.565Z</time></trkpt><trkpt lat="44.6081933" lon="10.6381361"><ele>148.16666666666669</ele><time>2026-05-02T08:38:27.56Z</time></trkpt><trkpt lat="44.6081298" lon="10.6382208"><ele>148.33333333333334</ele><time>2026-05-02T08:38:30.577Z</time></trkpt><trkpt lat="44.6080625" lon="10.6382813"><ele>148.5</ele><time>2026-05-02T08:38:33.537Z</time></trkpt><trkpt lat="44.6079854" lon="10.6383426"><ele>148.66666666666666</ele><time>2026-05-02T08:38:36.613Z</time></trkpt><trkpt lat="44.6079142" lon="10.6383911"><ele>148.83333333333331</ele><time>2026-05-02T08:38:39.524Z</time></trkpt><trkpt lat="44.6078279" lon="10.638421"><ele>149.0</ele><time>2026-05-02T08:38:42.567Z</time></trkpt><trkpt lat="44.6077556" lon="10.6384606"><ele>149.0</ele><time>2026-05-02T08:38:45.499Z</time></trkpt><trkpt lat="44.607692" lon="10.6384995"><ele>149.0</ele><time>2026-05-02T08:38:47.58Z</time></trkpt><trkpt lat="44.6076332" lon="10.6385355"><ele>149.0</ele><time>2026-05-02T08:38:49.592Z</time></trkpt><trkpt lat="44.6075496" lon="10.6385858"><ele>149.0</ele><time>2026-05-02T08:38:52.61Z</time></trkpt><trkpt lat="44.6074674" lon="10.6386263"><ele>149.0</ele><time>2026-05-02T08:38:55.56Z</time></trkpt><trkpt lat="44.6073958" lon="10.6386605"><ele>149.0</ele><time>2026-05-02T08:38:58.565Z</time></trkpt><trkpt lat="44.6073185" lon="10.6386939"><ele>149.0</ele><time>2026-05-02T08:39:01.617Z</time></trkpt><trkpt lat="44.6072313" lon="10.6387257"><ele>149.0</ele><time>2026-05-02T08:39:04.584Z</time></trkpt><trkpt lat="44.607144" lon="10.6387531"><ele>149.0</ele><time>2026-05-02T08:39:07.602Z</time></trkpt><trkpt lat="44.6070642" lon="10.6387745"><ele>149.0</ele><time>2026-05-02T08:39:10.521Z</time></trkpt><trkpt lat="44.607001" lon="10.6387788"><ele>149.0</ele><time>2026-05-02T08:39:12.566Z</time></trkpt><trkpt lat="44.6069357" lon="10.6387876"><ele>149.0</ele><time>2026-05-02T08:39:14.567Z</time></trkpt><trkpt lat="44.6068723" lon="10.6387986"><ele>149.0</ele><time>2026-05-02T08:39:16.619Z</time></trkpt><trkpt lat="44.6068062" lon="10.638821"><ele>149.0</ele><time>2026-05-02T08:39:18.469Z</time></trkpt><trkpt lat="44.6067293" lon="10.6388411"><ele>149.0</ele><time>2026-05-02T08:39:20.482Z</time></trkpt><trkpt lat="44.6066453" lon="10.6388626"><ele>149.0</ele><time>2026-05-02T08:39:22.596Z</time></trkpt><trkpt lat="44.6065809" lon="10.6388728"><ele>149.0</ele><time>2026-05-02T08:39:24.605Z</time></trkpt><trkpt lat="44.6064979" lon="10.6388732"><ele>149.0</ele><time>2026-05-02T08:39:27.514Z</time></trkpt><trkpt lat="44.6064138" lon="10.6388838"><ele>149.0</ele><time>2026-05-02T08:39:30.565Z</time></trkpt><trkpt lat="44.6063238" lon="10.6388982"><ele>149.0</ele><time>2026-05-02T08:39:33.602Z</time></trkpt><trkpt lat="44.6062293" lon="10.6389092"><ele>149.0</ele><time>2026-05-02T08:39:36.579Z</time></trkpt><trkpt lat="44.6061415" lon="10.6388989"><ele>149.0</ele><time>2026-05-02T08:39:39.596Z</time></trkpt><trkpt lat="44.6060572" lon="10.6388549"><ele>149.0</ele><time>2026-05-02T08:39:42.517Z</time></trkpt><trkpt lat="44.6059813" lon="10.6388084"><ele>149.0</ele><time>2026-05-02T08:39:45.564Z</time></trkpt><trkpt lat="44.60591" lon="10.638766"><ele>149.0</ele><time>2026-05-02T08:39:48.633Z</time></trkpt><trkpt lat="44.6058367" lon="10.6387294"><ele>149.0</ele><time>2026-05-02T08:39:51.52Z</time></trkpt><trkpt lat="44.605759" lon="10.6386929"><ele>149.0</ele><time>2026-05-02T08:39:54.588Z</time></trkpt><trkpt lat="44.6056856" lon="10.6386574"><ele>149.0</ele><time>2026-05-02T08:39:57.642Z</time></trkpt><trkpt lat="44.6056094" lon="10.6386634"><ele>149.0</ele><time>2026-05-02T08:40:00.515Z</time></trkpt><trkpt lat="44.6055324" lon="10.6386715"><ele>149.0</ele><time>2026-05-02T08:40:03.564Z</time></trkpt><trkpt lat="44.6054509" lon="10.6386569"><ele>149.0</ele><time>2026-05-02T08:40:06.565Z</time></trkpt><trkpt lat="44.6053765" lon="10.6386723"><ele>149.0</ele><time>2026-05-02T08:40:09.52Z</time></trkpt><trkpt lat="44.6053085" lon="10.6387159"><ele>149.0</ele><time>2026-05-02T08:40:12.597Z</time></trkpt><trkpt lat="44.6052466" lon="10.6387446"><ele>149.0</ele><time>2026-05-02T08:40:15.577Z</time></trkpt><trkpt lat="44.6051843" lon="10.6387858"><ele>149.0</ele><time>2026-05-02T08:40:18.564Z</time></trkpt><trkpt lat="44.6051115" lon="10.6388145"><ele>149.0</ele><time>2026-05-02T08:40:22.564Z</time></trkpt><trkpt lat="44.605041" lon="10.6388313"><ele>149.0</ele><time>2026-05-02T08:40:27.588Z</time></trkpt><trkpt lat="44.6050746" lon="10.6387233"><ele>149.66666666666666</ele><time>2026-05-02T08:41:12.568Z</time></trkpt><trkpt lat="44.6051614" lon="10.6388352"><ele>150.33333333333331</ele><time>2026-05-02T08:41:17.592Z</time></trkpt><trkpt lat="44.6051534" lon="10.6389379"><ele>151.0</ele><time>2026-05-02T08:41:20.61Z</time></trkpt><trkpt lat="44.6051271" lon="10.6390361"><ele>151.66666666666666</ele><time>2026-05-02T08:41:23.621Z</time></trkpt><trkpt lat="44.6050841" lon="10.6391415"><ele>152.33333333333334</ele><time>2026-05-02T08:41:26.567Z</time></trkpt><trkpt lat="44.6050432" lon="10.6392347"><ele>153.0</ele><time>2026-05-02T08:41:29.565Z</time></trkpt><trkpt lat="44.6050014" lon="10.6393156"><ele>153.0</ele><time>2026-05-02T08:41:32.495Z</time></trkpt><trkpt lat="44.6049606" lon="10.639404"><ele>153.0</ele><time>2026-05-02T08:41:35.603Z</time></trkpt><trkpt lat="44.6049258" lon="10.6394942"><ele>153.0</ele><time>2026-05-02T08:41:38.62Z</time></trkpt><trkpt lat="44.6048844" lon="10.6395863"><ele>153.0</ele><time>2026-05-02T08:41:41.564Z</time></trkpt><trkpt lat="44.6048413" lon="10.63967"><ele>153.0</ele><time>2026-05-02T08:41:44.578Z</time></trkpt><trkpt lat="44.6047997" lon="10.6397474"><ele>153.0</ele><time>2026-05-02T08:41:47.575Z</time></trkpt><trkpt lat="44.6047653" lon="10.6398273"><ele>153.0</ele><time>2026-05-02T08:41:50.595Z</time></trkpt><trkpt lat="44.6047267" lon="10.6399043"><ele>152.85714285714286</ele><time>2026-05-02T08:41:53.611Z</time></trkpt><trkpt lat="44.6046875" lon="10.6399766"><ele>152.71428571428572</ele><time>2026-05-02T08:41:56.567Z</time></trkpt><trkpt lat="44.6047306" lon="10.6399014"><ele>152.57142857142856</ele><time>2026-05-02T08:42:01.565Z</time></trkpt><trkpt lat="44.6047118" lon="10.6398007"><ele>152.42857142857144</ele><time>2026-05-02T08:42:05.584Z</time></trkpt><trkpt lat="44.6047025" lon="10.6396949"><ele>152.2857142857143</ele><time>2026-05-02T08:42:09.609Z</time></trkpt><trkpt lat="44.6046232" lon="10.6396588"><ele>152.14285714285714</ele><time>2026-05-02T08:42:14.48Z</time></trkpt><trkpt lat="44.6045542" lon="10.6396265"><ele>152.0</ele><time>2026-05-02T08:42:18.565Z</time></trkpt><trkpt lat="44.6044921" lon="10.6395841"><ele>152.33333333333331</ele><time>2026-05-02T08:42:21.524Z</time></trkpt><trkpt lat="44.6044233" lon="10.6395424"><ele>152.66666666666666</ele><time>2026-05-02T08:42:24.6Z</time></trkpt><trkpt lat="44.6043574" lon="10.6394913"><ele>153.0</ele><time>2026-05-02T08:42:27.618Z</time></trkpt><trkpt lat="44.6042946" lon="10.6394421"><ele>153.33333333333334</ele><time>2026-05-02T08:42:30.517Z</time></trkpt><trkpt lat="44.6042296" lon="10.6394792"><ele>153.66666666666669</ele><time>2026-05-02T08:42:34.502Z</time></trkpt><trkpt lat="44.6042063" lon="10.6395804"><ele>154.0</ele><time>2026-05-02T08:42:38.585Z</time></trkpt><trkpt lat="44.6041739" lon="10.6396874"><ele>154.0</ele><time>2026-05-02T08:42:42.52Z</time></trkpt><trkpt lat="44.6041563" lon="10.6397851"><ele>154.0</ele><time>2026-05-02T08:42:46.566Z</time></trkpt><trkpt lat="44.604133" lon="10.6398892"><ele>154.0</ele><time>2026-05-02T08:42:50.6Z</time></trkpt><trkpt lat="44.6041202" lon="10.6399788"><ele>154.0</ele><time>2026-05-02T08:42:53.576Z</time></trkpt><trkpt lat="44.6040981" lon="10.6400753"><ele>154.0</ele><time>2026-05-02T08:42:56.557Z</time></trkpt><trkpt lat="44.6040757" lon="10.6401759"><ele>154.0</ele><time>2026-05-02T08:42:59.613Z</time></trkpt><trkpt lat="44.6040543" lon="10.6402747"><ele>154.0</ele><time>2026-05-02T08:43:02.542Z</time></trkpt><trkpt lat="44.6040213" lon="10.6403804"><ele>153.66666666666669</ele><time>2026-05-02T08:43:05.565Z</time></trkpt><trkpt lat="44.6039805" lon="10.6404906"><ele>153.33333333333334</ele><time>2026-05-02T08:43:08.567Z</time></trkpt><trkpt lat="44.6039449" lon="10.6405975"><ele>153.0</ele><time>2026-05-02T08:43:11.577Z</time></trkpt><trkpt lat="44.603915" lon="10.6406981"><ele>152.66666666666666</ele><time>2026-05-02T08:43:14.604Z</time></trkpt><trkpt lat="44.6038699" lon="10.6408037"><ele>152.33333333333331</ele><time>2026-05-02T08:43:17.622Z</time></trkpt><trkpt lat="44.6038204" lon="10.6409074"><ele>152.0</ele><time>2026-05-02T08:43:20.568Z</time></trkpt><trkpt lat="44.6037707" lon="10.6410009"><ele>152.0</ele><time>2026-05-02T08:43:23.56Z</time></trkpt><trkpt lat="44.6037158" lon="10.6410979"><ele>152.0</ele><time>2026-05-02T08:43:26.577Z</time></trkpt><trkpt lat="44.6036795" lon="10.6411799"><ele>152.0</ele><time>2026-05-02T08:43:28.589Z</time></trkpt><trkpt lat="44.6036378" lon="10.6412542"><ele>152.0</ele><time>2026-05-02T08:43:30.601Z</time></trkpt><trkpt lat="44.603588" lon="10.6413349"><ele>152.0</ele><time>2026-05-02T08:43:32.614Z</time></trkpt><trkpt lat="44.60353" lon="10.6414087"><ele>152.0</ele><time>2026-05-02T08:43:34.565Z</time></trkpt><trkpt lat="44.6034824" lon="10.6414833"><ele>151.83333333333331</ele><time>2026-05-02T08:43:36.5Z</time></trkpt><trkpt lat="44.603417" lon="10.6415895"><ele>151.66666666666666</ele><time>2026-05-02T08:43:39.56Z</time></trkpt><trkpt lat="44.6033643" lon="10.6416604"><ele>151.5</ele><time>2026-05-02T08:43:41.569Z</time></trkpt><trkpt lat="44.6033171" lon="10.641733"><ele>151.33333333333334</ele><time>2026-05-02T08:43:43.58Z</time></trkpt><trkpt lat="44.6032548" lon="10.6418178"><ele>151.16666666666669</ele><time>2026-05-02T08:43:46.5Z</time></trkpt><trkpt lat="44.6031823" lon="10.6419059"><ele>151.0</ele><time>2026-05-02T08:43:49.618Z</time></trkpt><trkpt lat="44.6031276" lon="10.6419613"><ele>150.4</ele><time>2026-05-02T08:43:51.564Z</time></trkpt><trkpt lat="44.6030526" lon="10.6420429"><ele>149.8</ele><time>2026-05-02T08:43:54.566Z</time></trkpt><trkpt lat="44.6029804" lon="10.6421253"><ele>149.20000000000002</ele><time>2026-05-02T08:43:57.559Z</time></trkpt><trkpt lat="44.6029066" lon="10.6421987"><ele>148.6</ele><time>2026-05-02T08:44:00.584Z</time></trkpt><trkpt lat="44.602837" lon="10.6422908"><ele>148.0</ele><time>2026-05-02T08:44:03.602Z</time></trkpt><trkpt lat="44.6027692" lon="10.6423604"><ele>148.0</ele><time>2026-05-02T08:44:06.562Z</time></trkpt><trkpt lat="44.602721" lon="10.6424253"><ele>148.0</ele><time>2026-05-02T08:44:08.614Z</time></trkpt><trkpt lat="44.6026785" lon="10.6425002"><ele>148.0</ele><time>2026-05-02T08:44:10.567Z</time></trkpt><trkpt lat="44.6026467" lon="10.6426385"><ele>148.0</ele><time>2026-05-02T08:44:13.534Z</time></trkpt><trkpt lat="44.6026383" lon="10.6427358"><ele>148.0</ele><time>2026-05-02T08:44:16.581Z</time></trkpt><trkpt lat="44.6026051" lon="10.6428202"><ele>148.0</ele><time>2026-05-02T08:44:19.6Z</time></trkpt><trkpt lat="44.6025622" lon="10.6429017"><ele>148.0</ele><time>2026-05-02T08:44:22.564Z</time></trkpt><trkpt lat="44.6025114" lon="10.6429847"><ele>147.33333333333334</ele><time>2026-05-02T08:44:25.565Z</time></trkpt><trkpt lat="44.6024396" lon="10.6430227"><ele>146.66666666666669</ele><time>2026-05-02T08:44:28.555Z</time></trkpt><trkpt lat="44.6023605" lon="10.6430592"><ele>146.0</ele><time>2026-05-02T08:44:31.572Z</time></trkpt><trkpt lat="44.6022908" lon="10.6431224"><ele>145.33333333333334</ele><time>2026-05-02T08:44:34.582Z</time></trkpt><trkpt lat="44.6022247" lon="10.6431978"><ele>144.66666666666666</ele><time>2026-05-02T08:44:37.609Z</time></trkpt><trkpt lat="44.6021656" lon="10.6432828"><ele>144.0</ele><time>2026-05-02T08:44:40.539Z</time></trkpt><trkpt lat="44.6021204" lon="10.6433454"><ele>144.0</ele><time>2026-05-02T08:44:42.566Z</time></trkpt><trkpt lat="44.6020522" lon="10.6434348"><ele>144.0</ele><time>2026-05-02T08:44:45.567Z</time></trkpt><trkpt lat="44.6019911" lon="10.6435164"><ele>144.0</ele><time>2026-05-02T08:44:48.576Z</time></trkpt><trkpt lat="44.6019367" lon="10.6435952"><ele>144.0</ele><time>2026-05-02T08:44:51.594Z</time></trkpt><trkpt lat="44.6018817" lon="10.6436727"><ele>144.0</ele><time>2026-05-02T08:44:54.613Z</time></trkpt><trkpt lat="44.6018267" lon="10.6437571"><ele>144.0</ele><time>2026-05-02T08:44:57.482Z</time></trkpt><trkpt lat="44.6017815" lon="10.6438197"><ele>145.0</ele><time>2026-05-02T08:44:59.616Z</time></trkpt><trkpt lat="44.6017216" lon="10.643902"><ele>146.0</ele><time>2026-05-02T08:45:02.463Z</time></trkpt><trkpt lat="44.6016559" lon="10.6439686"><ele>147.0</ele><time>2026-05-02T08:45:05.579Z</time></trkpt><trkpt lat="44.6015903" lon="10.6440315"><ele>148.0</ele><time>2026-05-02T08:45:08.501Z</time></trkpt><trkpt lat="44.6015173" lon="10.6441056"><ele>149.0</ele><time>2026-05-02T08:45:11.616Z</time></trkpt><trkpt lat="44.6014605" lon="10.6441908"><ele>150.0</ele><time>2026-05-02T08:45:14.576Z</time></trkpt><trkpt lat="44.6014133" lon="10.6442788"><ele>150.0</ele><time>2026-05-02T08:45:17.474Z</time></trkpt><trkpt lat="44.601358" lon="10.6443696"><ele>150.0</ele><time>2026-05-02T08:45:20.571Z</time></trkpt><trkpt lat="44.6013074" lon="10.6444584"><ele>150.0</ele><time>2026-05-02T08:45:23.56Z</time></trkpt><trkpt lat="44.6012586" lon="10.6445402"><ele>150.0</ele><time>2026-05-02T08:45:26.608Z</time></trkpt><trkpt lat="44.6012111" lon="10.6446155"><ele>150.0</ele><time>2026-05-02T08:45:29.617Z</time></trkpt><trkpt lat="44.6011687" lon="10.6446905"><ele>150.0</ele><time>2026-05-02T08:45:32.476Z</time></trkpt><trkpt lat="44.601116" lon="10.6447749"><ele>150.42857142857142</ele><time>2026-05-02T08:45:35.563Z</time></trkpt><trkpt lat="44.6010506" lon="10.6448125"><ele>150.85714285714286</ele><time>2026-05-02T08:45:38.582Z</time></trkpt><trkpt lat="44.6009733" lon="10.6447793"><ele>151.28571428571428</ele><time>2026-05-02T08:45:42.517Z</time></trkpt><trkpt lat="44.6009125" lon="10.6447384"><ele>151.71428571428572</ele><time>2026-05-02T08:45:45.562Z</time></trkpt><trkpt lat="44.6008597" lon="10.6446756"><ele>152.14285714285714</ele><time>2026-05-02T08:45:48.583Z</time></trkpt><trkpt lat="44.6008142" lon="10.6446037"><ele>152.57142857142856</ele><time>2026-05-02T08:45:51.563Z</time></trkpt><trkpt lat="44.6007717" lon="10.644525"><ele>153.0</ele><time>2026-05-02T08:45:54.578Z</time></trkpt><trkpt lat="44.6007407" lon="10.6444321"><ele>153.16666666666666</ele><time>2026-05-02T08:45:57.596Z</time></trkpt><trkpt lat="44.6007043" lon="10.6443462"><ele>153.33333333333334</ele><time>2026-05-02T08:46:00.615Z</time></trkpt><trkpt lat="44.6006653" lon="10.6442529"><ele>153.5</ele><time>2026-05-02T08:46:03.535Z</time></trkpt><trkpt lat="44.6006297" lon="10.6441606"><ele>153.66666666666669</ele><time>2026-05-02T08:46:06.563Z</time></trkpt><trkpt lat="44.6005928" lon="10.644074"><ele>153.83333333333334</ele><time>2026-05-02T08:46:09.5Z</time></trkpt><trkpt lat="44.6005464" lon="10.6439888"><ele>154.0</ele><time>2026-05-02T08:46:12.487Z</time></trkpt><trkpt lat="44.6004975" lon="10.6438947"><ele>154.0</ele><time>2026-05-02T08:46:15.606Z</time></trkpt><trkpt lat="44.6004579" lon="10.6437835"><ele>154.0</ele><time>2026-05-02T08:46:18.595Z</time></trkpt><trkpt lat="44.6004258" lon="10.6437017"><ele>154.0</ele><time>2026-05-02T08:46:20.563Z</time></trkpt><trkpt lat="44.6003991" lon="10.6436186"><ele>154.0</ele><time>2026-05-02T08:46:22.52Z</time></trkpt><trkpt lat="44.6003761" lon="10.6435238"><ele>154.0</ele><time>2026-05-02T08:46:24.564Z</time></trkpt><trkpt lat="44.600355" lon="10.643437"><ele>154.0</ele><time>2026-05-02T08:46:26.572Z</time></trkpt><trkpt lat="44.6003125" lon="10.6433151"><ele>154.16666666666669</ele><time>2026-05-02T08:46:29.625Z</time></trkpt><trkpt lat="44.6002784" lon="10.6432037"><ele>154.33333333333334</ele><time>2026-05-02T08:46:32.61Z</time></trkpt><trkpt lat="44.6002524" lon="10.6431216"><ele>154.5</ele><time>2026-05-02T08:46:34.584Z</time></trkpt><trkpt lat="44.6002114" lon="10.6430101"><ele>154.66666666666666</ele><time>2026-05-02T08:46:37.564Z</time></trkpt><trkpt lat="44.6001649" lon="10.6429075"><ele>154.83333333333331</ele><time>2026-05-02T08:46:40.62Z</time></trkpt><trkpt lat="44.6001224" lon="10.6428145"><ele>155.0</ele><time>2026-05-02T08:46:43.477Z</time></trkpt><trkpt lat="44.6000791" lon="10.6427216"><ele>155.0</ele><time>2026-05-02T08:46:47.6Z</time></trkpt><trkpt lat="44.6000449" lon="10.6426421"><ele>155.0</ele><time>2026-05-02T08:46:50.6Z</time></trkpt><trkpt lat="44.6000114" lon="10.642561"><ele>155.0</ele><time>2026-05-02T08:46:53.563Z</time></trkpt><trkpt lat="44.5999751" lon="10.6424692"><ele>155.0</ele><time>2026-05-02T08:46:56.563Z</time></trkpt><trkpt lat="44.5999429" lon="10.6423768"><ele>155.0</ele><time>2026-05-02T08:46:59.515Z</time></trkpt><trkpt lat="44.5999072" lon="10.6422944"><ele>155.0</ele><time>2026-05-02T08:47:02.592Z</time></trkpt><trkpt lat="44.5998696" lon="10.6422158"><ele>155.0</ele><time>2026-05-02T08:47:05.623Z</time></trkpt><trkpt lat="44.5998341" lon="10.6421251"><ele>155.0</ele><time>2026-05-02T08:47:08.563Z</time></trkpt><trkpt lat="44.5997979" lon="10.6420388"><ele>155.0</ele><time>2026-05-02T08:47:11.565Z</time></trkpt><trkpt lat="44.5997643" lon="10.6419522"><ele>155.0</ele><time>2026-05-02T08:47:14.576Z</time></trkpt><trkpt lat="44.5997341" lon="10.6418665"><ele>155.0</ele><time>2026-05-02T08:47:17.583Z</time></trkpt><trkpt lat="44.599705" lon="10.6417771"><ele>155.0</ele><time>2026-05-02T08:47:20.601Z</time></trkpt><trkpt lat="44.5996741" lon="10.6416912"><ele>155.0</ele><time>2026-05-02T08:47:23.565Z</time></trkpt><trkpt lat="44.5996389" lon="10.641606"><ele>155.0</ele><time>2026-05-02T08:47:26.519Z</time></trkpt><trkpt lat="44.5996052" lon="10.6415085"><ele>155.33333333333331</ele><time>2026-05-02T08:47:29.561Z</time></trkpt><trkpt lat="44.5995735" lon="10.6414117"><ele>155.66666666666666</ele><time>2026-05-02T08:47:32.575Z</time></trkpt><trkpt lat="44.5995341" lon="10.6413146"><ele>156.0</ele><time>2026-05-02T08:47:35.556Z</time></trkpt><trkpt lat="44.5994917" lon="10.6412233"><ele>156.33333333333334</ele><time>2026-05-02T08:47:38.611Z</time></trkpt><trkpt lat="44.599443" lon="10.641138"><ele>156.66666666666669</ele><time>2026-05-02T08:47:41.601Z</time></trkpt><trkpt lat="44.5993983" lon="10.6410594"><ele>157.0</ele><time>2026-05-02T08:47:44.478Z</time></trkpt><trkpt lat="44.5993495" lon="10.6409618"><ele>157.66666666666669</ele><time>2026-05-02T08:47:47.567Z</time></trkpt><trkpt lat="44.5992909" lon="10.6408719"><ele>158.33333333333334</ele><time>2026-05-02T08:47:50.585Z</time></trkpt><trkpt lat="44.5992321" lon="10.6407764"><ele>159.0</ele><time>2026-05-02T08:47:53.602Z</time></trkpt><trkpt lat="44.5991607" lon="10.6407005"><ele>159.66666666666666</ele><time>2026-05-02T08:47:56.566Z</time></trkpt><trkpt lat="44.5990891" lon="10.6407224"><ele>160.33333333333331</ele><time>2026-05-02T08:47:59.564Z</time></trkpt><trkpt lat="44.599034" lon="10.6407763"><ele>161.0</ele><time>2026-05-02T08:48:02.598Z</time></trkpt><trkpt lat="44.5989504" lon="10.6407818"><ele>161.0</ele><time>2026-05-02T08:48:06.544Z</time></trkpt><trkpt lat="44.5988862" lon="10.6407925"><ele>161.0</ele><time>2026-05-02T08:48:09.46Z</time></trkpt><trkpt lat="44.5988229" lon="10.6407545"><ele>161.0</ele><time>2026-05-02T08:48:12.569Z</time></trkpt><trkpt lat="44.5987513" lon="10.6407567"><ele>161.0</ele><time>2026-05-02T08:48:15.559Z</time></trkpt><trkpt lat="44.5986741" lon="10.6407833"><ele>161.0</ele><time>2026-05-02T08:48:19.501Z</time></trkpt><trkpt lat="44.5986055" lon="10.6408661"><ele>161.0</ele><time>2026-05-02T08:48:23.585Z</time></trkpt><trkpt lat="44.5985618" lon="10.6409593"><ele>161.28571428571428</ele><time>2026-05-02T08:48:26.603Z</time></trkpt><trkpt lat="44.5985132" lon="10.6410275"><ele>161.57142857142856</ele><time>2026-05-02T08:48:29.563Z</time></trkpt><trkpt lat="44.5984617" lon="10.6410926"><ele>161.85714285714286</ele><time>2026-05-02T08:48:32.541Z</time></trkpt><trkpt lat="44.5983994" lon="10.6411778"><ele>162.14285714285714</ele><time>2026-05-02T08:48:35.564Z</time></trkpt><trkpt lat="44.5983545" lon="10.6412436"><ele>162.42857142857142</ele><time>2026-05-02T08:48:38.577Z</time></trkpt><trkpt lat="44.5983141" lon="10.641329"><ele>162.71428571428572</ele><time>2026-05-02T08:48:41.535Z</time></trkpt><trkpt lat="44.5982799" lon="10.6414244"><ele>163.0</ele><time>2026-05-02T08:48:44.612Z</time></trkpt><trkpt lat="44.5982488" lon="10.6415234"><ele>163.0</ele><time>2026-05-02T08:48:47.565Z</time></trkpt><trkpt lat="44.5982317" lon="10.6416156"><ele>163.0</ele><time>2026-05-02T08:48:50.258Z</time></trkpt><trkpt lat="44.5982063" lon="10.6417233"><ele>163.0</ele><time>2026-05-02T08:48:53.499Z</time></trkpt><trkpt lat="44.5981763" lon="10.6418301"><ele>163.0</ele><time>2026-05-02T08:48:56.585Z</time></trkpt><trkpt lat="44.5981485" lon="10.6419296"><ele>163.0</ele><time>2026-05-02T08:48:59.604Z</time></trkpt><trkpt lat="44.5981209" lon="10.6420306"><ele>163.0</ele><time>2026-05-02T08:49:02.553Z</time></trkpt><trkpt lat="44.5981002" lon="10.6421396"><ele>163.0</ele><time>2026-05-02T08:49:05.565Z</time></trkpt><trkpt lat="44.5980701" lon="10.642246"><ele>163.0</ele><time>2026-05-02T08:49:08.565Z</time></trkpt><trkpt lat="44.598046" lon="10.6423641"><ele>163.0</ele><time>2026-05-02T08:49:11.558Z</time></trkpt><trkpt lat="44.5980308" lon="10.6424642"><ele>163.0</ele><time>2026-05-02T08:49:14.595Z</time></trkpt><trkpt lat="44.5980086" lon="10.6425666"><ele>163.0</ele><time>2026-05-02T08:49:17.595Z</time></trkpt><trkpt lat="44.5979864" lon="10.6426755"><ele>163.0</ele><time>2026-05-02T08:49:20.631Z</time></trkpt><trkpt lat="44.5979528" lon="10.6427828"><ele>162.83333333333334</ele><time>2026-05-02T08:49:23.58Z</time></trkpt><trkpt lat="44.5979116" lon="10.6428873"><ele>162.66666666666669</ele><time>2026-05-02T08:49:26.568Z</time></trkpt><trkpt lat="44.5978715" lon="10.6429974"><ele>162.5</ele><time>2026-05-02T08:49:29.586Z</time></trkpt><trkpt lat="44.5978596" lon="10.6431116"><ele>162.33333333333334</ele><time>2026-05-02T08:49:32.604Z</time></trkpt><trkpt lat="44.5979093" lon="10.6432004"><ele>162.16666666666666</ele><time>2026-05-02T08:49:35.614Z</time></trkpt><trkpt lat="44.5979646" lon="10.6432534"><ele>162.0</ele><time>2026-05-02T08:49:38.564Z</time></trkpt><trkpt lat="44.598019" lon="10.6433152"><ele>162.0</ele><time>2026-05-02T08:49:41.559Z</time></trkpt><trkpt lat="44.5980876" lon="10.643393"><ele>162.0</ele><time>2026-05-02T08:49:44.578Z</time></trkpt><trkpt lat="44.5981579" lon="10.6434457"><ele>162.0</ele><time>2026-05-02T08:49:47.235Z</time></trkpt><trkpt lat="44.5982109" lon="10.6435074"><ele>162.0</ele><time>2026-05-02T08:49:49.609Z</time></trkpt><trkpt lat="44.59828" lon="10.6435709"><ele>162.0</ele><time>2026-05-02T08:49:52.477Z</time></trkpt><trkpt lat="44.5983076" lon="10.6436647"><ele>162.0</ele><time>2026-05-02T08:49:55.616Z</time></trkpt><trkpt lat="44.5983215" lon="10.6437517"><ele>161.66666666666666</ele><time>2026-05-02T08:49:57.566Z</time></trkpt><trkpt lat="44.5983285" lon="10.6438778"><ele>161.33333333333334</ele><time>2026-05-02T08:50:00.495Z</time></trkpt><trkpt lat="44.5983283" lon="10.643967"><ele>161.0</ele><time>2026-05-02T08:50:02.619Z</time></trkpt><trkpt lat="44.5983292" lon="10.6440919"><ele>160.66666666666669</ele><time>2026-05-02T08:50:05.605Z</time></trkpt><trkpt lat="44.5983256" lon="10.6442029"><ele>160.33333333333334</ele><time>2026-05-02T08:50:08.624Z</time></trkpt><trkpt lat="44.5983151" lon="10.6443091"><ele>160.0</ele><time>2026-05-02T08:50:11.543Z</time></trkpt><trkpt lat="44.5983194" lon="10.6444034"><ele>159.83333333333334</ele><time>2026-05-02T08:50:14.564Z</time></trkpt><trkpt lat="44.5983067" lon="10.6445068"><ele>159.66666666666669</ele><time>2026-05-02T08:50:17.519Z</time></trkpt><trkpt lat="44.5982944" lon="10.6446197"><ele>159.5</ele><time>2026-05-02T08:50:20.596Z</time></trkpt><trkpt lat="44.5982752" lon="10.6447455"><ele>159.33333333333334</ele><time>2026-05-02T08:50:23.615Z</time></trkpt><trkpt lat="44.5982562" lon="10.6448663"><ele>159.16666666666666</ele><time>2026-05-02T08:50:26.574Z</time></trkpt><trkpt lat="44.5982361" lon="10.6449876"><ele>159.0</ele><time>2026-05-02T08:50:29.564Z</time></trkpt><trkpt lat="44.5982162" lon="10.6451026"><ele>159.0</ele><time>2026-05-02T08:50:32.502Z</time></trkpt><trkpt lat="44.5981895" lon="10.6452246"><ele>159.0</ele><time>2026-05-02T08:50:35.588Z</time></trkpt><trkpt lat="44.5981707" lon="10.6453149"><ele>159.0</ele><time>2026-05-02T08:50:38.607Z</time></trkpt><trkpt lat="44.5981396" lon="10.6454173"><ele>159.0</ele><time>2026-05-02T08:50:41.616Z</time></trkpt><trkpt lat="44.5981102" lon="10.6455251"><ele>159.0</ele><time>2026-05-02T08:50:44.564Z</time></trkpt><trkpt lat="44.5980744" lon="10.6456284"><ele>159.0</ele><time>2026-05-02T08:50:47.542Z</time></trkpt><trkpt lat="44.5980464" lon="10.6457378"><ele>158.5</ele><time>2026-05-02T08:50:50.579Z</time></trkpt><trkpt lat="44.5980226" lon="10.6458525"><ele>158.0</ele><time>2026-05-02T08:50:53.597Z</time></trkpt><trkpt lat="44.597992" lon="10.6459617"><ele>157.5</ele><time>2026-05-02T08:50:56.616Z</time></trkpt><trkpt lat="44.5979623" lon="10.6460716"><ele>157.0</ele><time>2026-05-02T08:50:59.562Z</time></trkpt><trkpt lat="44.5979317" lon="10.6462028"><ele>156.5</ele><time>2026-05-02T08:51:02.563Z</time></trkpt><trkpt lat="44.5979129" lon="10.64629"><ele>156.0</ele><time>2026-05-02T08:51:04.475Z</time></trkpt><trkpt lat="44.5978901" lon="10.6463861"><ele>156.16666666666666</ele><time>2026-05-02T08:51:06.538Z</time></trkpt><trkpt lat="44.5978626" lon="10.646479"><ele>156.33333333333334</ele><time>2026-05-02T08:51:08.6Z</time></trkpt><trkpt lat="44.5978403" lon="10.6465722"><ele>156.5</ele><time>2026-05-02T08:51:10.601Z</time></trkpt><trkpt lat="44.5978198" lon="10.6466623"><ele>156.66666666666669</ele><time>2026-05-02T08:51:12.613Z</time></trkpt><trkpt lat="44.5977909" lon="10.6467864"><ele>156.83333333333334</ele><time>2026-05-02T08:51:15.564Z</time></trkpt><trkpt lat="44.5977717" lon="10.6469114"><ele>157.0</ele><time>2026-05-02T08:51:18.621Z</time></trkpt><trkpt lat="44.5977629" lon="10.6470008"><ele>156.33333333333334</ele><time>2026-05-02T08:51:20.566Z</time></trkpt><trkpt lat="44.5977487" lon="10.6471275"><ele>155.66666666666669</ele><time>2026-05-02T08:51:23.501Z</time></trkpt><trkpt lat="44.5977285" lon="10.6472505"><ele>155.0</ele><time>2026-05-02T08:51:26.598Z</time></trkpt><trkpt lat="44.5977108" lon="10.6473629"><ele>154.33333333333334</ele><time>2026-05-02T08:51:29.517Z</time></trkpt><trkpt lat="44.5976973" lon="10.6474879"><ele>153.66666666666666</ele><time>2026-05-02T08:51:32.568Z</time></trkpt><trkpt lat="44.5976751" lon="10.6476003"><ele>153.0</ele><time>2026-05-02T08:51:35.474Z</time></trkpt><trkpt lat="44.5976665" lon="10.6477099"><ele>152.42857142857142</ele><time>2026-05-02T08:51:37.576Z</time></trkpt><trkpt lat="44.5976621" lon="10.6478155"><ele>151.85714285714286</ele><time>2026-05-02T08:51:39.577Z</time></trkpt><trkpt lat="44.5976557" lon="10.647911"><ele>151.28571428571428</ele><time>2026-05-02T08:51:41.589Z</time></trkpt><trkpt lat="44.5976461" lon="10.6479986"><ele>150.71428571428572</ele><time>2026-05-02T08:51:43.553Z</time></trkpt><trkpt lat="44.5976287" lon="10.6480955"><ele>150.14285714285714</ele><time>2026-05-02T08:51:45.615Z</time></trkpt><trkpt lat="44.5976065" lon="10.648193"><ele>149.57142857142856</ele><time>2026-05-02T08:51:47.563Z</time></trkpt><trkpt lat="44.597573" lon="10.6482969"><ele>149.0</ele><time>2026-05-02T08:51:49.564Z</time></trkpt><trkpt lat="44.5975408" lon="10.6483772"><ele>149.0</ele><time>2026-05-02T08:51:51.605Z</time></trkpt><trkpt lat="44.5975207" lon="10.6484637"><ele>149.0</ele><time>2026-05-02T08:51:53.562Z</time></trkpt><trkpt lat="44.5975015" lon="10.6485742"><ele>149.0</ele><time>2026-05-02T08:51:56.584Z</time></trkpt><trkpt lat="44.5974784" lon="10.648681"><ele>149.0</ele><time>2026-05-02T08:51:59.599Z</time></trkpt><trkpt lat="44.5974499" lon="10.6487955"><ele>149.0</ele><time>2026-05-02T08:52:02.565Z</time></trkpt><trkpt lat="44.5974129" lon="10.6488963"><ele>149.0</ele><time>2026-05-02T08:52:05.577Z</time></trkpt><trkpt lat="44.5973716" lon="10.6489895"><ele>149.0</ele><time>2026-05-02T08:52:08.475Z</time></trkpt><trkpt lat="44.59732" lon="10.6490894"><ele>149.0</ele><time>2026-05-02T08:52:11.572Z</time></trkpt><trkpt lat="44.5972625" lon="10.6491855"><ele>149.0</ele><time>2026-05-02T08:52:14.601Z</time></trkpt><trkpt lat="44.5972215" lon="10.6492546"><ele>149.0</ele><time>2026-05-02T08:52:16.604Z</time></trkpt><trkpt lat="44.5971749" lon="10.6493363"><ele>149.0</ele><time>2026-05-02T08:52:19.564Z</time></trkpt><trkpt lat="44.5971171" lon="10.6494296"><ele>149.0</ele><time>2026-05-02T08:52:22.563Z</time></trkpt><trkpt lat="44.5970603" lon="10.6495344"><ele>149.33333333333331</ele><time>2026-05-02T08:52:25.564Z</time></trkpt><trkpt lat="44.5970115" lon="10.6496517"><ele>149.66666666666666</ele><time>2026-05-02T08:52:28.477Z</time></trkpt><trkpt lat="44.5969789" lon="10.6497433"><ele>150.0</ele><time>2026-05-02T08:52:30.599Z</time></trkpt><trkpt lat="44.5969351" lon="10.6498504"><ele>150.33333333333334</ele><time>2026-05-02T08:52:33.606Z</time></trkpt><trkpt lat="44.5968831" lon="10.649951"><ele>150.66666666666669</ele><time>2026-05-02T08:52:36.556Z</time></trkpt><trkpt lat="44.596838" lon="10.6500549"><ele>151.0</ele><time>2026-05-02T08:52:39.564Z</time></trkpt><trkpt lat="44.5967948" lon="10.6501513"><ele>151.33333333333334</ele><time>2026-05-02T08:52:42.502Z</time></trkpt><trkpt lat="44.596752" lon="10.6502609"><ele>151.66666666666669</ele><time>2026-05-02T08:52:45.579Z</time></trkpt><trkpt lat="44.5967095" lon="10.6503651"><ele>152.0</ele><time>2026-05-02T08:52:48.597Z</time></trkpt><trkpt lat="44.5966737" lon="10.6504728"><ele>152.33333333333334</ele><time>2026-05-02T08:52:51.538Z</time></trkpt><trkpt lat="44.5966312" lon="10.6505754"><ele>152.66666666666666</ele><time>2026-05-02T08:52:54.535Z</time></trkpt><trkpt lat="44.5965956" lon="10.6506626"><ele>153.0</ele><time>2026-05-02T08:52:56.565Z</time></trkpt><trkpt lat="44.5965482" lon="10.6507699"><ele>153.0</ele><time>2026-05-02T08:52:59.536Z</time></trkpt><trkpt lat="44.5964997" lon="10.6508759"><ele>153.0</ele><time>2026-05-02T08:53:02.614Z</time></trkpt><trkpt lat="44.5964542" lon="10.6509807"><ele>153.0</ele><time>2026-05-02T08:53:05.601Z</time></trkpt><trkpt lat="44.5964141" lon="10.6510793"><ele>153.0</ele><time>2026-05-02T08:53:08.619Z</time></trkpt><trkpt lat="44.5963657" lon="10.6511789"><ele>153.0</ele><time>2026-05-02T08:53:11.578Z</time></trkpt><trkpt lat="44.59631" lon="10.6512809"><ele>153.0</ele><time>2026-05-02T08:53:14.565Z</time></trkpt><trkpt lat="44.5962499" lon="10.6513711"><ele>152.5</ele><time>2026-05-02T08:53:17.495Z</time></trkpt><trkpt lat="44.5961784" lon="10.6514636"><ele>152.0</ele><time>2026-05-02T08:53:20.613Z</time></trkpt><trkpt lat="44.5961316" lon="10.6515285"><ele>151.5</ele><time>2026-05-02T08:53:22.604Z</time></trkpt><trkpt lat="44.5960868" lon="10.6516068"><ele>151.0</ele><time>2026-05-02T08:53:24.616Z</time></trkpt><trkpt lat="44.5960368" lon="10.6516865"><ele>150.5</ele><time>2026-05-02T08:53:26.567Z</time></trkpt><trkpt lat="44.5960005" lon="10.6517627"><ele>150.0</ele><time>2026-05-02T08:53:28.563Z</time></trkpt><trkpt lat="44.5959385" lon="10.6518627"><ele>150.0</ele><time>2026-05-02T08:53:31.564Z</time></trkpt><trkpt lat="44.5958656" lon="10.651941"><ele>150.0</ele><time>2026-05-02T08:53:34.577Z</time></trkpt><trkpt lat="44.595802" lon="10.6520329"><ele>150.0</ele><time>2026-05-02T08:53:37.537Z</time></trkpt><trkpt lat="44.5957451" lon="10.652128"><ele>150.0</ele><time>2026-05-02T08:53:40.614Z</time></trkpt><trkpt lat="44.5956955" lon="10.6522294"><ele>150.0</ele><time>2026-05-02T08:53:43.565Z</time></trkpt><trkpt lat="44.5956416" lon="10.6523203"><ele>150.0</ele><time>2026-05-02T08:53:46.521Z</time></trkpt><trkpt lat="44.5955944" lon="10.6523822"><ele>149.57142857142856</ele><time>2026-05-02T08:53:48.564Z</time></trkpt><trkpt lat="44.5955265" lon="10.6524664"><ele>149.14285714285714</ele><time>2026-05-02T08:53:51.563Z</time></trkpt><trkpt lat="44.5954753" lon="10.6525223"><ele>148.71428571428572</ele><time>2026-05-02T08:53:53.593Z</time></trkpt><trkpt lat="44.5954201" lon="10.6525775"><ele>148.28571428571428</ele><time>2026-05-02T08:53:55.605Z</time></trkpt><trkpt lat="44.5953465" lon="10.6526375"><ele>147.85714285714286</ele><time>2026-05-02T08:53:57.564Z</time></trkpt><trkpt lat="44.5952844" lon="10.6526898"><ele>147.42857142857142</ele><time>2026-05-02T08:53:59.564Z</time></trkpt><trkpt lat="44.5952244" lon="10.6527265"><ele>147.0</ele><time>2026-05-02T08:54:01.573Z</time></trkpt><trkpt lat="44.5951507" lon="10.6527666"><ele>147.28571428571428</ele><time>2026-05-02T08:54:03.563Z</time></trkpt><trkpt lat="44.5950876" lon="10.6527862"><ele>147.57142857142856</ele><time>2026-05-02T08:54:05.577Z</time></trkpt><trkpt lat="44.5950195" lon="10.6528104"><ele>147.85714285714286</ele><time>2026-05-02T08:54:07.578Z</time></trkpt><trkpt lat="44.5949535" lon="10.6528208"><ele>148.14285714285714</ele><time>2026-05-02T08:54:09.582Z</time></trkpt><trkpt lat="44.5948719" lon="10.6528651"><ele>148.42857142857142</ele><time>2026-05-02T08:54:12.609Z</time></trkpt><trkpt lat="44.5948124" lon="10.6528999"><ele>148.71428571428572</ele><time>2026-05-02T08:54:14.581Z</time></trkpt><trkpt lat="44.5947495" lon="10.6529213"><ele>149.0</ele><time>2026-05-02T08:54:16.563Z</time></trkpt><trkpt lat="44.5946829" lon="10.6529764"><ele>149.0</ele><time>2026-05-02T08:54:19.542Z</time></trkpt><trkpt lat="44.5946207" lon="10.6530473"><ele>149.0</ele><time>2026-05-02T08:54:22.569Z</time></trkpt><trkpt lat="44.5945583" lon="10.6531093"><ele>149.0</ele><time>2026-05-02T08:54:25.587Z</time></trkpt><trkpt lat="44.5944744" lon="10.6531665"><ele>149.0</ele><time>2026-05-02T08:54:28.606Z</time></trkpt><trkpt lat="44.5943962" lon="10.6532291"><ele>149.0</ele><time>2026-05-02T08:54:31.563Z</time></trkpt><trkpt lat="44.5943294" lon="10.6532991"><ele>149.0</ele><time>2026-05-02T08:54:34.514Z</time></trkpt><trkpt lat="44.5942625" lon="10.6533871"><ele>149.16666666666666</ele><time>2026-05-02T08:54:37.564Z</time></trkpt><trkpt lat="44.5941974" lon="10.6534577"><ele>149.33333333333331</ele><time>2026-05-02T08:54:40.52Z</time></trkpt><trkpt lat="44.5941224" lon="10.6535068"><ele>149.5</ele><time>2026-05-02T08:54:43.597Z</time></trkpt><trkpt lat="44.5940419" lon="10.6535732"><ele>149.66666666666666</ele><time>2026-05-02T08:54:46.615Z</time></trkpt><trkpt lat="44.5939747" lon="10.6536172"><ele>149.83333333333334</ele><time>2026-05-02T08:54:48.56Z</time></trkpt><trkpt lat="44.5939044" lon="10.6536695"><ele>150.0</ele><time>2026-05-02T08:54:50.591Z</time></trkpt><trkpt lat="44.5938251" lon="10.6537188"><ele>149.99999999999997</ele><time>2026-05-02T08:54:52.564Z</time></trkpt><trkpt lat="44.5937451" lon="10.6537583"><ele>150.0</ele><time>2026-05-02T08:54:54.564Z</time></trkpt><trkpt lat="44.593679" lon="10.6537949"><ele>150.0</ele><time>2026-05-02T08:54:56.498Z</time></trkpt><trkpt lat="44.5936152" lon="10.6538363"><ele>150.0</ele><time>2026-05-02T08:54:58.6Z</time></trkpt><trkpt lat="44.5935537" lon="10.6538638"><ele>150.0</ele><time>2026-05-02T08:55:00.6Z</time></trkpt><trkpt lat="44.5934872" lon="10.653903"><ele>149.99999999999997</ele><time>2026-05-02T08:55:02.514Z</time></trkpt><trkpt lat="44.5934294" lon="10.6539571"><ele>150.0</ele><time>2026-05-02T08:55:04.563Z</time></trkpt><trkpt lat="44.5933828" lon="10.6540185"><ele>149.99999999999997</ele><time>2026-05-02T08:55:06.565Z</time></trkpt><trkpt lat="44.5933348" lon="10.6540805"><ele>150.0</ele><time>2026-05-02T08:55:08.567Z</time></trkpt><trkpt lat="44.5932774" lon="10.6541748"><ele>150.0</ele><time>2026-05-02T08:55:11.538Z</time></trkpt><trkpt lat="44.593233" lon="10.6542661"><ele>150.0</ele><time>2026-05-02T08:55:14.585Z</time></trkpt><trkpt lat="44.5931956" lon="10.6543375"><ele>150.0</ele><time>2026-05-02T08:55:17.503Z</time></trkpt><trkpt lat="44.5931597" lon="10.6544216"><ele>149.99999999999997</ele><time>2026-05-02T08:55:20.622Z</time></trkpt><trkpt lat="44.5931271" lon="10.6545231"><ele>150.0</ele><time>2026-05-02T08:55:24.561Z</time></trkpt><trkpt lat="44.5930999" lon="10.654603"><ele>149.85714285714283</ele><time>2026-05-02T08:55:27.565Z</time></trkpt><trkpt lat="44.5930753" lon="10.6546846"><ele>149.71428571428572</ele><time>2026-05-02T08:55:30.573Z</time></trkpt><trkpt lat="44.59305" lon="10.6547685"><ele>149.57142857142856</ele><time>2026-05-02T08:55:33.512Z</time></trkpt><trkpt lat="44.5930145" lon="10.6548521"><ele>149.42857142857142</ele><time>2026-05-02T08:55:36.563Z</time></trkpt><trkpt lat="44.5929793" lon="10.6549448"><ele>149.28571428571428</ele><time>2026-05-02T08:55:39.56Z</time></trkpt><trkpt lat="44.5929407" lon="10.6550488"><ele>149.14285714285714</ele><time>2026-05-02T08:55:42.599Z</time></trkpt><trkpt lat="44.5929032" lon="10.6551369"><ele>149.0</ele><time>2026-05-02T08:55:45.515Z</time></trkpt><trkpt lat="44.5928518" lon="10.6552265"><ele>149.33333333333331</ele><time>2026-05-02T08:55:48.592Z</time></trkpt><trkpt lat="44.5927852" lon="10.655318"><ele>149.66666666666666</ele><time>2026-05-02T08:55:51.611Z</time></trkpt><trkpt lat="44.5927264" lon="10.655394"><ele>150.0</ele><time>2026-05-02T08:55:53.562Z</time></trkpt><trkpt lat="44.5926772" lon="10.6554572"><ele>150.33333333333334</ele><time>2026-05-02T08:55:55.516Z</time></trkpt><trkpt lat="44.5926244" lon="10.6555312"><ele>150.66666666666669</ele><time>2026-05-02T08:55:57.578Z</time></trkpt><trkpt lat="44.5925709" lon="10.6556116"><ele>151.0</ele><time>2026-05-02T08:55:59.563Z</time></trkpt><trkpt lat="44.5925224" lon="10.6556837"><ele>151.00000000000003</ele><time>2026-05-02T08:56:01.571Z</time></trkpt><trkpt lat="44.5924714" lon="10.655749"><ele>151.0</ele><time>2026-05-02T08:56:03.535Z</time></trkpt><trkpt lat="44.5924189" lon="10.6558111"><ele>151.0</ele><time>2026-05-02T08:56:05.595Z</time></trkpt><trkpt lat="44.5923468" lon="10.6558859"><ele>151.0</ele><time>2026-05-02T08:56:08.614Z</time></trkpt><trkpt lat="44.592286" lon="10.6559413"><ele>151.0</ele><time>2026-05-02T08:56:10.537Z</time></trkpt><trkpt lat="44.5922314" lon="10.6560096"><ele>151.00000000000003</ele><time>2026-05-02T08:56:12.561Z</time></trkpt><trkpt lat="44.5921814" lon="10.6560744"><ele>151.0</ele><time>2026-05-02T08:56:14.56Z</time></trkpt><trkpt lat="44.5921292" lon="10.6561417"><ele>150.71428571428572</ele><time>2026-05-02T08:56:16.562Z</time></trkpt><trkpt lat="44.5920791" lon="10.6562042"><ele>150.42857142857144</ele><time>2026-05-02T08:56:18.56Z</time></trkpt><trkpt lat="44.5920262" lon="10.6562728"><ele>150.14285714285714</ele><time>2026-05-02T08:56:20.586Z</time></trkpt><trkpt lat="44.5919832" lon="10.6563385"><ele>149.85714285714286</ele><time>2026-05-02T08:56:22.5Z</time></trkpt><trkpt lat="44.5919337" lon="10.6564005"><ele>149.57142857142856</ele><time>2026-05-02T08:56:24.612Z</time></trkpt><trkpt lat="44.5918754" lon="10.6564652"><ele>149.28571428571428</ele><time>2026-05-02T08:56:26.623Z</time></trkpt><trkpt lat="44.5918068" lon="10.6565474"><ele>149.0</ele><time>2026-05-02T08:56:29.566Z</time></trkpt><trkpt lat="44.5917493" lon="10.6566227"><ele>149.0</ele><time>2026-05-02T08:56:32.491Z</time></trkpt><trkpt lat="44.5916904" lon="10.6566954"><ele>149.0</ele><time>2026-05-02T08:56:35.578Z</time></trkpt><trkpt lat="44.5916365" lon="10.6567657"><ele>149.0</ele><time>2026-05-02T08:56:38.597Z</time></trkpt><trkpt lat="44.5915843" lon="10.6568352"><ele>149.0</ele><time>2026-05-02T08:56:41.615Z</time></trkpt><trkpt lat="44.5915291" lon="10.6569003"><ele>149.0</ele><time>2026-05-02T08:56:44.568Z</time></trkpt><trkpt lat="44.5914729" lon="10.6569682"><ele>149.0</ele><time>2026-05-02T08:56:47.532Z</time></trkpt><trkpt lat="44.591421" lon="10.6570522"><ele>149.0</ele><time>2026-05-02T08:56:50.57Z</time></trkpt><trkpt lat="44.5913947" lon="10.657167"><ele>148.16666666666666</ele><time>2026-05-02T08:56:53.587Z</time></trkpt><trkpt lat="44.5913975" lon="10.6572956"><ele>147.33333333333331</ele><time>2026-05-02T08:56:56.597Z</time></trkpt><trkpt lat="44.5914158" lon="10.6574215"><ele>146.5</ele><time>2026-05-02T08:56:59.625Z</time></trkpt><trkpt lat="44.5914196" lon="10.6575107"><ele>145.66666666666666</ele><time>2026-05-02T08:57:01.537Z</time></trkpt><trkpt lat="44.5914376" lon="10.6576268"><ele>144.83333333333334</ele><time>2026-05-02T08:57:04.564Z</time></trkpt><trkpt lat="44.5914612" lon="10.6577405"><ele>144.0</ele><time>2026-05-02T08:57:07.575Z</time></trkpt><trkpt lat="44.5914839" lon="10.6578486"><ele>143.2857142857143</ele><time>2026-05-02T08:57:10.59Z</time></trkpt><trkpt lat="44.5915152" lon="10.6579569"><ele>142.57142857142858</ele><time>2026-05-02T08:57:13.61Z</time></trkpt><trkpt lat="44.5915395" lon="10.6580717"><ele>141.85714285714286</ele><time>2026-05-02T08:57:16.566Z</time></trkpt><trkpt lat="44.5915564" lon="10.6581641"><ele>141.14285714285717</ele><time>2026-05-02T08:57:18.64Z</time></trkpt><trkpt lat="44.5915726" lon="10.6582549"><ele>140.42857142857144</ele><time>2026-05-02T08:57:20.553Z</time></trkpt><trkpt lat="44.5915898" lon="10.658354"><ele>139.71428571428572</ele><time>2026-05-02T08:57:22.566Z</time></trkpt><trkpt lat="44.5916072" lon="10.6584509"><ele>139.0</ele><time>2026-05-02T08:57:24.575Z</time></trkpt><trkpt lat="44.5916219" lon="10.6585548"><ele>138.71428571428572</ele><time>2026-05-02T08:57:26.588Z</time></trkpt><trkpt lat="44.5916295" lon="10.6586577"><ele>138.42857142857144</ele><time>2026-05-02T08:57:28.6Z</time></trkpt><trkpt lat="44.591635" lon="10.65876"><ele>138.14285714285717</ele><time>2026-05-02T08:57:30.594Z</time></trkpt><trkpt lat="44.5916381" lon="10.6588605"><ele>137.85714285714286</ele><time>2026-05-02T08:57:32.567Z</time></trkpt><trkpt lat="44.5916392" lon="10.658956"><ele>137.57142857142858</ele><time>2026-05-02T08:57:34.565Z</time></trkpt><trkpt lat="44.59164" lon="10.6590457"><ele>137.2857142857143</ele><time>2026-05-02T08:57:36.531Z</time></trkpt><trkpt lat="44.5916406" lon="10.6591672"><ele>137.0</ele><time>2026-05-02T08:57:39.572Z</time></trkpt><trkpt lat="44.5916325" lon="10.6592689"><ele>137.0</ele><time>2026-05-02T08:57:41.584Z</time></trkpt><trkpt lat="44.5916462" lon="10.6593643"><ele>137.0</ele><time>2026-05-02T08:57:43.492Z</time></trkpt><trkpt lat="44.5916474" lon="10.6594732"><ele>137.0</ele><time>2026-05-02T08:57:45.561Z</time></trkpt><trkpt lat="44.5916497" lon="10.6595764"><ele>137.0</ele><time>2026-05-02T08:57:47.561Z</time></trkpt><trkpt lat="44.5916769" lon="10.6596936"><ele>137.0</ele><time>2026-05-02T08:57:50.568Z</time></trkpt><trkpt lat="44.5916666" lon="10.6597834"><ele>137.0</ele><time>2026-05-02T08:57:52.558Z</time></trkpt><trkpt lat="44.5916486" lon="10.6599098"><ele>136.85714285714286</ele><time>2026-05-02T08:57:55.597Z</time></trkpt><trkpt lat="44.5916856" lon="10.6599856"><ele>136.71428571428572</ele><time>2026-05-02T08:57:57.586Z</time></trkpt><trkpt lat="44.5917378" lon="10.6600922"><ele>136.57142857142856</ele><time>2026-05-02T08:58:00.605Z</time></trkpt><trkpt lat="44.5917393" lon="10.6602078"><ele>136.42857142857144</ele><time>2026-05-02T08:58:03.554Z</time></trkpt><trkpt lat="44.5917656" lon="10.6602923"><ele>136.28571428571428</ele><time>2026-05-02T08:58:05.576Z</time></trkpt><trkpt lat="44.5917914" lon="10.6603858"><ele>136.14285714285714</ele><time>2026-05-02T08:58:07.564Z</time></trkpt><trkpt lat="44.5917913" lon="10.6604837"><ele>136.0</ele><time>2026-05-02T08:58:09.564Z</time></trkpt><trkpt lat="44.5917998" lon="10.6605797"><ele>135.66666666666669</ele><time>2026-05-02T08:58:11.572Z</time></trkpt><trkpt lat="44.591799" lon="10.6607128"><ele>135.33333333333334</ele><time>2026-05-02T08:58:14.531Z</time></trkpt><trkpt lat="44.59179" lon="10.6608372"><ele>135.0</ele><time>2026-05-02T08:58:17.608Z</time></trkpt><trkpt lat="44.5917881" lon="10.6609574"><ele>134.66666666666666</ele><time>2026-05-02T08:58:20.565Z</time></trkpt><trkpt lat="44.5917742" lon="10.6610441"><ele>134.33333333333331</ele><time>2026-05-02T08:58:22.56Z</time></trkpt><trkpt lat="44.5917539" lon="10.6611661"><ele>134.0</ele><time>2026-05-02T08:58:25.561Z</time></trkpt><trkpt lat="44.5917474" lon="10.6612845"><ele>133.33333333333331</ele><time>2026-05-02T08:58:28.575Z</time></trkpt><trkpt lat="44.5917541" lon="10.6613944"><ele>132.66666666666666</ele><time>2026-05-02T08:58:31.495Z</time></trkpt><trkpt lat="44.5917625" lon="10.6614997"><ele>132.0</ele><time>2026-05-02T08:58:34.595Z</time></trkpt><trkpt lat="44.5917715" lon="10.6616079"><ele>131.33333333333334</ele><time>2026-05-02T08:58:37.56Z</time></trkpt><trkpt lat="44.5917754" lon="10.6617267"><ele>130.66666666666669</ele><time>2026-05-02T08:58:40.562Z</time></trkpt><trkpt lat="44.5917538" lon="10.6618527"><ele>130.0</ele><time>2026-05-02T08:58:43.599Z</time></trkpt><trkpt lat="44.591737" lon="10.6619425"><ele>129.66666666666669</ele><time>2026-05-02T08:58:45.632Z</time></trkpt><trkpt lat="44.591722" lon="10.6620293"><ele>129.33333333333334</ele><time>2026-05-02T08:58:47.591Z</time></trkpt><trkpt lat="44.5917038" lon="10.6621175"><ele>129.0</ele><time>2026-05-02T08:58:49.604Z</time></trkpt><trkpt lat="44.5916835" lon="10.6622474"><ele>128.66666666666666</ele><time>2026-05-02T08:58:52.634Z</time></trkpt><trkpt lat="44.5916643" lon="10.6623612"><ele>128.33333333333331</ele><time>2026-05-02T08:58:55.565Z</time></trkpt><trkpt lat="44.5916491" lon="10.6624604"><ele>128.0</ele><time>2026-05-02T08:58:58.509Z</time></trkpt><trkpt lat="44.5916341" lon="10.6625686"><ele>128.0</ele><time>2026-05-02T08:59:01.577Z</time></trkpt><trkpt lat="44.5916013" lon="10.6626901"><ele>127.99999999999999</ele><time>2026-05-02T08:59:04.595Z</time></trkpt><trkpt lat="44.5915647" lon="10.6627711"><ele>128.0</ele><time>2026-05-02T08:59:06.518Z</time></trkpt><trkpt lat="44.5915274" lon="10.6628455"><ele>128.0</ele><time>2026-05-02T08:59:08.572Z</time></trkpt><trkpt lat="44.5914915" lon="10.6629203"><ele>127.99999999999999</ele><time>2026-05-02T08:59:10.563Z</time></trkpt><trkpt lat="44.5914602" lon="10.6629986"><ele>128.0</ele><time>2026-05-02T08:59:12.559Z</time></trkpt><trkpt lat="44.5914186" lon="10.66308"><ele>128.0</ele><time>2026-05-02T08:59:14.564Z</time></trkpt><trkpt lat="44.5913793" lon="10.6631604"><ele>127.33333333333333</ele><time>2026-05-02T08:59:16.569Z</time></trkpt><trkpt lat="44.5913297" lon="10.6632771"><ele>126.66666666666666</ele><time>2026-05-02T08:59:19.587Z</time></trkpt><trkpt lat="44.5912798" lon="10.6633644"><ele>126.0</ele><time>2026-05-02T08:59:22.605Z</time></trkpt><trkpt lat="44.5912068" lon="10.6634324"><ele>125.33333333333334</ele><time>2026-05-02T08:59:25.534Z</time></trkpt><trkpt lat="44.5911546" lon="10.6634959"><ele>124.66666666666667</ele><time>2026-05-02T08:59:27.563Z</time></trkpt><trkpt lat="44.5910781" lon="10.6635482"><ele>124.0</ele><time>2026-05-02T08:59:30.575Z</time></trkpt><trkpt lat="44.5910021" lon="10.6636219"><ele>123.66666666666667</ele><time>2026-05-02T08:59:33.572Z</time></trkpt><trkpt lat="44.5909443" lon="10.6636671"><ele>123.33333333333334</ele><time>2026-05-02T08:59:35.596Z</time></trkpt><trkpt lat="44.5908723" lon="10.6637357"><ele>123.0</ele><time>2026-05-02T08:59:38.602Z</time></trkpt><trkpt lat="44.5908051" lon="10.6638104"><ele>122.66666666666666</ele><time>2026-05-02T08:59:41.621Z</time></trkpt><trkpt lat="44.5907376" lon="10.6638755"><ele>122.33333333333333</ele><time>2026-05-02T08:59:44.491Z</time></trkpt><trkpt lat="44.590681" lon="10.6639456"><ele>122.0</ele><time>2026-05-02T08:59:47.559Z</time></trkpt><trkpt lat="44.5906131" lon="10.6640095"><ele>121.99999999999999</ele><time>2026-05-02T08:59:50.537Z</time></trkpt><trkpt lat="44.5905459" lon="10.6640807"><ele>122.0</ele><time>2026-05-02T08:59:53.594Z</time></trkpt><trkpt lat="44.5904862" lon="10.6641523"><ele>122.0</ele><time>2026-05-02T08:59:56.615Z</time></trkpt><trkpt lat="44.5904261" lon="10.6642346"><ele>122.0</ele><time>2026-05-02T09:00:00.598Z</time></trkpt><trkpt lat="44.5903946" lon="10.6643366"><ele>121.99999999999999</ele><time>2026-05-02T09:00:04.573Z</time></trkpt><trkpt lat="44.5904272" lon="10.6644283"><ele>122.0</ele><time>2026-05-02T09:00:08.585Z</time></trkpt><trkpt lat="44.5904755" lon="10.6645143"><ele>121.49999999999999</ele><time>2026-05-02T09:00:12.571Z</time></trkpt><trkpt lat="44.5905414" lon="10.6645767"><ele>121.0</ele><time>2026-05-02T09:00:15.565Z</time></trkpt><trkpt lat="44.5906246" lon="10.6646493"><ele>120.5</ele><time>2026-05-02T09:00:18.566Z</time></trkpt><trkpt lat="44.5906752" lon="10.6647089"><ele>120.0</ele><time>2026-05-02T09:00:20.61Z</time></trkpt><trkpt lat="44.5907284" lon="10.6648136"><ele>119.49999999999999</ele><time>2026-05-02T09:00:23.576Z</time></trkpt><trkpt lat="44.5907304" lon="10.6649446"><ele>119.0</ele><time>2026-05-02T09:00:26.597Z</time></trkpt><trkpt lat="44.5907012" lon="10.6650672"><ele>119.0</ele><time>2026-05-02T09:00:29.613Z</time></trkpt><trkpt lat="44.590667" lon="10.665147"><ele>119.0</ele><time>2026-05-02T09:00:31.536Z</time></trkpt><trkpt lat="44.5906245" lon="10.6652321"><ele>119.0</ele><time>2026-05-02T09:00:33.599Z</time></trkpt><trkpt lat="44.5905813" lon="10.6653172"><ele>119.0</ele><time>2026-05-02T09:00:35.611Z</time></trkpt><trkpt lat="44.5905403" lon="10.6654045"><ele>119.0</ele><time>2026-05-02T09:00:37.563Z</time></trkpt><trkpt lat="44.5904969" lon="10.6654865"><ele>119.0</ele><time>2026-05-02T09:00:39.574Z</time></trkpt><trkpt lat="44.5904585" lon="10.6655729"><ele>119.0</ele><time>2026-05-02T09:00:41.517Z</time></trkpt><trkpt lat="44.5904224" lon="10.6656611"><ele>117.85714285714286</ele><time>2026-05-02T09:00:43.561Z</time></trkpt><trkpt lat="44.5903862" lon="10.6657441"><ele>116.71428571428572</ele><time>2026-05-02T09:00:45.592Z</time></trkpt><trkpt lat="44.5903578" lon="10.6658338"><ele>115.57142857142857</ele><time>2026-05-02T09:00:47.622Z</time></trkpt><trkpt lat="44.5903191" lon="10.66592"><ele>114.42857142857143</ele><time>2026-05-02T09:00:49.565Z</time></trkpt><trkpt lat="44.5902828" lon="10.6660021"><ele>113.28571428571429</ele><time>2026-05-02T09:00:51.558Z</time></trkpt><trkpt lat="44.5902351" lon="10.6660872"><ele>112.14285714285714</ele><time>2026-05-02T09:00:53.565Z</time></trkpt><trkpt lat="44.5901819" lon="10.6661609"><ele>111.0</ele><time>2026-05-02T09:00:55.571Z</time></trkpt><trkpt lat="44.5901345" lon="10.6662237"><ele>110.33333333333333</ele><time>2026-05-02T09:00:57.536Z</time></trkpt><trkpt lat="44.59008" lon="10.6663157"><ele>109.66666666666666</ele><time>2026-05-02T09:01:00.602Z</time></trkpt><trkpt lat="44.5900348" lon="10.6664037"><ele>109.0</ele><time>2026-05-02T09:01:03.62Z</time></trkpt><trkpt lat="44.5899982" lon="10.6664965"><ele>108.33333333333333</ele><time>2026-05-02T09:01:06.59Z</time></trkpt><trkpt lat="44.5899608" lon="10.6665916"><ele>107.66666666666666</ele><time>2026-05-02T09:01:09.564Z</time></trkpt><trkpt lat="44.5899196" lon="10.6666824"><ele>107.0</ele><time>2026-05-02T09:01:12.596Z</time></trkpt><trkpt lat="44.5898824" lon="10.6667702"><ele>107.00000000000001</ele><time>2026-05-02T09:01:15.593Z</time></trkpt><trkpt lat="44.5898496" lon="10.6668528"><ele>107.0</ele><time>2026-05-02T09:01:18.611Z</time></trkpt><trkpt lat="44.5898207" lon="10.6669378"><ele>107.0</ele><time>2026-05-02T09:01:21.47Z</time></trkpt><trkpt lat="44.5897905" lon="10.6670298"><ele>107.0</ele><time>2026-05-02T09:01:24.564Z</time></trkpt><trkpt lat="44.5897683" lon="10.667129"><ele>107.0</ele><time>2026-05-02T09:01:27.558Z</time></trkpt><trkpt lat="44.5897547" lon="10.6672442"><ele>107.00000000000001</ele><time>2026-05-02T09:01:30.585Z</time></trkpt><trkpt lat="44.5897393" lon="10.6673551"><ele>107.0</ele><time>2026-05-02T09:01:33.555Z</time></trkpt><trkpt lat="44.5897204" lon="10.6674673"><ele>106.99999999999999</ele><time>2026-05-02T09:01:36.622Z</time></trkpt><trkpt lat="44.5896976" lon="10.6675947"><ele>107.0</ele><time>2026-05-02T09:01:39.611Z</time></trkpt><trkpt lat="44.589672" lon="10.6676798"><ele>107.0</ele><time>2026-05-02T09:01:41.563Z</time></trkpt><trkpt lat="44.5896309" lon="10.6677999"><ele>107.0</ele><time>2026-05-02T09:01:44.612Z</time></trkpt><trkpt lat="44.5896023" lon="10.6678842"><ele>106.99999999999999</ele><time>2026-05-02T09:01:46.582Z</time></trkpt><trkpt lat="44.5895671" lon="10.6680031"><ele>107.0</ele><time>2026-05-02T09:01:49.6Z</time></trkpt><trkpt lat="44.5894956" lon="10.6680984"><ele>106.99999999999999</ele><time>2026-05-02T09:01:52.6Z</time></trkpt><trkpt lat="44.5894683" lon="10.6681929"><ele>107.0</ele><time>2026-05-02T09:01:54.565Z</time></trkpt><trkpt lat="44.5894373" lon="10.668279"><ele>107.0</ele><time>2026-05-02T09:01:56.565Z</time></trkpt><trkpt lat="44.5894076" lon="10.6683573"><ele>107.0</ele><time>2026-05-02T09:01:58.563Z</time></trkpt><trkpt lat="44.589381" lon="10.6684378"><ele>106.99999999999999</ele><time>2026-05-02T09:02:00.566Z</time></trkpt><trkpt lat="44.5893421" lon="10.6685582"><ele>107.0</ele><time>2026-05-02T09:02:03.585Z</time></trkpt><trkpt lat="44.5893038" lon="10.6686707"><ele>106.99999999999999</ele><time>2026-05-02T09:02:06.603Z</time></trkpt><trkpt lat="44.5892625" lon="10.6687779"><ele>107.0</ele><time>2026-05-02T09:02:09.621Z</time></trkpt><trkpt lat="44.5892303" lon="10.6688747"><ele>107.0</ele><time>2026-05-02T09:02:12.49Z</time></trkpt><trkpt lat="44.5892007" lon="10.6689825"><ele>107.0</ele><time>2026-05-02T09:02:15.563Z</time></trkpt><trkpt lat="44.5891658" lon="10.669084"><ele>106.99999999999999</ele><time>2026-05-02T09:02:18.617Z</time></trkpt><trkpt lat="44.5891325" lon="10.6691761"><ele>107.0</ele><time>2026-05-02T09:02:21.595Z</time></trkpt><trkpt lat="44.5890978" lon="10.6692696"><ele>106.99999999999999</ele><time>2026-05-02T09:02:24.613Z</time></trkpt><trkpt lat="44.5890547" lon="10.669377"><ele>107.0</ele><time>2026-05-02T09:02:27.572Z</time></trkpt><trkpt lat="44.5890325" lon="10.6694703"><ele>107.0</ele><time>2026-05-02T09:02:30.565Z</time></trkpt><trkpt lat="44.5890036" lon="10.6695657"><ele>107.0</ele><time>2026-05-02T09:02:33.568Z</time></trkpt><trkpt lat="44.5889716" lon="10.66966"><ele>106.99999999999999</ele><time>2026-05-02T09:02:36.617Z</time></trkpt><trkpt lat="44.5889427" lon="10.6697607"><ele>107.0</ele><time>2026-05-02T09:02:39.604Z</time></trkpt><trkpt lat="44.5889128" lon="10.6698724"><ele>106.99999999999999</ele><time>2026-05-02T09:02:42.564Z</time></trkpt><trkpt lat="44.5888882" lon="10.6699664"><ele>107.0</ele><time>2026-05-02T09:02:45.179Z</time></trkpt><trkpt lat="44.5888667" lon="10.6700544"><ele>107.0</ele><time>2026-05-02T09:02:47.563Z</time></trkpt><trkpt lat="44.5888406" lon="10.6701545"><ele>107.0</ele><time>2026-05-02T09:02:50.532Z</time></trkpt><trkpt lat="44.5888103" lon="10.6702586"><ele>106.99999999999999</ele><time>2026-05-02T09:02:53.589Z</time></trkpt><trkpt lat="44.5887828" lon="10.6703675"><ele>107.0</ele><time>2026-05-02T09:02:56.607Z</time></trkpt><trkpt lat="44.5887569" lon="10.6704802"><ele>106.99999999999999</ele><time>2026-05-02T09:02:59.497Z</time></trkpt><trkpt lat="44.588729" lon="10.6705932"><ele>107.0</ele><time>2026-05-02T09:03:02.566Z</time></trkpt><trkpt lat="44.5887023" lon="10.6706986"><ele>107.0</ele><time>2026-05-02T09:03:05.595Z</time></trkpt><trkpt lat="44.588674" lon="10.6708071"><ele>107.0</ele><time>2026-05-02T09:03:08.491Z</time></trkpt><trkpt lat="44.5886518" lon="10.6708948"><ele>106.99999999999999</ele><time>2026-05-02T09:03:10.592Z</time></trkpt><trkpt lat="44.5886114" lon="10.6710022"><ele>107.0</ele><time>2026-05-02T09:03:13.532Z</time></trkpt><trkpt lat="44.5885689" lon="10.6711118"><ele>106.66666666666666</ele><time>2026-05-02T09:03:16.565Z</time></trkpt><trkpt lat="44.5885333" lon="10.671221"><ele>106.33333333333333</ele><time>2026-05-02T09:03:19.559Z</time></trkpt><trkpt lat="44.5885029" lon="10.6713274"><ele>106.0</ele><time>2026-05-02T09:03:22.565Z</time></trkpt><trkpt lat="44.5884797" lon="10.6714314"><ele>105.66666666666666</ele><time>2026-05-02T09:03:25.617Z</time></trkpt><trkpt lat="44.5884533" lon="10.6715323"><ele>105.33333333333333</ele><time>2026-05-02T09:03:28.602Z</time></trkpt><trkpt lat="44.5884132" lon="10.6716466"><ele>105.0</ele><time>2026-05-02T09:03:31.592Z</time></trkpt><trkpt lat="44.5883848" lon="10.6717302"><ele>105.0</ele><time>2026-05-02T09:03:33.564Z</time></trkpt><trkpt lat="44.5883482" lon="10.6718422"><ele>105.0</ele><time>2026-05-02T09:03:36.472Z</time></trkpt><trkpt lat="44.5883057" lon="10.6719287"><ele>105.0</ele><time>2026-05-02T09:03:38.555Z</time></trkpt><trkpt lat="44.5882738" lon="10.6720054"><ele>105.0</ele><time>2026-05-02T09:03:40.576Z</time></trkpt><trkpt lat="44.5882414" lon="10.6721251"><ele>105.0</ele><time>2026-05-02T09:03:43.594Z</time></trkpt><trkpt lat="44.5881988" lon="10.6722297"><ele>105.0</ele><time>2026-05-02T09:03:46.613Z</time></trkpt><trkpt lat="44.5881651" lon="10.6723326"><ele>104.83333333333333</ele><time>2026-05-02T09:03:49.564Z</time></trkpt><trkpt lat="44.5881296" lon="10.6724342"><ele>104.66666666666666</ele><time>2026-05-02T09:03:52.562Z</time></trkpt><trkpt lat="44.5880946" lon="10.6725312"><ele>104.5</ele><time>2026-05-02T09:03:55.538Z</time></trkpt><trkpt lat="44.5880552" lon="10.6726246"><ele>104.33333333333333</ele><time>2026-05-02T09:03:58.585Z</time></trkpt><trkpt lat="44.5880061" lon="10.6727171"><ele>104.16666666666666</ele><time>2026-05-02T09:04:01.534Z</time></trkpt><trkpt lat="44.5879781" lon="10.6728452"><ele>104.0</ele><time>2026-05-02T09:04:04.613Z</time></trkpt><trkpt lat="44.5879489" lon="10.6729673"><ele>103.99999999999999</ele><time>2026-05-02T09:04:07.563Z</time></trkpt><trkpt lat="44.5879136" lon="10.6730854"><ele>104.0</ele><time>2026-05-02T09:04:10.61Z</time></trkpt><trkpt lat="44.5878858" lon="10.6731936"><ele>104.0</ele><time>2026-05-02T09:04:13.479Z</time></trkpt><trkpt lat="44.5878525" lon="10.6733041"><ele>104.0</ele><time>2026-05-02T09:04:16.595Z</time></trkpt><trkpt lat="44.5878093" lon="10.6734042"><ele>103.99999999999999</ele><time>2026-05-02T09:04:19.596Z</time></trkpt><trkpt lat="44.5877651" lon="10.6734932"><ele>104.0</ele><time>2026-05-02T09:04:22.472Z</time></trkpt><trkpt lat="44.5877287" lon="10.6735705"><ele>104.66666666666666</ele><time>2026-05-02T09:04:24.564Z</time></trkpt><trkpt lat="44.5876766" lon="10.6736546"><ele>105.33333333333333</ele><time>2026-05-02T09:04:27.514Z</time></trkpt><trkpt lat="44.5876219" lon="10.6737446"><ele>106.0</ele><time>2026-05-02T09:04:30.58Z</time></trkpt><trkpt lat="44.5875749" lon="10.673832"><ele>106.66666666666666</ele><time>2026-05-02T09:04:33.598Z</time></trkpt><trkpt lat="44.5875287" lon="10.6739091"><ele>107.33333333333333</ele><time>2026-05-02T09:04:36.558Z</time></trkpt><trkpt lat="44.5874819" lon="10.6740089"><ele>108.0</ele><time>2026-05-02T09:04:39.564Z</time></trkpt><trkpt lat="44.5874309" lon="10.6740992"><ele>108.0</ele><time>2026-05-02T09:04:42.566Z</time></trkpt><trkpt lat="44.5873802" lon="10.6741772"><ele>108.0</ele><time>2026-05-02T09:04:45.571Z</time></trkpt><trkpt lat="44.5873303" lon="10.6742567"><ele>108.0</ele><time>2026-05-02T09:04:48.59Z</time></trkpt><trkpt lat="44.5872841" lon="10.6743278"><ele>108.0</ele><time>2026-05-02T09:04:51.591Z</time></trkpt><trkpt lat="44.5872354" lon="10.6744011"><ele>108.0</ele><time>2026-05-02T09:04:54.565Z</time></trkpt><trkpt lat="44.5871825" lon="10.6744903"><ele>108.0</ele><time>2026-05-02T09:04:57.563Z</time></trkpt><trkpt lat="44.5871334" lon="10.6745734"><ele>108.16666666666667</ele><time>2026-05-02T09:05:00.564Z</time></trkpt><trkpt lat="44.5870875" lon="10.6746598"><ele>108.33333333333334</ele><time>2026-05-02T09:05:03.581Z</time></trkpt><trkpt lat="44.5870384" lon="10.6747346"><ele>108.5</ele><time>2026-05-02T09:05:06.551Z</time></trkpt><trkpt lat="44.5869826" lon="10.6748147"><ele>108.66666666666667</ele><time>2026-05-02T09:05:09.56Z</time></trkpt><trkpt lat="44.5869458" lon="10.6748874"><ele>108.83333333333334</ele><time>2026-05-02T09:05:11.564Z</time></trkpt><trkpt lat="44.5868951" lon="10.6749933"><ele>109.0</ele><time>2026-05-02T09:05:14.566Z</time></trkpt><trkpt lat="44.5868583" lon="10.6750991"><ele>109.33333333333334</ele><time>2026-05-02T09:05:17.568Z</time></trkpt><trkpt lat="44.586829" lon="10.6752193"><ele>109.66666666666667</ele><time>2026-05-02T09:05:20.64Z</time></trkpt><trkpt lat="44.586812" lon="10.6753381"><ele>110.0</ele><time>2026-05-02T09:05:23.635Z</time></trkpt><trkpt lat="44.5868023" lon="10.6754501"><ele>110.33333333333334</ele><time>2026-05-02T09:05:26.554Z</time></trkpt><trkpt lat="44.5867886" lon="10.6755516"><ele>110.66666666666667</ele><time>2026-05-02T09:05:29.512Z</time></trkpt><trkpt lat="44.5867799" lon="10.6756498"><ele>111.0</ele><time>2026-05-02T09:05:32.509Z</time></trkpt><trkpt lat="44.5867766" lon="10.6757392"><ele>111.57142857142857</ele><time>2026-05-02T09:05:35.499Z</time></trkpt><trkpt lat="44.5867657" lon="10.6758413"><ele>112.14285714285714</ele><time>2026-05-02T09:05:38.595Z</time></trkpt><trkpt lat="44.5867529" lon="10.6759433"><ele>112.71428571428571</ele><time>2026-05-02T09:05:41.614Z</time></trkpt><trkpt lat="44.5867455" lon="10.6760394"><ele>113.28571428571428</ele><time>2026-05-02T09:05:44.565Z</time></trkpt><trkpt lat="44.5867248" lon="10.6761459"><ele>113.85714285714286</ele><time>2026-05-02T09:05:47.612Z</time></trkpt><trkpt lat="44.5867067" lon="10.6762461"><ele>114.42857142857142</ele><time>2026-05-02T09:05:50.57Z</time></trkpt><trkpt lat="44.5866952" lon="10.6763514"><ele>114.99999999999999</ele><time>2026-05-02T09:05:53.588Z</time></trkpt><trkpt lat="44.5866796" lon="10.6764491"><ele>115.28571428571428</ele><time>2026-05-02T09:05:56.605Z</time></trkpt><trkpt lat="44.5866647" lon="10.676547"><ele>115.57142857142857</ele><time>2026-05-02T09:05:59.564Z</time></trkpt><trkpt lat="44.586647" lon="10.676646"><ele>115.85714285714286</ele><time>2026-05-02T09:06:02.594Z</time></trkpt><trkpt lat="44.5866289" lon="10.6767411"><ele>116.14285714285714</ele><time>2026-05-02T09:06:05.551Z</time></trkpt><trkpt lat="44.5866171" lon="10.676841"><ele>116.42857142857144</ele><time>2026-05-02T09:06:08.578Z</time></trkpt><trkpt lat="44.5866059" lon="10.676941"><ele>116.71428571428572</ele><time>2026-05-02T09:06:11.597Z</time></trkpt><trkpt lat="44.5865966" lon="10.6770488"><ele>117.0</ele><time>2026-05-02T09:06:14.597Z</time></trkpt><trkpt lat="44.5865901" lon="10.6771594"><ele>117.0</ele><time>2026-05-02T09:06:17.515Z</time></trkpt><trkpt lat="44.5865726" lon="10.6772727"><ele>117.0</ele><time>2026-05-02T09:06:20.564Z</time></trkpt><trkpt lat="44.5865563" lon="10.6773832"><ele>117.0</ele><time>2026-05-02T09:06:23.632Z</time></trkpt><trkpt lat="44.586543" lon="10.6774842"><ele>117.0</ele><time>2026-05-02T09:06:26.51Z</time></trkpt><trkpt lat="44.5865303" lon="10.6775966"><ele>117.0</ele><time>2026-05-02T09:06:29.607Z</time></trkpt><trkpt lat="44.5865167" lon="10.6777041"><ele>117.0</ele><time>2026-05-02T09:06:32.597Z</time></trkpt><trkpt lat="44.5864994" lon="10.6778228"><ele>117.0</ele><time>2026-05-02T09:06:35.564Z</time></trkpt><trkpt lat="44.5864871" lon="10.6779261"><ele>117.00000000000001</ele><time>2026-05-02T09:06:38.564Z</time></trkpt><trkpt lat="44.5864768" lon="10.6780247"><ele>117.0</ele><time>2026-05-02T09:06:41.511Z</time></trkpt><trkpt lat="44.5864575" lon="10.6781264"><ele>117.0</ele><time>2026-05-02T09:06:44.599Z</time></trkpt><trkpt lat="44.586437" lon="10.6782251"><ele>117.00000000000001</ele><time>2026-05-02T09:06:47.598Z</time></trkpt><trkpt lat="44.5864256" lon="10.6783221"><ele>117.0</ele><time>2026-05-02T09:06:50.565Z</time></trkpt><trkpt lat="44.5864163" lon="10.6784245"><ele>117.0</ele><time>2026-05-02T09:06:53.565Z</time></trkpt><trkpt lat="44.586406" lon="10.6785268"><ele>116.83333333333333</ele><time>2026-05-02T09:06:56.533Z</time></trkpt><trkpt lat="44.5863963" lon="10.6786357"><ele>116.66666666666666</ele><time>2026-05-02T09:06:59.59Z</time></trkpt><trkpt lat="44.5863841" lon="10.6787393"><ele>116.5</ele><time>2026-05-02T09:07:02.591Z</time></trkpt><trkpt lat="44.5863743" lon="10.6788517"><ele>116.33333333333333</ele><time>2026-05-02T09:07:05.518Z</time></trkpt><trkpt lat="44.5863619" lon="10.6789657"><ele>116.16666666666666</ele><time>2026-05-02T09:07:08.563Z</time></trkpt><trkpt lat="44.5863533" lon="10.6790721"><ele>116.0</ele><time>2026-05-02T09:07:11.564Z</time></trkpt><trkpt lat="44.5863443" lon="10.6791766"><ele>116.00000000000001</ele><time>2026-05-02T09:07:14.553Z</time></trkpt><trkpt lat="44.5863326" lon="10.6792807"><ele>116.0</ele><time>2026-05-02T09:07:17.6Z</time></trkpt><trkpt lat="44.5863217" lon="10.6793718"><ele>116.00000000000001</ele><time>2026-05-02T09:07:20.419Z</time></trkpt><trkpt lat="44.586313" lon="10.6794806"><ele>116.00000000000001</ele><time>2026-05-02T09:07:23.565Z</time></trkpt><trkpt lat="44.586305" lon="10.6795836"><ele>116.0</ele><time>2026-05-02T09:07:26.576Z</time></trkpt><trkpt lat="44.5862941" lon="10.6796883"><ele>116.00000000000001</ele><time>2026-05-02T09:07:29.516Z</time></trkpt><trkpt lat="44.5862828" lon="10.6797917"><ele>116.00000000000001</ele><time>2026-05-02T09:07:32.592Z</time></trkpt><trkpt lat="44.5862659" lon="10.6798886"><ele>116.33333333333333</ele><time>2026-05-02T09:07:35.61Z</time></trkpt><trkpt lat="44.5862472" lon="10.6799813"><ele>116.66666666666666</ele><time>2026-05-02T09:07:38.592Z</time></trkpt><trkpt lat="44.5862334" lon="10.6800766"><ele>117.0</ele><time>2026-05-02T09:07:41.518Z</time></trkpt><trkpt lat="44.5862173" lon="10.6801839"><ele>117.33333333333334</ele><time>2026-05-02T09:07:44.567Z</time></trkpt><trkpt lat="44.5861991" lon="10.680302"><ele>117.66666666666667</ele><time>2026-05-02T09:07:47.584Z</time></trkpt><trkpt lat="44.5861864" lon="10.6804245"><ele>118.0</ele><time>2026-05-02T09:07:50.603Z</time></trkpt><trkpt lat="44.5861765" lon="10.6805362"><ele>119.00000000000001</ele><time>2026-05-02T09:07:53.592Z</time></trkpt><trkpt lat="44.5861729" lon="10.6806593"><ele>120.0</ele><time>2026-05-02T09:07:56.55Z</time></trkpt><trkpt lat="44.5861672" lon="10.6807584"><ele>121.0</ele><time>2026-05-02T09:07:59.479Z</time></trkpt><trkpt lat="44.5861554" lon="10.6808673"><ele>122.0</ele><time>2026-05-02T09:08:02.575Z</time></trkpt><trkpt lat="44.5861448" lon="10.6809717"><ele>123.00000000000001</ele><time>2026-05-02T09:08:05.595Z</time></trkpt><trkpt lat="44.5861384" lon="10.6810797"><ele>124.0</ele><time>2026-05-02T09:08:08.612Z</time></trkpt><trkpt lat="44.5861354" lon="10.6811897"><ele>124.50000000000001</ele><time>2026-05-02T09:08:11.613Z</time></trkpt><trkpt lat="44.5861331" lon="10.681298"><ele>125.0</ele><time>2026-05-02T09:08:14.552Z</time></trkpt><trkpt lat="44.5861261" lon="10.6814077"><ele>125.5</ele><time>2026-05-02T09:08:17.519Z</time></trkpt><trkpt lat="44.5861207" lon="10.6815095"><ele>126.0</ele><time>2026-05-02T09:08:20.586Z</time></trkpt><trkpt lat="44.5861069" lon="10.6816119"><ele>126.50000000000001</ele><time>2026-05-02T09:08:23.604Z</time></trkpt><trkpt lat="44.58609" lon="10.6817185"><ele>127.0</ele><time>2026-05-02T09:08:26.614Z</time></trkpt><trkpt lat="44.586081" lon="10.6818274"><ele>127.66666666666667</ele><time>2026-05-02T09:08:29.532Z</time></trkpt><trkpt lat="44.5860714" lon="10.6819484"><ele>128.33333333333334</ele><time>2026-05-02T09:08:32.564Z</time></trkpt><trkpt lat="44.5860666" lon="10.6820614"><ele>129.0</ele><time>2026-05-02T09:08:35.578Z</time></trkpt><trkpt lat="44.5860641" lon="10.68218"><ele>129.66666666666666</ele><time>2026-05-02T09:08:38.597Z</time></trkpt><trkpt lat="44.5860613" lon="10.6822722"><ele>130.33333333333331</ele><time>2026-05-02T09:08:40.511Z</time></trkpt><trkpt lat="44.5860585" lon="10.6823929"><ele>131.0</ele><time>2026-05-02T09:08:43.564Z</time></trkpt><trkpt lat="44.5860482" lon="10.6824866"><ele>131.0</ele><time>2026-05-02T09:08:45.611Z</time></trkpt><trkpt lat="44.5860279" lon="10.6825759"><ele>131.0</ele><time>2026-05-02T09:08:47.563Z</time></trkpt><trkpt lat="44.5860154" lon="10.6826895"><ele>131.0</ele><time>2026-05-02T09:08:50.57Z</time></trkpt><trkpt lat="44.586001" lon="10.6827954"><ele>131.0</ele><time>2026-05-02T09:08:53.55Z</time></trkpt><trkpt lat="44.5859844" lon="10.6829002"><ele>131.0</ele><time>2026-05-02T09:08:56.607Z</time></trkpt><trkpt lat="44.585971" lon="10.6830011"><ele>131.0</ele><time>2026-05-02T09:08:59.566Z</time></trkpt><trkpt lat="44.5859653" lon="10.6831028"><ele>131.0</ele><time>2026-05-02T09:09:02.495Z</time></trkpt><trkpt lat="44.5859622" lon="10.683215"><ele>131.16666666666666</ele><time>2026-05-02T09:09:05.564Z</time></trkpt><trkpt lat="44.5859571" lon="10.6833154"><ele>131.33333333333331</ele><time>2026-05-02T09:09:08.592Z</time></trkpt><trkpt lat="44.5859532" lon="10.6834214"><ele>131.5</ele><time>2026-05-02T09:09:11.599Z</time></trkpt><trkpt lat="44.5859419" lon="10.6835211"><ele>131.66666666666666</ele><time>2026-05-02T09:09:14.617Z</time></trkpt><trkpt lat="44.5859328" lon="10.6836287"><ele>131.83333333333334</ele><time>2026-05-02T09:09:17.617Z</time></trkpt><trkpt lat="44.5859202" lon="10.683741"><ele>132.0</ele><time>2026-05-02T09:09:20.515Z</time></trkpt><trkpt lat="44.5859076" lon="10.683851"><ele>132.16666666666666</ele><time>2026-05-02T09:09:23.573Z</time></trkpt><trkpt lat="44.5859011" lon="10.683966"><ele>132.33333333333334</ele><time>2026-05-02T09:09:26.591Z</time></trkpt><trkpt lat="44.5858979" lon="10.6840745"><ele>132.5</ele><time>2026-05-02T09:09:29.61Z</time></trkpt><trkpt lat="44.5858898" lon="10.6841805"><ele>132.66666666666669</ele><time>2026-05-02T09:09:32.564Z</time></trkpt><trkpt lat="44.5858806" lon="10.6842835"><ele>132.83333333333334</ele><time>2026-05-02T09:09:35.617Z</time></trkpt><trkpt lat="44.5858749" lon="10.6843954"><ele>133.0</ele><time>2026-05-02T09:09:38.475Z</time></trkpt><trkpt lat="44.5858679" lon="10.6845187"><ele>133.16666666666669</ele><time>2026-05-02T09:09:41.583Z</time></trkpt><trkpt lat="44.585858" lon="10.6846277"><ele>133.33333333333334</ele><time>2026-05-02T09:09:44.572Z</time></trkpt><trkpt lat="44.5858541" lon="10.6847304"><ele>133.5</ele><time>2026-05-02T09:09:47.565Z</time></trkpt><trkpt lat="44.5858561" lon="10.6848462"><ele>133.66666666666666</ele><time>2026-05-02T09:09:50.565Z</time></trkpt><trkpt lat="44.585862" lon="10.6849687"><ele>133.83333333333331</ele><time>2026-05-02T09:09:53.559Z</time></trkpt><trkpt lat="44.5858606" lon="10.6850898"><ele>134.0</ele><time>2026-05-02T09:09:56.476Z</time></trkpt><trkpt lat="44.5858431" lon="10.6852088"><ele>134.0</ele><time>2026-05-02T09:09:59.594Z</time></trkpt><trkpt lat="44.5858308" lon="10.6853318"><ele>134.0</ele><time>2026-05-02T09:10:02.573Z</time></trkpt><trkpt lat="44.5858188" lon="10.6854348"><ele>134.0</ele><time>2026-05-02T09:10:04.563Z</time></trkpt><trkpt lat="44.5858088" lon="10.6855321"><ele>134.0</ele><time>2026-05-02T09:10:06.577Z</time></trkpt><trkpt lat="44.585798" lon="10.6856541"><ele>134.0</ele><time>2026-05-02T09:10:08.565Z</time></trkpt><trkpt lat="44.5857879" lon="10.6857562"><ele>134.0</ele><time>2026-05-02T09:10:10.572Z</time></trkpt><trkpt lat="44.5857788" lon="10.6858495"><ele>134.0</ele><time>2026-05-02T09:10:12.573Z</time></trkpt><trkpt lat="44.585766" lon="10.6859481"><ele>134.0</ele><time>2026-05-02T09:10:14.597Z</time></trkpt><trkpt lat="44.5857544" lon="10.6860496"><ele>134.0</ele><time>2026-05-02T09:10:16.598Z</time></trkpt><trkpt lat="44.5857381" lon="10.6861499"><ele>134.0</ele><time>2026-05-02T09:10:18.611Z</time></trkpt><trkpt lat="44.585706" lon="10.6862485"><ele>134.0</ele><time>2026-05-02T09:10:21.61Z</time></trkpt><trkpt lat="44.5856783" lon="10.6863332"><ele>134.0</ele><time>2026-05-02T09:10:24.565Z</time></trkpt><trkpt lat="44.5856172" lon="10.6863873"><ele>134.0</ele><time>2026-05-02T09:10:27.565Z</time></trkpt><trkpt lat="44.5855466" lon="10.6864304"><ele>134.33333333333331</ele><time>2026-05-02T09:10:30.555Z</time></trkpt><trkpt lat="44.5854536" lon="10.6864543"><ele>134.66666666666666</ele><time>2026-05-02T09:10:33.603Z</time></trkpt><trkpt lat="44.585385" lon="10.6864389"><ele>135.0</ele><time>2026-05-02T09:10:35.615Z</time></trkpt><trkpt lat="44.5853093" lon="10.6864168"><ele>135.33333333333334</ele><time>2026-05-02T09:10:37.627Z</time></trkpt><trkpt lat="44.5852327" lon="10.6864178"><ele>135.66666666666669</ele><time>2026-05-02T09:10:39.563Z</time></trkpt><trkpt lat="44.5851633" lon="10.6864281"><ele>136.0</ele><time>2026-05-02T09:10:41.472Z</time></trkpt><trkpt lat="44.5850872" lon="10.6864431"><ele>136.33333333333334</ele><time>2026-05-02T09:10:44.569Z</time></trkpt><trkpt lat="44.5850204" lon="10.6864584"><ele>136.66666666666669</ele><time>2026-05-02T09:10:47.588Z</time></trkpt><trkpt lat="44.5849491" lon="10.6864907"><ele>137.0</ele><time>2026-05-02T09:10:50.618Z</time></trkpt><trkpt lat="44.5848834" lon="10.6865254"><ele>137.33333333333334</ele><time>2026-05-02T09:10:53.575Z</time></trkpt><trkpt lat="44.5848145" lon="10.6865609"><ele>137.66666666666666</ele><time>2026-05-02T09:10:56.514Z</time></trkpt><trkpt lat="44.5847334" lon="10.6866016"><ele>138.0</ele><time>2026-05-02T09:10:59.564Z</time></trkpt><trkpt lat="44.5846603" lon="10.6866396"><ele>138.0</ele><time>2026-05-02T09:11:02.581Z</time></trkpt><trkpt lat="44.5845868" lon="10.6866818"><ele>138.0</ele><time>2026-05-02T09:11:05.598Z</time></trkpt><trkpt lat="44.584509" lon="10.6867297"><ele>138.0</ele><time>2026-05-02T09:11:08.618Z</time></trkpt><trkpt lat="44.5844399" lon="10.6867755"><ele>138.0</ele><time>2026-05-02T09:11:11.596Z</time></trkpt><trkpt lat="44.5843802" lon="10.6868205"><ele>138.0</ele><time>2026-05-02T09:11:14.574Z</time></trkpt><trkpt lat="44.5843192" lon="10.6868753"><ele>138.0</ele><time>2026-05-02T09:11:17.572Z</time></trkpt><trkpt lat="44.5842621" lon="10.6869221"><ele>138.0</ele><time>2026-05-02T09:11:20.59Z</time></trkpt><trkpt lat="44.5842308" lon="10.6870295"><ele>139.33333333333334</ele><time>2026-05-02T09:11:23.608Z</time></trkpt><trkpt lat="44.5842046" lon="10.6871354"><ele>140.66666666666666</ele><time>2026-05-02T09:11:26.564Z</time></trkpt><trkpt lat="44.5841706" lon="10.6872587"><ele>142.0</ele><time>2026-05-02T09:11:29.564Z</time></trkpt><trkpt lat="44.5841589" lon="10.6873475"><ele>143.33333333333331</ele><time>2026-05-02T09:11:31.564Z</time></trkpt><trkpt lat="44.5841451" lon="10.6874749"><ele>144.66666666666666</ele><time>2026-05-02T09:11:34.537Z</time></trkpt><trkpt lat="44.5841331" lon="10.68757"><ele>146.0</ele><time>2026-05-02T09:11:36.588Z</time></trkpt><trkpt lat="44.5841254" lon="10.687667"><ele>146.0</ele><time>2026-05-02T09:11:38.532Z</time></trkpt><trkpt lat="44.584121" lon="10.6877637"><ele>146.0</ele><time>2026-05-02T09:11:40.613Z</time></trkpt><trkpt lat="44.5841272" lon="10.6878928"><ele>146.0</ele><time>2026-05-02T09:11:43.533Z</time></trkpt><trkpt lat="44.5841289" lon="10.688019"><ele>146.0</ele><time>2026-05-02T09:11:46.563Z</time></trkpt><trkpt lat="44.5841269" lon="10.6881434"><ele>146.0</ele><time>2026-05-02T09:11:49.619Z</time></trkpt><trkpt lat="44.5841237" lon="10.6882592"><ele>146.0</ele><time>2026-05-02T09:11:52.537Z</time></trkpt><trkpt lat="44.584127" lon="10.6883831"><ele>146.0</ele><time>2026-05-02T09:11:55.605Z</time></trkpt><trkpt lat="44.5841337" lon="10.6885026"><ele>146.0</ele><time>2026-05-02T09:11:58.534Z</time></trkpt><trkpt lat="44.5841488" lon="10.6886202"><ele>146.0</ele><time>2026-05-02T09:12:01.594Z</time></trkpt><trkpt lat="44.584162" lon="10.6887507"><ele>146.0</ele><time>2026-05-02T09:12:04.559Z</time></trkpt><trkpt lat="44.5841716" lon="10.6888418"><ele>146.0</ele><time>2026-05-02T09:12:06.513Z</time></trkpt><trkpt lat="44.5841806" lon="10.6889351"><ele>146.0</ele><time>2026-05-02T09:12:08.584Z</time></trkpt><trkpt lat="44.5842016" lon="10.6890613"><ele>146.0</ele><time>2026-05-02T09:12:11.603Z</time></trkpt><trkpt lat="44.5842185" lon="10.6891733"><ele>146.0</ele><time>2026-05-02T09:12:14.565Z</time></trkpt><trkpt lat="44.5842423" lon="10.689277"><ele>146.0</ele><time>2026-05-02T09:12:17.611Z</time></trkpt><trkpt lat="44.5842534" lon="10.6893996"><ele>146.0</ele><time>2026-05-02T09:12:20.499Z</time></trkpt><trkpt lat="44.5842611" lon="10.6895008"><ele>146.0</ele><time>2026-05-02T09:12:23.337Z</time></trkpt><trkpt lat="44.5842719" lon="10.6896321"><ele>146.0</ele><time>2026-05-02T09:12:26.557Z</time></trkpt><trkpt lat="44.5842828" lon="10.6897362"><ele>145.83333333333331</ele><time>2026-05-02T09:12:29.614Z</time></trkpt><trkpt lat="44.5842929" lon="10.689838"><ele>145.66666666666666</ele><time>2026-05-02T09:12:32.564Z</time></trkpt><trkpt lat="44.584295" lon="10.6899573"><ele>145.5</ele><time>2026-05-02T09:12:35.491Z</time></trkpt><trkpt lat="44.5842929" lon="10.6900849"><ele>145.33333333333334</ele><time>2026-05-02T09:12:38.568Z</time></trkpt><trkpt lat="44.5842884" lon="10.6902145"><ele>145.16666666666669</ele><time>2026-05-02T09:12:41.619Z</time></trkpt><trkpt lat="44.5842859" lon="10.6903309"><ele>145.0</ele><time>2026-05-02T09:12:44.536Z</time></trkpt><trkpt lat="44.5842832" lon="10.6904502"><ele>145.0</ele><time>2026-05-02T09:12:47.623Z</time></trkpt><trkpt lat="44.5842823" lon="10.6905493"><ele>145.0</ele><time>2026-05-02T09:12:50.563Z</time></trkpt><trkpt lat="44.5842772" lon="10.6906585"><ele>145.0</ele><time>2026-05-02T09:12:53.612Z</time></trkpt><trkpt lat="44.584264" lon="10.6907463"><ele>145.0</ele><time>2026-05-02T09:12:56.529Z</time></trkpt><trkpt lat="44.5842472" lon="10.6908488"><ele>145.0</ele><time>2026-05-02T09:13:00.514Z</time></trkpt><trkpt lat="44.584239" lon="10.6909565"><ele>145.0</ele><time>2026-05-02T09:13:04.578Z</time></trkpt><trkpt lat="44.5842331" lon="10.6910735"><ele>145.0</ele><time>2026-05-02T09:13:08.553Z</time></trkpt><trkpt lat="44.584234" lon="10.6911629"><ele>145.28571428571428</ele><time>2026-05-02T09:13:11.491Z</time></trkpt><trkpt lat="44.5842305" lon="10.6912546"><ele>145.57142857142858</ele><time>2026-05-02T09:13:14.59Z</time></trkpt><trkpt lat="44.5842258" lon="10.6913529"><ele>145.85714285714286</ele><time>2026-05-02T09:13:17.608Z</time></trkpt><trkpt lat="44.5842229" lon="10.6914497"><ele>146.14285714285714</ele><time>2026-05-02T09:13:20.562Z</time></trkpt><trkpt lat="44.5842147" lon="10.6915429"><ele>146.42857142857144</ele><time>2026-05-02T09:13:23.563Z</time></trkpt><trkpt lat="44.5842055" lon="10.6916335"><ele>146.71428571428572</ele><time>2026-05-02T09:13:26.515Z</time></trkpt><trkpt lat="44.5841978" lon="10.691733"><ele>147.0</ele><time>2026-05-02T09:13:29.58Z</time></trkpt><trkpt lat="44.5842031" lon="10.6918322"><ele>147.16666666666666</ele><time>2026-05-02T09:13:32.599Z</time></trkpt><trkpt lat="44.5841988" lon="10.6919331"><ele>147.33333333333334</ele><time>2026-05-02T09:13:35.562Z</time></trkpt><trkpt lat="44.5841949" lon="10.6920225"><ele>147.5</ele><time>2026-05-02T09:13:38.557Z</time></trkpt><trkpt lat="44.5841927" lon="10.6921315"><ele>147.66666666666669</ele><time>2026-05-02T09:13:41.495Z</time></trkpt><trkpt lat="44.5841965" lon="10.6922452"><ele>147.83333333333334</ele><time>2026-05-02T09:13:44.572Z</time></trkpt><trkpt lat="44.5841982" lon="10.6923827"><ele>148.0</ele><time>2026-05-02T09:13:47.591Z</time></trkpt><trkpt lat="44.5841956" lon="10.6924731"><ele>148.0</ele><time>2026-05-02T09:13:49.614Z</time></trkpt><trkpt lat="44.5841999" lon="10.6925673"><ele>148.0</ele><time>2026-05-02T09:13:51.565Z</time></trkpt><trkpt lat="44.5842076" lon="10.6926871"><ele>148.0</ele><time>2026-05-02T09:13:54.562Z</time></trkpt><trkpt lat="44.5842073" lon="10.692799"><ele>148.0</ele><time>2026-05-02T09:13:57.613Z</time></trkpt><trkpt lat="44.584202" lon="10.6929146"><ele>148.0</ele><time>2026-05-02T09:14:00.552Z</time></trkpt><trkpt lat="44.5841909" lon="10.6930278"><ele>148.0</ele><time>2026-05-02T09:14:03.532Z</time></trkpt><trkpt lat="44.5841833" lon="10.6931408"><ele>148.0</ele><time>2026-05-02T09:14:06.607Z</time></trkpt><trkpt lat="44.5841828" lon="10.6932502"><ele>148.0</ele><time>2026-05-02T09:14:09.562Z</time></trkpt><trkpt lat="44.5841765" lon="10.6933576"><ele>148.0</ele><time>2026-05-02T09:14:12.563Z</time></trkpt><trkpt lat="44.5841682" lon="10.6934616"><ele>148.0</ele><time>2026-05-02T09:14:15.565Z</time></trkpt><trkpt lat="44.5841633" lon="10.6935656"><ele>148.0</ele><time>2026-05-02T09:14:18.553Z</time></trkpt><trkpt lat="44.5841598" lon="10.6936692"><ele>148.0</ele><time>2026-05-02T09:14:21.599Z</time></trkpt><trkpt lat="44.5841512" lon="10.6937702"><ele>148.66666666666669</ele><time>2026-05-02T09:14:24.617Z</time></trkpt><trkpt lat="44.5841391" lon="10.6938739"><ele>149.33333333333334</ele><time>2026-05-02T09:14:27.564Z</time></trkpt><trkpt lat="44.5841277" lon="10.6939776"><ele>150.0</ele><time>2026-05-02T09:14:30.564Z</time></trkpt><trkpt lat="44.5841124" lon="10.6940789"><ele>150.66666666666666</ele><time>2026-05-02T09:14:33.594Z</time></trkpt><trkpt lat="44.5840715" lon="10.6941688"><ele>151.33333333333331</ele><time>2026-05-02T09:14:36.552Z</time></trkpt><trkpt lat="44.5840193" lon="10.6942472"><ele>152.0</ele><time>2026-05-02T09:14:39.609Z</time></trkpt><trkpt lat="44.583995" lon="10.6943483"><ele>152.66666666666666</ele><time>2026-05-02T09:14:42.566Z</time></trkpt><trkpt lat="44.5839687" lon="10.6944471"><ele>153.33333333333331</ele><time>2026-05-02T09:14:45.577Z</time></trkpt><trkpt lat="44.583918" lon="10.6945401"><ele>154.0</ele><time>2026-05-02T09:14:48.565Z</time></trkpt><trkpt lat="44.5838708" lon="10.6946264"><ele>154.66666666666666</ele><time>2026-05-02T09:14:51.583Z</time></trkpt><trkpt lat="44.5838237" lon="10.6947133"><ele>155.33333333333334</ele><time>2026-05-02T09:14:54.573Z</time></trkpt><trkpt lat="44.5837684" lon="10.6948026"><ele>156.0</ele><time>2026-05-02T09:14:57.565Z</time></trkpt><trkpt lat="44.5837137" lon="10.6948923"><ele>156.33333333333334</ele><time>2026-05-02T09:15:00.635Z</time></trkpt><trkpt lat="44.5836497" lon="10.6949783"><ele>156.66666666666666</ele><time>2026-05-02T09:15:03.563Z</time></trkpt><trkpt lat="44.583589" lon="10.6950568"><ele>157.0</ele><time>2026-05-02T09:15:06.558Z</time></trkpt><trkpt lat="44.5835295" lon="10.6951392"><ele>157.33333333333331</ele><time>2026-05-02T09:15:09.593Z</time></trkpt><trkpt lat="44.5834734" lon="10.6952325"><ele>157.66666666666666</ele><time>2026-05-02T09:15:12.513Z</time></trkpt><trkpt lat="44.5834245" lon="10.6952913"><ele>158.0</ele><time>2026-05-02T09:15:14.596Z</time></trkpt><trkpt lat="44.5833692" lon="10.6953643"><ele>156.66666666666666</ele><time>2026-05-02T09:15:16.56Z</time></trkpt><trkpt lat="44.5833177" lon="10.6954361"><ele>155.33333333333331</ele><time>2026-05-02T09:15:18.56Z</time></trkpt><trkpt lat="44.5832608" lon="10.695547"><ele>154.0</ele><time>2026-05-02T09:15:21.578Z</time></trkpt><trkpt lat="44.5832083" lon="10.6956556"><ele>152.66666666666666</ele><time>2026-05-02T09:15:24.585Z</time></trkpt><trkpt lat="44.5831677" lon="10.6957295"><ele>151.33333333333334</ele><time>2026-05-02T09:15:26.598Z</time></trkpt><trkpt lat="44.5831167" lon="10.6958339"><ele>150.0</ele><time>2026-05-02T09:15:29.597Z</time></trkpt><trkpt lat="44.5830737" lon="10.6959422"><ele>149.99999999999997</ele><time>2026-05-02T09:15:32.561Z</time></trkpt><trkpt lat="44.583044" lon="10.6960475"><ele>150.0</ele><time>2026-05-02T09:15:35.575Z</time></trkpt><trkpt lat="44.5830254" lon="10.6961448"><ele>150.0</ele><time>2026-05-02T09:15:38.572Z</time></trkpt><trkpt lat="44.583018" lon="10.6962351"><ele>150.0</ele><time>2026-05-02T09:15:41.571Z</time></trkpt><trkpt lat="44.5830233" lon="10.6963263"><ele>150.0</ele><time>2026-05-02T09:15:44.609Z</time></trkpt><trkpt lat="44.5830487" lon="10.6964194"><ele>149.99999999999997</ele><time>2026-05-02T09:15:47.619Z</time></trkpt><trkpt lat="44.5830795" lon="10.6965172"><ele>150.0</ele><time>2026-05-02T09:15:50.516Z</time></trkpt><trkpt lat="44.5831042" lon="10.696625"><ele>150.14285714285714</ele><time>2026-05-02T09:15:53.566Z</time></trkpt><trkpt lat="44.5831262" lon="10.6967329"><ele>150.28571428571428</ele><time>2026-05-02T09:15:56.582Z</time></trkpt><trkpt lat="44.5831396" lon="10.6968415"><ele>150.42857142857144</ele><time>2026-05-02T09:16:00.607Z</time></trkpt><trkpt lat="44.583165" lon="10.6969235"><ele>150.57142857142856</ele><time>2026-05-02T09:16:03.564Z</time></trkpt><trkpt lat="44.5831941" lon="10.697013"><ele>150.71428571428572</ele><time>2026-05-02T09:16:06.615Z</time></trkpt><trkpt lat="44.5832156" lon="10.697126"><ele>150.85714285714286</ele><time>2026-05-02T09:16:10.613Z</time></trkpt><trkpt lat="44.583216" lon="10.6972251"><ele>151.0</ele><time>2026-05-02T09:16:14.594Z</time></trkpt><trkpt lat="44.5831905" lon="10.6973131"><ele>151.00000000000003</ele><time>2026-05-02T09:16:18.558Z</time></trkpt><trkpt lat="44.5831601" lon="10.6973951"><ele>151.0</ele><time>2026-05-02T09:16:21.578Z</time></trkpt><trkpt lat="44.5831225" lon="10.6974952"><ele>151.0</ele><time>2026-05-02T09:16:24.565Z</time></trkpt><trkpt lat="44.5830814" lon="10.6975885"><ele>151.0</ele><time>2026-05-02T09:16:27.574Z</time></trkpt><trkpt lat="44.5830409" lon="10.6976589"><ele>151.0</ele><time>2026-05-02T09:16:30.593Z</time></trkpt><trkpt lat="44.5830034" lon="10.6977305"><ele>151.00000000000003</ele><time>2026-05-02T09:16:33.61Z</time></trkpt><trkpt lat="44.582961" lon="10.6978046"><ele>151.0</ele><time>2026-05-02T09:16:36.565Z</time></trkpt><trkpt lat="44.5829097" lon="10.697894"><ele>150.33333333333334</ele><time>2026-05-02T09:16:39.563Z</time></trkpt><trkpt lat="44.5828691" lon="10.6979937"><ele>149.66666666666669</ele><time>2026-05-02T09:16:42.578Z</time></trkpt><trkpt lat="44.5828324" lon="10.6980954"><ele>149.0</ele><time>2026-05-02T09:16:45.584Z</time></trkpt><trkpt lat="44.5827913" lon="10.6981877"><ele>148.33333333333334</ele><time>2026-05-02T09:16:48.554Z</time></trkpt><trkpt lat="44.5827442" lon="10.698307"><ele>147.66666666666666</ele><time>2026-05-02T09:16:51.564Z</time></trkpt><trkpt lat="44.5827131" lon="10.6983873"><ele>147.0</ele><time>2026-05-02T09:16:53.494Z</time></trkpt><trkpt lat="44.5826799" lon="10.6984739"><ele>148.16666666666666</ele><time>2026-05-02T09:16:55.637Z</time></trkpt><trkpt lat="44.582645" lon="10.6985785"><ele>149.33333333333334</ele><time>2026-05-02T09:16:58.475Z</time></trkpt><trkpt lat="44.582608" lon="10.6986783"><ele>150.5</ele><time>2026-05-02T09:17:01.582Z</time></trkpt><trkpt lat="44.582574" lon="10.6987719"><ele>151.66666666666669</ele><time>2026-05-02T09:17:04.553Z</time></trkpt><trkpt lat="44.5825474" lon="10.6988602"><ele>152.83333333333334</ele><time>2026-05-02T09:17:07.563Z</time></trkpt><trkpt lat="44.5825255" lon="10.6989461"><ele>154.0</ele><time>2026-05-02T09:17:10.619Z</time></trkpt><trkpt lat="44.5825067" lon="10.6990624"><ele>154.0</ele><time>2026-05-02T09:17:14.553Z</time></trkpt><trkpt lat="44.5824984" lon="10.6991543"><ele>154.0</ele><time>2026-05-02T09:17:17.492Z</time></trkpt><trkpt lat="44.582487" lon="10.6992558"><ele>154.0</ele><time>2026-05-02T09:17:20.599Z</time></trkpt><trkpt lat="44.5824797" lon="10.6993535"><ele>154.0</ele><time>2026-05-02T09:17:23.617Z</time></trkpt><trkpt lat="44.5824755" lon="10.6994574"><ele>154.0</ele><time>2026-05-02T09:17:26.618Z</time></trkpt><trkpt lat="44.5824832" lon="10.6995588"><ele>154.0</ele><time>2026-05-02T09:17:29.556Z</time></trkpt><trkpt lat="44.5824891" lon="10.6996492"><ele>154.0</ele><time>2026-05-02T09:17:32.514Z</time></trkpt><trkpt lat="44.5824986" lon="10.6997503"><ele>154.28571428571428</ele><time>2026-05-02T09:17:35.591Z</time></trkpt><trkpt lat="44.5825119" lon="10.6998422"><ele>154.57142857142856</ele><time>2026-05-02T09:17:38.609Z</time></trkpt><trkpt lat="44.5825286" lon="10.6999298"><ele>154.85714285714286</ele><time>2026-05-02T09:17:41.559Z</time></trkpt><trkpt lat="44.5825386" lon="10.7000189"><ele>155.14285714285714</ele><time>2026-05-02T09:17:44.487Z</time></trkpt><trkpt lat="44.5825326" lon="10.7001242"><ele>155.42857142857142</ele><time>2026-05-02T09:17:47.564Z</time></trkpt><trkpt lat="44.5825203" lon="10.7002246"><ele>155.71428571428572</ele><time>2026-05-02T09:17:50.583Z</time></trkpt><trkpt lat="44.5824963" lon="10.7003226"><ele>156.0</ele><time>2026-05-02T09:17:53.613Z</time></trkpt><trkpt lat="44.5824654" lon="10.7004172"><ele>156.5</ele><time>2026-05-02T09:17:56.551Z</time></trkpt><trkpt lat="44.582431" lon="10.7005227"><ele>157.0</ele><time>2026-05-02T09:17:59.489Z</time></trkpt><trkpt lat="44.5823869" lon="10.700621"><ele>157.5</ele><time>2026-05-02T09:18:02.564Z</time></trkpt><trkpt lat="44.5823355" lon="10.7007215"><ele>158.0</ele><time>2026-05-02T09:18:05.575Z</time></trkpt><trkpt lat="44.5822843" lon="10.7008056"><ele>158.5</ele><time>2026-05-02T09:18:08.593Z</time></trkpt><trkpt lat="44.5822325" lon="10.7008792"><ele>159.0</ele><time>2026-05-02T09:18:11.612Z</time></trkpt><trkpt lat="44.5821778" lon="10.7009612"><ele>159.0</ele><time>2026-05-02T09:18:14.565Z</time></trkpt><trkpt lat="44.5821187" lon="10.7010327"><ele>159.0</ele><time>2026-05-02T09:18:17.611Z</time></trkpt><trkpt lat="44.5820707" lon="10.7011075"><ele>159.0</ele><time>2026-05-02T09:18:20.529Z</time></trkpt><trkpt lat="44.5820147" lon="10.7012078"><ele>159.0</ele><time>2026-05-02T09:18:23.516Z</time></trkpt><trkpt lat="44.5819716" lon="10.7012917"><ele>159.0</ele><time>2026-05-02T09:18:25.597Z</time></trkpt><trkpt lat="44.5819343" lon="10.7013723"><ele>159.0</ele><time>2026-05-02T09:18:27.511Z</time></trkpt><trkpt lat="44.5818822" lon="10.7014817"><ele>159.0</ele><time>2026-05-02T09:18:29.565Z</time></trkpt><trkpt lat="44.5818481" lon="10.7015633"><ele>159.0</ele><time>2026-05-02T09:18:31.557Z</time></trkpt><trkpt lat="44.5818034" lon="10.7016466"><ele>159.0</ele><time>2026-05-02T09:18:33.564Z</time></trkpt><trkpt lat="44.5817385" lon="10.7017427"><ele>159.0</ele><time>2026-05-02T09:18:36.565Z</time></trkpt><trkpt lat="44.5816735" lon="10.7018249"><ele>159.0</ele><time>2026-05-02T09:18:39.595Z</time></trkpt><trkpt lat="44.581608" lon="10.7018981"><ele>159.0</ele><time>2026-05-02T09:18:42.533Z</time></trkpt><trkpt lat="44.5815485" lon="10.701969"><ele>159.0</ele><time>2026-05-02T09:18:45.621Z</time></trkpt><trkpt lat="44.581488" lon="10.7020405"><ele>159.0</ele><time>2026-05-02T09:18:48.565Z</time></trkpt><trkpt lat="44.5814234" lon="10.702101"><ele>159.0</ele><time>2026-05-02T09:18:51.609Z</time></trkpt><trkpt lat="44.5813546" lon="10.7021844"><ele>159.0</ele><time>2026-05-02T09:18:54.537Z</time></trkpt><trkpt lat="44.5813079" lon="10.7022465"><ele>159.0</ele><time>2026-05-02T09:18:56.588Z</time></trkpt><trkpt lat="44.581246" lon="10.7023179"><ele>159.0</ele><time>2026-05-02T09:18:59.632Z</time></trkpt><trkpt lat="44.5811829" lon="10.7023961"><ele>159.83333333333334</ele><time>2026-05-02T09:19:02.536Z</time></trkpt><trkpt lat="44.5811327" lon="10.7024617"><ele>160.66666666666666</ele><time>2026-05-02T09:19:04.563Z</time></trkpt><trkpt lat="44.5810792" lon="10.7025656"><ele>161.5</ele><time>2026-05-02T09:19:07.587Z</time></trkpt><trkpt lat="44.5810431" lon="10.7026758"><ele>162.33333333333331</ele><time>2026-05-02T09:19:10.475Z</time></trkpt><trkpt lat="44.5810238" lon="10.7027869"><ele>163.16666666666666</ele><time>2026-05-02T09:19:13.592Z</time></trkpt><trkpt lat="44.5810058" lon="10.7028963"><ele>164.0</ele><time>2026-05-02T09:19:16.611Z</time></trkpt><trkpt lat="44.5809913" lon="10.7030059"><ele>164.0</ele><time>2026-05-02T09:19:19.564Z</time></trkpt><trkpt lat="44.5809785" lon="10.7031193"><ele>164.0</ele><time>2026-05-02T09:19:22.564Z</time></trkpt><trkpt lat="44.5809677" lon="10.7032282"><ele>164.0</ele><time>2026-05-02T09:19:25.513Z</time></trkpt><trkpt lat="44.5809656" lon="10.7033439"><ele>164.0</ele><time>2026-05-02T09:19:28.585Z</time></trkpt><trkpt lat="44.5809592" lon="10.7034619"><ele>164.0</ele><time>2026-05-02T09:19:31.535Z</time></trkpt><trkpt lat="44.5809453" lon="10.7035852"><ele>164.0</ele><time>2026-05-02T09:19:34.564Z</time></trkpt><trkpt lat="44.5809364" lon="10.7037075"><ele>163.85714285714283</ele><time>2026-05-02T09:19:37.471Z</time></trkpt><trkpt lat="44.5809261" lon="10.703799"><ele>163.71428571428572</ele><time>2026-05-02T09:19:39.574Z</time></trkpt><trkpt lat="44.5809177" lon="10.703891"><ele>163.57142857142856</ele><time>2026-05-02T09:19:41.564Z</time></trkpt><trkpt lat="44.5809087" lon="10.7039889"><ele>163.42857142857142</ele><time>2026-05-02T09:19:43.578Z</time></trkpt><trkpt lat="44.5808986" lon="10.7040796"><ele>163.28571428571428</ele><time>2026-05-02T09:19:45.57Z</time></trkpt><trkpt lat="44.5808927" lon="10.70417"><ele>163.14285714285714</ele><time>2026-05-02T09:19:47.602Z</time></trkpt><trkpt lat="44.5808842" lon="10.7042636"><ele>163.0</ele><time>2026-05-02T09:19:49.614Z</time></trkpt><trkpt lat="44.5808761" lon="10.7043521"><ele>162.33333333333334</ele><time>2026-05-02T09:19:51.567Z</time></trkpt><trkpt lat="44.5808649" lon="10.7044747"><ele>161.66666666666669</ele><time>2026-05-02T09:19:54.564Z</time></trkpt><trkpt lat="44.5808592" lon="10.7045812"><ele>161.0</ele><time>2026-05-02T09:19:57.564Z</time></trkpt><trkpt lat="44.5808566" lon="10.7046901"><ele>160.33333333333334</ele><time>2026-05-02T09:20:00.582Z</time></trkpt><trkpt lat="44.5808647" lon="10.7048152"><ele>159.66666666666666</ele><time>2026-05-02T09:20:03.572Z</time></trkpt><trkpt lat="44.580866" lon="10.7049453"><ele>159.0</ele><time>2026-05-02T09:20:06.564Z</time></trkpt><trkpt lat="44.5808545" lon="10.7050712"><ele>159.0</ele><time>2026-05-02T09:20:09.528Z</time></trkpt><trkpt lat="44.5808595" lon="10.7052093"><ele>159.0</ele><time>2026-05-02T09:20:12.565Z</time></trkpt><trkpt lat="44.5809029" lon="10.7053015"><ele>159.0</ele><time>2026-05-02T09:20:15.596Z</time></trkpt><trkpt lat="44.580968" lon="10.7053584"><ele>159.0</ele><time>2026-05-02T09:20:18.592Z</time></trkpt><trkpt lat="44.5810255" lon="10.7054221"><ele>159.0</ele><time>2026-05-02T09:20:21.611Z</time></trkpt><trkpt lat="44.5810815" lon="10.7054956"><ele>159.0</ele><time>2026-05-02T09:20:24.491Z</time></trkpt><trkpt lat="44.5811499" lon="10.7055694"><ele>157.83333333333334</ele><time>2026-05-02T09:20:27.63Z</time></trkpt><trkpt lat="44.5812195" lon="10.7056401"><ele>156.66666666666666</ele><time>2026-05-02T09:20:30.566Z</time></trkpt><trkpt lat="44.5812948" lon="10.7057065"><ele>155.5</ele><time>2026-05-02T09:20:33.616Z</time></trkpt><trkpt lat="44.5813758" lon="10.705763"><ele>154.33333333333331</ele><time>2026-05-02T09:20:36.603Z</time></trkpt><trkpt lat="44.5814531" lon="10.7058285"><ele>153.16666666666666</ele><time>2026-05-02T09:20:39.614Z</time></trkpt><trkpt lat="44.5815269" lon="10.7058946"><ele>152.0</ele><time>2026-05-02T09:20:42.565Z</time></trkpt><trkpt lat="44.5816028" lon="10.705959"><ele>152.0</ele><time>2026-05-02T09:20:45.55Z</time></trkpt><trkpt lat="44.5816704" lon="10.7060212"><ele>152.0</ele><time>2026-05-02T09:20:48.577Z</time></trkpt><trkpt lat="44.5817368" lon="10.7060911"><ele>152.0</ele><time>2026-05-02T09:20:51.537Z</time></trkpt><trkpt lat="44.5818051" lon="10.706144"><ele>152.0</ele><time>2026-05-02T09:20:54.614Z</time></trkpt><trkpt lat="44.581877" lon="10.7061899"><ele>152.0</ele><time>2026-05-02T09:20:57.573Z</time></trkpt><trkpt lat="44.5819476" lon="10.7062428"><ele>152.0</ele><time>2026-05-02T09:21:00.565Z</time></trkpt><trkpt lat="44.5820122" lon="10.7062862"><ele>150.5</ele><time>2026-05-02T09:21:03.491Z</time></trkpt><trkpt lat="44.5820854" lon="10.706328"><ele>149.0</ele><time>2026-05-02T09:21:06.609Z</time></trkpt><trkpt lat="44.5821561" lon="10.7063426"><ele>147.5</ele><time>2026-05-02T09:21:09.417Z</time></trkpt><trkpt lat="44.5822436" lon="10.7063725"><ele>146.0</ele><time>2026-05-02T09:21:12.625Z</time></trkpt><trkpt lat="44.5823101" lon="10.7064607"><ele>144.5</ele><time>2026-05-02T09:21:14.609Z</time></trkpt><trkpt lat="44.5823645" lon="10.7065299"><ele>143.0</ele><time>2026-05-02T09:21:16.564Z</time></trkpt><trkpt lat="44.5824478" lon="10.7065746"><ele>143.0</ele><time>2026-05-02T09:21:18.565Z</time></trkpt><trkpt lat="44.5825301" lon="10.7066076"><ele>143.0</ele><time>2026-05-02T09:21:20.535Z</time></trkpt><trkpt lat="44.5826065" lon="10.7066671"><ele>143.0</ele><time>2026-05-02T09:21:22.586Z</time></trkpt><trkpt lat="44.5826705" lon="10.7067393"><ele>143.0</ele><time>2026-05-02T09:21:24.599Z</time></trkpt><trkpt lat="44.5827321" lon="10.7068123"><ele>143.0</ele><time>2026-05-02T09:21:26.612Z</time></trkpt><trkpt lat="44.5827877" lon="10.7068756"><ele>143.0</ele><time>2026-05-02T09:21:28.556Z</time></trkpt><trkpt lat="44.5828485" lon="10.7069445"><ele>142.66666666666666</ele><time>2026-05-02T09:21:30.565Z</time></trkpt><trkpt lat="44.5829102" lon="10.7070115"><ele>142.33333333333331</ele><time>2026-05-02T09:21:32.565Z</time></trkpt><trkpt lat="44.5829669" lon="10.707077"><ele>142.0</ele><time>2026-05-02T09:21:34.51Z</time></trkpt><trkpt lat="44.5830301" lon="10.7071417"><ele>141.66666666666666</ele><time>2026-05-02T09:21:36.594Z</time></trkpt><trkpt lat="44.5830934" lon="10.7072061"><ele>141.33333333333334</ele><time>2026-05-02T09:21:38.584Z</time></trkpt><trkpt lat="44.5831552" lon="10.7072857"><ele>141.0</ele><time>2026-05-02T09:21:40.497Z</time></trkpt><trkpt lat="44.5832178" lon="10.7073684"><ele>141.0</ele><time>2026-05-02T09:21:42.53Z</time></trkpt><trkpt lat="44.5832804" lon="10.7074408"><ele>141.0</ele><time>2026-05-02T09:21:44.622Z</time></trkpt><trkpt lat="44.5833465" lon="10.7075058"><ele>141.0</ele><time>2026-05-02T09:21:46.562Z</time></trkpt><trkpt lat="44.5834064" lon="10.7075715"><ele>141.0</ele><time>2026-05-02T09:21:48.557Z</time></trkpt><trkpt lat="44.5834726" lon="10.7076436"><ele>141.0</ele><time>2026-05-02T09:21:50.564Z</time></trkpt><trkpt lat="44.5835554" lon="10.7077164"><ele>141.0</ele><time>2026-05-02T09:21:53.576Z</time></trkpt><trkpt lat="44.5836189" lon="10.7077335"><ele>140.66666666666666</ele><time>2026-05-02T09:21:55.551Z</time></trkpt><trkpt lat="44.5836307" lon="10.7078529"><ele>140.33333333333334</ele><time>2026-05-02T09:21:57.601Z</time></trkpt><trkpt lat="44.5836602" lon="10.7079364"><ele>140.0</ele><time>2026-05-02T09:21:59.613Z</time></trkpt><trkpt lat="44.5837248" lon="10.708004"><ele>139.66666666666669</ele><time>2026-05-02T09:22:01.579Z</time></trkpt><trkpt lat="44.5838172" lon="10.7079408"><ele>139.33333333333334</ele><time>2026-05-02T09:22:02.613Z</time></trkpt><trkpt lat="44.5838937" lon="10.7079517"><ele>139.0</ele><time>2026-05-02T09:22:04.563Z</time></trkpt><trkpt lat="44.5839587" lon="10.708047"><ele>138.33333333333334</ele><time>2026-05-02T09:22:06.566Z</time></trkpt><trkpt lat="44.5840187" lon="10.708111"><ele>137.66666666666669</ele><time>2026-05-02T09:22:08.61Z</time></trkpt><trkpt lat="44.5841115" lon="10.7081576"><ele>137.0</ele><time>2026-05-02T09:22:11.587Z</time></trkpt><trkpt lat="44.5842015" lon="10.7082025"><ele>136.33333333333334</ele><time>2026-05-02T09:22:14.597Z</time></trkpt><trkpt lat="44.5842875" lon="10.7082538"><ele>135.66666666666666</ele><time>2026-05-02T09:22:17.563Z</time></trkpt><trkpt lat="44.5843439" lon="10.7082953"><ele>135.0</ele><time>2026-05-02T09:22:19.528Z</time></trkpt><trkpt lat="44.5844043" lon="10.7083409"><ele>135.0</ele><time>2026-05-02T09:22:21.565Z</time></trkpt><trkpt lat="44.5844649" lon="10.708372"><ele>135.0</ele><time>2026-05-02T09:22:23.564Z</time></trkpt><trkpt lat="44.584528" lon="10.7083961"><ele>135.0</ele><time>2026-05-02T09:22:25.594Z</time></trkpt><trkpt lat="44.5845909" lon="10.7084233"><ele>135.0</ele><time>2026-05-02T09:22:27.585Z</time></trkpt><trkpt lat="44.584655" lon="10.7084562"><ele>135.0</ele><time>2026-05-02T09:22:29.598Z</time></trkpt><trkpt lat="44.5847201" lon="10.7084825"><ele>135.0</ele><time>2026-05-02T09:22:31.572Z</time></trkpt><trkpt lat="44.5847827" lon="10.7085005"><ele>135.0</ele><time>2026-05-02T09:22:33.622Z</time></trkpt><trkpt lat="44.584868" lon="10.7085315"><ele>134.66666666666666</ele><time>2026-05-02T09:22:36.511Z</time></trkpt><trkpt lat="44.5849445" lon="10.7085771"><ele>134.33333333333334</ele><time>2026-05-02T09:22:39.636Z</time></trkpt><trkpt lat="44.5850075" lon="10.7086297"><ele>134.0</ele><time>2026-05-02T09:22:42.489Z</time></trkpt><trkpt lat="44.5850702" lon="10.7086729"><ele>133.66666666666669</ele><time>2026-05-02T09:22:45.597Z</time></trkpt><trkpt lat="44.585138" lon="10.7086874"><ele>133.33333333333334</ele><time>2026-05-02T09:22:48.614Z</time></trkpt><trkpt lat="44.5852242" lon="10.7087324"><ele>133.0</ele><time>2026-05-02T09:22:51.615Z</time></trkpt><trkpt lat="44.5852924" lon="10.7087518"><ele>132.71428571428572</ele><time>2026-05-02T09:22:53.563Z</time></trkpt><trkpt lat="44.5853617" lon="10.7087758"><ele>132.42857142857144</ele><time>2026-05-02T09:22:55.563Z</time></trkpt><trkpt lat="44.5854253" lon="10.7088107"><ele>132.14285714285714</ele><time>2026-05-02T09:22:57.532Z</time></trkpt><trkpt lat="44.5854949" lon="10.7088376"><ele>131.85714285714286</ele><time>2026-05-02T09:22:59.582Z</time></trkpt><trkpt lat="44.5855713" lon="10.7088715"><ele>131.57142857142858</ele><time>2026-05-02T09:23:01.594Z</time></trkpt><trkpt lat="44.585644" lon="10.7088968"><ele>131.28571428571428</ele><time>2026-05-02T09:23:03.606Z</time></trkpt><trkpt lat="44.585714" lon="10.7089169"><ele>131.0</ele><time>2026-05-02T09:23:05.591Z</time></trkpt><trkpt lat="44.5857852" lon="10.7089468"><ele>131.0</ele><time>2026-05-02T09:23:07.567Z</time></trkpt><trkpt lat="44.5858517" lon="10.7089786"><ele>131.0</ele><time>2026-05-02T09:23:09.534Z</time></trkpt><trkpt lat="44.5859223" lon="10.7090065"><ele>131.0</ele><time>2026-05-02T09:23:11.565Z</time></trkpt><trkpt lat="44.5859907" lon="10.7090314"><ele>131.0</ele><time>2026-05-02T09:23:13.567Z</time></trkpt><trkpt lat="44.5860528" lon="10.7090666"><ele>131.0</ele><time>2026-05-02T09:23:15.491Z</time></trkpt><trkpt lat="44.5861137" lon="10.7091066"><ele>131.0</ele><time>2026-05-02T09:23:17.613Z</time></trkpt><trkpt lat="44.5861733" lon="10.7091371"><ele>131.0</ele><time>2026-05-02T09:23:19.564Z</time></trkpt><trkpt lat="44.5862522" lon="10.7091991"><ele>130.85714285714286</ele><time>2026-05-02T09:23:22.595Z</time></trkpt><trkpt lat="44.5863157" lon="10.709265"><ele>130.71428571428572</ele><time>2026-05-02T09:23:25.563Z</time></trkpt><trkpt lat="44.5863768" lon="10.709311"><ele>130.57142857142858</ele><time>2026-05-02T09:23:28.56Z</time></trkpt><trkpt lat="44.5864385" lon="10.7093455"><ele>130.42857142857144</ele><time>2026-05-02T09:23:31.579Z</time></trkpt><trkpt lat="44.586515" lon="10.7093947"><ele>130.28571428571428</ele><time>2026-05-02T09:23:35.602Z</time></trkpt><trkpt lat="44.5865521" lon="10.7094886"><ele>130.14285714285717</ele><time>2026-05-02T09:23:39.562Z</time></trkpt><trkpt lat="44.5865432" lon="10.7095866"><ele>130.0</ele><time>2026-05-02T09:23:42.537Z</time></trkpt><trkpt lat="44.5865361" lon="10.7097047"><ele>129.83333333333334</ele><time>2026-05-02T09:23:45.564Z</time></trkpt><trkpt lat="44.5865182" lon="10.7098113"><ele>129.66666666666669</ele><time>2026-05-02T09:23:48.582Z</time></trkpt><trkpt lat="44.5864943" lon="10.7099142"><ele>129.5</ele><time>2026-05-02T09:23:51.514Z</time></trkpt><trkpt lat="44.5864692" lon="10.7100141"><ele>129.33333333333334</ele><time>2026-05-02T09:23:54.563Z</time></trkpt><trkpt lat="44.5864439" lon="10.7101132"><ele>129.16666666666666</ele><time>2026-05-02T09:23:57.565Z</time></trkpt><trkpt lat="44.5864115" lon="10.7102135"><ele>129.0</ele><time>2026-05-02T09:24:00.564Z</time></trkpt><trkpt lat="44.5863726" lon="10.7103072"><ele>128.66666666666666</ele><time>2026-05-02T09:24:03.574Z</time></trkpt><trkpt lat="44.586322" lon="10.7104058"><ele>128.33333333333334</ele><time>2026-05-02T09:24:06.534Z</time></trkpt><trkpt lat="44.5862801" lon="10.7105072"><ele>128.0</ele><time>2026-05-02T09:24:09.562Z</time></trkpt><trkpt lat="44.5862408" lon="10.7106051"><ele>127.66666666666667</ele><time>2026-05-02T09:24:12.59Z</time></trkpt><trkpt lat="44.5862013" lon="10.7106923"><ele>127.33333333333334</ele><time>2026-05-02T09:24:15.468Z</time></trkpt><trkpt lat="44.5861586" lon="10.7107775"><ele>127.0</ele><time>2026-05-02T09:24:18.566Z</time></trkpt><trkpt lat="44.5861153" lon="10.7108669"><ele>127.57142857142858</ele><time>2026-05-02T09:24:21.584Z</time></trkpt><trkpt lat="44.5860747" lon="10.7109538"><ele>128.14285714285714</ele><time>2026-05-02T09:24:24.555Z</time></trkpt><trkpt lat="44.5860291" lon="10.7110356"><ele>128.71428571428572</ele><time>2026-05-02T09:24:27.563Z</time></trkpt><trkpt lat="44.5859868" lon="10.7111138"><ele>129.28571428571428</ele><time>2026-05-02T09:24:30.564Z</time></trkpt><trkpt lat="44.5859417" lon="10.7111947"><ele>129.85714285714286</ele><time>2026-05-02T09:24:33.563Z</time></trkpt><trkpt lat="44.5858972" lon="10.7112732"><ele>130.42857142857144</ele><time>2026-05-02T09:24:36.508Z</time></trkpt><trkpt lat="44.5858519" lon="10.7113631"><ele>131.0</ele><time>2026-05-02T09:24:39.595Z</time></trkpt><trkpt lat="44.5858073" lon="10.711452"><ele>131.0</ele><time>2026-05-02T09:24:42.596Z</time></trkpt><trkpt lat="44.5857621" lon="10.7115498"><ele>131.0</ele><time>2026-05-02T09:24:45.472Z</time></trkpt><trkpt lat="44.5857163" lon="10.7116477"><ele>131.0</ele><time>2026-05-02T09:24:48.565Z</time></trkpt><trkpt lat="44.5856653" lon="10.7117373"><ele>131.0</ele><time>2026-05-02T09:24:51.469Z</time></trkpt><trkpt lat="44.5856124" lon="10.7118213"><ele>131.0</ele><time>2026-05-02T09:24:54.586Z</time></trkpt><trkpt lat="44.5855568" lon="10.7118986"><ele>131.0</ele><time>2026-05-02T09:24:57.558Z</time></trkpt><trkpt lat="44.5855017" lon="10.711983"><ele>131.16666666666666</ele><time>2026-05-02T09:25:00.564Z</time></trkpt><trkpt lat="44.5854422" lon="10.7120675"><ele>131.33333333333331</ele><time>2026-05-02T09:25:03.564Z</time></trkpt><trkpt lat="44.5853848" lon="10.7121511"><ele>131.5</ele><time>2026-05-02T09:25:06.471Z</time></trkpt><trkpt lat="44.5853299" lon="10.7122501"><ele>131.66666666666666</ele><time>2026-05-02T09:25:09.578Z</time></trkpt><trkpt lat="44.585269" lon="10.71235"><ele>131.83333333333334</ele><time>2026-05-02T09:25:12.598Z</time></trkpt><trkpt lat="44.5852169" lon="10.7124505"><ele>132.0</ele><time>2026-05-02T09:25:15.62Z</time></trkpt><trkpt lat="44.5851645" lon="10.7125432"><ele>132.0</ele><time>2026-05-02T09:25:18.565Z</time></trkpt><trkpt lat="44.5851222" lon="10.7126489"><ele>132.0</ele><time>2026-05-02T09:25:21.554Z</time></trkpt><trkpt lat="44.585081" lon="10.7127525"><ele>132.0</ele><time>2026-05-02T09:25:24.57Z</time></trkpt><trkpt lat="44.5850411" lon="10.7128546"><ele>132.0</ele><time>2026-05-02T09:25:27.409Z</time></trkpt><trkpt lat="44.5850076" lon="10.7129371"><ele>132.0</ele><time>2026-05-02T09:25:29.553Z</time></trkpt><trkpt lat="44.5849519" lon="10.7130574"><ele>132.0</ele><time>2026-05-02T09:25:32.62Z</time></trkpt><trkpt lat="44.5849092" lon="10.7131412"><ele>131.42857142857142</ele><time>2026-05-02T09:25:34.564Z</time></trkpt><trkpt lat="44.5848719" lon="10.7132255"><ele>130.85714285714286</ele><time>2026-05-02T09:25:36.556Z</time></trkpt><trkpt lat="44.5848311" lon="10.7133073"><ele>130.28571428571428</ele><time>2026-05-02T09:25:38.629Z</time></trkpt><trkpt lat="44.5847979" lon="10.713385"><ele>129.71428571428572</ele><time>2026-05-02T09:25:40.568Z</time></trkpt><trkpt lat="44.5847596" lon="10.7134731"><ele>129.14285714285714</ele><time>2026-05-02T09:25:42.572Z</time></trkpt><trkpt lat="44.5847199" lon="10.7135455"><ele>128.57142857142856</ele><time>2026-05-02T09:25:44.594Z</time></trkpt><trkpt lat="44.5846717" lon="10.71361"><ele>128.0</ele><time>2026-05-02T09:25:46.605Z</time></trkpt><trkpt lat="44.5846047" lon="10.7136993"><ele>127.99999999999999</ele><time>2026-05-02T09:25:49.618Z</time></trkpt><trkpt lat="44.5845343" lon="10.7137793"><ele>128.0</ele><time>2026-05-02T09:25:52.564Z</time></trkpt><trkpt lat="44.5844869" lon="10.7138381"><ele>128.0</ele><time>2026-05-02T09:25:54.576Z</time></trkpt><trkpt lat="44.5844374" lon="10.7139031"><ele>128.0</ele><time>2026-05-02T09:25:56.566Z</time></trkpt><trkpt lat="44.584381" lon="10.7139996"><ele>127.99999999999999</ele><time>2026-05-02T09:25:59.558Z</time></trkpt><trkpt lat="44.5843449" lon="10.7140772"><ele>128.0</ele><time>2026-05-02T09:26:01.598Z</time></trkpt><trkpt lat="44.5842895" lon="10.7141786"><ele>127.99999999999999</ele><time>2026-05-02T09:26:04.517Z</time></trkpt><trkpt lat="44.5842413" lon="10.7142505"><ele>128.0</ele><time>2026-05-02T09:26:06.563Z</time></trkpt><trkpt lat="44.58419" lon="10.7143403"><ele>128.0</ele><time>2026-05-02T09:26:09.563Z</time></trkpt><trkpt lat="44.5841481" lon="10.7144327"><ele>128.0</ele><time>2026-05-02T09:26:12.564Z</time></trkpt><trkpt lat="44.5841035" lon="10.714525"><ele>127.99999999999999</ele><time>2026-05-02T09:26:15.554Z</time></trkpt><trkpt lat="44.5840594" lon="10.7146124"><ele>128.0</ele><time>2026-05-02T09:26:18.601Z</time></trkpt><trkpt lat="44.584015" lon="10.7146975"><ele>127.49999999999999</ele><time>2026-05-02T09:26:21.563Z</time></trkpt><trkpt lat="44.5839686" lon="10.7147829"><ele>127.0</ele><time>2026-05-02T09:26:24.565Z</time></trkpt><trkpt lat="44.5839239" lon="10.7148734"><ele>126.5</ele><time>2026-05-02T09:26:27.563Z</time></trkpt><trkpt lat="44.583876" lon="10.7149588"><ele>126.0</ele><time>2026-05-02T09:26:30.575Z</time></trkpt><trkpt lat="44.583834" lon="10.7150495"><ele>125.49999999999999</ele><time>2026-05-02T09:26:33.593Z</time></trkpt><trkpt lat="44.5837862" lon="10.7151345"><ele>125.0</ele><time>2026-05-02T09:26:36.513Z</time></trkpt><trkpt lat="44.5837394" lon="10.7152188"><ele>124.71428571428571</ele><time>2026-05-02T09:26:39.563Z</time></trkpt><trkpt lat="44.5836978" lon="10.7153001"><ele>124.42857142857144</ele><time>2026-05-02T09:26:42.61Z</time></trkpt><trkpt lat="44.5836595" lon="10.7154062"><ele>124.14285714285715</ele><time>2026-05-02T09:26:45.55Z</time></trkpt><trkpt lat="44.5836276" lon="10.7154895"><ele>123.85714285714286</ele><time>2026-05-02T09:26:47.579Z</time></trkpt><trkpt lat="44.5835833" lon="10.715576"><ele>123.57142857142858</ele><time>2026-05-02T09:26:50.528Z</time></trkpt><trkpt lat="44.5835323" lon="10.7156533"><ele>123.2857142857143</ele><time>2026-05-02T09:26:53.537Z</time></trkpt><trkpt lat="44.5834826" lon="10.715729"><ele>123.00000000000001</ele><time>2026-05-02T09:26:56.568Z</time></trkpt><trkpt lat="44.5834252" lon="10.7158051"><ele>122.83333333333333</ele><time>2026-05-02T09:26:59.562Z</time></trkpt><trkpt lat="44.5833739" lon="10.715882"><ele>122.66666666666666</ele><time>2026-05-02T09:27:02.511Z</time></trkpt><trkpt lat="44.5833205" lon="10.7159713"><ele>122.5</ele><time>2026-05-02T09:27:05.589Z</time></trkpt><trkpt lat="44.5832731" lon="10.7160559"><ele>122.33333333333333</ele><time>2026-05-02T09:27:08.566Z</time></trkpt><trkpt lat="44.5832267" lon="10.7161479"><ele>122.16666666666666</ele><time>2026-05-02T09:27:11.597Z</time></trkpt><trkpt lat="44.5831797" lon="10.7162372"><ele>122.0</ele><time>2026-05-02T09:27:14.495Z</time></trkpt><trkpt lat="44.5831383" lon="10.7163379"><ele>121.99999999999999</ele><time>2026-05-02T09:27:17.563Z</time></trkpt><trkpt lat="44.583103" lon="10.7164394"><ele>122.0</ele><time>2026-05-02T09:27:20.58Z</time></trkpt><trkpt lat="44.5830593" lon="10.7165484"><ele>122.0</ele><time>2026-05-02T09:27:23.599Z</time></trkpt><trkpt lat="44.5830189" lon="10.7166565"><ele>122.0</ele><time>2026-05-02T09:27:26.548Z</time></trkpt><trkpt lat="44.5829758" lon="10.7167562"><ele>121.99999999999999</ele><time>2026-05-02T09:27:29.563Z</time></trkpt><trkpt lat="44.5829375" lon="10.7168469"><ele>122.0</ele><time>2026-05-02T09:27:32.564Z</time></trkpt><trkpt lat="44.5828955" lon="10.7169395"><ele>121.99999999999999</ele><time>2026-05-02T09:27:35.572Z</time></trkpt><trkpt lat="44.5828515" lon="10.7170406"><ele>122.0</ele><time>2026-05-02T09:27:38.611Z</time></trkpt><trkpt lat="44.5828147" lon="10.7171352"><ele>122.0</ele><time>2026-05-02T09:27:41.531Z</time></trkpt><trkpt lat="44.5827776" lon="10.7172329"><ele>122.0</ele><time>2026-05-02T09:27:44.469Z</time></trkpt><trkpt lat="44.5827381" lon="10.717333"><ele>121.99999999999999</ele><time>2026-05-02T09:27:47.564Z</time></trkpt><trkpt lat="44.5826995" lon="10.7174239"><ele>122.0</ele><time>2026-05-02T09:27:50.566Z</time></trkpt><trkpt lat="44.5826568" lon="10.7175236"><ele>122.83333333333333</ele><time>2026-05-02T09:27:53.582Z</time></trkpt><trkpt lat="44.5826261" lon="10.7176097"><ele>123.66666666666666</ele><time>2026-05-02T09:27:56.512Z</time></trkpt><trkpt lat="44.5825911" lon="10.7177085"><ele>124.5</ele><time>2026-05-02T09:27:59.563Z</time></trkpt><trkpt lat="44.5825565" lon="10.7178043"><ele>125.33333333333334</ele><time>2026-05-02T09:28:02.564Z</time></trkpt><trkpt lat="44.5825254" lon="10.7179008"><ele>126.16666666666667</ele><time>2026-05-02T09:28:05.576Z</time></trkpt><trkpt lat="44.5824983" lon="10.7179927"><ele>127.0</ele><time>2026-05-02T09:28:08.474Z</time></trkpt><trkpt lat="44.5824675" lon="10.7180976"><ele>127.00000000000001</ele><time>2026-05-02T09:28:11.592Z</time></trkpt><trkpt lat="44.5824374" lon="10.7182021"><ele>127.0</ele><time>2026-05-02T09:28:14.565Z</time></trkpt><trkpt lat="44.5824028" lon="10.7183063"><ele>127.0</ele><time>2026-05-02T09:28:17.551Z</time></trkpt><trkpt lat="44.5823658" lon="10.7184224"><ele>127.0</ele><time>2026-05-02T09:28:20.566Z</time></trkpt><trkpt lat="44.5823297" lon="10.7185174"><ele>127.00000000000001</ele><time>2026-05-02T09:28:23.565Z</time></trkpt><trkpt lat="44.5822889" lon="10.718618"><ele>127.0</ele><time>2026-05-02T09:28:26.596Z</time></trkpt><trkpt lat="44.5822534" lon="10.7187125"><ele>127.33333333333334</ele><time>2026-05-02T09:28:29.534Z</time></trkpt><trkpt lat="44.5822175" lon="10.7188135"><ele>127.66666666666667</ele><time>2026-05-02T09:28:32.551Z</time></trkpt><trkpt lat="44.5821825" lon="10.7189109"><ele>128.0</ele><time>2026-05-02T09:28:35.489Z</time></trkpt><trkpt lat="44.5821433" lon="10.7190102"><ele>128.33333333333334</ele><time>2026-05-02T09:28:38.548Z</time></trkpt><trkpt lat="44.5820952" lon="10.7191073"><ele>128.66666666666666</ele><time>2026-05-02T09:28:41.576Z</time></trkpt><trkpt lat="44.5820347" lon="10.7192015"><ele>129.0</ele><time>2026-05-02T09:28:44.594Z</time></trkpt><trkpt lat="44.5819669" lon="10.7192684"><ele>129.66666666666666</ele><time>2026-05-02T09:28:47.593Z</time></trkpt><trkpt lat="44.5819156" lon="10.7193209"><ele>130.33333333333334</ele><time>2026-05-02T09:28:49.564Z</time></trkpt><trkpt lat="44.5818366" lon="10.7193847"><ele>131.0</ele><time>2026-05-02T09:28:52.565Z</time></trkpt><trkpt lat="44.5817596" lon="10.7194572"><ele>131.66666666666669</ele><time>2026-05-02T09:28:55.552Z</time></trkpt><trkpt lat="44.5816976" lon="10.7194957"><ele>132.33333333333334</ele><time>2026-05-02T09:28:57.572Z</time></trkpt><trkpt lat="44.5816347" lon="10.7195367"><ele>133.0</ele><time>2026-05-02T09:28:59.597Z</time></trkpt><trkpt lat="44.5815558" lon="10.7195918"><ele>133.0</ele><time>2026-05-02T09:29:02.603Z</time></trkpt><trkpt lat="44.5814741" lon="10.7196518"><ele>133.0</ele><time>2026-05-02T09:29:05.564Z</time></trkpt><trkpt lat="44.5813959" lon="10.7197167"><ele>133.0</ele><time>2026-05-02T09:29:08.572Z</time></trkpt><trkpt lat="44.5813391" lon="10.7197611"><ele>133.0</ele><time>2026-05-02T09:29:10.563Z</time></trkpt><trkpt lat="44.5812514" lon="10.7198168"><ele>133.0</ele><time>2026-05-02T09:29:13.613Z</time></trkpt><trkpt lat="44.5811904" lon="10.7198491"><ele>133.0</ele><time>2026-05-02T09:29:15.582Z</time></trkpt><trkpt lat="44.5811296" lon="10.7198792"><ele>133.5</ele><time>2026-05-02T09:29:17.556Z</time></trkpt><trkpt lat="44.5810512" lon="10.7199366"><ele>134.0</ele><time>2026-05-02T09:29:20.564Z</time></trkpt><trkpt lat="44.5809733" lon="10.7199881"><ele>134.5</ele><time>2026-05-02T09:29:23.565Z</time></trkpt><trkpt lat="44.580898" lon="10.7200401"><ele>135.0</ele><time>2026-05-02T09:29:26.564Z</time></trkpt><trkpt lat="44.5808264" lon="10.7200965"><ele>135.5</ele><time>2026-05-02T09:29:29.529Z</time></trkpt><trkpt lat="44.5807572" lon="10.7201441"><ele>136.0</ele><time>2026-05-02T09:29:32.517Z</time></trkpt><trkpt lat="44.5806882" lon="10.7201949"><ele>136.28571428571428</ele><time>2026-05-02T09:29:35.605Z</time></trkpt><trkpt lat="44.5806264" lon="10.7202463"><ele>136.57142857142856</ele><time>2026-05-02T09:29:38.566Z</time></trkpt><trkpt lat="44.5805689" lon="10.7202988"><ele>136.85714285714286</ele><time>2026-05-02T09:29:41.565Z</time></trkpt><trkpt lat="44.5805505" lon="10.7203837"><ele>137.14285714285714</ele><time>2026-05-02T09:29:44.565Z</time></trkpt><trkpt lat="44.5805431" lon="10.7204997"><ele>137.42857142857144</ele><time>2026-05-02T09:29:48.584Z</time></trkpt><trkpt lat="44.5805439" lon="10.7206129"><ele>137.71428571428572</ele><time>2026-05-02T09:29:52.565Z</time></trkpt><trkpt lat="44.5805492" lon="10.7207061"><ele>138.0</ele><time>2026-05-02T09:29:55.565Z</time></trkpt><trkpt lat="44.5805621" lon="10.7207984"><ele>138.0</ele><time>2026-05-02T09:29:58.536Z</time></trkpt><trkpt lat="44.580564" lon="10.7209106"><ele>138.0</ele><time>2026-05-02T09:30:01.565Z</time></trkpt><trkpt lat="44.580561" lon="10.7210269"><ele>138.0</ele><time>2026-05-02T09:30:04.513Z</time></trkpt><trkpt lat="44.5805435" lon="10.721149"><ele>138.0</ele><time>2026-05-02T09:30:07.6Z</time></trkpt><trkpt lat="44.5805285" lon="10.7212596"><ele>138.0</ele><time>2026-05-02T09:30:10.469Z</time></trkpt><trkpt lat="44.5805059" lon="10.7213853"><ele>138.0</ele><time>2026-05-02T09:30:13.628Z</time></trkpt><trkpt lat="44.5804854" lon="10.7214847"><ele>138.14285714285714</ele><time>2026-05-02T09:30:16.563Z</time></trkpt><trkpt lat="44.5804678" lon="10.7215878"><ele>138.2857142857143</ele><time>2026-05-02T09:30:19.534Z</time></trkpt><trkpt lat="44.5804511" lon="10.7216965"><ele>138.42857142857144</ele><time>2026-05-02T09:30:22.591Z</time></trkpt><trkpt lat="44.580424" lon="10.7218053"><ele>138.57142857142858</ele><time>2026-05-02T09:30:25.43Z</time></trkpt><trkpt lat="44.5803983" lon="10.721889"><ele>138.71428571428572</ele><time>2026-05-02T09:30:27.533Z</time></trkpt><trkpt lat="44.5803716" lon="10.7219729"><ele>138.85714285714286</ele><time>2026-05-02T09:30:29.565Z</time></trkpt><trkpt lat="44.5803407" lon="10.7220535"><ele>139.0</ele><time>2026-05-02T09:30:31.567Z</time></trkpt><trkpt lat="44.5802957" lon="10.7221684"><ele>139.0</ele><time>2026-05-02T09:30:34.497Z</time></trkpt><trkpt lat="44.5802692" lon="10.7222622"><ele>139.0</ele><time>2026-05-02T09:30:36.568Z</time></trkpt><trkpt lat="44.5802383" lon="10.7223605"><ele>139.0</ele><time>2026-05-02T09:30:38.589Z</time></trkpt><trkpt lat="44.5802076" lon="10.7224578"><ele>139.0</ele><time>2026-05-02T09:30:40.602Z</time></trkpt><trkpt lat="44.5801728" lon="10.7225449"><ele>139.0</ele><time>2026-05-02T09:30:42.564Z</time></trkpt><trkpt lat="44.5801333" lon="10.7226274"><ele>139.0</ele><time>2026-05-02T09:30:44.577Z</time></trkpt><trkpt lat="44.5800983" lon="10.7227115"><ele>139.0</ele><time>2026-05-02T09:30:46.563Z</time></trkpt><trkpt lat="44.5800581" lon="10.7227911"><ele>138.28571428571428</ele><time>2026-05-02T09:30:48.563Z</time></trkpt><trkpt lat="44.5800151" lon="10.7228665"><ele>137.57142857142858</ele><time>2026-05-02T09:30:50.565Z</time></trkpt><trkpt lat="44.5799701" lon="10.7229385"><ele>136.85714285714286</ele><time>2026-05-02T09:30:52.574Z</time></trkpt><trkpt lat="44.5799259" lon="10.7230067"><ele>136.14285714285714</ele><time>2026-05-02T09:30:54.509Z</time></trkpt><trkpt lat="44.5798747" lon="10.7230844"><ele>135.42857142857142</ele><time>2026-05-02T09:30:56.613Z</time></trkpt><trkpt lat="44.5798307" lon="10.7231545"><ele>134.71428571428572</ele><time>2026-05-02T09:30:58.566Z</time></trkpt><trkpt lat="44.5797828" lon="10.7232196"><ele>134.0</ele><time>2026-05-02T09:31:00.623Z</time></trkpt><trkpt lat="44.5797392" lon="10.7232953"><ele>134.0</ele><time>2026-05-02T09:31:02.568Z</time></trkpt><trkpt lat="44.5796982" lon="10.7233729"><ele>134.0</ele><time>2026-05-02T09:31:04.566Z</time></trkpt><trkpt lat="44.5796609" lon="10.723445"><ele>134.0</ele><time>2026-05-02T09:31:06.572Z</time></trkpt><trkpt lat="44.5796238" lon="10.7235191"><ele>134.0</ele><time>2026-05-02T09:31:08.572Z</time></trkpt><trkpt lat="44.579589" lon="10.7236014"><ele>134.0</ele><time>2026-05-02T09:31:10.595Z</time></trkpt><trkpt lat="44.5795602" lon="10.7236813"><ele>134.0</ele><time>2026-05-02T09:31:12.597Z</time></trkpt><trkpt lat="44.5795223" lon="10.7237827"><ele>134.0</ele><time>2026-05-02T09:31:15.616Z</time></trkpt><trkpt lat="44.5794861" lon="10.7238877"><ele>133.85714285714286</ele><time>2026-05-02T09:31:19.511Z</time></trkpt><trkpt lat="44.5794496" lon="10.723963"><ele>133.71428571428572</ele><time>2026-05-02T09:31:22.564Z</time></trkpt><trkpt lat="44.5794121" lon="10.7240529"><ele>133.57142857142856</ele><time>2026-05-02T09:31:25.608Z</time></trkpt><trkpt lat="44.5793716" lon="10.7241553"><ele>133.42857142857144</ele><time>2026-05-02T09:31:29.511Z</time></trkpt><trkpt lat="44.5793419" lon="10.7242372"><ele>133.28571428571428</ele><time>2026-05-02T09:31:32.619Z</time></trkpt><trkpt lat="44.5793042" lon="10.7243135"><ele>133.14285714285714</ele><time>2026-05-02T09:31:35.589Z</time></trkpt><trkpt lat="44.5792646" lon="10.7243864"><ele>133.0</ele><time>2026-05-02T09:31:38.558Z</time></trkpt><trkpt lat="44.5792276" lon="10.7244663"><ele>133.0</ele><time>2026-05-02T09:31:41.615Z</time></trkpt><trkpt lat="44.5791975" lon="10.7245455"><ele>133.0</ele><time>2026-05-02T09:31:44.592Z</time></trkpt><trkpt lat="44.5791642" lon="10.724626"><ele>133.0</ele><time>2026-05-02T09:31:47.61Z</time></trkpt><trkpt lat="44.5791175" lon="10.7247119"><ele>133.0</ele><time>2026-05-02T09:31:50.49Z</time></trkpt><trkpt lat="44.5790821" lon="10.7248129"><ele>133.0</ele><time>2026-05-02T09:31:53.565Z</time></trkpt><trkpt lat="44.579055" lon="10.7249028"><ele>133.0</ele><time>2026-05-02T09:31:56.627Z</time></trkpt><trkpt lat="44.5790294" lon="10.7249841"><ele>133.0</ele><time>2026-05-02T09:31:59.536Z</time></trkpt><trkpt lat="44.5790029" lon="10.7250654"><ele>133.0</ele><time>2026-05-02T09:32:02.603Z</time></trkpt><trkpt lat="44.5789653" lon="10.725169"><ele>133.0</ele><time>2026-05-02T09:32:06.564Z</time></trkpt><trkpt lat="44.5789185" lon="10.7252661"><ele>133.0</ele><time>2026-05-02T09:32:10.563Z</time></trkpt><trkpt lat="44.5788731" lon="10.7253345"><ele>133.0</ele><time>2026-05-02T09:32:13.569Z</time></trkpt><trkpt lat="44.5788254" lon="10.7254149"><ele>133.0</ele><time>2026-05-02T09:32:16.588Z</time></trkpt><trkpt lat="44.5787814" lon="10.7254829"><ele>133.0</ele><time>2026-05-02T09:32:19.609Z</time></trkpt><trkpt lat="44.5787327" lon="10.7255508"><ele>133.0</ele><time>2026-05-02T09:32:22.596Z</time></trkpt><trkpt lat="44.5786824" lon="10.7256202"><ele>134.16666666666669</ele><time>2026-05-02T09:32:25.575Z</time></trkpt><trkpt lat="44.578623" lon="10.7257014"><ele>135.33333333333334</ele><time>2026-05-02T09:32:28.492Z</time></trkpt><trkpt lat="44.5785608" lon="10.7257944"><ele>136.5</ele><time>2026-05-02T09:32:31.579Z</time></trkpt><trkpt lat="44.5785031" lon="10.7258867"><ele>137.66666666666666</ele><time>2026-05-02T09:32:34.598Z</time></trkpt><trkpt lat="44.5784497" lon="10.7259716"><ele>138.83333333333331</ele><time>2026-05-02T09:32:37.616Z</time></trkpt><trkpt lat="44.5784047" lon="10.7260427"><ele>140.0</ele><time>2026-05-02T09:32:40.564Z</time></trkpt><trkpt lat="44.5783604" lon="10.7261099"><ele>140.0</ele><time>2026-05-02T09:32:43.563Z</time></trkpt><trkpt lat="44.5783031" lon="10.7261918"><ele>140.0</ele><time>2026-05-02T09:32:47.577Z</time></trkpt><trkpt lat="44.5782571" lon="10.7262581"><ele>140.0</ele><time>2026-05-02T09:32:50.596Z</time></trkpt><trkpt lat="44.5782137" lon="10.7263268"><ele>140.0</ele><time>2026-05-02T09:32:53.614Z</time></trkpt><trkpt lat="44.5781636" lon="10.7264196"><ele>140.0</ele><time>2026-05-02T09:32:57.53Z</time></trkpt><trkpt lat="44.5781121" lon="10.7265094"><ele>140.0</ele><time>2026-05-02T09:33:01.563Z</time></trkpt><trkpt lat="44.578062" lon="10.7266033"><ele>140.0</ele><time>2026-05-02T09:33:05.587Z</time></trkpt><trkpt lat="44.5780231" lon="10.7266751"><ele>140.0</ele><time>2026-05-02T09:33:08.607Z</time></trkpt><trkpt lat="44.5779818" lon="10.7267435"><ele>140.0</ele><time>2026-05-02T09:33:11.565Z</time></trkpt><trkpt lat="44.5779384" lon="10.7268159"><ele>140.0</ele><time>2026-05-02T09:33:14.565Z</time></trkpt><trkpt lat="44.5778963" lon="10.7268868"><ele>140.0</ele><time>2026-05-02T09:33:17.563Z</time></trkpt><trkpt lat="44.577854" lon="10.726961"><ele>140.0</ele><time>2026-05-02T09:33:20.579Z</time></trkpt><trkpt lat="44.5778143" lon="10.7270356"><ele>140.0</ele><time>2026-05-02T09:33:23.644Z</time></trkpt><trkpt lat="44.5777729" lon="10.7271052"><ele>141.85714285714286</ele><time>2026-05-02T09:33:26.588Z</time></trkpt><trkpt lat="44.5777274" lon="10.7271789"><ele>143.71428571428572</ele><time>2026-05-02T09:33:29.517Z</time></trkpt><trkpt lat="44.5776805" lon="10.7272532"><ele>145.57142857142856</ele><time>2026-05-02T09:33:32.565Z</time></trkpt><trkpt lat="44.5776342" lon="10.7273242"><ele>147.42857142857144</ele><time>2026-05-02T09:33:35.571Z</time></trkpt><trkpt lat="44.5775888" lon="10.7273887"><ele>149.28571428571428</ele><time>2026-05-02T09:33:38.59Z</time></trkpt><trkpt lat="44.577542" lon="10.7274569"><ele>151.14285714285714</ele><time>2026-05-02T09:33:41.608Z</time></trkpt><trkpt lat="44.5774973" lon="10.7275252"><ele>153.0</ele><time>2026-05-02T09:33:44.588Z</time></trkpt><trkpt lat="44.5774499" lon="10.7275985"><ele>153.0</ele><time>2026-05-02T09:33:47.563Z</time></trkpt><trkpt lat="44.5774097" lon="10.7276712"><ele>153.0</ele><time>2026-05-02T09:33:50.474Z</time></trkpt><trkpt lat="44.5773669" lon="10.7277442"><ele>153.0</ele><time>2026-05-02T09:33:53.581Z</time></trkpt><trkpt lat="44.5773212" lon="10.7278089"><ele>153.0</ele><time>2026-05-02T09:33:56.601Z</time></trkpt><trkpt lat="44.5772706" lon="10.7278869"><ele>153.0</ele><time>2026-05-02T09:34:00.564Z</time></trkpt><trkpt lat="44.5772318" lon="10.7279573"><ele>153.0</ele><time>2026-05-02T09:34:03.561Z</time></trkpt><trkpt lat="44.5771786" lon="10.7280471"><ele>153.0</ele><time>2026-05-02T09:34:07.567Z</time></trkpt><trkpt lat="44.5771309" lon="10.7281152"><ele>153.0</ele><time>2026-05-02T09:34:10.586Z</time></trkpt><trkpt lat="44.5770825" lon="10.7281872"><ele>153.0</ele><time>2026-05-02T09:34:13.615Z</time></trkpt><trkpt lat="44.5770321" lon="10.7282654"><ele>153.0</ele><time>2026-05-02T09:34:16.475Z</time></trkpt><trkpt lat="44.576978" lon="10.7283539"><ele>153.0</ele><time>2026-05-02T09:34:19.564Z</time></trkpt><trkpt lat="44.5769238" lon="10.7284402"><ele>153.0</ele><time>2026-05-02T09:34:22.531Z</time></trkpt><trkpt lat="44.5768644" lon="10.7285248"><ele>153.0</ele><time>2026-05-02T09:34:25.578Z</time></trkpt><trkpt lat="44.5768087" lon="10.7285868"><ele>153.0</ele><time>2026-05-02T09:34:28.567Z</time></trkpt><trkpt lat="44.5767614" lon="10.7286549"><ele>153.0</ele><time>2026-05-02T09:34:31.615Z</time></trkpt><trkpt lat="44.576697" lon="10.7287206"><ele>153.0</ele><time>2026-05-02T09:34:34.616Z</time></trkpt><trkpt lat="44.576633" lon="10.7287998"><ele>153.0</ele><time>2026-05-02T09:34:37.563Z</time></trkpt><trkpt lat="44.5765718" lon="10.7288833"><ele>153.0</ele><time>2026-05-02T09:34:40.57Z</time></trkpt><trkpt lat="44.5765176" lon="10.7289681"><ele>153.0</ele><time>2026-05-02T09:34:43.589Z</time></trkpt><trkpt lat="44.5764675" lon="10.7290554"><ele>153.0</ele><time>2026-05-02T09:34:46.568Z</time></trkpt><trkpt lat="44.5764128" lon="10.7291367"><ele>153.0</ele><time>2026-05-02T09:34:49.625Z</time></trkpt><trkpt lat="44.5763538" lon="10.7292199"><ele>153.0</ele><time>2026-05-02T09:34:52.555Z</time></trkpt><trkpt lat="44.576284" lon="10.7292969"><ele>153.0</ele><time>2026-05-02T09:34:55.563Z</time></trkpt><trkpt lat="44.5762127" lon="10.7293644"><ele>153.0</ele><time>2026-05-02T09:34:58.58Z</time></trkpt><trkpt lat="44.5761507" lon="10.7294408"><ele>153.0</ele><time>2026-05-02T09:35:01.598Z</time></trkpt><trkpt lat="44.5760953" lon="10.7294963"><ele>151.4</ele><time>2026-05-02T09:35:04.564Z</time></trkpt><trkpt lat="44.5760633" lon="10.7295736"><ele>149.8</ele><time>2026-05-02T09:35:11.565Z</time></trkpt><trkpt lat="44.5760174" lon="10.7296486"><ele>148.2</ele><time>2026-05-02T09:35:31.583Z</time></trkpt><trkpt lat="44.5759897" lon="10.7297413"><ele>146.6</ele><time>2026-05-02T09:35:37.612Z</time></trkpt><trkpt lat="44.5758455" lon="10.7299542"><ele>145.0</ele><time>2026-05-02T09:35:40.637Z</time></trkpt><trkpt lat="44.5758162" lon="10.7300463"><ele>145.0</ele><time>2026-05-02T09:35:42.512Z</time></trkpt><trkpt lat="44.5757443" lon="10.7300928"><ele>145.0</ele><time>2026-05-02T09:35:44.564Z</time></trkpt><trkpt lat="44.5756775" lon="10.730165"><ele>145.0</ele><time>2026-05-02T09:35:47.58Z</time></trkpt><trkpt lat="44.5756059" lon="10.7302508"><ele>145.0</ele><time>2026-05-02T09:35:50.591Z</time></trkpt><trkpt lat="44.5755555" lon="10.730316"><ele>145.0</ele><time>2026-05-02T09:35:52.612Z</time></trkpt><trkpt lat="44.5754915" lon="10.7303898"><ele>145.0</ele><time>2026-05-02T09:35:55.53Z</time></trkpt><trkpt lat="44.575433" lon="10.7304761"><ele>144.33333333333334</ele><time>2026-05-02T09:35:58.563Z</time></trkpt><trkpt lat="44.5753758" lon="10.7305562"><ele>143.66666666666669</ele><time>2026-05-02T09:36:01.628Z</time></trkpt><trkpt lat="44.5753326" lon="10.7306389"><ele>143.0</ele><time>2026-05-02T09:36:04.515Z</time></trkpt><trkpt lat="44.5752914" lon="10.730731"><ele>142.33333333333334</ele><time>2026-05-02T09:36:07.602Z</time></trkpt><trkpt lat="44.5752631" lon="10.7308101"><ele>141.66666666666666</ele><time>2026-05-02T09:36:10.21Z</time></trkpt><trkpt lat="44.5752249" lon="10.7309029"><ele>141.0</ele><time>2026-05-02T09:36:13.563Z</time></trkpt><trkpt lat="44.5751851" lon="10.7310059"><ele>141.85714285714286</ele><time>2026-05-02T09:36:17.564Z</time></trkpt><trkpt lat="44.5751511" lon="10.731091"><ele>142.71428571428572</ele><time>2026-05-02T09:36:20.582Z</time></trkpt><trkpt lat="44.5751131" lon="10.7311809"><ele>143.57142857142856</ele><time>2026-05-02T09:36:23.511Z</time></trkpt><trkpt lat="44.575072" lon="10.7312695"><ele>144.42857142857144</ele><time>2026-05-02T09:36:26.619Z</time></trkpt><trkpt lat="44.575041" lon="10.7313558"><ele>145.28571428571428</ele><time>2026-05-02T09:36:29.608Z</time></trkpt><trkpt lat="44.5750117" lon="10.7314401"><ele>146.14285714285714</ele><time>2026-05-02T09:36:32.496Z</time></trkpt><trkpt lat="44.5749779" lon="10.7315283"><ele>147.0</ele><time>2026-05-02T09:36:35.573Z</time></trkpt><trkpt lat="44.5749457" lon="10.7316073"><ele>147.0</ele><time>2026-05-02T09:36:38.592Z</time></trkpt><trkpt lat="44.5749119" lon="10.7316841"><ele>147.0</ele><time>2026-05-02T09:36:41.531Z</time></trkpt><trkpt lat="44.5748769" lon="10.7317653"><ele>147.0</ele><time>2026-05-02T09:36:44.565Z</time></trkpt><trkpt lat="44.5748358" lon="10.7318654"><ele>147.0</ele><time>2026-05-02T09:36:48.493Z</time></trkpt><trkpt lat="44.5747834" lon="10.7319612"><ele>147.0</ele><time>2026-05-02T09:36:52.589Z</time></trkpt><trkpt lat="44.5747368" lon="10.7320549"><ele>147.0</ele><time>2026-05-02T09:36:56.603Z</time></trkpt><trkpt lat="44.5746883" lon="10.7321482"><ele>147.0</ele><time>2026-05-02T09:37:00.626Z</time></trkpt><trkpt lat="44.5746469" lon="10.7322402"><ele>147.0</ele><time>2026-05-02T09:37:04.532Z</time></trkpt><trkpt lat="44.5746052" lon="10.7323377"><ele>147.0</ele><time>2026-05-02T09:37:08.496Z</time></trkpt><trkpt lat="44.5745714" lon="10.7324133"><ele>147.0</ele><time>2026-05-02T09:37:11.593Z</time></trkpt><trkpt lat="44.5745288" lon="10.7325163"><ele>147.0</ele><time>2026-05-02T09:37:15.549Z</time></trkpt><trkpt lat="44.5744919" lon="10.7326023"><ele>147.0</ele><time>2026-05-02T09:37:19.565Z</time></trkpt><trkpt lat="44.5744483" lon="10.7327031"><ele>149.0</ele><time>2026-05-02T09:37:23.566Z</time></trkpt><trkpt lat="44.5744032" lon="10.7327975"><ele>151.0</ele><time>2026-05-02T09:37:27.491Z</time></trkpt><trkpt lat="44.574361" lon="10.7328948"><ele>153.0</ele><time>2026-05-02T09:37:31.616Z</time></trkpt><trkpt lat="44.5743242" lon="10.7329916"><ele>155.0</ele><time>2026-05-02T09:37:35.565Z</time></trkpt><trkpt lat="44.574289" lon="10.7330873"><ele>157.0</ele><time>2026-05-02T09:37:39.496Z</time></trkpt><trkpt lat="44.574246" lon="10.7331811"><ele>159.0</ele><time>2026-05-02T09:37:43.51Z</time></trkpt><trkpt lat="44.5742104" lon="10.7332836"><ele>159.0</ele><time>2026-05-02T09:37:47.516Z</time></trkpt><trkpt lat="44.574179" lon="10.7333608"><ele>159.0</ele><time>2026-05-02T09:37:50.473Z</time></trkpt><trkpt lat="44.5741303" lon="10.7334542"><ele>159.0</ele><time>2026-05-02T09:37:54.564Z</time></trkpt><trkpt lat="44.5740752" lon="10.7335435"><ele>159.0</ele><time>2026-05-02T09:37:58.58Z</time></trkpt><trkpt lat="44.5740241" lon="10.7336306"><ele>159.0</ele><time>2026-05-02T09:38:02.605Z</time></trkpt><trkpt lat="44.5739776" lon="10.7337258"><ele>159.0</ele><time>2026-05-02T09:38:06.566Z</time></trkpt><trkpt lat="44.57394" lon="10.7338041"><ele>158.28571428571428</ele><time>2026-05-02T09:38:09.611Z</time></trkpt><trkpt lat="44.5739033" lon="10.733881"><ele>157.57142857142858</ele><time>2026-05-02T09:38:12.566Z</time></trkpt><trkpt lat="44.573867" lon="10.7339636"><ele>156.85714285714286</ele><time>2026-05-02T09:38:15.616Z</time></trkpt><trkpt lat="44.5738209" lon="10.7340637"><ele>156.14285714285714</ele><time>2026-05-02T09:38:19.609Z</time></trkpt><trkpt lat="44.5737857" lon="10.7341397"><ele>155.42857142857144</ele><time>2026-05-02T09:38:22.564Z</time></trkpt><trkpt lat="44.5737452" lon="10.7342117"><ele>154.71428571428572</ele><time>2026-05-02T09:38:25.476Z</time></trkpt><trkpt lat="44.5736991" lon="10.7342962"><ele>154.0</ele><time>2026-05-02T09:38:28.616Z</time></trkpt><trkpt lat="44.5736578" lon="10.7343764"><ele>154.66666666666669</ele><time>2026-05-02T09:38:31.582Z</time></trkpt><trkpt lat="44.5736235" lon="10.7344635"><ele>155.33333333333334</ele><time>2026-05-02T09:38:34.6Z</time></trkpt><trkpt lat="44.5735929" lon="10.7345558"><ele>156.0</ele><time>2026-05-02T09:38:37.56Z</time></trkpt><trkpt lat="44.5735582" lon="10.7346432"><ele>156.66666666666666</ele><time>2026-05-02T09:38:40.563Z</time></trkpt><trkpt lat="44.5735138" lon="10.7347235"><ele>157.33333333333331</ele><time>2026-05-02T09:38:43.516Z</time></trkpt><trkpt lat="44.5734707" lon="10.7348238"><ele>158.0</ele><time>2026-05-02T09:38:46.573Z</time></trkpt><trkpt lat="44.5734213" lon="10.7349217"><ele>158.0</ele><time>2026-05-02T09:38:49.592Z</time></trkpt><trkpt lat="44.5733653" lon="10.7350115"><ele>158.0</ele><time>2026-05-02T09:38:52.61Z</time></trkpt><trkpt lat="44.573312" lon="10.7351042"><ele>158.0</ele><time>2026-05-02T09:38:55.565Z</time></trkpt><trkpt lat="44.5732603" lon="10.7351778"><ele>158.0</ele><time>2026-05-02T09:38:58.549Z</time></trkpt><trkpt lat="44.5732133" lon="10.735255"><ele>158.0</ele><time>2026-05-02T09:39:01.565Z</time></trkpt><trkpt lat="44.5731616" lon="10.7353318"><ele>158.0</ele><time>2026-05-02T09:39:04.583Z</time></trkpt><trkpt lat="44.5731064" lon="10.7354065"><ele>158.33333333333331</ele><time>2026-05-02T09:39:07.601Z</time></trkpt><trkpt lat="44.5730581" lon="10.7354924"><ele>158.66666666666666</ele><time>2026-05-02T09:39:10.592Z</time></trkpt><trkpt lat="44.5730178" lon="10.7355873"><ele>159.0</ele><time>2026-05-02T09:39:13.564Z</time></trkpt><trkpt lat="44.572987" lon="10.7356875"><ele>159.33333333333334</ele><time>2026-05-02T09:39:16.563Z</time></trkpt><trkpt lat="44.5729576" lon="10.7357842"><ele>159.66666666666669</ele><time>2026-05-02T09:39:19.536Z</time></trkpt><trkpt lat="44.5729068" lon="10.7358868"><ele>160.0</ele><time>2026-05-02T09:39:22.593Z</time></trkpt><trkpt lat="44.5728516" lon="10.7359812"><ele>159.16666666666669</ele><time>2026-05-02T09:39:25.635Z</time></trkpt><trkpt lat="44.5728077" lon="10.7360651"><ele>158.33333333333334</ele><time>2026-05-02T09:39:28.49Z</time></trkpt><trkpt lat="44.5727623" lon="10.7361591"><ele>157.5</ele><time>2026-05-02T09:39:31.565Z</time></trkpt><trkpt lat="44.5727084" lon="10.7362425"><ele>156.66666666666666</ele><time>2026-05-02T09:39:34.608Z</time></trkpt><trkpt lat="44.5726559" lon="10.7363199"><ele>155.83333333333331</ele><time>2026-05-02T09:39:37.516Z</time></trkpt><trkpt lat="44.5726077" lon="10.7364037"><ele>155.0</ele><time>2026-05-02T09:39:40.603Z</time></trkpt><trkpt lat="44.5725608" lon="10.7364862"><ele>155.0</ele><time>2026-05-02T09:39:43.565Z</time></trkpt><trkpt lat="44.5725177" lon="10.7365709"><ele>155.0</ele><time>2026-05-02T09:39:46.632Z</time></trkpt><trkpt lat="44.5724676" lon="10.7366567"><ele>155.0</ele><time>2026-05-02T09:39:49.57Z</time></trkpt><trkpt lat="44.5724238" lon="10.7367429"><ele>155.0</ele><time>2026-05-02T09:39:52.527Z</time></trkpt><trkpt lat="44.5723752" lon="10.7368309"><ele>155.0</ele><time>2026-05-02T09:39:55.594Z</time></trkpt><trkpt lat="44.5723265" lon="10.736913"><ele>155.0</ele><time>2026-05-02T09:39:58.613Z</time></trkpt><trkpt lat="44.5722681" lon="10.7369996"><ele>155.83333333333331</ele><time>2026-05-02T09:40:01.563Z</time></trkpt><trkpt lat="44.572217" lon="10.7370698"><ele>156.66666666666666</ele><time>2026-05-02T09:40:04.228Z</time></trkpt><trkpt lat="44.5721499" lon="10.7371583"><ele>157.5</ele><time>2026-05-02T09:40:07.589Z</time></trkpt><trkpt lat="44.5720901" lon="10.7372312"><ele>158.33333333333334</ele><time>2026-05-02T09:40:10.587Z</time></trkpt><trkpt lat="44.5720306" lon="10.7372995"><ele>159.16666666666669</ele><time>2026-05-02T09:40:13.575Z</time></trkpt><trkpt lat="44.5719743" lon="10.7373666"><ele>160.0</ele><time>2026-05-02T09:40:16.534Z</time></trkpt><trkpt lat="44.5719182" lon="10.737428"><ele>160.0</ele><time>2026-05-02T09:40:19.533Z</time></trkpt><trkpt lat="44.5718515" lon="10.7374891"><ele>160.0</ele><time>2026-05-02T09:40:22.47Z</time></trkpt><trkpt lat="44.5717804" lon="10.737572"><ele>160.0</ele><time>2026-05-02T09:40:25.577Z</time></trkpt><trkpt lat="44.5717015" lon="10.7376421"><ele>160.0</ele><time>2026-05-02T09:40:28.596Z</time></trkpt><trkpt lat="44.5716517" lon="10.7377361"><ele>160.0</ele><time>2026-05-02T09:40:31.614Z</time></trkpt><trkpt lat="44.5715903" lon="10.7377839"><ele>160.0</ele><time>2026-05-02T09:40:34.563Z</time></trkpt><trkpt lat="44.5715213" lon="10.7377929"><ele>161.16666666666669</ele><time>2026-05-02T09:40:37.613Z</time></trkpt><trkpt lat="44.5714595" lon="10.7378338"><ele>162.33333333333334</ele><time>2026-05-02T09:40:40.569Z</time></trkpt><trkpt lat="44.5714046" lon="10.7379122"><ele>163.5</ele><time>2026-05-02T09:40:43.587Z</time></trkpt><trkpt lat="44.5713316" lon="10.7379619"><ele>164.66666666666666</ele><time>2026-05-02T09:40:46.547Z</time></trkpt><trkpt lat="44.5712487" lon="10.7380105"><ele>165.83333333333331</ele><time>2026-05-02T09:40:49.564Z</time></trkpt><trkpt lat="44.5711766" lon="10.7380625"><ele>167.0</ele><time>2026-05-02T09:40:52.563Z</time></trkpt><trkpt lat="44.571114" lon="10.7381299"><ele>167.0</ele><time>2026-05-02T09:40:55.593Z</time></trkpt><trkpt lat="44.5710694" lon="10.7382181"><ele>167.0</ele><time>2026-05-02T09:40:58.579Z</time></trkpt><trkpt lat="44.5710186" lon="10.7382999"><ele>167.0</ele><time>2026-05-02T09:41:01.598Z</time></trkpt><trkpt lat="44.570967" lon="10.7383706"><ele>167.0</ele><time>2026-05-02T09:41:04.567Z</time></trkpt><trkpt lat="44.570915" lon="10.7384366"><ele>167.0</ele><time>2026-05-02T09:41:07.563Z</time></trkpt><trkpt lat="44.5708669" lon="10.7385159"><ele>167.0</ele><time>2026-05-02T09:41:10.614Z</time></trkpt><trkpt lat="44.5708259" lon="10.7385907"><ele>167.0</ele><time>2026-05-02T09:41:13.492Z</time></trkpt><trkpt lat="44.5707814" lon="10.738679"><ele>165.83333333333331</ele><time>2026-05-02T09:41:16.589Z</time></trkpt><trkpt lat="44.5707376" lon="10.738765"><ele>164.66666666666666</ele><time>2026-05-02T09:41:19.531Z</time></trkpt><trkpt lat="44.5706899" lon="10.7388376"><ele>163.5</ele><time>2026-05-02T09:41:22.564Z</time></trkpt><trkpt lat="44.5706479" lon="10.7389221"><ele>162.33333333333334</ele><time>2026-05-02T09:41:25.556Z</time></trkpt><trkpt lat="44.5706019" lon="10.7390222"><ele>161.16666666666669</ele><time>2026-05-02T09:41:28.563Z</time></trkpt><trkpt lat="44.570557" lon="10.7391145"><ele>160.0</ele><time>2026-05-02T09:41:31.595Z</time></trkpt><trkpt lat="44.5705199" lon="10.7391998"><ele>160.0</ele><time>2026-05-02T09:41:34.6Z</time></trkpt><trkpt lat="44.5704797" lon="10.7392835"><ele>160.0</ele><time>2026-05-02T09:41:37.631Z</time></trkpt><trkpt lat="44.5704395" lon="10.7393641"><ele>160.0</ele><time>2026-05-02T09:41:40.488Z</time></trkpt><trkpt lat="44.5703952" lon="10.7394526"><ele>160.0</ele><time>2026-05-02T09:41:43.565Z</time></trkpt><trkpt lat="44.5703503" lon="10.7395356"><ele>160.0</ele><time>2026-05-02T09:41:46.515Z</time></trkpt><trkpt lat="44.5703099" lon="10.7396255"><ele>160.0</ele><time>2026-05-02T09:41:49.592Z</time></trkpt><trkpt lat="44.5702748" lon="10.739725"><ele>160.0</ele><time>2026-05-02T09:41:52.612Z</time></trkpt><trkpt lat="44.570233" lon="10.7398216"><ele>159.83333333333334</ele><time>2026-05-02T09:41:55.565Z</time></trkpt><trkpt lat="44.5701962" lon="10.7399089"><ele>159.66666666666669</ele><time>2026-05-02T09:41:58.548Z</time></trkpt><trkpt lat="44.5701571" lon="10.7399965"><ele>159.5</ele><time>2026-05-02T09:42:01.565Z</time></trkpt><trkpt lat="44.5701211" lon="10.7400983"><ele>159.33333333333334</ele><time>2026-05-02T09:42:04.514Z</time></trkpt><trkpt lat="44.5700827" lon="10.7402075"><ele>159.16666666666666</ele><time>2026-05-02T09:42:07.602Z</time></trkpt><trkpt lat="44.5700394" lon="10.7403096"><ele>159.0</ele><time>2026-05-02T09:42:10.62Z</time></trkpt><trkpt lat="44.5700116" lon="10.7403981"><ele>159.0</ele><time>2026-05-02T09:42:12.594Z</time></trkpt><trkpt lat="44.5699852" lon="10.7404911"><ele>159.0</ele><time>2026-05-02T09:42:14.616Z</time></trkpt><trkpt lat="44.5699604" lon="10.7405869"><ele>159.0</ele><time>2026-05-02T09:42:16.563Z</time></trkpt><trkpt lat="44.5699366" lon="10.7406693"><ele>159.0</ele><time>2026-05-02T09:42:18.471Z</time></trkpt><trkpt lat="44.5698953" lon="10.7407494"><ele>159.0</ele><time>2026-05-02T09:42:20.593Z</time></trkpt><trkpt lat="44.56986" lon="10.7408226"><ele>159.0</ele><time>2026-05-02T09:42:22.593Z</time></trkpt><trkpt lat="44.5698271" lon="10.7409037"><ele>159.0</ele><time>2026-05-02T09:42:24.606Z</time></trkpt><trkpt lat="44.5697671" lon="10.7410075"><ele>158.66666666666666</ele><time>2026-05-02T09:42:27.563Z</time></trkpt><trkpt lat="44.5697235" lon="10.7410992"><ele>158.33333333333334</ele><time>2026-05-02T09:42:30.565Z</time></trkpt><trkpt lat="44.5696753" lon="10.7411938"><ele>158.0</ele><time>2026-05-02T09:42:33.563Z</time></trkpt><trkpt lat="44.569629" lon="10.7412888"><ele>157.66666666666669</ele><time>2026-05-02T09:42:36.591Z</time></trkpt><trkpt lat="44.5695788" lon="10.7413946"><ele>157.33333333333334</ele><time>2026-05-02T09:42:39.598Z</time></trkpt><trkpt lat="44.5695331" lon="10.7414921"><ele>157.0</ele><time>2026-05-02T09:42:42.517Z</time></trkpt><trkpt lat="44.5694872" lon="10.741592"><ele>157.0</ele><time>2026-05-02T09:42:45.563Z</time></trkpt><trkpt lat="44.5694531" lon="10.7416877"><ele>157.0</ele><time>2026-05-02T09:42:48.534Z</time></trkpt><trkpt lat="44.5694177" lon="10.7417933"><ele>157.0</ele><time>2026-05-02T09:42:51.571Z</time></trkpt><trkpt lat="44.5693791" lon="10.7418965"><ele>157.0</ele><time>2026-05-02T09:42:54.49Z</time></trkpt><trkpt lat="44.5693264" lon="10.7420049"><ele>157.0</ele><time>2026-05-02T09:42:57.608Z</time></trkpt><trkpt lat="44.5692833" lon="10.7420956"><ele>157.0</ele><time>2026-05-02T09:43:00.626Z</time></trkpt><trkpt lat="44.5692346" lon="10.7422065"><ele>154.83333333333334</ele><time>2026-05-02T09:43:03.563Z</time></trkpt><trkpt lat="44.5691836" lon="10.7423157"><ele>152.66666666666669</ele><time>2026-05-02T09:43:06.564Z</time></trkpt><trkpt lat="44.5691258" lon="10.742421"><ele>150.5</ele><time>2026-05-02T09:43:09.493Z</time></trkpt><trkpt lat="44.5690843" lon="10.7424975"><ele>148.33333333333334</ele><time>2026-05-02T09:43:11.593Z</time></trkpt><trkpt lat="44.5690471" lon="10.7425698"><ele>146.16666666666666</ele><time>2026-05-02T09:43:13.606Z</time></trkpt><trkpt lat="44.5689844" lon="10.7426751"><ele>144.0</ele><time>2026-05-02T09:43:16.565Z</time></trkpt><trkpt lat="44.5689179" lon="10.742752"><ele>144.0</ele><time>2026-05-02T09:43:19.554Z</time></trkpt><trkpt lat="44.5688498" lon="10.7428277"><ele>144.0</ele><time>2026-05-02T09:43:22.564Z</time></trkpt><trkpt lat="44.5687739" lon="10.7428721"><ele>144.0</ele><time>2026-05-02T09:43:25.578Z</time></trkpt><trkpt lat="44.5686904" lon="10.7428982"><ele>144.0</ele><time>2026-05-02T09:43:28.629Z</time></trkpt><trkpt lat="44.5686189" lon="10.7429113"><ele>144.0</ele><time>2026-05-02T09:43:31.537Z</time></trkpt><trkpt lat="44.5685355" lon="10.742916"><ele>144.0</ele><time>2026-05-02T09:43:34.563Z</time></trkpt><trkpt lat="44.5684596" lon="10.7429128"><ele>144.00000000000003</ele><time>2026-05-02T09:43:37.563Z</time></trkpt><trkpt lat="44.568385" lon="10.7429113"><ele>144.0</ele><time>2026-05-02T09:43:40.612Z</time></trkpt><trkpt lat="44.5683202" lon="10.7429128"><ele>144.0</ele><time>2026-05-02T09:43:43.551Z</time></trkpt><trkpt lat="44.5682444" lon="10.7429187"><ele>144.0</ele><time>2026-05-02T09:43:46.607Z</time></trkpt><trkpt lat="44.5681763" lon="10.7429077"><ele>144.0</ele><time>2026-05-02T09:43:49.476Z</time></trkpt><trkpt lat="44.5681109" lon="10.7428836"><ele>144.00000000000003</ele><time>2026-05-02T09:43:52.565Z</time></trkpt><trkpt lat="44.5680498" lon="10.7428449"><ele>144.0</ele><time>2026-05-02T09:43:55.566Z</time></trkpt><trkpt lat="44.5679865" lon="10.7427897"><ele>144.0</ele><time>2026-05-02T09:43:58.58Z</time></trkpt><trkpt lat="44.5679335" lon="10.7427415"><ele>144.0</ele><time>2026-05-02T09:44:01.511Z</time></trkpt><trkpt lat="44.567879" lon="10.7426954"><ele>144.0</ele><time>2026-05-02T09:44:04.548Z</time></trkpt><trkpt lat="44.5678009" lon="10.7426437"><ele>144.0</ele><time>2026-05-02T09:44:08.564Z</time></trkpt><trkpt lat="44.5677263" lon="10.7425938"><ele>144.0</ele><time>2026-05-02T09:44:12.565Z</time></trkpt><trkpt lat="44.5676485" lon="10.7425658"><ele>144.0</ele><time>2026-05-02T09:44:16.59Z</time></trkpt><trkpt lat="44.5675714" lon="10.7425294"><ele>146.5</ele><time>2026-05-02T09:44:20.615Z</time></trkpt><trkpt lat="44.5675081" lon="10.7424864"><ele>149.0</ele><time>2026-05-02T09:44:24.168Z</time></trkpt><trkpt lat="44.567435" lon="10.7424416"><ele>151.5</ele><time>2026-05-02T09:44:28.565Z</time></trkpt><trkpt lat="44.5673617" lon="10.7424126"><ele>154.0</ele><time>2026-05-02T09:44:32.589Z</time></trkpt><trkpt lat="44.5672923" lon="10.7424044"><ele>156.5</ele><time>2026-05-02T09:44:36.533Z</time></trkpt><trkpt lat="44.5672174" lon="10.7424152"><ele>159.0</ele><time>2026-05-02T09:44:40.548Z</time></trkpt><trkpt lat="44.5671366" lon="10.742443"><ele>159.0</ele><time>2026-05-02T09:44:44.614Z</time></trkpt><trkpt lat="44.5670697" lon="10.7424742"><ele>159.0</ele><time>2026-05-02T09:44:47.552Z</time></trkpt><trkpt lat="44.5669992" lon="10.7425113"><ele>159.0</ele><time>2026-05-02T09:44:50.549Z</time></trkpt><trkpt lat="44.5669346" lon="10.742553"><ele>159.0</ele><time>2026-05-02T09:44:53.567Z</time></trkpt><trkpt lat="44.5668681" lon="10.742587"><ele>159.0</ele><time>2026-05-02T09:44:56.516Z</time></trkpt><trkpt lat="44.5667978" lon="10.7426282"><ele>159.0</ele><time>2026-05-02T09:44:59.564Z</time></trkpt><trkpt lat="44.5667276" lon="10.7426663"><ele>159.0</ele><time>2026-05-02T09:45:02.572Z</time></trkpt><trkpt lat="44.5666618" lon="10.7427141"><ele>158.7142857142857</ele><time>2026-05-02T09:45:05.59Z</time></trkpt><trkpt lat="44.5666022" lon="10.742758"><ele>158.42857142857144</ele><time>2026-05-02T09:45:08.608Z</time></trkpt><trkpt lat="44.5665434" lon="10.7427996"><ele>158.14285714285714</ele><time>2026-05-02T09:45:11.607Z</time></trkpt><trkpt lat="44.5664816" lon="10.7428364"><ele>157.85714285714283</ele><time>2026-05-02T09:45:14.495Z</time></trkpt><trkpt lat="44.5664217" lon="10.742879"><ele>157.57142857142856</ele><time>2026-05-02T09:45:17.565Z</time></trkpt><trkpt lat="44.5663589" lon="10.7429214"><ele>157.28571428571428</ele><time>2026-05-02T09:45:20.613Z</time></trkpt><trkpt lat="44.5662996" lon="10.7429686"><ele>157.0</ele><time>2026-05-02T09:45:23.53Z</time></trkpt><trkpt lat="44.5662248" lon="10.7430131"><ele>157.83333333333334</ele><time>2026-05-02T09:45:26.618Z</time></trkpt><trkpt lat="44.5661497" lon="10.7430486"><ele>158.66666666666669</ele><time>2026-05-02T09:45:29.564Z</time></trkpt><trkpt lat="44.5660762" lon="10.7430826"><ele>159.5</ele><time>2026-05-02T09:45:32.595Z</time></trkpt><trkpt lat="44.5660004" lon="10.7431246"><ele>160.33333333333334</ele><time>2026-05-02T09:45:35.572Z</time></trkpt><trkpt lat="44.5659229" lon="10.7431598"><ele>161.16666666666666</ele><time>2026-05-02T09:45:38.591Z</time></trkpt><trkpt lat="44.5658506" lon="10.7431951"><ele>162.0</ele><time>2026-05-02T09:45:41.61Z</time></trkpt><trkpt lat="44.5657805" lon="10.7432303"><ele>162.0</ele><time>2026-05-02T09:45:44.565Z</time></trkpt><trkpt lat="44.5657121" lon="10.7432667"><ele>162.0</ele><time>2026-05-02T09:45:47.563Z</time></trkpt><trkpt lat="44.5656416" lon="10.7433157"><ele>162.0</ele><time>2026-05-02T09:45:50.616Z</time></trkpt><trkpt lat="44.5655735" lon="10.7433729"><ele>162.0</ele><time>2026-05-02T09:45:53.573Z</time></trkpt><trkpt lat="44.5655004" lon="10.7434178"><ele>162.0</ele><time>2026-05-02T09:45:56.6Z</time></trkpt><trkpt lat="44.5654311" lon="10.7434691"><ele>162.0</ele><time>2026-05-02T09:45:59.563Z</time></trkpt><trkpt lat="44.5653679" lon="10.7435275"><ele>161.33333333333334</ele><time>2026-05-02T09:46:02.566Z</time></trkpt><trkpt lat="44.5653024" lon="10.7435926"><ele>160.66666666666666</ele><time>2026-05-02T09:46:05.597Z</time></trkpt><trkpt lat="44.5652356" lon="10.7436566"><ele>160.0</ele><time>2026-05-02T09:46:08.575Z</time></trkpt><trkpt lat="44.5651671" lon="10.7437126"><ele>159.33333333333331</ele><time>2026-05-02T09:46:11.592Z</time></trkpt><trkpt lat="44.5650932" lon="10.7437678"><ele>158.66666666666666</ele><time>2026-05-02T09:46:14.592Z</time></trkpt><trkpt lat="44.5650188" lon="10.7438172"><ele>158.0</ele><time>2026-05-02T09:46:17.563Z</time></trkpt><trkpt lat="44.5649444" lon="10.7438616"><ele>158.0</ele><time>2026-05-02T09:46:20.564Z</time></trkpt><trkpt lat="44.5648761" lon="10.7439031"><ele>158.0</ele><time>2026-05-02T09:46:23.516Z</time></trkpt><trkpt lat="44.564806" lon="10.7439357"><ele>158.0</ele><time>2026-05-02T09:46:26.583Z</time></trkpt><trkpt lat="44.5647375" lon="10.7439799"><ele>158.0</ele><time>2026-05-02T09:46:29.533Z</time></trkpt><trkpt lat="44.5646649" lon="10.7440318"><ele>158.0</ele><time>2026-05-02T09:46:32.621Z</time></trkpt><trkpt lat="44.5645881" lon="10.7440894"><ele>158.0</ele><time>2026-05-02T09:46:35.531Z</time></trkpt><trkpt lat="44.5645313" lon="10.7441437"><ele>157.83333333333331</ele><time>2026-05-02T09:46:37.563Z</time></trkpt><trkpt lat="44.5644535" lon="10.7442155"><ele>157.66666666666666</ele><time>2026-05-02T09:46:40.53Z</time></trkpt><trkpt lat="44.5643804" lon="10.7442669"><ele>157.5</ele><time>2026-05-02T09:46:42.582Z</time></trkpt><trkpt lat="44.5643114" lon="10.7442928"><ele>157.33333333333334</ele><time>2026-05-02T09:46:44.593Z</time></trkpt><trkpt lat="44.5642553" lon="10.7443373"><ele>157.16666666666669</ele><time>2026-05-02T09:46:46.537Z</time></trkpt><trkpt lat="44.5641737" lon="10.7443779"><ele>157.0</ele><time>2026-05-02T09:46:49.563Z</time></trkpt><trkpt lat="44.5641058" lon="10.7444239"><ele>156.99999999999997</ele><time>2026-05-02T09:46:52.594Z</time></trkpt><trkpt lat="44.564042" lon="10.7444696"><ele>157.0</ele><time>2026-05-02T09:46:55.564Z</time></trkpt><trkpt lat="44.5639803" lon="10.7445163"><ele>157.0</ele><time>2026-05-02T09:46:58.579Z</time></trkpt><trkpt lat="44.5639125" lon="10.7445616"><ele>157.0</ele><time>2026-05-02T09:47:01.589Z</time></trkpt><trkpt lat="44.5638466" lon="10.7446028"><ele>157.0</ele><time>2026-05-02T09:47:04.616Z</time></trkpt><trkpt lat="44.5637797" lon="10.7446415"><ele>156.99999999999997</ele><time>2026-05-02T09:47:07.416Z</time></trkpt><trkpt lat="44.5637062" lon="10.7446874"><ele>157.0</ele><time>2026-05-02T09:47:10.563Z</time></trkpt><trkpt lat="44.5636369" lon="10.7447356"><ele>157.66666666666669</ele><time>2026-05-02T09:47:13.592Z</time></trkpt><trkpt lat="44.5635689" lon="10.7447933"><ele>158.33333333333334</ele><time>2026-05-02T09:47:16.529Z</time></trkpt><trkpt lat="44.5634986" lon="10.7448466"><ele>159.0</ele><time>2026-05-02T09:47:19.608Z</time></trkpt><trkpt lat="44.5634319" lon="10.744892"><ele>159.66666666666666</ele><time>2026-05-02T09:47:22.565Z</time></trkpt><trkpt lat="44.5633675" lon="10.7449451"><ele>160.33333333333331</ele><time>2026-05-02T09:47:25.595Z</time></trkpt><trkpt lat="44.5633117" lon="10.7449997"><ele>161.0</ele><time>2026-05-02T09:47:28.493Z</time></trkpt><trkpt lat="44.5632482" lon="10.7450554"><ele>161.0</ele><time>2026-05-02T09:47:31.581Z</time></trkpt><trkpt lat="44.5631876" lon="10.7451085"><ele>161.0</ele><time>2026-05-02T09:47:34.599Z</time></trkpt><trkpt lat="44.5631245" lon="10.745165"><ele>161.0</ele><time>2026-05-02T09:47:37.569Z</time></trkpt><trkpt lat="44.5630523" lon="10.745207"><ele>161.0</ele><time>2026-05-02T09:47:40.563Z</time></trkpt><trkpt lat="44.5629784" lon="10.7452399"><ele>161.0</ele><time>2026-05-02T09:47:43.616Z</time></trkpt><trkpt lat="44.5628961" lon="10.7452569"><ele>161.0</ele><time>2026-05-02T09:47:46.572Z</time></trkpt><trkpt lat="44.5628131" lon="10.7452634"><ele>160.5</ele><time>2026-05-02T09:47:49.49Z</time></trkpt><trkpt lat="44.5627435" lon="10.7452733"><ele>160.0</ele><time>2026-05-02T09:47:51.603Z</time></trkpt><trkpt lat="44.5626525" lon="10.7452514"><ele>159.5</ele><time>2026-05-02T09:47:54.621Z</time></trkpt><trkpt lat="44.5625813" lon="10.7452405"><ele>159.0</ele><time>2026-05-02T09:47:56.558Z</time></trkpt><trkpt lat="44.5625096" lon="10.7452357"><ele>158.5</ele><time>2026-05-02T09:47:58.416Z</time></trkpt><trkpt lat="44.5624303" lon="10.7452526"><ele>158.0</ele><time>2026-05-02T09:48:00.509Z</time></trkpt><trkpt lat="44.5623589" lon="10.745269"><ele>158.0</ele><time>2026-05-02T09:48:02.57Z</time></trkpt><trkpt lat="44.5622849" lon="10.7453008"><ele>158.0</ele><time>2026-05-02T09:48:04.582Z</time></trkpt><trkpt lat="44.5622268" lon="10.7453372"><ele>158.0</ele><time>2026-05-02T09:48:06.516Z</time></trkpt><trkpt lat="44.5621637" lon="10.7453592"><ele>158.0</ele><time>2026-05-02T09:48:08.632Z</time></trkpt><trkpt lat="44.5620719" lon="10.7453846"><ele>158.0</ele><time>2026-05-02T09:48:11.564Z</time></trkpt><trkpt lat="44.5619913" lon="10.7454254"><ele>158.0</ele><time>2026-05-02T09:48:14.566Z</time></trkpt><trkpt lat="44.561917" lon="10.7454708"><ele>157.42857142857144</ele><time>2026-05-02T09:48:17.555Z</time></trkpt><trkpt lat="44.5618558" lon="10.7455301"><ele>156.85714285714286</ele><time>2026-05-02T09:48:20.58Z</time></trkpt><trkpt lat="44.5618003" lon="10.7455966"><ele>156.28571428571428</ele><time>2026-05-02T09:48:23.599Z</time></trkpt><trkpt lat="44.5617409" lon="10.745655"><ele>155.71428571428572</ele><time>2026-05-02T09:48:26.55Z</time></trkpt><trkpt lat="44.5616856" lon="10.7457169"><ele>155.14285714285714</ele><time>2026-05-02T09:48:29.476Z</time></trkpt><trkpt lat="44.5616311" lon="10.7457693"><ele>154.57142857142858</ele><time>2026-05-02T09:48:32.564Z</time></trkpt><trkpt lat="44.561565" lon="10.7458463"><ele>154.0</ele><time>2026-05-02T09:48:36.579Z</time></trkpt><trkpt lat="44.5615179" lon="10.7459075"><ele>154.0</ele><time>2026-05-02T09:48:39.597Z</time></trkpt><trkpt lat="44.5614636" lon="10.7459779"><ele>154.0</ele><time>2026-05-02T09:48:42.596Z</time></trkpt><trkpt lat="44.561405" lon="10.7460563"><ele>154.0</ele><time>2026-05-02T09:48:45.535Z</time></trkpt><trkpt lat="44.5613429" lon="10.7461289"><ele>154.0</ele><time>2026-05-02T09:48:48.56Z</time></trkpt><trkpt lat="44.561282" lon="10.7461848"><ele>154.0</ele><time>2026-05-02T09:48:51.571Z</time></trkpt><trkpt lat="44.561222" lon="10.7462381"><ele>154.0</ele><time>2026-05-02T09:48:54.509Z</time></trkpt><trkpt lat="44.5611591" lon="10.7462852"><ele>153.71428571428572</ele><time>2026-05-02T09:48:57.607Z</time></trkpt><trkpt lat="44.5611013" lon="10.7463292"><ele>153.42857142857144</ele><time>2026-05-02T09:49:00.564Z</time></trkpt><trkpt lat="44.5610461" lon="10.7463816"><ele>153.14285714285714</ele><time>2026-05-02T09:49:03.595Z</time></trkpt><trkpt lat="44.5609844" lon="10.7464295"><ele>152.85714285714286</ele><time>2026-05-02T09:49:06.513Z</time></trkpt><trkpt lat="44.5609204" lon="10.7464818"><ele>152.57142857142858</ele><time>2026-05-02T09:49:09.58Z</time></trkpt><trkpt lat="44.5608626" lon="10.7465429"><ele>152.28571428571428</ele><time>2026-05-02T09:49:12.6Z</time></trkpt><trkpt lat="44.5608096" lon="10.746609"><ele>152.0</ele><time>2026-05-02T09:49:15.528Z</time></trkpt><trkpt lat="44.5607562" lon="10.7466673"><ele>152.0</ele><time>2026-05-02T09:49:18.355Z</time></trkpt><trkpt lat="44.5606987" lon="10.7467244"><ele>152.0</ele><time>2026-05-02T09:49:21.495Z</time></trkpt><trkpt lat="44.5606383" lon="10.7467929"><ele>152.0</ele><time>2026-05-02T09:49:24.572Z</time></trkpt><trkpt lat="44.5605781" lon="10.7468664"><ele>152.0</ele><time>2026-05-02T09:49:27.492Z</time></trkpt><trkpt lat="44.5605251" lon="10.7469246"><ele>152.0</ele><time>2026-05-02T09:49:29.603Z</time></trkpt><trkpt lat="44.5604693" lon="10.7469876"><ele>152.0</ele><time>2026-05-02T09:49:32.492Z</time></trkpt><trkpt lat="44.5603987" lon="10.7470689"><ele>151.83333333333331</ele><time>2026-05-02T09:49:35.563Z</time></trkpt><trkpt lat="44.5603357" lon="10.74714"><ele>151.66666666666666</ele><time>2026-05-02T09:49:38.549Z</time></trkpt><trkpt lat="44.5602637" lon="10.7472218"><ele>151.5</ele><time>2026-05-02T09:49:41.576Z</time></trkpt><trkpt lat="44.5601923" lon="10.7473007"><ele>151.33333333333334</ele><time>2026-05-02T09:49:44.594Z</time></trkpt><trkpt lat="44.5601214" lon="10.747379"><ele>151.16666666666669</ele><time>2026-05-02T09:49:47.634Z</time></trkpt><trkpt lat="44.5600688" lon="10.7474332"><ele>151.0</ele><time>2026-05-02T09:49:49.563Z</time></trkpt><trkpt lat="44.5599872" lon="10.7475177"><ele>151.0</ele><time>2026-05-02T09:49:52.563Z</time></trkpt><trkpt lat="44.5599275" lon="10.747582"><ele>151.0</ele><time>2026-05-02T09:49:54.565Z</time></trkpt><trkpt lat="44.5598731" lon="10.7476401"><ele>151.0</ele><time>2026-05-02T09:49:56.589Z</time></trkpt><trkpt lat="44.5598193" lon="10.7476959"><ele>151.0</ele><time>2026-05-02T09:49:58.58Z</time></trkpt><trkpt lat="44.559767" lon="10.7477464"><ele>151.0</ele><time>2026-05-02T09:50:00.614Z</time></trkpt><trkpt lat="44.5596928" lon="10.7478151"><ele>151.0</ele><time>2026-05-02T09:50:03.61Z</time></trkpt><trkpt lat="44.5596095" lon="10.7478746"><ele>150.66666666666669</ele><time>2026-05-02T09:50:06.564Z</time></trkpt><trkpt lat="44.559525" lon="10.7479397"><ele>150.33333333333334</ele><time>2026-05-02T09:50:09.563Z</time></trkpt><trkpt lat="44.5594669" lon="10.7479819"><ele>150.0</ele><time>2026-05-02T09:50:11.563Z</time></trkpt><trkpt lat="44.5593877" lon="10.748049"><ele>149.66666666666666</ele><time>2026-05-02T09:50:14.57Z</time></trkpt><trkpt lat="44.5593333" lon="10.7481134"><ele>149.33333333333331</ele><time>2026-05-02T09:50:16.59Z</time></trkpt><trkpt lat="44.5592731" lon="10.7481743"><ele>149.0</ele><time>2026-05-02T09:50:18.533Z</time></trkpt><trkpt lat="44.5592151" lon="10.748224"><ele>149.0</ele><time>2026-05-02T09:50:20.614Z</time></trkpt><trkpt lat="44.559161" lon="10.7482696"><ele>149.0</ele><time>2026-05-02T09:50:22.487Z</time></trkpt><trkpt lat="44.5591026" lon="10.7483286"><ele>149.0</ele><time>2026-05-02T09:50:24.563Z</time></trkpt><trkpt lat="44.5590277" lon="10.7484063"><ele>149.0</ele><time>2026-05-02T09:50:27.548Z</time></trkpt><trkpt lat="44.5589739" lon="10.7484594"><ele>149.0</ele><time>2026-05-02T09:50:29.569Z</time></trkpt><trkpt lat="44.5589204" lon="10.7485169"><ele>149.0</ele><time>2026-05-02T09:50:31.534Z</time></trkpt><trkpt lat="44.5588606" lon="10.7485713"><ele>149.0</ele><time>2026-05-02T09:50:33.594Z</time></trkpt><trkpt lat="44.5587946" lon="10.748619"><ele>148.16666666666666</ele><time>2026-05-02T09:50:35.607Z</time></trkpt><trkpt lat="44.5587025" lon="10.7486793"><ele>147.33333333333331</ele><time>2026-05-02T09:50:38.563Z</time></trkpt><trkpt lat="44.558634" lon="10.7487311"><ele>146.5</ele><time>2026-05-02T09:50:40.561Z</time></trkpt><trkpt lat="44.5585757" lon="10.7487814"><ele>145.66666666666666</ele><time>2026-05-02T09:50:42.55Z</time></trkpt><trkpt lat="44.5584929" lon="10.7488533"><ele>144.83333333333334</ele><time>2026-05-02T09:50:45.567Z</time></trkpt><trkpt lat="44.5584344" lon="10.7489052"><ele>144.0</ele><time>2026-05-02T09:50:47.51Z</time></trkpt><trkpt lat="44.5583765" lon="10.7489638"><ele>143.5</ele><time>2026-05-02T09:50:49.593Z</time></trkpt><trkpt lat="44.5583168" lon="10.749017"><ele>143.0</ele><time>2026-05-02T09:50:51.604Z</time></trkpt><trkpt lat="44.5582455" lon="10.7490831"><ele>142.5</ele><time>2026-05-02T09:50:54.623Z</time></trkpt><trkpt lat="44.5581875" lon="10.7491552"><ele>142.0</ele><time>2026-05-02T09:50:57.471Z</time></trkpt><trkpt lat="44.5581328" lon="10.7492411"><ele>141.5</ele><time>2026-05-02T09:51:00.56Z</time></trkpt><trkpt lat="44.5580758" lon="10.7493238"><ele>141.0</ele><time>2026-05-02T09:51:03.631Z</time></trkpt><trkpt lat="44.5580248" lon="10.7494066"><ele>141.0</ele><time>2026-05-02T09:51:06.537Z</time></trkpt><trkpt lat="44.5579643" lon="10.7495009"><ele>141.0</ele><time>2026-05-02T09:51:09.614Z</time></trkpt><trkpt lat="44.5579124" lon="10.7495892"><ele>141.0</ele><time>2026-05-02T09:51:12.564Z</time></trkpt><trkpt lat="44.5578596" lon="10.749675"><ele>141.0</ele><time>2026-05-02T09:51:15.491Z</time></trkpt><trkpt lat="44.5577973" lon="10.749758"><ele>141.0</ele><time>2026-05-02T09:51:18.569Z</time></trkpt><trkpt lat="44.5577497" lon="10.7498394"><ele>141.0</ele><time>2026-05-02T09:51:21.587Z</time></trkpt><trkpt lat="44.5577061" lon="10.7499182"><ele>141.28571428571428</ele><time>2026-05-02T09:51:24.557Z</time></trkpt><trkpt lat="44.5576585" lon="10.7499985"><ele>141.57142857142856</ele><time>2026-05-02T09:51:27.564Z</time></trkpt><trkpt lat="44.557611" lon="10.7500827"><ele>141.85714285714283</ele><time>2026-05-02T09:51:30.635Z</time></trkpt><trkpt lat="44.5575709" lon="10.7501596"><ele>142.14285714285714</ele><time>2026-05-02T09:51:33.15Z</time></trkpt><trkpt lat="44.5575305" lon="10.7502431"><ele>142.42857142857142</ele><time>2026-05-02T09:51:35.574Z</time></trkpt><trkpt lat="44.5574823" lon="10.7503458"><ele>142.7142857142857</ele><time>2026-05-02T09:51:38.512Z</time></trkpt><trkpt lat="44.5574457" lon="10.7504182"><ele>143.0</ele><time>2026-05-02T09:51:40.604Z</time></trkpt><trkpt lat="44.5573924" lon="10.7505245"><ele>143.0</ele><time>2026-05-02T09:51:43.563Z</time></trkpt><trkpt lat="44.5573427" lon="10.7506188"><ele>143.0</ele><time>2026-05-02T09:51:46.562Z</time></trkpt><trkpt lat="44.5572991" lon="10.7507121"><ele>143.0</ele><time>2026-05-02T09:51:49.563Z</time></trkpt><trkpt lat="44.5572501" lon="10.7508027"><ele>143.0</ele><time>2026-05-02T09:51:52.609Z</time></trkpt><trkpt lat="44.5572059" lon="10.7508838"><ele>143.0</ele><time>2026-05-02T09:51:55.537Z</time></trkpt><trkpt lat="44.5571586" lon="10.7509693"><ele>143.0</ele><time>2026-05-02T09:51:58.614Z</time></trkpt><trkpt lat="44.5571139" lon="10.7510641"><ele>143.0</ele><time>2026-05-02T09:52:01.563Z</time></trkpt><trkpt lat="44.5570803" lon="10.7511686"><ele>143.0</ele><time>2026-05-02T09:52:04.564Z</time></trkpt><trkpt lat="44.5570389" lon="10.7512661"><ele>143.0</ele><time>2026-05-02T09:52:07.592Z</time></trkpt><trkpt lat="44.5570023" lon="10.7513637"><ele>143.0</ele><time>2026-05-02T09:52:10.529Z</time></trkpt><trkpt lat="44.5569623" lon="10.7514559"><ele>143.0</ele><time>2026-05-02T09:52:13.606Z</time></trkpt><trkpt lat="44.5569236" lon="10.7515416"><ele>143.0</ele><time>2026-05-02T09:52:16.562Z</time></trkpt><trkpt lat="44.5568954" lon="10.751624"><ele>142.99999999999997</ele><time>2026-05-02T09:52:19.595Z</time></trkpt><trkpt lat="44.5568562" lon="10.7516948"><ele>143.0</ele><time>2026-05-02T09:52:22.532Z</time></trkpt><trkpt lat="44.5568041" lon="10.7517577"><ele>143.0</ele><time>2026-05-02T09:52:25.489Z</time></trkpt><trkpt lat="44.556759" lon="10.7518273"><ele>143.0</ele><time>2026-05-02T09:52:28.598Z</time></trkpt><trkpt lat="44.556707" lon="10.7519224"><ele>143.0</ele><time>2026-05-02T09:52:32.623Z</time></trkpt><trkpt lat="44.5566683" lon="10.7519942"><ele>142.99999999999997</ele><time>2026-05-02T09:52:35.563Z</time></trkpt><trkpt lat="44.5566245" lon="10.7520675"><ele>143.0</ele><time>2026-05-02T09:52:38.566Z</time></trkpt><trkpt lat="44.5565805" lon="10.7521483"><ele>142.99999999999997</ele><time>2026-05-02T09:52:41.577Z</time></trkpt><trkpt lat="44.5565372" lon="10.7522318"><ele>143.0</ele><time>2026-05-02T09:52:44.607Z</time></trkpt><trkpt lat="44.5564996" lon="10.7523159"><ele>143.0</ele><time>2026-05-02T09:52:47.575Z</time></trkpt><trkpt lat="44.5564635" lon="10.7524006"><ele>143.0</ele><time>2026-05-02T09:52:50.494Z</time></trkpt><trkpt lat="44.5564314" lon="10.752491"><ele>143.0</ele><time>2026-05-02T09:52:53.563Z</time></trkpt><trkpt lat="44.5564014" lon="10.7525775"><ele>142.99999999999997</ele><time>2026-05-02T09:52:56.569Z</time></trkpt><trkpt lat="44.5563726" lon="10.7526664"><ele>143.0</ele><time>2026-05-02T09:52:59.59Z</time></trkpt><trkpt lat="44.5563448" lon="10.7527554"><ele>143.28571428571428</ele><time>2026-05-02T09:53:02.547Z</time></trkpt><trkpt lat="44.5563185" lon="10.7528449"><ele>143.57142857142856</ele><time>2026-05-02T09:53:05.496Z</time></trkpt><trkpt lat="44.5562901" lon="10.7529365"><ele>143.85714285714286</ele><time>2026-05-02T09:53:08.566Z</time></trkpt><trkpt lat="44.5562602" lon="10.7530274"><ele>144.14285714285714</ele><time>2026-05-02T09:53:11.564Z</time></trkpt><trkpt lat="44.5562309" lon="10.7531161"><ele>144.42857142857144</ele><time>2026-05-02T09:53:14.58Z</time></trkpt><trkpt lat="44.5561843" lon="10.7531837"><ele>144.71428571428572</ele><time>2026-05-02T09:53:17.598Z</time></trkpt><trkpt lat="44.5561691" lon="10.7532887"><ele>145.0</ele><time>2026-05-02T09:53:20.568Z</time></trkpt><trkpt lat="44.5561319" lon="10.7533784"><ele>146.57142857142858</ele><time>2026-05-02T09:53:23.564Z</time></trkpt><trkpt lat="44.5560962" lon="10.753474"><ele>148.14285714285717</ele><time>2026-05-02T09:53:26.565Z</time></trkpt><trkpt lat="44.5560484" lon="10.7535558"><ele>149.71428571428572</ele><time>2026-05-02T09:53:29.571Z</time></trkpt><trkpt lat="44.5560015" lon="10.7536268"><ele>151.28571428571428</ele><time>2026-05-02T09:53:32.592Z</time></trkpt><trkpt lat="44.5559561" lon="10.7536924"><ele>152.85714285714283</ele><time>2026-05-02T09:53:35.57Z</time></trkpt><trkpt lat="44.5559044" lon="10.7537811"><ele>154.42857142857144</ele><time>2026-05-02T09:53:39.561Z</time></trkpt><trkpt lat="44.5558625" lon="10.7538506"><ele>156.0</ele><time>2026-05-02T09:53:42.613Z</time></trkpt><trkpt lat="44.5558254" lon="10.7539238"><ele>156.0</ele><time>2026-05-02T09:53:45.591Z</time></trkpt><trkpt lat="44.5557941" lon="10.7540369"><ele>156.0</ele><time>2026-05-02T09:53:49.594Z</time></trkpt><trkpt lat="44.5557803" lon="10.7541372"><ele>156.0</ele><time>2026-05-02T09:53:52.573Z</time></trkpt><trkpt lat="44.5557675" lon="10.7542465"><ele>156.0</ele><time>2026-05-02T09:53:55.562Z</time></trkpt><trkpt lat="44.5557504" lon="10.754361"><ele>156.0</ele><time>2026-05-02T09:53:58.564Z</time></trkpt><trkpt lat="44.5557434" lon="10.7544808"><ele>156.0</ele><time>2026-05-02T09:54:01.591Z</time></trkpt><trkpt lat="44.5557266" lon="10.7545944"><ele>155.83333333333334</ele><time>2026-05-02T09:54:04.586Z</time></trkpt><trkpt lat="44.5557114" lon="10.7547034"><ele>155.66666666666666</ele><time>2026-05-02T09:54:07.605Z</time></trkpt><trkpt lat="44.5556959" lon="10.7548074"><ele>155.5</ele><time>2026-05-02T09:54:10.535Z</time></trkpt><trkpt lat="44.5556782" lon="10.7549174"><ele>155.33333333333331</ele><time>2026-05-02T09:54:13.564Z</time></trkpt><trkpt lat="44.5556592" lon="10.755023"><ele>155.16666666666666</ele><time>2026-05-02T09:54:16.593Z</time></trkpt><trkpt lat="44.5556353" lon="10.7551257"><ele>155.0</ele><time>2026-05-02T09:54:19.578Z</time></trkpt><trkpt lat="44.5556111" lon="10.7552235"><ele>153.66666666666666</ele><time>2026-05-02T09:54:22.597Z</time></trkpt><trkpt lat="44.5555861" lon="10.7553219"><ele>152.33333333333331</ele><time>2026-05-02T09:54:25.538Z</time></trkpt><trkpt lat="44.5555561" lon="10.7554245"><ele>151.0</ele><time>2026-05-02T09:54:28.563Z</time></trkpt><trkpt lat="44.555523" lon="10.7555229"><ele>149.66666666666666</ele><time>2026-05-02T09:54:31.565Z</time></trkpt><trkpt lat="44.5554945" lon="10.7556168"><ele>148.33333333333334</ele><time>2026-05-02T09:54:34.491Z</time></trkpt><trkpt lat="44.5554658" lon="10.7557187"><ele>147.0</ele><time>2026-05-02T09:54:37.589Z</time></trkpt><trkpt lat="44.5554409" lon="10.7558143"><ele>147.0</ele><time>2026-05-02T09:54:40.51Z</time></trkpt><trkpt lat="44.5554224" lon="10.7559234"><ele>147.0</ele><time>2026-05-02T09:54:43.566Z</time></trkpt><trkpt lat="44.5554086" lon="10.756047"><ele>147.0</ele><time>2026-05-02T09:54:46.535Z</time></trkpt><trkpt lat="44.5554067" lon="10.7561391"><ele>147.0</ele><time>2026-05-02T09:54:48.564Z</time></trkpt><trkpt lat="44.5554002" lon="10.7562612"><ele>147.0</ele><time>2026-05-02T09:54:51.516Z</time></trkpt><trkpt lat="44.5553882" lon="10.7563853"><ele>147.0</ele><time>2026-05-02T09:54:54.593Z</time></trkpt><trkpt lat="44.555388" lon="10.7565026"><ele>146.14285714285714</ele><time>2026-05-02T09:54:57.563Z</time></trkpt><trkpt lat="44.5553914" lon="10.7565913"><ele>145.28571428571428</ele><time>2026-05-02T09:54:59.565Z</time></trkpt><trkpt lat="44.5553966" lon="10.7566808"><ele>144.42857142857144</ele><time>2026-05-02T09:55:01.563Z</time></trkpt><trkpt lat="44.5554109" lon="10.7568109"><ele>143.57142857142856</ele><time>2026-05-02T09:55:04.557Z</time></trkpt><trkpt lat="44.5554273" lon="10.7569078"><ele>142.71428571428572</ele><time>2026-05-02T09:55:06.566Z</time></trkpt><trkpt lat="44.5554435" lon="10.7570028"><ele>141.85714285714286</ele><time>2026-05-02T09:55:08.49Z</time></trkpt><trkpt lat="44.555453" lon="10.7571027"><ele>141.0</ele><time>2026-05-02T09:55:10.592Z</time></trkpt><trkpt lat="44.5554605" lon="10.757213"><ele>140.71428571428572</ele><time>2026-05-02T09:55:12.603Z</time></trkpt><trkpt lat="44.5554713" lon="10.7573105"><ele>140.42857142857142</ele><time>2026-05-02T09:55:14.537Z</time></trkpt><trkpt lat="44.5554768" lon="10.7574135"><ele>140.14285714285714</ele><time>2026-05-02T09:55:16.563Z</time></trkpt><trkpt lat="44.5554816" lon="10.7575074"><ele>139.85714285714286</ele><time>2026-05-02T09:55:18.562Z</time></trkpt><trkpt lat="44.5554961" lon="10.757599"><ele>139.57142857142858</ele><time>2026-05-02T09:55:20.556Z</time></trkpt><trkpt lat="44.5554999" lon="10.7576884"><ele>139.28571428571428</ele><time>2026-05-02T09:55:22.565Z</time></trkpt><trkpt lat="44.5554951" lon="10.7578154"><ele>139.0</ele><time>2026-05-02T09:55:25.535Z</time></trkpt><trkpt lat="44.5554995" lon="10.7579441"><ele>139.0</ele><time>2026-05-02T09:55:28.601Z</time></trkpt><trkpt lat="44.5555148" lon="10.7580707"><ele>139.0</ele><time>2026-05-02T09:55:31.511Z</time></trkpt><trkpt lat="44.5555261" lon="10.7581662"><ele>139.0</ele><time>2026-05-02T09:55:33.614Z</time></trkpt><trkpt lat="44.5555337" lon="10.7582573"><ele>139.0</ele><time>2026-05-02T09:55:35.566Z</time></trkpt><trkpt lat="44.5555735" lon="10.7583786"><ele>139.0</ele><time>2026-05-02T09:55:38.554Z</time></trkpt><trkpt lat="44.5556303" lon="10.7584661"><ele>139.0</ele><time>2026-05-02T09:55:41.581Z</time></trkpt><trkpt lat="44.5556848" lon="10.7585552"><ele>138.5</ele><time>2026-05-02T09:55:44.551Z</time></trkpt><trkpt lat="44.5557399" lon="10.7586365"><ele>138.0</ele><time>2026-05-02T09:55:47.565Z</time></trkpt><trkpt lat="44.5557944" lon="10.7587297"><ele>137.5</ele><time>2026-05-02T09:55:50.57Z</time></trkpt><trkpt lat="44.5558573" lon="10.7588011"><ele>137.0</ele><time>2026-05-02T09:55:53.565Z</time></trkpt><trkpt lat="44.5559207" lon="10.758864"><ele>136.5</ele><time>2026-05-02T09:55:56.573Z</time></trkpt><trkpt lat="44.5559697" lon="10.7589347"><ele>136.0</ele><time>2026-05-02T09:55:59.532Z</time></trkpt><trkpt lat="44.5560168" lon="10.7590176"><ele>136.0</ele><time>2026-05-02T09:56:02.61Z</time></trkpt><trkpt lat="44.5560348" lon="10.7591291"><ele>136.0</ele><time>2026-05-02T09:56:05.573Z</time></trkpt><trkpt lat="44.5560248" lon="10.7592521"><ele>136.0</ele><time>2026-05-02T09:56:08.565Z</time></trkpt><trkpt lat="44.5560063" lon="10.7593846"><ele>136.0</ele><time>2026-05-02T09:56:11.567Z</time></trkpt><trkpt lat="44.5559722" lon="10.7595026"><ele>136.0</ele><time>2026-05-02T09:56:14.584Z</time></trkpt><trkpt lat="44.55593" lon="10.7596007"><ele>136.0</ele><time>2026-05-02T09:56:17.533Z</time></trkpt><trkpt lat="44.5558806" lon="10.7596907"><ele>135.83333333333334</ele><time>2026-05-02T09:56:20.566Z</time></trkpt><trkpt lat="44.5558311" lon="10.7597833"><ele>135.66666666666669</ele><time>2026-05-02T09:56:23.634Z</time></trkpt><trkpt lat="44.555791" lon="10.7598828"><ele>135.5</ele><time>2026-05-02T09:56:26.468Z</time></trkpt><trkpt lat="44.5557584" lon="10.7599657"><ele>135.33333333333334</ele><time>2026-05-02T09:56:28.569Z</time></trkpt><trkpt lat="44.5557217" lon="10.760059"><ele>135.16666666666666</ele><time>2026-05-02T09:56:31.529Z</time></trkpt><trkpt lat="44.5557016" lon="10.7601828"><ele>135.0</ele><time>2026-05-02T09:56:34.606Z</time></trkpt><trkpt lat="44.5556657" lon="10.7603063"><ele>134.66666666666666</ele><time>2026-05-02T09:56:37.637Z</time></trkpt><trkpt lat="44.5556314" lon="10.7603998"><ele>134.33333333333334</ele><time>2026-05-02T09:56:39.565Z</time></trkpt><trkpt lat="44.5555882" lon="10.760528"><ele>134.0</ele><time>2026-05-02T09:56:42.565Z</time></trkpt><trkpt lat="44.5555655" lon="10.7606424"><ele>133.66666666666669</ele><time>2026-05-02T09:56:45.494Z</time></trkpt><trkpt lat="44.5555582" lon="10.7607557"><ele>133.33333333333334</ele><time>2026-05-02T09:56:48.592Z</time></trkpt><trkpt lat="44.5555845" lon="10.7608522"><ele>133.0</ele><time>2026-05-02T09:56:51.531Z</time></trkpt><trkpt lat="44.5556329" lon="10.7609291"><ele>133.0</ele><time>2026-05-02T09:56:54.564Z</time></trkpt><trkpt lat="44.5556951" lon="10.761004"><ele>133.0</ele><time>2026-05-02T09:56:57.568Z</time></trkpt><trkpt lat="44.5557619" lon="10.7610626"><ele>133.0</ele><time>2026-05-02T09:57:00.565Z</time></trkpt><trkpt lat="44.5558285" lon="10.7611364"><ele>133.0</ele><time>2026-05-02T09:57:03.575Z</time></trkpt><trkpt lat="44.5558941" lon="10.7612128"><ele>133.0</ele><time>2026-05-02T09:57:06.513Z</time></trkpt><trkpt lat="44.5559664" lon="10.7612818"><ele>133.0</ele><time>2026-05-02T09:57:09.621Z</time></trkpt><trkpt lat="44.5560266" lon="10.7613564"><ele>132.83333333333334</ele><time>2026-05-02T09:57:12.551Z</time></trkpt><trkpt lat="44.5560802" lon="10.7614493"><ele>132.66666666666669</ele><time>2026-05-02T09:57:15.467Z</time></trkpt><trkpt lat="44.5561192" lon="10.7615199"><ele>132.5</ele><time>2026-05-02T09:57:17.611Z</time></trkpt><trkpt lat="44.5561704" lon="10.7616122"><ele>132.33333333333334</ele><time>2026-05-02T09:57:20.587Z</time></trkpt><trkpt lat="44.5562258" lon="10.7617082"><ele>132.16666666666666</ele><time>2026-05-02T09:57:23.606Z</time></trkpt><trkpt lat="44.5562892" lon="10.7617899"><ele>132.0</ele><time>2026-05-02T09:57:26.495Z</time></trkpt><trkpt lat="44.5563606" lon="10.7618697"><ele>131.5</ele><time>2026-05-02T09:57:29.565Z</time></trkpt><trkpt lat="44.556406" lon="10.7619323"><ele>131.0</ele><time>2026-05-02T09:57:31.565Z</time></trkpt><trkpt lat="44.5564769" lon="10.7620277"><ele>130.5</ele><time>2026-05-02T09:57:34.575Z</time></trkpt><trkpt lat="44.5565245" lon="10.7620875"><ele>130.0</ele><time>2026-05-02T09:57:36.585Z</time></trkpt><trkpt lat="44.5565669" lon="10.7621556"><ele>129.5</ele><time>2026-05-02T09:57:38.597Z</time></trkpt><trkpt lat="44.5566252" lon="10.7622413"><ele>129.0</ele><time>2026-05-02T09:57:41.567Z</time></trkpt><trkpt lat="44.5566874" lon="10.7623343"><ele>129.0</ele><time>2026-05-02T09:57:44.566Z</time></trkpt><trkpt lat="44.5567507" lon="10.7624281"><ele>129.0</ele><time>2026-05-02T09:57:47.555Z</time></trkpt><trkpt lat="44.5568097" lon="10.7625198"><ele>129.0</ele><time>2026-05-02T09:57:50.572Z</time></trkpt><trkpt lat="44.556862" lon="10.7625848"><ele>129.0</ele><time>2026-05-02T09:57:52.583Z</time></trkpt><trkpt lat="44.5569238" lon="10.7626621"><ele>129.0</ele><time>2026-05-02T09:57:55.602Z</time></trkpt><trkpt lat="44.5569879" lon="10.7627519"><ele>129.0</ele><time>2026-05-02T09:57:58.592Z</time></trkpt><trkpt lat="44.5570512" lon="10.7628393"><ele>129.0</ele><time>2026-05-02T09:58:01.564Z</time></trkpt><trkpt lat="44.557119" lon="10.762926"><ele>129.0</ele><time>2026-05-02T09:58:04.609Z</time></trkpt><trkpt lat="44.5571831" lon="10.7630058"><ele>129.0</ele><time>2026-05-02T09:58:07.516Z</time></trkpt><trkpt lat="44.5572451" lon="10.7630869"><ele>129.0</ele><time>2026-05-02T09:58:10.593Z</time></trkpt><trkpt lat="44.5573077" lon="10.763164"><ele>129.0</ele><time>2026-05-02T09:58:13.594Z</time></trkpt><trkpt lat="44.5573701" lon="10.7632384"><ele>129.0</ele><time>2026-05-02T09:58:16.564Z</time></trkpt><trkpt lat="44.5574346" lon="10.7633076"><ele>128.99999999999997</ele><time>2026-05-02T09:58:19.633Z</time></trkpt><trkpt lat="44.5574904" lon="10.7633769"><ele>129.0</ele><time>2026-05-02T09:58:22.508Z</time></trkpt><trkpt lat="44.5575448" lon="10.7634299"><ele>129.0</ele><time>2026-05-02T09:58:25.586Z</time></trkpt><trkpt lat="44.5576099" lon="10.7634888"><ele>129.0</ele><time>2026-05-02T09:58:28.535Z</time></trkpt><trkpt lat="44.557694" lon="10.7635342"><ele>129.0</ele><time>2026-05-02T09:58:31.622Z</time></trkpt><trkpt lat="44.5577554" lon="10.7635714"><ele>128.99999999999997</ele><time>2026-05-02T09:58:33.564Z</time></trkpt><trkpt lat="44.5578111" lon="10.763617"><ele>129.0</ele><time>2026-05-02T09:58:35.548Z</time></trkpt><trkpt lat="44.5578738" lon="10.76365"><ele>129.0</ele><time>2026-05-02T09:58:37.569Z</time></trkpt><trkpt lat="44.5579587" lon="10.7636997"><ele>129.0</ele><time>2026-05-02T09:58:40.577Z</time></trkpt><trkpt lat="44.5580419" lon="10.7637405"><ele>129.0</ele><time>2026-05-02T09:58:43.631Z</time></trkpt><trkpt lat="44.5581221" lon="10.7637807"><ele>129.0</ele><time>2026-05-02T09:58:46.615Z</time></trkpt><trkpt lat="44.5582073" lon="10.7638215"><ele>129.0</ele><time>2026-05-02T09:58:49.564Z</time></trkpt><trkpt lat="44.5582681" lon="10.7638457"><ele>129.0</ele><time>2026-05-02T09:58:51.496Z</time></trkpt><trkpt lat="44.5583297" lon="10.76387"><ele>129.0</ele><time>2026-05-02T09:58:53.564Z</time></trkpt><trkpt lat="44.5584167" lon="10.7638996"><ele>129.0</ele><time>2026-05-02T09:58:56.497Z</time></trkpt><trkpt lat="44.5584983" lon="10.7639252"><ele>129.0</ele><time>2026-05-02T09:58:59.594Z</time></trkpt><trkpt lat="44.5585747" lon="10.7639445"><ele>129.0</ele><time>2026-05-02T09:59:02.533Z</time></trkpt><trkpt lat="44.5586613" lon="10.7639689"><ele>129.0</ele><time>2026-05-02T09:59:06.565Z</time></trkpt><trkpt lat="44.5587468" lon="10.7639825"><ele>129.0</ele><time>2026-05-02T09:59:09.563Z</time></trkpt><trkpt lat="44.5588341" lon="10.7639972"><ele>128.66666666666666</ele><time>2026-05-02T09:59:12.495Z</time></trkpt><trkpt lat="44.558897" lon="10.764006"><ele>128.33333333333334</ele><time>2026-05-02T09:59:14.627Z</time></trkpt><trkpt lat="44.5589839" lon="10.764017"><ele>128.0</ele><time>2026-05-02T09:59:17.604Z</time></trkpt><trkpt lat="44.559069" lon="10.7640363"><ele>127.66666666666667</ele><time>2026-05-02T09:59:20.623Z</time></trkpt><trkpt lat="44.5591529" lon="10.7640524"><ele>127.33333333333334</ele><time>2026-05-02T09:59:23.532Z</time></trkpt><trkpt lat="44.5592338" lon="10.7640629"><ele>127.0</ele><time>2026-05-02T09:59:26.565Z</time></trkpt><trkpt lat="44.5593137" lon="10.7640735"><ele>127.00000000000001</ele><time>2026-05-02T09:59:29.609Z</time></trkpt><trkpt lat="44.5593907" lon="10.7640868"><ele>127.0</ele><time>2026-05-02T09:59:32.496Z</time></trkpt><trkpt lat="44.5594753" lon="10.7640979"><ele>127.0</ele><time>2026-05-02T09:59:35.614Z</time></trkpt><trkpt lat="44.5595479" lon="10.764104"><ele>127.0</ele><time>2026-05-02T09:59:38.595Z</time></trkpt><trkpt lat="44.5596275" lon="10.7641367"><ele>127.00000000000001</ele><time>2026-05-02T09:59:41.564Z</time></trkpt><trkpt lat="44.5596961" lon="10.7641715"><ele>127.0</ele><time>2026-05-02T09:59:44.591Z</time></trkpt><trkpt lat="44.5597746" lon="10.7642058"><ele>126.50000000000001</ele><time>2026-05-02T09:59:47.588Z</time></trkpt><trkpt lat="44.5598637" lon="10.7642501"><ele>126.0</ele><time>2026-05-02T09:59:50.608Z</time></trkpt><trkpt lat="44.5599239" lon="10.764276"><ele>125.5</ele><time>2026-05-02T09:59:52.619Z</time></trkpt><trkpt lat="44.5600144" lon="10.7643009"><ele>125.0</ele><time>2026-05-02T09:59:55.564Z</time></trkpt><trkpt lat="44.560075" lon="10.7643312"><ele>124.50000000000001</ele><time>2026-05-02T09:59:57.611Z</time></trkpt><trkpt lat="44.5601609" lon="10.764372"><ele>124.0</ele><time>2026-05-02T10:00:00.568Z</time></trkpt><trkpt lat="44.5602433" lon="10.7644193"><ele>124.00000000000001</ele><time>2026-05-02T10:00:03.569Z</time></trkpt><trkpt lat="44.5603064" lon="10.7644252"><ele>124.0</ele><time>2026-05-02T10:00:05.598Z</time></trkpt><trkpt lat="44.5603804" lon="10.7644738"><ele>124.0</ele><time>2026-05-02T10:00:08.617Z</time></trkpt><trkpt lat="44.5604524" lon="10.7645525"><ele>124.0</ele><time>2026-05-02T10:00:11.564Z</time></trkpt><trkpt lat="44.5605293" lon="10.7646341"><ele>124.00000000000001</ele><time>2026-05-02T10:00:14.535Z</time></trkpt><trkpt lat="44.5605859" lon="10.7646897"><ele>124.0</ele><time>2026-05-02T10:00:16.587Z</time></trkpt><trkpt lat="44.5606401" lon="10.7647494"><ele>123.85714285714286</ele><time>2026-05-02T10:00:18.578Z</time></trkpt><trkpt lat="44.5606931" lon="10.7648143"><ele>123.71428571428572</ele><time>2026-05-02T10:00:20.59Z</time></trkpt><trkpt lat="44.5607606" lon="10.7648804"><ele>123.57142857142858</ele><time>2026-05-02T10:00:22.535Z</time></trkpt><trkpt lat="44.5608277" lon="10.7649541"><ele>123.42857142857144</ele><time>2026-05-02T10:00:24.615Z</time></trkpt><trkpt lat="44.5608814" lon="10.7650199"><ele>123.28571428571429</ele><time>2026-05-02T10:00:26.564Z</time></trkpt><trkpt lat="44.5609344" lon="10.7650765"><ele>123.14285714285717</ele><time>2026-05-02T10:00:28.491Z</time></trkpt><trkpt lat="44.5609928" lon="10.7651312"><ele>123.00000000000001</ele><time>2026-05-02T10:00:30.593Z</time></trkpt><trkpt lat="44.56105" lon="10.765179"><ele>122.5</ele><time>2026-05-02T10:00:32.565Z</time></trkpt><trkpt lat="44.5611039" lon="10.7652268"><ele>122.0</ele><time>2026-05-02T10:00:34.507Z</time></trkpt><trkpt lat="44.5611606" lon="10.7652676"><ele>121.5</ele><time>2026-05-02T10:00:36.61Z</time></trkpt><trkpt lat="44.5612379" lon="10.7653174"><ele>121.0</ele><time>2026-05-02T10:00:39.608Z</time></trkpt><trkpt lat="44.5613183" lon="10.7653742"><ele>120.5</ele><time>2026-05-02T10:00:42.564Z</time></trkpt><trkpt lat="44.5613943" lon="10.7654271"><ele>120.0</ele><time>2026-05-02T10:00:45.565Z</time></trkpt><trkpt lat="44.5614781" lon="10.7654828"><ele>120.0</ele><time>2026-05-02T10:00:48.635Z</time></trkpt><trkpt lat="44.5615627" lon="10.7655315"><ele>120.0</ele><time>2026-05-02T10:00:51.581Z</time></trkpt><trkpt lat="44.5616465" lon="10.7655754"><ele>120.0</ele><time>2026-05-02T10:00:54.599Z</time></trkpt><trkpt lat="44.5617219" lon="10.7656378"><ele>120.0</ele><time>2026-05-02T10:00:57.618Z</time></trkpt><trkpt lat="44.5617272" lon="10.7657361"><ele>120.0</ele><time>2026-05-02T10:01:00.565Z</time></trkpt><trkpt lat="44.5617126" lon="10.7658596"><ele>120.0</ele><time>2026-05-02T10:01:03.536Z</time></trkpt><trkpt lat="44.5616927" lon="10.7659454"><ele>118.83333333333333</ele><time>2026-05-02T10:01:05.566Z</time></trkpt><trkpt lat="44.5616741" lon="10.766032"><ele>117.66666666666666</ele><time>2026-05-02T10:01:07.579Z</time></trkpt><trkpt lat="44.561658" lon="10.7661561"><ele>116.5</ele><time>2026-05-02T10:01:10.597Z</time></trkpt><trkpt lat="44.5616409" lon="10.7662705"><ele>115.33333333333333</ele><time>2026-05-02T10:01:13.616Z</time></trkpt><trkpt lat="44.5616354" lon="10.7663625"><ele>114.16666666666666</ele><time>2026-05-02T10:01:16.563Z</time></trkpt><trkpt lat="44.561668" lon="10.7664531"><ele>113.0</ele><time>2026-05-02T10:01:20.564Z</time></trkpt><trkpt lat="44.5617391" lon="10.7665197"><ele>112.99999999999999</ele><time>2026-05-02T10:01:23.577Z</time></trkpt><trkpt lat="44.5618107" lon="10.7665867"><ele>113.0</ele><time>2026-05-02T10:01:26.595Z</time></trkpt><trkpt lat="44.5618774" lon="10.766647"><ele>113.0</ele><time>2026-05-02T10:01:29.555Z</time></trkpt><trkpt lat="44.5619193" lon="10.7667243"><ele>113.0</ele><time>2026-05-02T10:01:32.514Z</time></trkpt><trkpt lat="44.5618999" lon="10.7668157"><ele>112.99999999999999</ele><time>2026-05-02T10:01:35.511Z</time></trkpt><trkpt lat="44.5618598" lon="10.7668856"><ele>113.0</ele><time>2026-05-02T10:01:37.563Z</time></trkpt><trkpt lat="44.5617896" lon="10.7669815"><ele>110.83333333333333</ele><time>2026-05-02T10:01:40.572Z</time></trkpt><trkpt lat="44.5617037" lon="10.7670534"><ele>108.66666666666666</ele><time>2026-05-02T10:01:43.6Z</time></trkpt><trkpt lat="44.561641" lon="10.7670866"><ele>106.5</ele><time>2026-05-02T10:01:45.614Z</time></trkpt><trkpt lat="44.5615799" lon="10.7671154"><ele>104.33333333333334</ele><time>2026-05-02T10:01:47.625Z</time></trkpt><trkpt lat="44.5615136" lon="10.7671337"><ele>102.16666666666667</ele><time>2026-05-02T10:01:49.567Z</time></trkpt><trkpt lat="44.5614268" lon="10.767156"><ele>100.0</ele><time>2026-05-02T10:01:52.564Z</time></trkpt><trkpt lat="44.5613419" lon="10.7671699"><ele>100.00000000000001</ele><time>2026-05-02T10:01:55.573Z</time></trkpt><trkpt lat="44.5612644" lon="10.7671676"><ele>100.0</ele><time>2026-05-02T10:01:58.593Z</time></trkpt><trkpt lat="44.5611894" lon="10.7671691"><ele>100.0</ele><time>2026-05-02T10:02:01.61Z</time></trkpt><trkpt lat="44.5611062" lon="10.7671716"><ele>100.0</ele><time>2026-05-02T10:02:04.565Z</time></trkpt><trkpt lat="44.5610318" lon="10.7671984"><ele>100.0</ele><time>2026-05-02T10:02:07.629Z</time></trkpt><trkpt lat="44.5609732" lon="10.7672434"><ele>100.00000000000001</ele><time>2026-05-02T10:02:10.576Z</time></trkpt><trkpt lat="44.5609371" lon="10.7673178"><ele>100.0</ele><time>2026-05-02T10:02:13.583Z</time></trkpt><trkpt lat="44.5609081" lon="10.7674317"><ele>100.33333333333334</ele><time>2026-05-02T10:02:16.602Z</time></trkpt><trkpt lat="44.5608795" lon="10.7675434"><ele>100.66666666666667</ele><time>2026-05-02T10:02:19.565Z</time></trkpt><trkpt lat="44.560847" lon="10.7676541"><ele>101.0</ele><time>2026-05-02T10:02:22.563Z</time></trkpt><trkpt lat="44.5608161" lon="10.7677648"><ele>101.33333333333334</ele><time>2026-05-02T10:02:25.565Z</time></trkpt><trkpt lat="44.5607837" lon="10.7678724"><ele>101.66666666666667</ele><time>2026-05-02T10:02:28.577Z</time></trkpt><trkpt lat="44.5607553" lon="10.7679792"><ele>102.0</ele><time>2026-05-02T10:02:31.516Z</time></trkpt><trkpt lat="44.5607286" lon="10.768081"><ele>102.0</ele><time>2026-05-02T10:02:34.612Z</time></trkpt><trkpt lat="44.5607038" lon="10.7681791"><ele>102.0</ele><time>2026-05-02T10:02:37.566Z</time></trkpt><trkpt lat="44.5606838" lon="10.7682684"><ele>102.0</ele><time>2026-05-02T10:02:40.591Z</time></trkpt><trkpt lat="44.5606564" lon="10.768356"><ele>102.0</ele><time>2026-05-02T10:02:43.509Z</time></trkpt><trkpt lat="44.560633" lon="10.7684621"><ele>102.0</ele><time>2026-05-02T10:02:46.586Z</time></trkpt><trkpt lat="44.5606044" lon="10.7685728"><ele>102.0</ele><time>2026-05-02T10:02:49.604Z</time></trkpt><trkpt lat="44.5605718" lon="10.7686791"><ele>102.16666666666667</ele><time>2026-05-02T10:02:52.574Z</time></trkpt><trkpt lat="44.5605341" lon="10.768792"><ele>102.33333333333334</ele><time>2026-05-02T10:02:55.491Z</time></trkpt><trkpt lat="44.5604895" lon="10.7688906"><ele>102.5</ele><time>2026-05-02T10:02:58.565Z</time></trkpt><trkpt lat="44.5604326" lon="10.7689657"><ele>102.66666666666667</ele><time>2026-05-02T10:03:01.578Z</time></trkpt><trkpt lat="44.5603553" lon="10.7690432"><ele>102.83333333333334</ele><time>2026-05-02T10:03:04.608Z</time></trkpt><trkpt lat="44.5603028" lon="10.7691033"><ele>103.0</ele><time>2026-05-02T10:03:06.609Z</time></trkpt><trkpt lat="44.5602506" lon="10.7691595"><ele>103.28571428571428</ele><time>2026-05-02T10:03:08.572Z</time></trkpt><trkpt lat="44.5601975" lon="10.7692236"><ele>103.57142857142857</ele><time>2026-05-02T10:03:10.633Z</time></trkpt><trkpt lat="44.5601423" lon="10.769287"><ele>103.85714285714286</ele><time>2026-05-02T10:03:12.557Z</time></trkpt><trkpt lat="44.5600925" lon="10.7693747"><ele>104.14285714285714</ele><time>2026-05-02T10:03:16.511Z</time></trkpt><trkpt lat="44.5600698" lon="10.7694677"><ele>104.42857142857143</ele><time>2026-05-02T10:03:19.588Z</time></trkpt><trkpt lat="44.5600348" lon="10.7695673"><ele>104.71428571428571</ele><time>2026-05-02T10:03:22.63Z</time></trkpt><trkpt lat="44.5600076" lon="10.769649"><ele>105.0</ele><time>2026-05-02T10:03:25.557Z</time></trkpt><trkpt lat="44.559975" lon="10.7697637"><ele>105.0</ele><time>2026-05-02T10:03:28.563Z</time></trkpt><trkpt lat="44.5599518" lon="10.7698736"><ele>105.0</ele><time>2026-05-02T10:03:31.565Z</time></trkpt><trkpt lat="44.5599299" lon="10.7699802"><ele>105.0</ele><time>2026-05-02T10:03:34.636Z</time></trkpt><trkpt lat="44.5599123" lon="10.7700807"><ele>105.0</ele><time>2026-05-02T10:03:37.55Z</time></trkpt><trkpt lat="44.5598892" lon="10.7701845"><ele>105.0</ele><time>2026-05-02T10:03:40.564Z</time></trkpt><trkpt lat="44.5598656" lon="10.7702827"><ele>105.0</ele><time>2026-05-02T10:03:43.477Z</time></trkpt><trkpt lat="44.5598351" lon="10.7703841"><ele>104.5</ele><time>2026-05-02T10:03:46.564Z</time></trkpt><trkpt lat="44.5598298" lon="10.770494"><ele>104.0</ele><time>2026-05-02T10:03:49.555Z</time></trkpt><trkpt lat="44.5598584" lon="10.7705916"><ele>103.5</ele><time>2026-05-02T10:03:52.592Z</time></trkpt><trkpt lat="44.5599093" lon="10.7706833"><ele>103.0</ele><time>2026-05-02T10:03:55.611Z</time></trkpt><trkpt lat="44.5599775" lon="10.7707545"><ele>102.5</ele><time>2026-05-02T10:03:58.59Z</time></trkpt><trkpt lat="44.5600476" lon="10.7708006"><ele>102.0</ele><time>2026-05-02T10:04:01.508Z</time></trkpt><trkpt lat="44.5601143" lon="10.770849"><ele>102.0</ele><time>2026-05-02T10:04:04.565Z</time></trkpt><trkpt lat="44.5601798" lon="10.7708972"><ele>102.0</ele><time>2026-05-02T10:04:07.584Z</time></trkpt><trkpt lat="44.5602418" lon="10.7709299"><ele>102.0</ele><time>2026-05-02T10:04:10.602Z</time></trkpt><trkpt lat="44.5603061" lon="10.7709548"><ele>102.0</ele><time>2026-05-02T10:04:13.562Z</time></trkpt><trkpt lat="44.560378" lon="10.7709759"><ele>102.0</ele><time>2026-05-02T10:04:16.611Z</time></trkpt><trkpt lat="44.5604457" lon="10.7709944"><ele>102.0</ele><time>2026-05-02T10:04:19.529Z</time></trkpt><trkpt lat="44.5605153" lon="10.7710143"><ele>102.0</ele><time>2026-05-02T10:04:22.576Z</time></trkpt><trkpt lat="44.5605907" lon="10.7710433"><ele>101.28571428571429</ele><time>2026-05-02T10:04:25.594Z</time></trkpt><trkpt lat="44.5606571" lon="10.7711149"><ele>100.57142857142858</ele><time>2026-05-02T10:04:28.562Z</time></trkpt><trkpt lat="44.5606804" lon="10.7712308"><ele>99.85714285714286</ele><time>2026-05-02T10:04:31.613Z</time></trkpt><trkpt lat="44.5606903" lon="10.7713187"><ele>99.14285714285714</ele><time>2026-05-02T10:04:33.563Z</time></trkpt><trkpt lat="44.5606909" lon="10.7714082"><ele>98.42857142857143</ele><time>2026-05-02T10:04:35.562Z</time></trkpt><trkpt lat="44.5606936" lon="10.7714972"><ele>97.71428571428571</ele><time>2026-05-02T10:04:37.51Z</time></trkpt><trkpt lat="44.5606987" lon="10.7715877"><ele>97.0</ele><time>2026-05-02T10:04:39.572Z</time></trkpt><trkpt lat="44.5607102" lon="10.7716801"><ele>97.0</ele><time>2026-05-02T10:04:41.615Z</time></trkpt><trkpt lat="44.5607215" lon="10.7717734"><ele>97.0</ele><time>2026-05-02T10:04:43.605Z</time></trkpt><trkpt lat="44.5607018" lon="10.7718657"><ele>97.0</ele><time>2026-05-02T10:04:45.618Z</time></trkpt><trkpt lat="44.5606858" lon="10.7719794"><ele>97.0</ele><time>2026-05-02T10:04:48.548Z</time></trkpt><trkpt lat="44.560698" lon="10.7720735"><ele>97.0</ele><time>2026-05-02T10:04:52.564Z</time></trkpt><trkpt lat="44.56078" lon="10.7720814"><ele>97.0</ele><time>2026-05-02T10:05:03.567Z</time></trkpt><trkpt lat="44.5608366" lon="10.7721562"><ele>97.0</ele><time>2026-05-02T10:05:06.469Z</time></trkpt><trkpt lat="44.5608812" lon="10.7722216"><ele>96.83333333333334</ele><time>2026-05-02T10:05:08.571Z</time></trkpt><trkpt lat="44.5609287" lon="10.7722811"><ele>96.66666666666667</ele><time>2026-05-02T10:05:10.571Z</time></trkpt><trkpt lat="44.5610082" lon="10.772361"><ele>96.5</ele><time>2026-05-02T10:05:13.491Z</time></trkpt><trkpt lat="44.5610838" lon="10.7723976"><ele>96.33333333333334</ele><time>2026-05-02T10:05:16.608Z</time></trkpt><trkpt lat="44.5611607" lon="10.7724435"><ele>96.16666666666667</ele><time>2026-05-02T10:05:19.611Z</time></trkpt><trkpt lat="44.5612352" lon="10.7724753"><ele>96.0</ele><time>2026-05-02T10:05:22.517Z</time></trkpt><trkpt lat="44.5613093" lon="10.7725117"><ele>95.99999999999999</ele><time>2026-05-02T10:05:25.565Z</time></trkpt><trkpt lat="44.5613803" lon="10.772554"><ele>96.0</ele><time>2026-05-02T10:05:28.583Z</time></trkpt><trkpt lat="44.5614067" lon="10.7726394"><ele>96.0</ele><time>2026-05-02T10:05:31.6Z</time></trkpt><trkpt lat="44.5614293" lon="10.7727254"><ele>96.0</ele><time>2026-05-02T10:05:34.563Z</time></trkpt><trkpt lat="44.5614523" lon="10.7728109"><ele>96.0</ele><time>2026-05-02T10:05:37.529Z</time></trkpt><trkpt lat="44.5614767" lon="10.7728961"><ele>95.99999999999999</ele><time>2026-05-02T10:05:40.563Z</time></trkpt><trkpt lat="44.5614975" lon="10.7729947"><ele>96.0</ele><time>2026-05-02T10:05:43.596Z</time></trkpt><trkpt lat="44.5615129" lon="10.7731022"><ele>95.28571428571428</ele><time>2026-05-02T10:05:47.61Z</time></trkpt><trkpt lat="44.5615602" lon="10.773189"><ele>94.57142857142857</ele><time>2026-05-02T10:05:51.565Z</time></trkpt><trkpt lat="44.5616047" lon="10.7732874"><ele>93.85714285714286</ele><time>2026-05-02T10:05:55.589Z</time></trkpt><trkpt lat="44.5616706" lon="10.7733362"><ele>93.14285714285714</ele><time>2026-05-02T10:05:59.572Z</time></trkpt><trkpt lat="44.56175" lon="10.7733518"><ele>92.42857142857143</ele><time>2026-05-02T10:06:03.509Z</time></trkpt><trkpt lat="44.5618102" lon="10.7733849"><ele>91.71428571428571</ele><time>2026-05-02T10:06:06.609Z</time></trkpt><trkpt lat="44.5618703" lon="10.773425"><ele>91.0</ele><time>2026-05-02T10:06:09.564Z</time></trkpt><trkpt lat="44.5619043" lon="10.7735089"><ele>91.0</ele><time>2026-05-02T10:06:13.563Z</time></trkpt><trkpt lat="44.5618574" lon="10.7735917"><ele>93.0</ele><time>2026-05-02T10:06:18.589Z</time></trkpt><trkpt lat="44.5618004" lon="10.7736415"><ele>93.0</ele><time>2026-05-02T10:06:22.614Z</time></trkpt></trkseg></trk></gpx>